<?xml version="1.0" encoding="UTF-8" standalone="no" ?>
<gpx xmlns="http://www.topografix.com/GPX/1/1" xmlns:xsi="http://www.w3.org/2001/XMLSchema-instance" xsi:schemaLocation="http://www.topografix.com/GPX/1/1 http://www.topografix.com/GPX/1/1/gpx.xsd" version="1.1" creator="VisuGPX - https://www.visugpx.com">
  <metadata>
    <name>De St Jean de Fos au Roc des Vignes</name>
    <desc><![CDATA[Superbe virée VTT physique (gros dénivelé) et technique (superbe descente) qu\'on peut encore améliorer en montant au Pic Baudile (on y reviendra en améliorant le parcours) ! De très beau point de vue de toutes parts ! A ne pas faire en plein été (grosse chaleur et aucun point d\'eau !)]]></desc>
  </metadata>
  <trk>
    <name><![CDATA[2013-05-25-01]]></name>
    <trkseg>
      <trkpt lat="43.70142" lon="3.54894">
        <ele>113.900002</ele>
        <time>2013-05-25T06:11:02Z</time>
      </trkpt>
      <trkpt lat="43.70142" lon="3.54894">
        <ele>113.975006</ele>
        <time>2013-05-25T06:11:03Z</time>
      </trkpt>
      <trkpt lat="43.70148" lon="3.54885">
        <ele>115.5</ele>
        <time>2013-05-25T06:12:24Z</time>
      </trkpt>
      <trkpt lat="43.70152" lon="3.54869">
        <ele>114.599998</ele>
        <time>2013-05-25T06:12:29Z</time>
      </trkpt>
      <trkpt lat="43.70154" lon="3.54859">
        <ele>114.199997</ele>
        <time>2013-05-25T06:12:32Z</time>
      </trkpt>
      <trkpt lat="43.70156" lon="3.54849">
        <ele>113.900002</ele>
        <time>2013-05-25T06:12:35Z</time>
      </trkpt>
      <trkpt lat="43.70158" lon="3.54839">
        <ele>113.699997</ele>
        <time>2013-05-25T06:12:38Z</time>
      </trkpt>
      <trkpt lat="43.7016" lon="3.54829">
        <ele>113.400002</ele>
        <time>2013-05-25T06:12:41Z</time>
      </trkpt>
      <trkpt lat="43.70162" lon="3.5482">
        <ele>113.099998</ele>
        <time>2013-05-25T06:12:44Z</time>
      </trkpt>
      <trkpt lat="43.70164" lon="3.54807">
        <ele>112.699997</ele>
        <time>2013-05-25T06:12:48Z</time>
      </trkpt>
      <trkpt lat="43.70166" lon="3.54798">
        <ele>112.800003</ele>
        <time>2013-05-25T06:12:51Z</time>
      </trkpt>
      <trkpt lat="43.70167" lon="3.54788">
        <ele>112.900002</ele>
        <time>2013-05-25T06:12:54Z</time>
      </trkpt>
      <trkpt lat="43.70168" lon="3.54777">
        <ele>113.199997</ele>
        <time>2013-05-25T06:12:57Z</time>
      </trkpt>
      <trkpt lat="43.70168" lon="3.54767">
        <ele>113.5</ele>
        <time>2013-05-25T06:13:00Z</time>
      </trkpt>
      <trkpt lat="43.70168" lon="3.54758">
        <ele>113.900002</ele>
        <time>2013-05-25T06:13:03Z</time>
      </trkpt>
      <trkpt lat="43.70168" lon="3.54748">
        <ele>114.199997</ele>
        <time>2013-05-25T06:13:06Z</time>
      </trkpt>
      <trkpt lat="43.70167" lon="3.54736">
        <ele>114.5</ele>
        <time>2013-05-25T06:13:10Z</time>
      </trkpt>
      <trkpt lat="43.70167" lon="3.54725">
        <ele>114.699997</ele>
        <time>2013-05-25T06:13:14Z</time>
      </trkpt>
      <trkpt lat="43.70166" lon="3.54714">
        <ele>115</ele>
        <time>2013-05-25T06:13:18Z</time>
      </trkpt>
      <trkpt lat="43.70166" lon="3.54702">
        <ele>115.400002</ele>
        <time>2013-05-25T06:13:22Z</time>
      </trkpt>
      <trkpt lat="43.70166" lon="3.5469">
        <ele>115.800003</ele>
        <time>2013-05-25T06:13:26Z</time>
      </trkpt>
      <trkpt lat="43.70166" lon="3.54687">
        <ele>115.900002</ele>
        <time>2013-05-25T06:13:27Z</time>
      </trkpt>
      <trkpt lat="43.70165" lon="3.54671">
        <ele>116.5</ele>
        <time>2013-05-25T06:13:32Z</time>
      </trkpt>
      <trkpt lat="43.70164" lon="3.54659">
        <ele>117</ele>
        <time>2013-05-25T06:13:36Z</time>
      </trkpt>
      <trkpt lat="43.70163" lon="3.54647">
        <ele>117.400002</ele>
        <time>2013-05-25T06:13:40Z</time>
      </trkpt>
      <trkpt lat="43.70162" lon="3.54635">
        <ele>117.800003</ele>
        <time>2013-05-25T06:13:44Z</time>
      </trkpt>
      <trkpt lat="43.7016" lon="3.54624">
        <ele>118.199997</ele>
        <time>2013-05-25T06:13:48Z</time>
      </trkpt>
      <trkpt lat="43.70159" lon="3.54612">
        <ele>118.800003</ele>
        <time>2013-05-25T06:13:52Z</time>
      </trkpt>
      <trkpt lat="43.70157" lon="3.54601">
        <ele>119.300003</ele>
        <time>2013-05-25T06:13:56Z</time>
      </trkpt>
      <trkpt lat="43.70155" lon="3.5459">
        <ele>119.699997</ele>
        <time>2013-05-25T06:14:00Z</time>
      </trkpt>
      <trkpt lat="43.70153" lon="3.54578">
        <ele>120</ele>
        <time>2013-05-25T06:14:04Z</time>
      </trkpt>
      <trkpt lat="43.70152" lon="3.54567">
        <ele>120.199997</ele>
        <time>2013-05-25T06:14:08Z</time>
      </trkpt>
      <trkpt lat="43.70151" lon="3.54555">
        <ele>120.5</ele>
        <time>2013-05-25T06:14:12Z</time>
      </trkpt>
      <trkpt lat="43.70151" lon="3.54543">
        <ele>120.900002</ele>
        <time>2013-05-25T06:14:16Z</time>
      </trkpt>
      <trkpt lat="43.70151" lon="3.54532">
        <ele>121.199997</ele>
        <time>2013-05-25T06:14:20Z</time>
      </trkpt>
      <trkpt lat="43.70152" lon="3.54521">
        <ele>121.400002</ele>
        <time>2013-05-25T06:14:24Z</time>
      </trkpt>
      <trkpt lat="43.70155" lon="3.5451">
        <ele>121.599998</ele>
        <time>2013-05-25T06:14:28Z</time>
      </trkpt>
      <trkpt lat="43.70155" lon="3.54507">
        <ele>121.599998</ele>
        <time>2013-05-25T06:14:29Z</time>
      </trkpt>
      <trkpt lat="43.70162" lon="3.54488">
        <ele>121.699997</ele>
        <time>2013-05-25T06:14:36Z</time>
      </trkpt>
      <trkpt lat="43.70165" lon="3.54477">
        <ele>122</ele>
        <time>2013-05-25T06:14:40Z</time>
      </trkpt>
      <trkpt lat="43.70168" lon="3.54467">
        <ele>122.699997</ele>
        <time>2013-05-25T06:14:44Z</time>
      </trkpt>
      <trkpt lat="43.70169" lon="3.54455">
        <ele>122.900002</ele>
        <time>2013-05-25T06:14:48Z</time>
      </trkpt>
      <trkpt lat="43.7017" lon="3.54444">
        <ele>123.5</ele>
        <time>2013-05-25T06:14:52Z</time>
      </trkpt>
      <trkpt lat="43.70171" lon="3.54432">
        <ele>124.199997</ele>
        <time>2013-05-25T06:14:56Z</time>
      </trkpt>
      <trkpt lat="43.70171" lon="3.5442">
        <ele>125.099998</ele>
        <time>2013-05-25T06:15:00Z</time>
      </trkpt>
      <trkpt lat="43.70171" lon="3.54408">
        <ele>126.300003</ele>
        <time>2013-05-25T06:15:04Z</time>
      </trkpt>
      <trkpt lat="43.7017" lon="3.54396">
        <ele>127.599998</ele>
        <time>2013-05-25T06:15:08Z</time>
      </trkpt>
      <trkpt lat="43.70168" lon="3.54385">
        <ele>128.699997</ele>
        <time>2013-05-25T06:15:12Z</time>
      </trkpt>
      <trkpt lat="43.70166" lon="3.54375">
        <ele>129.300003</ele>
        <time>2013-05-25T06:15:15Z</time>
      </trkpt>
      <trkpt lat="43.70164" lon="3.54366">
        <ele>129.800003</ele>
        <time>2013-05-25T06:15:18Z</time>
      </trkpt>
      <trkpt lat="43.70162" lon="3.54357">
        <ele>130.300003</ele>
        <time>2013-05-25T06:15:21Z</time>
      </trkpt>
      <trkpt lat="43.7016" lon="3.54348">
        <ele>130.800003</ele>
        <time>2013-05-25T06:15:24Z</time>
      </trkpt>
      <trkpt lat="43.70159" lon="3.54338">
        <ele>131.300003</ele>
        <time>2013-05-25T06:15:27Z</time>
      </trkpt>
      <trkpt lat="43.70158" lon="3.54328">
        <ele>131.800003</ele>
        <time>2013-05-25T06:15:30Z</time>
      </trkpt>
      <trkpt lat="43.70158" lon="3.54324">
        <ele>131.899994</ele>
        <time>2013-05-25T06:15:31Z</time>
      </trkpt>
      <trkpt lat="43.70159" lon="3.54308">
        <ele>132.899994</ele>
        <time>2013-05-25T06:15:36Z</time>
      </trkpt>
      <trkpt lat="43.7016" lon="3.54299">
        <ele>133.5</ele>
        <time>2013-05-25T06:15:39Z</time>
      </trkpt>
      <trkpt lat="43.70161" lon="3.54289">
        <ele>133.899994</ele>
        <time>2013-05-25T06:15:42Z</time>
      </trkpt>
      <trkpt lat="43.7016" lon="3.54279">
        <ele>133.899994</ele>
        <time>2013-05-25T06:15:45Z</time>
      </trkpt>
      <trkpt lat="43.7016" lon="3.5427">
        <ele>133.899994</ele>
        <time>2013-05-25T06:15:48Z</time>
      </trkpt>
      <trkpt lat="43.7016" lon="3.5426">
        <ele>134.199997</ele>
        <time>2013-05-25T06:15:51Z</time>
      </trkpt>
      <trkpt lat="43.70159" lon="3.5425">
        <ele>134.600006</ele>
        <time>2013-05-25T06:15:54Z</time>
      </trkpt>
      <trkpt lat="43.7016" lon="3.54239">
        <ele>134.800003</ele>
        <time>2013-05-25T06:15:57Z</time>
      </trkpt>
      <trkpt lat="43.70159" lon="3.54228">
        <ele>135</ele>
        <time>2013-05-25T06:16:00Z</time>
      </trkpt>
      <trkpt lat="43.70159" lon="3.54216">
        <ele>135.199997</ele>
        <time>2013-05-25T06:16:03Z</time>
      </trkpt>
      <trkpt lat="43.70159" lon="3.54204">
        <ele>135.300003</ele>
        <time>2013-05-25T06:16:06Z</time>
      </trkpt>
      <trkpt lat="43.70158" lon="3.54193">
        <ele>135.600006</ele>
        <time>2013-05-25T06:16:09Z</time>
      </trkpt>
      <trkpt lat="43.70158" lon="3.54183">
        <ele>136</ele>
        <time>2013-05-25T06:16:12Z</time>
      </trkpt>
      <trkpt lat="43.70159" lon="3.54171">
        <ele>136.800003</ele>
        <time>2013-05-25T06:16:16Z</time>
      </trkpt>
      <trkpt lat="43.70167" lon="3.54168">
        <ele>137.800003</ele>
        <time>2013-05-25T06:16:20Z</time>
      </trkpt>
      <trkpt lat="43.70175" lon="3.54169">
        <ele>138.5</ele>
        <time>2013-05-25T06:16:24Z</time>
      </trkpt>
      <trkpt lat="43.70184" lon="3.54169">
        <ele>139.199997</ele>
        <time>2013-05-25T06:16:28Z</time>
      </trkpt>
      <trkpt lat="43.70192" lon="3.54168">
        <ele>140</ele>
        <time>2013-05-25T06:16:32Z</time>
      </trkpt>
      <trkpt lat="43.70194" lon="3.54167">
        <ele>140.300003</ele>
        <time>2013-05-25T06:16:33Z</time>
      </trkpt>
      <trkpt lat="43.70208" lon="3.54164">
        <ele>142.100006</ele>
        <time>2013-05-25T06:16:40Z</time>
      </trkpt>
      <trkpt lat="43.70216" lon="3.54161">
        <ele>143</ele>
        <time>2013-05-25T06:16:44Z</time>
      </trkpt>
      <trkpt lat="43.70224" lon="3.54157">
        <ele>143.899994</ele>
        <time>2013-05-25T06:16:48Z</time>
      </trkpt>
      <trkpt lat="43.70231" lon="3.54149">
        <ele>144.699997</ele>
        <time>2013-05-25T06:16:52Z</time>
      </trkpt>
      <trkpt lat="43.70237" lon="3.54141">
        <ele>145.300003</ele>
        <time>2013-05-25T06:16:56Z</time>
      </trkpt>
      <trkpt lat="43.70243" lon="3.54132">
        <ele>146</ele>
        <time>2013-05-25T06:17:00Z</time>
      </trkpt>
      <trkpt lat="43.70249" lon="3.54123">
        <ele>146.600006</ele>
        <time>2013-05-25T06:17:04Z</time>
      </trkpt>
      <trkpt lat="43.70255" lon="3.54114">
        <ele>147.100006</ele>
        <time>2013-05-25T06:17:08Z</time>
      </trkpt>
      <trkpt lat="43.7026" lon="3.54107">
        <ele>147.199997</ele>
        <time>2013-05-25T06:17:11Z</time>
      </trkpt>
      <trkpt lat="43.70265" lon="3.541">
        <ele>147.300003</ele>
        <time>2013-05-25T06:17:14Z</time>
      </trkpt>
      <trkpt lat="43.7027" lon="3.5409">
        <ele>147.199997</ele>
        <time>2013-05-25T06:17:18Z</time>
      </trkpt>
      <trkpt lat="43.70273" lon="3.54082">
        <ele>146.899994</ele>
        <time>2013-05-25T06:17:21Z</time>
      </trkpt>
      <trkpt lat="43.70276" lon="3.54073">
        <ele>146.899994</ele>
        <time>2013-05-25T06:17:24Z</time>
      </trkpt>
      <trkpt lat="43.70279" lon="3.54063">
        <ele>147</ele>
        <time>2013-05-25T06:17:27Z</time>
      </trkpt>
      <trkpt lat="43.70282" lon="3.54054">
        <ele>147.100006</ele>
        <time>2013-05-25T06:17:30Z</time>
      </trkpt>
      <trkpt lat="43.70286" lon="3.54045">
        <ele>147.300003</ele>
        <time>2013-05-25T06:17:33Z</time>
      </trkpt>
      <trkpt lat="43.70288" lon="3.54042">
        <ele>147.300003</ele>
        <time>2013-05-25T06:17:34Z</time>
      </trkpt>
      <trkpt lat="43.70294" lon="3.54027">
        <ele>148</ele>
        <time>2013-05-25T06:17:39Z</time>
      </trkpt>
      <trkpt lat="43.70299" lon="3.54018">
        <ele>148.399994</ele>
        <time>2013-05-25T06:17:42Z</time>
      </trkpt>
      <trkpt lat="43.70303" lon="3.5401">
        <ele>148.800003</ele>
        <time>2013-05-25T06:17:45Z</time>
      </trkpt>
      <trkpt lat="43.70305" lon="3.54001">
        <ele>149.100006</ele>
        <time>2013-05-25T06:17:48Z</time>
      </trkpt>
      <trkpt lat="43.70306" lon="3.53991">
        <ele>149.399994</ele>
        <time>2013-05-25T06:17:51Z</time>
      </trkpt>
      <trkpt lat="43.70306" lon="3.53981">
        <ele>149.899994</ele>
        <time>2013-05-25T06:17:54Z</time>
      </trkpt>
      <trkpt lat="43.70307" lon="3.53972">
        <ele>150.5</ele>
        <time>2013-05-25T06:17:57Z</time>
      </trkpt>
      <trkpt lat="43.70307" lon="3.53962">
        <ele>151</ele>
        <time>2013-05-25T06:18:00Z</time>
      </trkpt>
      <trkpt lat="43.70307" lon="3.5395">
        <ele>151.600006</ele>
        <time>2013-05-25T06:18:04Z</time>
      </trkpt>
      <trkpt lat="43.70307" lon="3.53938">
        <ele>152.100006</ele>
        <time>2013-05-25T06:18:08Z</time>
      </trkpt>
      <trkpt lat="43.70308" lon="3.53929">
        <ele>152.399994</ele>
        <time>2013-05-25T06:18:11Z</time>
      </trkpt>
      <trkpt lat="43.70308" lon="3.53919">
        <ele>152.699997</ele>
        <time>2013-05-25T06:18:14Z</time>
      </trkpt>
      <trkpt lat="43.70309" lon="3.5391">
        <ele>153</ele>
        <time>2013-05-25T06:18:17Z</time>
      </trkpt>
      <trkpt lat="43.70309" lon="3.539">
        <ele>153.199997</ele>
        <time>2013-05-25T06:18:20Z</time>
      </trkpt>
      <trkpt lat="43.70311" lon="3.53891">
        <ele>153.899994</ele>
        <time>2013-05-25T06:18:23Z</time>
      </trkpt>
      <trkpt lat="43.70312" lon="3.53881">
        <ele>155.300003</ele>
        <time>2013-05-25T06:18:26Z</time>
      </trkpt>
      <trkpt lat="43.70314" lon="3.53872">
        <ele>155.800003</ele>
        <time>2013-05-25T06:18:29Z</time>
      </trkpt>
      <trkpt lat="43.70317" lon="3.53861">
        <ele>156.100006</ele>
        <time>2013-05-25T06:18:33Z</time>
      </trkpt>
      <trkpt lat="43.70322" lon="3.53851">
        <ele>157.699997</ele>
        <time>2013-05-25T06:18:37Z</time>
      </trkpt>
      <trkpt lat="43.70324" lon="3.53849">
        <ele>157.899994</ele>
        <time>2013-05-25T06:18:38Z</time>
      </trkpt>
      <trkpt lat="43.70333" lon="3.53831">
        <ele>158.300003</ele>
        <time>2013-05-25T06:18:45Z</time>
      </trkpt>
      <trkpt lat="43.70336" lon="3.53821">
        <ele>159.199997</ele>
        <time>2013-05-25T06:18:49Z</time>
      </trkpt>
      <trkpt lat="43.70336" lon="3.53809">
        <ele>160.199997</ele>
        <time>2013-05-25T06:18:53Z</time>
      </trkpt>
      <trkpt lat="43.70332" lon="3.53798">
        <ele>161.5</ele>
        <time>2013-05-25T06:18:57Z</time>
      </trkpt>
      <trkpt lat="43.70326" lon="3.53789">
        <ele>163.399994</ele>
        <time>2013-05-25T06:19:01Z</time>
      </trkpt>
      <trkpt lat="43.70321" lon="3.53783">
        <ele>163.800003</ele>
        <time>2013-05-25T06:19:04Z</time>
      </trkpt>
      <trkpt lat="43.70316" lon="3.53777">
        <ele>163.199997</ele>
        <time>2013-05-25T06:19:07Z</time>
      </trkpt>
      <trkpt lat="43.70311" lon="3.5377">
        <ele>163.399994</ele>
        <time>2013-05-25T06:19:10Z</time>
      </trkpt>
      <trkpt lat="43.70306" lon="3.53763">
        <ele>163.300003</ele>
        <time>2013-05-25T06:19:13Z</time>
      </trkpt>
      <trkpt lat="43.70301" lon="3.53755">
        <ele>163.600006</ele>
        <time>2013-05-25T06:19:16Z</time>
      </trkpt>
      <trkpt lat="43.70297" lon="3.53747">
        <ele>163.899994</ele>
        <time>2013-05-25T06:19:19Z</time>
      </trkpt>
      <trkpt lat="43.70293" lon="3.53738">
        <ele>163.800003</ele>
        <time>2013-05-25T06:19:22Z</time>
      </trkpt>
      <trkpt lat="43.7029" lon="3.53729">
        <ele>163.600006</ele>
        <time>2013-05-25T06:19:25Z</time>
      </trkpt>
      <trkpt lat="43.70288" lon="3.53719">
        <ele>164.199997</ele>
        <time>2013-05-25T06:19:28Z</time>
      </trkpt>
      <trkpt lat="43.70286" lon="3.5371">
        <ele>164.699997</ele>
        <time>2013-05-25T06:19:31Z</time>
      </trkpt>
      <trkpt lat="43.70284" lon="3.53699">
        <ele>164.899994</ele>
        <time>2013-05-25T06:19:34Z</time>
      </trkpt>
      <trkpt lat="43.70283" lon="3.53689">
        <ele>164.600006</ele>
        <time>2013-05-25T06:19:37Z</time>
      </trkpt>
      <trkpt lat="43.70281" lon="3.53677">
        <ele>166.699997</ele>
        <time>2013-05-25T06:19:41Z</time>
      </trkpt>
      <trkpt lat="43.70281" lon="3.53674">
        <ele>167.199997</ele>
        <time>2013-05-25T06:19:42Z</time>
      </trkpt>
      <trkpt lat="43.70278" lon="3.53653">
        <ele>167.100006</ele>
        <time>2013-05-25T06:19:49Z</time>
      </trkpt>
      <trkpt lat="43.70277" lon="3.53641">
        <ele>168</ele>
        <time>2013-05-25T06:19:53Z</time>
      </trkpt>
      <trkpt lat="43.70276" lon="3.53629">
        <ele>168.100006</ele>
        <time>2013-05-25T06:19:57Z</time>
      </trkpt>
      <trkpt lat="43.70275" lon="3.53617">
        <ele>168.600006</ele>
        <time>2013-05-25T06:20:01Z</time>
      </trkpt>
      <trkpt lat="43.70274" lon="3.53605">
        <ele>169.300003</ele>
        <time>2013-05-25T06:20:05Z</time>
      </trkpt>
      <trkpt lat="43.70272" lon="3.53593">
        <ele>170.300003</ele>
        <time>2013-05-25T06:20:09Z</time>
      </trkpt>
      <trkpt lat="43.7027" lon="3.53581">
        <ele>171.199997</ele>
        <time>2013-05-25T06:20:13Z</time>
      </trkpt>
      <trkpt lat="43.70268" lon="3.5357">
        <ele>171.800003</ele>
        <time>2013-05-25T06:20:17Z</time>
      </trkpt>
      <trkpt lat="43.70266" lon="3.53558">
        <ele>172.899994</ele>
        <time>2013-05-25T06:20:21Z</time>
      </trkpt>
      <trkpt lat="43.70264" lon="3.53546">
        <ele>173.899994</ele>
        <time>2013-05-25T06:20:25Z</time>
      </trkpt>
      <trkpt lat="43.70261" lon="3.53535">
        <ele>173.800003</ele>
        <time>2013-05-25T06:20:29Z</time>
      </trkpt>
      <trkpt lat="43.70258" lon="3.53523">
        <ele>174.300003</ele>
        <time>2013-05-25T06:20:33Z</time>
      </trkpt>
      <trkpt lat="43.70255" lon="3.53512">
        <ele>174.600006</ele>
        <time>2013-05-25T06:20:37Z</time>
      </trkpt>
      <trkpt lat="43.70252" lon="3.535">
        <ele>174.699997</ele>
        <time>2013-05-25T06:20:41Z</time>
      </trkpt>
      <trkpt lat="43.7025" lon="3.53489">
        <ele>175.5</ele>
        <time>2013-05-25T06:20:45Z</time>
      </trkpt>
      <trkpt lat="43.7025" lon="3.53486">
        <ele>175.699997</ele>
        <time>2013-05-25T06:20:46Z</time>
      </trkpt>
      <trkpt lat="43.70247" lon="3.53465">
        <ele>178.199997</ele>
        <time>2013-05-25T06:20:53Z</time>
      </trkpt>
      <trkpt lat="43.70246" lon="3.53456">
        <ele>177.699997</ele>
        <time>2013-05-25T06:20:56Z</time>
      </trkpt>
      <trkpt lat="43.70248" lon="3.53444">
        <ele>178.600006</ele>
        <time>2013-05-25T06:21:00Z</time>
      </trkpt>
      <trkpt lat="43.70251" lon="3.53435">
        <ele>179.100006</ele>
        <time>2013-05-25T06:21:03Z</time>
      </trkpt>
      <trkpt lat="43.70257" lon="3.5343">
        <ele>178</ele>
        <time>2013-05-25T06:21:07Z</time>
      </trkpt>
      <trkpt lat="43.7026" lon="3.53439">
        <ele>179.100006</ele>
        <time>2013-05-25T06:21:10Z</time>
      </trkpt>
      <trkpt lat="43.70257" lon="3.53449">
        <ele>180.5</ele>
        <time>2013-05-25T06:21:13Z</time>
      </trkpt>
      <trkpt lat="43.70257" lon="3.5346">
        <ele>181.100006</ele>
        <time>2013-05-25T06:21:16Z</time>
      </trkpt>
      <trkpt lat="43.70259" lon="3.5347">
        <ele>180.699997</ele>
        <time>2013-05-25T06:21:19Z</time>
      </trkpt>
      <trkpt lat="43.70262" lon="3.5348">
        <ele>181.100006</ele>
        <time>2013-05-25T06:21:22Z</time>
      </trkpt>
      <trkpt lat="43.70266" lon="3.53488">
        <ele>181.899994</ele>
        <time>2013-05-25T06:21:25Z</time>
      </trkpt>
      <trkpt lat="43.7027" lon="3.53497">
        <ele>181.699997</ele>
        <time>2013-05-25T06:21:28Z</time>
      </trkpt>
      <trkpt lat="43.70274" lon="3.53505">
        <ele>181</ele>
        <time>2013-05-25T06:21:31Z</time>
      </trkpt>
      <trkpt lat="43.70279" lon="3.53513">
        <ele>182</ele>
        <time>2013-05-25T06:21:34Z</time>
      </trkpt>
      <trkpt lat="43.70283" lon="3.53521">
        <ele>182.300003</ele>
        <time>2013-05-25T06:21:37Z</time>
      </trkpt>
      <trkpt lat="43.70286" lon="3.53529">
        <ele>182</ele>
        <time>2013-05-25T06:21:40Z</time>
      </trkpt>
      <trkpt lat="43.7029" lon="3.53536">
        <ele>182.800003</ele>
        <time>2013-05-25T06:21:43Z</time>
      </trkpt>
      <trkpt lat="43.70294" lon="3.53545">
        <ele>183.5</ele>
        <time>2013-05-25T06:21:46Z</time>
      </trkpt>
      <trkpt lat="43.70295" lon="3.53547">
        <ele>183.699997</ele>
        <time>2013-05-25T06:21:47Z</time>
      </trkpt>
      <trkpt lat="43.703" lon="3.53564">
        <ele>184.600006</ele>
        <time>2013-05-25T06:21:53Z</time>
      </trkpt>
      <trkpt lat="43.70302" lon="3.53573">
        <ele>184.899994</ele>
        <time>2013-05-25T06:21:56Z</time>
      </trkpt>
      <trkpt lat="43.70304" lon="3.53582">
        <ele>184.699997</ele>
        <time>2013-05-25T06:21:59Z</time>
      </trkpt>
      <trkpt lat="43.70306" lon="3.53591">
        <ele>184.899994</ele>
        <time>2013-05-25T06:22:02Z</time>
      </trkpt>
      <trkpt lat="43.70309" lon="3.53603">
        <ele>185.5</ele>
        <time>2013-05-25T06:22:06Z</time>
      </trkpt>
      <trkpt lat="43.70311" lon="3.53612">
        <ele>186.199997</ele>
        <time>2013-05-25T06:22:09Z</time>
      </trkpt>
      <trkpt lat="43.70314" lon="3.53624">
        <ele>186.399994</ele>
        <time>2013-05-25T06:22:13Z</time>
      </trkpt>
      <trkpt lat="43.70318" lon="3.53635">
        <ele>186.800003</ele>
        <time>2013-05-25T06:22:17Z</time>
      </trkpt>
      <trkpt lat="43.70321" lon="3.53644">
        <ele>187.5</ele>
        <time>2013-05-25T06:22:20Z</time>
      </trkpt>
      <trkpt lat="43.70325" lon="3.53655">
        <ele>188.199997</ele>
        <time>2013-05-25T06:22:24Z</time>
      </trkpt>
      <trkpt lat="43.7033" lon="3.53664">
        <ele>187.800003</ele>
        <time>2013-05-25T06:22:28Z</time>
      </trkpt>
      <trkpt lat="43.70337" lon="3.53673">
        <ele>188.399994</ele>
        <time>2013-05-25T06:22:32Z</time>
      </trkpt>
      <trkpt lat="43.70343" lon="3.53681">
        <ele>190.5</ele>
        <time>2013-05-25T06:22:36Z</time>
      </trkpt>
      <trkpt lat="43.7035" lon="3.53688">
        <ele>191.100006</ele>
        <time>2013-05-25T06:22:40Z</time>
      </trkpt>
      <trkpt lat="43.70358" lon="3.53694">
        <ele>190.199997</ele>
        <time>2013-05-25T06:22:44Z</time>
      </trkpt>
      <trkpt lat="43.70366" lon="3.53699">
        <ele>191.399994</ele>
        <time>2013-05-25T06:22:48Z</time>
      </trkpt>
      <trkpt lat="43.70369" lon="3.53699">
        <ele>191.399994</ele>
        <time>2013-05-25T06:22:49Z</time>
      </trkpt>
      <trkpt lat="43.70384" lon="3.53702">
        <ele>191.699997</ele>
        <time>2013-05-25T06:22:56Z</time>
      </trkpt>
      <trkpt lat="43.70392" lon="3.53703">
        <ele>192.399994</ele>
        <time>2013-05-25T06:23:00Z</time>
      </trkpt>
      <trkpt lat="43.70398" lon="3.53708">
        <ele>192.800003</ele>
        <time>2013-05-25T06:23:03Z</time>
      </trkpt>
      <trkpt lat="43.70402" lon="3.53716">
        <ele>193.199997</ele>
        <time>2013-05-25T06:23:06Z</time>
      </trkpt>
      <trkpt lat="43.70406" lon="3.53724">
        <ele>193.600006</ele>
        <time>2013-05-25T06:23:09Z</time>
      </trkpt>
      <trkpt lat="43.70412" lon="3.53733">
        <ele>192.699997</ele>
        <time>2013-05-25T06:23:13Z</time>
      </trkpt>
      <trkpt lat="43.70419" lon="3.53741">
        <ele>194.600006</ele>
        <time>2013-05-25T06:23:17Z</time>
      </trkpt>
      <trkpt lat="43.70427" lon="3.53747">
        <ele>196.699997</ele>
        <time>2013-05-25T06:23:21Z</time>
      </trkpt>
      <trkpt lat="43.70434" lon="3.5375">
        <ele>197.300003</ele>
        <time>2013-05-25T06:23:24Z</time>
      </trkpt>
      <trkpt lat="43.7044" lon="3.53753">
        <ele>197.5</ele>
        <time>2013-05-25T06:23:27Z</time>
      </trkpt>
      <trkpt lat="43.70449" lon="3.53755">
        <ele>198.199997</ele>
        <time>2013-05-25T06:23:31Z</time>
      </trkpt>
      <trkpt lat="43.70457" lon="3.53754">
        <ele>197.899994</ele>
        <time>2013-05-25T06:23:35Z</time>
      </trkpt>
      <trkpt lat="43.70466" lon="3.53753">
        <ele>198.199997</ele>
        <time>2013-05-25T06:23:39Z</time>
      </trkpt>
      <trkpt lat="43.70473" lon="3.53754">
        <ele>198.600006</ele>
        <time>2013-05-25T06:23:42Z</time>
      </trkpt>
      <trkpt lat="43.70479" lon="3.53761">
        <ele>199.300003</ele>
        <time>2013-05-25T06:23:45Z</time>
      </trkpt>
      <trkpt lat="43.70481" lon="3.53773">
        <ele>200.100006</ele>
        <time>2013-05-25T06:23:49Z</time>
      </trkpt>
      <trkpt lat="43.7048" lon="3.53776">
        <ele>200.199997</ele>
        <time>2013-05-25T06:23:50Z</time>
      </trkpt>
      <trkpt lat="43.70476" lon="3.53794">
        <ele>200.199997</ele>
        <time>2013-05-25T06:23:56Z</time>
      </trkpt>
      <trkpt lat="43.70475" lon="3.53804">
        <ele>200.600006</ele>
        <time>2013-05-25T06:23:59Z</time>
      </trkpt>
      <trkpt lat="43.70475" lon="3.53814">
        <ele>201.199997</ele>
        <time>2013-05-25T06:24:02Z</time>
      </trkpt>
      <trkpt lat="43.70474" lon="3.53826">
        <ele>202.5</ele>
        <time>2013-05-25T06:24:06Z</time>
      </trkpt>
      <trkpt lat="43.70474" lon="3.53838">
        <ele>203.600006</ele>
        <time>2013-05-25T06:24:10Z</time>
      </trkpt>
      <trkpt lat="43.70474" lon="3.5385">
        <ele>203.800003</ele>
        <time>2013-05-25T06:24:14Z</time>
      </trkpt>
      <trkpt lat="43.70474" lon="3.53859">
        <ele>203.600006</ele>
        <time>2013-05-25T06:24:17Z</time>
      </trkpt>
      <trkpt lat="43.70474" lon="3.53869">
        <ele>204.300003</ele>
        <time>2013-05-25T06:24:20Z</time>
      </trkpt>
      <trkpt lat="43.70475" lon="3.53881">
        <ele>204.600006</ele>
        <time>2013-05-25T06:24:24Z</time>
      </trkpt>
      <trkpt lat="43.70476" lon="3.53893">
        <ele>205.199997</ele>
        <time>2013-05-25T06:24:28Z</time>
      </trkpt>
      <trkpt lat="43.70479" lon="3.53905">
        <ele>206.300003</ele>
        <time>2013-05-25T06:24:32Z</time>
      </trkpt>
      <trkpt lat="43.70481" lon="3.53917">
        <ele>207.199997</ele>
        <time>2013-05-25T06:24:36Z</time>
      </trkpt>
      <trkpt lat="43.70485" lon="3.53928">
        <ele>207.399994</ele>
        <time>2013-05-25T06:24:40Z</time>
      </trkpt>
      <trkpt lat="43.70488" lon="3.53939">
        <ele>207.399994</ele>
        <time>2013-05-25T06:24:44Z</time>
      </trkpt>
      <trkpt lat="43.70492" lon="3.53949">
        <ele>208</ele>
        <time>2013-05-25T06:24:48Z</time>
      </trkpt>
      <trkpt lat="43.70496" lon="3.5396">
        <ele>208.899994</ele>
        <time>2013-05-25T06:24:52Z</time>
      </trkpt>
      <trkpt lat="43.70497" lon="3.53963">
        <ele>209.199997</ele>
        <time>2013-05-25T06:24:53Z</time>
      </trkpt>
      <trkpt lat="43.70504" lon="3.53981">
        <ele>209.699997</ele>
        <time>2013-05-25T06:25:00Z</time>
      </trkpt>
      <trkpt lat="43.70508" lon="3.53991">
        <ele>209.199997</ele>
        <time>2013-05-25T06:25:04Z</time>
      </trkpt>
      <trkpt lat="43.70512" lon="3.54001">
        <ele>210.600006</ele>
        <time>2013-05-25T06:25:08Z</time>
      </trkpt>
      <trkpt lat="43.70517" lon="3.54011">
        <ele>212</ele>
        <time>2013-05-25T06:25:12Z</time>
      </trkpt>
      <trkpt lat="43.70522" lon="3.54019">
        <ele>213.800003</ele>
        <time>2013-05-25T06:25:16Z</time>
      </trkpt>
      <trkpt lat="43.70528" lon="3.54028">
        <ele>214.399994</ele>
        <time>2013-05-25T06:25:20Z</time>
      </trkpt>
      <trkpt lat="43.70533" lon="3.54037">
        <ele>213.899994</ele>
        <time>2013-05-25T06:25:24Z</time>
      </trkpt>
      <trkpt lat="43.70537" lon="3.54047">
        <ele>214.5</ele>
        <time>2013-05-25T06:25:28Z</time>
      </trkpt>
      <trkpt lat="43.70541" lon="3.54058">
        <ele>214.600006</ele>
        <time>2013-05-25T06:25:32Z</time>
      </trkpt>
      <trkpt lat="43.70544" lon="3.54068">
        <ele>215.699997</ele>
        <time>2013-05-25T06:25:36Z</time>
      </trkpt>
      <trkpt lat="43.70548" lon="3.54079">
        <ele>216.800003</ele>
        <time>2013-05-25T06:25:40Z</time>
      </trkpt>
      <trkpt lat="43.70551" lon="3.5409">
        <ele>217.699997</ele>
        <time>2013-05-25T06:25:44Z</time>
      </trkpt>
      <trkpt lat="43.70554" lon="3.54101">
        <ele>218</ele>
        <time>2013-05-25T06:25:48Z</time>
      </trkpt>
      <trkpt lat="43.70558" lon="3.54112">
        <ele>218.300003</ele>
        <time>2013-05-25T06:25:52Z</time>
      </trkpt>
      <trkpt lat="43.70561" lon="3.54123">
        <ele>219.399994</ele>
        <time>2013-05-25T06:25:56Z</time>
      </trkpt>
      <trkpt lat="43.70562" lon="3.54126">
        <ele>219.699997</ele>
        <time>2013-05-25T06:25:57Z</time>
      </trkpt>
      <trkpt lat="43.7057" lon="3.54142">
        <ele>221.399994</ele>
        <time>2013-05-25T06:26:03Z</time>
      </trkpt>
      <trkpt lat="43.70577" lon="3.5415">
        <ele>221.5</ele>
        <time>2013-05-25T06:26:07Z</time>
      </trkpt>
      <trkpt lat="43.70583" lon="3.54157">
        <ele>222.600006</ele>
        <time>2013-05-25T06:26:11Z</time>
      </trkpt>
      <trkpt lat="43.7059" lon="3.54164">
        <ele>223.600006</ele>
        <time>2013-05-25T06:26:15Z</time>
      </trkpt>
      <trkpt lat="43.70598" lon="3.54169">
        <ele>224.600006</ele>
        <time>2013-05-25T06:26:19Z</time>
      </trkpt>
      <trkpt lat="43.70605" lon="3.54174">
        <ele>225.300003</ele>
        <time>2013-05-25T06:26:23Z</time>
      </trkpt>
      <trkpt lat="43.70613" lon="3.54177">
        <ele>226.199997</ele>
        <time>2013-05-25T06:26:27Z</time>
      </trkpt>
      <trkpt lat="43.70622" lon="3.5418">
        <ele>226.699997</ele>
        <time>2013-05-25T06:26:31Z</time>
      </trkpt>
      <trkpt lat="43.7063" lon="3.54182">
        <ele>227.899994</ele>
        <time>2013-05-25T06:26:35Z</time>
      </trkpt>
      <trkpt lat="43.70639" lon="3.54183">
        <ele>229.100006</ele>
        <time>2013-05-25T06:26:39Z</time>
      </trkpt>
      <trkpt lat="43.70648" lon="3.54185">
        <ele>228.899994</ele>
        <time>2013-05-25T06:26:43Z</time>
      </trkpt>
      <trkpt lat="43.70656" lon="3.54185">
        <ele>230.100006</ele>
        <time>2013-05-25T06:26:47Z</time>
      </trkpt>
      <trkpt lat="43.70665" lon="3.54183">
        <ele>230.300003</ele>
        <time>2013-05-25T06:26:51Z</time>
      </trkpt>
      <trkpt lat="43.70673" lon="3.54181">
        <ele>231.300003</ele>
        <time>2013-05-25T06:26:55Z</time>
      </trkpt>
      <trkpt lat="43.70681" lon="3.54179">
        <ele>232.100006</ele>
        <time>2013-05-25T06:26:59Z</time>
      </trkpt>
      <trkpt lat="43.70683" lon="3.54179">
        <ele>232.300003</ele>
        <time>2013-05-25T06:27:00Z</time>
      </trkpt>
      <trkpt lat="43.70697" lon="3.54175">
        <ele>233.699997</ele>
        <time>2013-05-25T06:27:07Z</time>
      </trkpt>
      <trkpt lat="43.70704" lon="3.54173">
        <ele>235.199997</ele>
        <time>2013-05-25T06:27:11Z</time>
      </trkpt>
      <trkpt lat="43.70712" lon="3.54171">
        <ele>235.100006</ele>
        <time>2013-05-25T06:27:15Z</time>
      </trkpt>
      <trkpt lat="43.70721" lon="3.54168">
        <ele>235</ele>
        <time>2013-05-25T06:27:19Z</time>
      </trkpt>
      <trkpt lat="43.70728" lon="3.54165">
        <ele>235.600006</ele>
        <time>2013-05-25T06:27:23Z</time>
      </trkpt>
      <trkpt lat="43.70736" lon="3.54162">
        <ele>235.699997</ele>
        <time>2013-05-25T06:27:27Z</time>
      </trkpt>
      <trkpt lat="43.70744" lon="3.54158">
        <ele>237.699997</ele>
        <time>2013-05-25T06:27:31Z</time>
      </trkpt>
      <trkpt lat="43.7075" lon="3.54157">
        <ele>238.100006</ele>
        <time>2013-05-25T06:27:34Z</time>
      </trkpt>
      <trkpt lat="43.70759" lon="3.54154">
        <ele>237.800003</ele>
        <time>2013-05-25T06:27:38Z</time>
      </trkpt>
      <trkpt lat="43.70753" lon="3.54146">
        <ele>239.199997</ele>
        <time>2013-05-25T06:27:49Z</time>
      </trkpt>
      <trkpt lat="43.70745" lon="3.54146">
        <ele>241.100006</ele>
        <time>2013-05-25T06:27:53Z</time>
      </trkpt>
      <trkpt lat="43.70737" lon="3.54144">
        <ele>242</ele>
        <time>2013-05-25T06:27:57Z</time>
      </trkpt>
      <trkpt lat="43.7073" lon="3.54141">
        <ele>241.899994</ele>
        <time>2013-05-25T06:28:01Z</time>
      </trkpt>
      <trkpt lat="43.70728" lon="3.5414">
        <ele>241.899994</ele>
        <time>2013-05-25T06:28:02Z</time>
      </trkpt>
      <trkpt lat="43.70715" lon="3.54133">
        <ele>243.600006</ele>
        <time>2013-05-25T06:28:09Z</time>
      </trkpt>
      <trkpt lat="43.70708" lon="3.5413">
        <ele>245.100006</ele>
        <time>2013-05-25T06:28:13Z</time>
      </trkpt>
      <trkpt lat="43.707" lon="3.54126">
        <ele>246</ele>
        <time>2013-05-25T06:28:17Z</time>
      </trkpt>
      <trkpt lat="43.70692" lon="3.54121">
        <ele>245.699997</ele>
        <time>2013-05-25T06:28:21Z</time>
      </trkpt>
      <trkpt lat="43.70685" lon="3.54115">
        <ele>245.800003</ele>
        <time>2013-05-25T06:28:25Z</time>
      </trkpt>
      <trkpt lat="43.70678" lon="3.54109">
        <ele>246.800003</ele>
        <time>2013-05-25T06:28:29Z</time>
      </trkpt>
      <trkpt lat="43.70671" lon="3.54102">
        <ele>247.800003</ele>
        <time>2013-05-25T06:28:33Z</time>
      </trkpt>
      <trkpt lat="43.70667" lon="3.54092">
        <ele>248.600006</ele>
        <time>2013-05-25T06:28:37Z</time>
      </trkpt>
      <trkpt lat="43.70664" lon="3.54082">
        <ele>249.899994</ele>
        <time>2013-05-25T06:28:41Z</time>
      </trkpt>
      <trkpt lat="43.70661" lon="3.54071">
        <ele>250.899994</ele>
        <time>2013-05-25T06:28:45Z</time>
      </trkpt>
      <trkpt lat="43.70659" lon="3.5406">
        <ele>251</ele>
        <time>2013-05-25T06:28:49Z</time>
      </trkpt>
      <trkpt lat="43.70657" lon="3.54049">
        <ele>250.800003</ele>
        <time>2013-05-25T06:28:53Z</time>
      </trkpt>
      <trkpt lat="43.70655" lon="3.5404">
        <ele>251.399994</ele>
        <time>2013-05-25T06:28:56Z</time>
      </trkpt>
      <trkpt lat="43.70653" lon="3.54028">
        <ele>253.399994</ele>
        <time>2013-05-25T06:29:00Z</time>
      </trkpt>
      <trkpt lat="43.70651" lon="3.54017">
        <ele>254</ele>
        <time>2013-05-25T06:29:04Z</time>
      </trkpt>
      <trkpt lat="43.7065" lon="3.54014">
        <ele>254.100006</ele>
        <time>2013-05-25T06:29:05Z</time>
      </trkpt>
      <trkpt lat="43.70647" lon="3.53995">
        <ele>255.5</ele>
        <time>2013-05-25T06:29:12Z</time>
      </trkpt>
      <trkpt lat="43.70645" lon="3.53984">
        <ele>257.600006</ele>
        <time>2013-05-25T06:29:16Z</time>
      </trkpt>
      <trkpt lat="43.70643" lon="3.53973">
        <ele>257.799988</ele>
        <time>2013-05-25T06:29:20Z</time>
      </trkpt>
      <trkpt lat="43.70641" lon="3.53964">
        <ele>257.799988</ele>
        <time>2013-05-25T06:29:23Z</time>
      </trkpt>
      <trkpt lat="43.70639" lon="3.53953">
        <ele>259.100006</ele>
        <time>2013-05-25T06:29:27Z</time>
      </trkpt>
      <trkpt lat="43.70637" lon="3.53942">
        <ele>259</ele>
        <time>2013-05-25T06:29:31Z</time>
      </trkpt>
      <trkpt lat="43.70635" lon="3.53931">
        <ele>259.5</ele>
        <time>2013-05-25T06:29:35Z</time>
      </trkpt>
      <trkpt lat="43.70634" lon="3.5392">
        <ele>261.100006</ele>
        <time>2013-05-25T06:29:39Z</time>
      </trkpt>
      <trkpt lat="43.70633" lon="3.5391">
        <ele>262.200012</ele>
        <time>2013-05-25T06:29:43Z</time>
      </trkpt>
      <trkpt lat="43.70632" lon="3.53899">
        <ele>262.899994</ele>
        <time>2013-05-25T06:29:47Z</time>
      </trkpt>
      <trkpt lat="43.70632" lon="3.53887">
        <ele>263.899994</ele>
        <time>2013-05-25T06:29:51Z</time>
      </trkpt>
      <trkpt lat="43.70631" lon="3.53876">
        <ele>264.700012</ele>
        <time>2013-05-25T06:29:55Z</time>
      </trkpt>
      <trkpt lat="43.70632" lon="3.53866">
        <ele>265.200012</ele>
        <time>2013-05-25T06:29:59Z</time>
      </trkpt>
      <trkpt lat="43.70633" lon="3.53856">
        <ele>265.299988</ele>
        <time>2013-05-25T06:30:03Z</time>
      </trkpt>
      <trkpt lat="43.70634" lon="3.53846">
        <ele>266.899994</ele>
        <time>2013-05-25T06:30:07Z</time>
      </trkpt>
      <trkpt lat="43.70635" lon="3.53844">
        <ele>267.100006</ele>
        <time>2013-05-25T06:30:08Z</time>
      </trkpt>
      <trkpt lat="43.70639" lon="3.53823">
        <ele>269.600006</ele>
        <time>2013-05-25T06:30:18Z</time>
      </trkpt>
      <trkpt lat="43.70641" lon="3.53812">
        <ele>270.5</ele>
        <time>2013-05-25T06:30:22Z</time>
      </trkpt>
      <trkpt lat="43.70645" lon="3.53801">
        <ele>271.399994</ele>
        <time>2013-05-25T06:30:28Z</time>
      </trkpt>
      <trkpt lat="43.70647" lon="3.53791">
        <ele>272.299988</ele>
        <time>2013-05-25T06:30:33Z</time>
      </trkpt>
      <trkpt lat="43.70651" lon="3.53781">
        <ele>273.200012</ele>
        <time>2013-05-25T06:30:38Z</time>
      </trkpt>
      <trkpt lat="43.70656" lon="3.53772">
        <ele>273.100006</ele>
        <time>2013-05-25T06:30:43Z</time>
      </trkpt>
      <trkpt lat="43.70659" lon="3.53762">
        <ele>274.899994</ele>
        <time>2013-05-25T06:30:47Z</time>
      </trkpt>
      <trkpt lat="43.70663" lon="3.53751">
        <ele>274.5</ele>
        <time>2013-05-25T06:30:52Z</time>
      </trkpt>
      <trkpt lat="43.70668" lon="3.53741">
        <ele>275.700012</ele>
        <time>2013-05-25T06:30:57Z</time>
      </trkpt>
      <trkpt lat="43.70672" lon="3.5373">
        <ele>276.799988</ele>
        <time>2013-05-25T06:31:02Z</time>
      </trkpt>
      <trkpt lat="43.70675" lon="3.53721">
        <ele>277.5</ele>
        <time>2013-05-25T06:31:06Z</time>
      </trkpt>
      <trkpt lat="43.70679" lon="3.53711">
        <ele>277.899994</ele>
        <time>2013-05-25T06:31:10Z</time>
      </trkpt>
      <trkpt lat="43.7068" lon="3.53709">
        <ele>278</ele>
        <time>2013-05-25T06:31:11Z</time>
      </trkpt>
      <trkpt lat="43.70689" lon="3.53692">
        <ele>278.600006</ele>
        <time>2013-05-25T06:31:20Z</time>
      </trkpt>
      <trkpt lat="43.70694" lon="3.53685">
        <ele>281.299988</ele>
        <time>2013-05-25T06:31:24Z</time>
      </trkpt>
      <trkpt lat="43.70699" lon="3.53675">
        <ele>281.899994</ele>
        <time>2013-05-25T06:31:29Z</time>
      </trkpt>
      <trkpt lat="43.70704" lon="3.53666">
        <ele>283.899994</ele>
        <time>2013-05-25T06:31:33Z</time>
      </trkpt>
      <trkpt lat="43.7071" lon="3.53658">
        <ele>283.299988</ele>
        <time>2013-05-25T06:31:38Z</time>
      </trkpt>
      <trkpt lat="43.70717" lon="3.53651">
        <ele>283.299988</ele>
        <time>2013-05-25T06:31:45Z</time>
      </trkpt>
      <trkpt lat="43.70724" lon="3.53645">
        <ele>285.200012</ele>
        <time>2013-05-25T06:31:49Z</time>
      </trkpt>
      <trkpt lat="43.70733" lon="3.53643">
        <ele>285.100006</ele>
        <time>2013-05-25T06:31:54Z</time>
      </trkpt>
      <trkpt lat="43.70741" lon="3.53641">
        <ele>284.600006</ele>
        <time>2013-05-25T06:32:00Z</time>
      </trkpt>
      <trkpt lat="43.70749" lon="3.53643">
        <ele>286.299988</ele>
        <time>2013-05-25T06:32:05Z</time>
      </trkpt>
      <trkpt lat="43.70756" lon="3.53648">
        <ele>288.100006</ele>
        <time>2013-05-25T06:32:10Z</time>
      </trkpt>
      <trkpt lat="43.70764" lon="3.53652">
        <ele>288.100006</ele>
        <time>2013-05-25T06:32:15Z</time>
      </trkpt>
      <trkpt lat="43.70765" lon="3.53653">
        <ele>288.5</ele>
        <time>2013-05-25T06:32:16Z</time>
      </trkpt>
      <trkpt lat="43.7078" lon="3.53655">
        <ele>291</ele>
        <time>2013-05-25T06:32:25Z</time>
      </trkpt>
      <trkpt lat="43.70788" lon="3.5366">
        <ele>291.799988</ele>
        <time>2013-05-25T06:32:30Z</time>
      </trkpt>
      <trkpt lat="43.70782" lon="3.5367">
        <ele>292.899994</ele>
        <time>2013-05-25T06:32:36Z</time>
      </trkpt>
      <trkpt lat="43.70774" lon="3.53674">
        <ele>294.200012</ele>
        <time>2013-05-25T06:32:40Z</time>
      </trkpt>
      <trkpt lat="43.70767" lon="3.53678">
        <ele>294.799988</ele>
        <time>2013-05-25T06:32:43Z</time>
      </trkpt>
      <trkpt lat="43.70762" lon="3.53684">
        <ele>294.799988</ele>
        <time>2013-05-25T06:32:46Z</time>
      </trkpt>
      <trkpt lat="43.70757" lon="3.53691">
        <ele>294.600006</ele>
        <time>2013-05-25T06:32:49Z</time>
      </trkpt>
      <trkpt lat="43.70754" lon="3.53701">
        <ele>296.399994</ele>
        <time>2013-05-25T06:32:52Z</time>
      </trkpt>
      <trkpt lat="43.70753" lon="3.53713">
        <ele>297.200012</ele>
        <time>2013-05-25T06:32:56Z</time>
      </trkpt>
      <trkpt lat="43.70753" lon="3.53724">
        <ele>298</ele>
        <time>2013-05-25T06:33:00Z</time>
      </trkpt>
      <trkpt lat="43.70755" lon="3.53736">
        <ele>299.5</ele>
        <time>2013-05-25T06:33:04Z</time>
      </trkpt>
      <trkpt lat="43.70756" lon="3.53747">
        <ele>299.100006</ele>
        <time>2013-05-25T06:33:08Z</time>
      </trkpt>
      <trkpt lat="43.70758" lon="3.53758">
        <ele>300.5</ele>
        <time>2013-05-25T06:33:12Z</time>
      </trkpt>
      <trkpt lat="43.7076" lon="3.53768">
        <ele>302</ele>
        <time>2013-05-25T06:33:16Z</time>
      </trkpt>
      <trkpt lat="43.70761" lon="3.5377">
        <ele>302.100006</ele>
        <time>2013-05-25T06:33:17Z</time>
      </trkpt>
      <trkpt lat="43.70765" lon="3.53789">
        <ele>302.399994</ele>
        <time>2013-05-25T06:33:25Z</time>
      </trkpt>
      <trkpt lat="43.70768" lon="3.53799">
        <ele>302.5</ele>
        <time>2013-05-25T06:33:30Z</time>
      </trkpt>
      <trkpt lat="43.70772" lon="3.53809">
        <ele>304.700012</ele>
        <time>2013-05-25T06:33:35Z</time>
      </trkpt>
      <trkpt lat="43.70777" lon="3.5382">
        <ele>305.299988</ele>
        <time>2013-05-25T06:33:40Z</time>
      </trkpt>
      <trkpt lat="43.70782" lon="3.53828">
        <ele>305.899994</ele>
        <time>2013-05-25T06:33:44Z</time>
      </trkpt>
      <trkpt lat="43.70788" lon="3.53835">
        <ele>306.100006</ele>
        <time>2013-05-25T06:33:48Z</time>
      </trkpt>
      <trkpt lat="43.70797" lon="3.53835">
        <ele>306.700012</ele>
        <time>2013-05-25T06:33:52Z</time>
      </trkpt>
      <trkpt lat="43.70805" lon="3.53833">
        <ele>307</ele>
        <time>2013-05-25T06:33:56Z</time>
      </trkpt>
      <trkpt lat="43.70813" lon="3.53831">
        <ele>307.600006</ele>
        <time>2013-05-25T06:34:00Z</time>
      </trkpt>
      <trkpt lat="43.7082" lon="3.53829">
        <ele>307.899994</ele>
        <time>2013-05-25T06:34:13Z</time>
      </trkpt>
      <trkpt lat="43.70827" lon="3.53829">
        <ele>308.399994</ele>
        <time>2013-05-25T06:34:16Z</time>
      </trkpt>
      <trkpt lat="43.70835" lon="3.53828">
        <ele>309.299988</ele>
        <time>2013-05-25T06:34:19Z</time>
      </trkpt>
      <trkpt lat="43.70838" lon="3.53828">
        <ele>309.600006</ele>
        <time>2013-05-25T06:34:20Z</time>
      </trkpt>
      <trkpt lat="43.70849" lon="3.53827">
        <ele>310.299988</ele>
        <time>2013-05-25T06:34:24Z</time>
      </trkpt>
      <trkpt lat="43.70857" lon="3.53826">
        <ele>310.200012</ele>
        <time>2013-05-25T06:34:27Z</time>
      </trkpt>
      <trkpt lat="43.70864" lon="3.53825">
        <ele>310</ele>
        <time>2013-05-25T06:34:30Z</time>
      </trkpt>
      <trkpt lat="43.70872" lon="3.53823">
        <ele>311.100006</ele>
        <time>2013-05-25T06:34:33Z</time>
      </trkpt>
      <trkpt lat="43.70879" lon="3.53822">
        <ele>310.899994</ele>
        <time>2013-05-25T06:34:36Z</time>
      </trkpt>
      <trkpt lat="43.70887" lon="3.53821">
        <ele>310.200012</ele>
        <time>2013-05-25T06:34:39Z</time>
      </trkpt>
      <trkpt lat="43.70896" lon="3.5382">
        <ele>310.899994</ele>
        <time>2013-05-25T06:34:42Z</time>
      </trkpt>
      <trkpt lat="43.70904" lon="3.53818">
        <ele>311.5</ele>
        <time>2013-05-25T06:34:45Z</time>
      </trkpt>
      <trkpt lat="43.70913" lon="3.53817">
        <ele>311.299988</ele>
        <time>2013-05-25T06:34:48Z</time>
      </trkpt>
      <trkpt lat="43.70921" lon="3.53816">
        <ele>311.200012</ele>
        <time>2013-05-25T06:34:51Z</time>
      </trkpt>
      <trkpt lat="43.70929" lon="3.53816">
        <ele>311.899994</ele>
        <time>2013-05-25T06:34:54Z</time>
      </trkpt>
      <trkpt lat="43.70936" lon="3.53816">
        <ele>312.399994</ele>
        <time>2013-05-25T06:34:57Z</time>
      </trkpt>
      <trkpt lat="43.70944" lon="3.53814">
        <ele>313.5</ele>
        <time>2013-05-25T06:35:01Z</time>
      </trkpt>
      <trkpt lat="43.70952" lon="3.53813">
        <ele>314.299988</ele>
        <time>2013-05-25T06:35:05Z</time>
      </trkpt>
      <trkpt lat="43.7096" lon="3.53811">
        <ele>316.5</ele>
        <time>2013-05-25T06:35:09Z</time>
      </trkpt>
      <trkpt lat="43.70968" lon="3.5381">
        <ele>317.100006</ele>
        <time>2013-05-25T06:35:13Z</time>
      </trkpt>
      <trkpt lat="43.70977" lon="3.53808">
        <ele>316.899994</ele>
        <time>2013-05-25T06:35:18Z</time>
      </trkpt>
      <trkpt lat="43.70986" lon="3.53807">
        <ele>317.100006</ele>
        <time>2013-05-25T06:35:23Z</time>
      </trkpt>
      <trkpt lat="43.70987" lon="3.53806">
        <ele>317</ele>
        <time>2013-05-25T06:35:24Z</time>
      </trkpt>
      <trkpt lat="43.71" lon="3.53805">
        <ele>317</ele>
        <time>2013-05-25T06:35:31Z</time>
      </trkpt>
      <trkpt lat="43.71008" lon="3.53804">
        <ele>319.600006</ele>
        <time>2013-05-25T06:35:35Z</time>
      </trkpt>
      <trkpt lat="43.71015" lon="3.53803">
        <ele>321.399994</ele>
        <time>2013-05-25T06:35:39Z</time>
      </trkpt>
      <trkpt lat="43.71023" lon="3.53802">
        <ele>323.100006</ele>
        <time>2013-05-25T06:35:43Z</time>
      </trkpt>
      <trkpt lat="43.71031" lon="3.53801">
        <ele>324.899994</ele>
        <time>2013-05-25T06:35:47Z</time>
      </trkpt>
      <trkpt lat="43.71039" lon="3.538">
        <ele>325.5</ele>
        <time>2013-05-25T06:35:51Z</time>
      </trkpt>
      <trkpt lat="43.71047" lon="3.53799">
        <ele>326.399994</ele>
        <time>2013-05-25T06:35:55Z</time>
      </trkpt>
      <trkpt lat="43.71056" lon="3.53798">
        <ele>326.700012</ele>
        <time>2013-05-25T06:35:59Z</time>
      </trkpt>
      <trkpt lat="43.71064" lon="3.53798">
        <ele>328.200012</ele>
        <time>2013-05-25T06:36:03Z</time>
      </trkpt>
      <trkpt lat="43.71072" lon="3.53796">
        <ele>328.100006</ele>
        <time>2013-05-25T06:36:07Z</time>
      </trkpt>
      <trkpt lat="43.7108" lon="3.53795">
        <ele>327.700012</ele>
        <time>2013-05-25T06:36:11Z</time>
      </trkpt>
      <trkpt lat="43.71088" lon="3.53794">
        <ele>329.700012</ele>
        <time>2013-05-25T06:36:15Z</time>
      </trkpt>
      <trkpt lat="43.71096" lon="3.53792">
        <ele>330</ele>
        <time>2013-05-25T06:36:19Z</time>
      </trkpt>
      <trkpt lat="43.71103" lon="3.53789">
        <ele>328.700012</ele>
        <time>2013-05-25T06:36:23Z</time>
      </trkpt>
      <trkpt lat="43.71111" lon="3.53788">
        <ele>329.299988</ele>
        <time>2013-05-25T06:36:27Z</time>
      </trkpt>
      <trkpt lat="43.71113" lon="3.53788">
        <ele>329.600006</ele>
        <time>2013-05-25T06:36:28Z</time>
      </trkpt>
      <trkpt lat="43.71126" lon="3.53788">
        <ele>331.200012</ele>
        <time>2013-05-25T06:36:35Z</time>
      </trkpt>
      <trkpt lat="43.71133" lon="3.53787">
        <ele>332.299988</ele>
        <time>2013-05-25T06:36:39Z</time>
      </trkpt>
      <trkpt lat="43.71141" lon="3.53787">
        <ele>332.299988</ele>
        <time>2013-05-25T06:36:43Z</time>
      </trkpt>
      <trkpt lat="43.71148" lon="3.53786">
        <ele>333.600006</ele>
        <time>2013-05-25T06:36:47Z</time>
      </trkpt>
      <trkpt lat="43.71155" lon="3.53785">
        <ele>333.700012</ele>
        <time>2013-05-25T06:36:51Z</time>
      </trkpt>
      <trkpt lat="43.71163" lon="3.53784">
        <ele>334.100006</ele>
        <time>2013-05-25T06:36:55Z</time>
      </trkpt>
      <trkpt lat="43.71171" lon="3.53782">
        <ele>334.200012</ele>
        <time>2013-05-25T06:36:59Z</time>
      </trkpt>
      <trkpt lat="43.7118" lon="3.53781">
        <ele>337.5</ele>
        <time>2013-05-25T06:37:04Z</time>
      </trkpt>
      <trkpt lat="43.71189" lon="3.53781">
        <ele>338.299988</ele>
        <time>2013-05-25T06:37:09Z</time>
      </trkpt>
      <trkpt lat="43.71197" lon="3.53779">
        <ele>337.399994</ele>
        <time>2013-05-25T06:37:14Z</time>
      </trkpt>
      <trkpt lat="43.71205" lon="3.53778">
        <ele>337.5</ele>
        <time>2013-05-25T06:37:18Z</time>
      </trkpt>
      <trkpt lat="43.71212" lon="3.53776">
        <ele>339.200012</ele>
        <time>2013-05-25T06:37:22Z</time>
      </trkpt>
      <trkpt lat="43.7122" lon="3.53775">
        <ele>340.299988</ele>
        <time>2013-05-25T06:37:26Z</time>
      </trkpt>
      <trkpt lat="43.71228" lon="3.53774">
        <ele>341.200012</ele>
        <time>2013-05-25T06:37:30Z</time>
      </trkpt>
      <trkpt lat="43.7123" lon="3.53774">
        <ele>341.299988</ele>
        <time>2013-05-25T06:37:31Z</time>
      </trkpt>
      <trkpt lat="43.71244" lon="3.53772">
        <ele>341.799988</ele>
        <time>2013-05-25T06:37:38Z</time>
      </trkpt>
      <trkpt lat="43.71252" lon="3.53771">
        <ele>342.299988</ele>
        <time>2013-05-25T06:37:42Z</time>
      </trkpt>
      <trkpt lat="43.71261" lon="3.5377">
        <ele>343.200012</ele>
        <time>2013-05-25T06:37:46Z</time>
      </trkpt>
      <trkpt lat="43.71268" lon="3.53769">
        <ele>344.200012</ele>
        <time>2013-05-25T06:37:50Z</time>
      </trkpt>
      <trkpt lat="43.71276" lon="3.53768">
        <ele>344.200012</ele>
        <time>2013-05-25T06:37:54Z</time>
      </trkpt>
      <trkpt lat="43.71285" lon="3.53767">
        <ele>344.700012</ele>
        <time>2013-05-25T06:37:58Z</time>
      </trkpt>
      <trkpt lat="43.71293" lon="3.53766">
        <ele>344.5</ele>
        <time>2013-05-25T06:38:02Z</time>
      </trkpt>
      <trkpt lat="43.71302" lon="3.53765">
        <ele>344.5</ele>
        <time>2013-05-25T06:38:06Z</time>
      </trkpt>
      <trkpt lat="43.71311" lon="3.53764">
        <ele>345</ele>
        <time>2013-05-25T06:38:10Z</time>
      </trkpt>
      <trkpt lat="43.7132" lon="3.53763">
        <ele>345.100006</ele>
        <time>2013-05-25T06:38:14Z</time>
      </trkpt>
      <trkpt lat="43.71328" lon="3.53762">
        <ele>345.100006</ele>
        <time>2013-05-25T06:38:18Z</time>
      </trkpt>
      <trkpt lat="43.71336" lon="3.53761">
        <ele>345.100006</ele>
        <time>2013-05-25T06:38:22Z</time>
      </trkpt>
      <trkpt lat="43.71345" lon="3.5376">
        <ele>345.899994</ele>
        <time>2013-05-25T06:38:26Z</time>
      </trkpt>
      <trkpt lat="43.71352" lon="3.53759">
        <ele>347.200012</ele>
        <time>2013-05-25T06:38:30Z</time>
      </trkpt>
      <trkpt lat="43.7136" lon="3.53758">
        <ele>348.299988</ele>
        <time>2013-05-25T06:38:34Z</time>
      </trkpt>
      <trkpt lat="43.71362" lon="3.53757">
        <ele>348.5</ele>
        <time>2013-05-25T06:38:35Z</time>
      </trkpt>
      <trkpt lat="43.71375" lon="3.53755">
        <ele>350.299988</ele>
        <time>2013-05-25T06:38:42Z</time>
      </trkpt>
      <trkpt lat="43.71383" lon="3.53755">
        <ele>350.799988</ele>
        <time>2013-05-25T06:38:46Z</time>
      </trkpt>
      <trkpt lat="43.7139" lon="3.53753">
        <ele>350.299988</ele>
        <time>2013-05-25T06:38:50Z</time>
      </trkpt>
      <trkpt lat="43.71397" lon="3.53752">
        <ele>351.200012</ele>
        <time>2013-05-25T06:38:54Z</time>
      </trkpt>
      <trkpt lat="43.71406" lon="3.53751">
        <ele>353.299988</ele>
        <time>2013-05-25T06:38:59Z</time>
      </trkpt>
      <trkpt lat="43.71414" lon="3.53751">
        <ele>354.600006</ele>
        <time>2013-05-25T06:39:03Z</time>
      </trkpt>
      <trkpt lat="43.71422" lon="3.5375">
        <ele>354.700012</ele>
        <time>2013-05-25T06:39:08Z</time>
      </trkpt>
      <trkpt lat="43.71431" lon="3.53748">
        <ele>356.100006</ele>
        <time>2013-05-25T06:39:13Z</time>
      </trkpt>
      <trkpt lat="43.71438" lon="3.53746">
        <ele>355.700012</ele>
        <time>2013-05-25T06:39:17Z</time>
      </trkpt>
      <trkpt lat="43.71446" lon="3.53744">
        <ele>356.399994</ele>
        <time>2013-05-25T06:39:21Z</time>
      </trkpt>
      <trkpt lat="43.71453" lon="3.53742">
        <ele>357.200012</ele>
        <time>2013-05-25T06:39:25Z</time>
      </trkpt>
      <trkpt lat="43.71461" lon="3.5374">
        <ele>359</ele>
        <time>2013-05-25T06:39:29Z</time>
      </trkpt>
      <trkpt lat="43.7147" lon="3.53738">
        <ele>359.100006</ele>
        <time>2013-05-25T06:39:33Z</time>
      </trkpt>
      <trkpt lat="43.71479" lon="3.53737">
        <ele>358.799988</ele>
        <time>2013-05-25T06:39:37Z</time>
      </trkpt>
      <trkpt lat="43.71481" lon="3.53736">
        <ele>358.799988</ele>
        <time>2013-05-25T06:39:38Z</time>
      </trkpt>
      <trkpt lat="43.71494" lon="3.53733">
        <ele>360</ele>
        <time>2013-05-25T06:39:44Z</time>
      </trkpt>
      <trkpt lat="43.71501" lon="3.53731">
        <ele>360.5</ele>
        <time>2013-05-25T06:39:47Z</time>
      </trkpt>
      <trkpt lat="43.71509" lon="3.5373">
        <ele>361.5</ele>
        <time>2013-05-25T06:39:50Z</time>
      </trkpt>
      <trkpt lat="43.71517" lon="3.53729">
        <ele>363.100006</ele>
        <time>2013-05-25T06:39:54Z</time>
      </trkpt>
      <trkpt lat="43.71524" lon="3.5373">
        <ele>363.100006</ele>
        <time>2013-05-25T06:39:57Z</time>
      </trkpt>
      <trkpt lat="43.71532" lon="3.5373">
        <ele>362.100006</ele>
        <time>2013-05-25T06:40:00Z</time>
      </trkpt>
      <trkpt lat="43.7154" lon="3.53733">
        <ele>362</ele>
        <time>2013-05-25T06:40:03Z</time>
      </trkpt>
      <trkpt lat="43.71548" lon="3.53735">
        <ele>362.399994</ele>
        <time>2013-05-25T06:40:06Z</time>
      </trkpt>
      <trkpt lat="43.71554" lon="3.53736">
        <ele>362.399994</ele>
        <time>2013-05-25T06:40:08Z</time>
      </trkpt>
      <trkpt lat="43.7156" lon="3.53737">
        <ele>362.299988</ele>
        <time>2013-05-25T06:40:10Z</time>
      </trkpt>
      <trkpt lat="43.71569" lon="3.53739">
        <ele>362.600006</ele>
        <time>2013-05-25T06:40:13Z</time>
      </trkpt>
      <trkpt lat="43.71575" lon="3.5374">
        <ele>362.200012</ele>
        <time>2013-05-25T06:40:15Z</time>
      </trkpt>
      <trkpt lat="43.71581" lon="3.53741">
        <ele>361.799988</ele>
        <time>2013-05-25T06:40:17Z</time>
      </trkpt>
      <trkpt lat="43.71587" lon="3.53743">
        <ele>361.5</ele>
        <time>2013-05-25T06:40:19Z</time>
      </trkpt>
      <trkpt lat="43.71593" lon="3.53744">
        <ele>362.100006</ele>
        <time>2013-05-25T06:40:21Z</time>
      </trkpt>
      <trkpt lat="43.716" lon="3.53745">
        <ele>362.399994</ele>
        <time>2013-05-25T06:40:23Z</time>
      </trkpt>
      <trkpt lat="43.71607" lon="3.53747">
        <ele>363</ele>
        <time>2013-05-25T06:40:25Z</time>
      </trkpt>
      <trkpt lat="43.71613" lon="3.53747">
        <ele>363.100006</ele>
        <time>2013-05-25T06:40:27Z</time>
      </trkpt>
      <trkpt lat="43.7162" lon="3.53748">
        <ele>363</ele>
        <time>2013-05-25T06:40:29Z</time>
      </trkpt>
      <trkpt lat="43.71626" lon="3.53749">
        <ele>363.600006</ele>
        <time>2013-05-25T06:40:31Z</time>
      </trkpt>
      <trkpt lat="43.71632" lon="3.5375">
        <ele>363.799988</ele>
        <time>2013-05-25T06:40:33Z</time>
      </trkpt>
      <trkpt lat="43.71641" lon="3.53751">
        <ele>364.200012</ele>
        <time>2013-05-25T06:40:36Z</time>
      </trkpt>
      <trkpt lat="43.71649" lon="3.53753">
        <ele>364</ele>
        <time>2013-05-25T06:40:39Z</time>
      </trkpt>
      <trkpt lat="43.71652" lon="3.53753">
        <ele>363.700012</ele>
        <time>2013-05-25T06:40:40Z</time>
      </trkpt>
      <trkpt lat="43.71661" lon="3.53754">
        <ele>362.799988</ele>
        <time>2013-05-25T06:40:43Z</time>
      </trkpt>
      <trkpt lat="43.71668" lon="3.53756">
        <ele>362.200012</ele>
        <time>2013-05-25T06:40:45Z</time>
      </trkpt>
      <trkpt lat="43.71674" lon="3.53757">
        <ele>362.600006</ele>
        <time>2013-05-25T06:40:47Z</time>
      </trkpt>
      <trkpt lat="43.71683" lon="3.53758">
        <ele>363.600006</ele>
        <time>2013-05-25T06:40:50Z</time>
      </trkpt>
      <trkpt lat="43.71689" lon="3.53758">
        <ele>363.5</ele>
        <time>2013-05-25T06:40:52Z</time>
      </trkpt>
      <trkpt lat="43.71696" lon="3.53758">
        <ele>363</ele>
        <time>2013-05-25T06:40:54Z</time>
      </trkpt>
      <trkpt lat="43.71703" lon="3.53758">
        <ele>362.600006</ele>
        <time>2013-05-25T06:40:56Z</time>
      </trkpt>
      <trkpt lat="43.7171" lon="3.53757">
        <ele>362.5</ele>
        <time>2013-05-25T06:40:58Z</time>
      </trkpt>
      <trkpt lat="43.71718" lon="3.53755">
        <ele>362.700012</ele>
        <time>2013-05-25T06:41:00Z</time>
      </trkpt>
      <trkpt lat="43.71727" lon="3.53754">
        <ele>363.200012</ele>
        <time>2013-05-25T06:41:02Z</time>
      </trkpt>
      <trkpt lat="43.71735" lon="3.53752">
        <ele>363.700012</ele>
        <time>2013-05-25T06:41:04Z</time>
      </trkpt>
      <trkpt lat="43.71744" lon="3.5375">
        <ele>363.700012</ele>
        <time>2013-05-25T06:41:06Z</time>
      </trkpt>
      <trkpt lat="43.71752" lon="3.53748">
        <ele>363.100006</ele>
        <time>2013-05-25T06:41:08Z</time>
      </trkpt>
      <trkpt lat="43.7176" lon="3.53747">
        <ele>362.399994</ele>
        <time>2013-05-25T06:41:10Z</time>
      </trkpt>
      <trkpt lat="43.71768" lon="3.53745">
        <ele>360.799988</ele>
        <time>2013-05-25T06:41:12Z</time>
      </trkpt>
      <trkpt lat="43.71777" lon="3.53743">
        <ele>360.700012</ele>
        <time>2013-05-25T06:41:14Z</time>
      </trkpt>
      <trkpt lat="43.71782" lon="3.53742">
        <ele>360.899994</ele>
        <time>2013-05-25T06:41:15Z</time>
      </trkpt>
      <trkpt lat="43.71787" lon="3.53741">
        <ele>361.200012</ele>
        <time>2013-05-25T06:41:16Z</time>
      </trkpt>
      <trkpt lat="43.71791" lon="3.5374">
        <ele>361.200012</ele>
        <time>2013-05-25T06:41:17Z</time>
      </trkpt>
      <trkpt lat="43.71796" lon="3.53739">
        <ele>361.299988</ele>
        <time>2013-05-25T06:41:18Z</time>
      </trkpt>
      <trkpt lat="43.71801" lon="3.53738">
        <ele>361.299988</ele>
        <time>2013-05-25T06:41:19Z</time>
      </trkpt>
      <trkpt lat="43.71806" lon="3.53737">
        <ele>361.299988</ele>
        <time>2013-05-25T06:41:20Z</time>
      </trkpt>
      <trkpt lat="43.71811" lon="3.53736">
        <ele>360.899994</ele>
        <time>2013-05-25T06:41:21Z</time>
      </trkpt>
      <trkpt lat="43.71819" lon="3.53733">
        <ele>360.299988</ele>
        <time>2013-05-25T06:41:23Z</time>
      </trkpt>
      <trkpt lat="43.71827" lon="3.53731">
        <ele>359.600006</ele>
        <time>2013-05-25T06:41:25Z</time>
      </trkpt>
      <trkpt lat="43.71835" lon="3.53729">
        <ele>359.299988</ele>
        <time>2013-05-25T06:41:27Z</time>
      </trkpt>
      <trkpt lat="43.71842" lon="3.53728">
        <ele>359.100006</ele>
        <time>2013-05-25T06:41:29Z</time>
      </trkpt>
      <trkpt lat="43.7185" lon="3.53726">
        <ele>358.399994</ele>
        <time>2013-05-25T06:41:31Z</time>
      </trkpt>
      <trkpt lat="43.71857" lon="3.53724">
        <ele>358.700012</ele>
        <time>2013-05-25T06:41:33Z</time>
      </trkpt>
      <trkpt lat="43.71865" lon="3.53722">
        <ele>359.399994</ele>
        <time>2013-05-25T06:41:35Z</time>
      </trkpt>
      <trkpt lat="43.71872" lon="3.53721">
        <ele>359.5</ele>
        <time>2013-05-25T06:41:37Z</time>
      </trkpt>
      <trkpt lat="43.7188" lon="3.53719">
        <ele>359.399994</ele>
        <time>2013-05-25T06:41:39Z</time>
      </trkpt>
      <trkpt lat="43.71888" lon="3.53717">
        <ele>359.5</ele>
        <time>2013-05-25T06:41:41Z</time>
      </trkpt>
      <trkpt lat="43.71892" lon="3.53716">
        <ele>359.600006</ele>
        <time>2013-05-25T06:41:42Z</time>
      </trkpt>
      <trkpt lat="43.71897" lon="3.53715">
        <ele>359.100006</ele>
        <time>2013-05-25T06:41:43Z</time>
      </trkpt>
      <trkpt lat="43.71902" lon="3.53714">
        <ele>358.799988</ele>
        <time>2013-05-25T06:41:44Z</time>
      </trkpt>
      <trkpt lat="43.71906" lon="3.53713">
        <ele>358.600006</ele>
        <time>2013-05-25T06:41:45Z</time>
      </trkpt>
      <trkpt lat="43.71911" lon="3.53712">
        <ele>358.299988</ele>
        <time>2013-05-25T06:41:46Z</time>
      </trkpt>
      <trkpt lat="43.71916" lon="3.5371">
        <ele>358.200012</ele>
        <time>2013-05-25T06:41:47Z</time>
      </trkpt>
      <trkpt lat="43.71924" lon="3.53708">
        <ele>358.100006</ele>
        <time>2013-05-25T06:41:49Z</time>
      </trkpt>
      <trkpt lat="43.71933" lon="3.53706">
        <ele>358.100006</ele>
        <time>2013-05-25T06:41:51Z</time>
      </trkpt>
      <trkpt lat="43.71941" lon="3.53704">
        <ele>357.5</ele>
        <time>2013-05-25T06:41:53Z</time>
      </trkpt>
      <trkpt lat="43.71949" lon="3.53703">
        <ele>357.200012</ele>
        <time>2013-05-25T06:41:55Z</time>
      </trkpt>
      <trkpt lat="43.71956" lon="3.53702">
        <ele>357.700012</ele>
        <time>2013-05-25T06:41:57Z</time>
      </trkpt>
      <trkpt lat="43.71964" lon="3.537">
        <ele>358.399994</ele>
        <time>2013-05-25T06:41:59Z</time>
      </trkpt>
      <trkpt lat="43.71972" lon="3.53698">
        <ele>359.100006</ele>
        <time>2013-05-25T06:42:01Z</time>
      </trkpt>
      <trkpt lat="43.71981" lon="3.53696">
        <ele>359.200012</ele>
        <time>2013-05-25T06:42:03Z</time>
      </trkpt>
      <trkpt lat="43.71986" lon="3.53695">
        <ele>359.200012</ele>
        <time>2013-05-25T06:42:04Z</time>
      </trkpt>
      <trkpt lat="43.7199" lon="3.53694">
        <ele>359.100006</ele>
        <time>2013-05-25T06:42:05Z</time>
      </trkpt>
      <trkpt lat="43.71995" lon="3.53692">
        <ele>359</ele>
        <time>2013-05-25T06:42:06Z</time>
      </trkpt>
      <trkpt lat="43.72" lon="3.53691">
        <ele>358.899994</ele>
        <time>2013-05-25T06:42:07Z</time>
      </trkpt>
      <trkpt lat="43.72005" lon="3.5369">
        <ele>358.600006</ele>
        <time>2013-05-25T06:42:08Z</time>
      </trkpt>
      <trkpt lat="43.7201" lon="3.53689">
        <ele>358.399994</ele>
        <time>2013-05-25T06:42:09Z</time>
      </trkpt>
      <trkpt lat="43.72015" lon="3.53688">
        <ele>358.200012</ele>
        <time>2013-05-25T06:42:10Z</time>
      </trkpt>
      <trkpt lat="43.7202" lon="3.53686">
        <ele>358.5</ele>
        <time>2013-05-25T06:42:11Z</time>
      </trkpt>
      <trkpt lat="43.72025" lon="3.53685">
        <ele>358.799988</ele>
        <time>2013-05-25T06:42:12Z</time>
      </trkpt>
      <trkpt lat="43.7203" lon="3.53684">
        <ele>359</ele>
        <time>2013-05-25T06:42:13Z</time>
      </trkpt>
      <trkpt lat="43.72034" lon="3.53683">
        <ele>359.100006</ele>
        <time>2013-05-25T06:42:14Z</time>
      </trkpt>
      <trkpt lat="43.72038" lon="3.53681">
        <ele>359.399994</ele>
        <time>2013-05-25T06:42:15Z</time>
      </trkpt>
      <trkpt lat="43.72043" lon="3.5368">
        <ele>359.700012</ele>
        <time>2013-05-25T06:42:16Z</time>
      </trkpt>
      <trkpt lat="43.72048" lon="3.53679">
        <ele>359.899994</ele>
        <time>2013-05-25T06:42:17Z</time>
      </trkpt>
      <trkpt lat="43.72052" lon="3.53677">
        <ele>359.799988</ele>
        <time>2013-05-25T06:42:18Z</time>
      </trkpt>
      <trkpt lat="43.72057" lon="3.53676">
        <ele>359.700012</ele>
        <time>2013-05-25T06:42:19Z</time>
      </trkpt>
      <trkpt lat="43.72062" lon="3.53674">
        <ele>359.600006</ele>
        <time>2013-05-25T06:42:20Z</time>
      </trkpt>
      <trkpt lat="43.72066" lon="3.53673">
        <ele>359.600006</ele>
        <time>2013-05-25T06:42:21Z</time>
      </trkpt>
      <trkpt lat="43.72071" lon="3.53671">
        <ele>359.600006</ele>
        <time>2013-05-25T06:42:22Z</time>
      </trkpt>
      <trkpt lat="43.72075" lon="3.53667">
        <ele>359.5</ele>
        <time>2013-05-25T06:42:23Z</time>
      </trkpt>
      <trkpt lat="43.72078" lon="3.53663">
        <ele>359.399994</ele>
        <time>2013-05-25T06:42:24Z</time>
      </trkpt>
      <trkpt lat="43.72083" lon="3.53653">
        <ele>359.299988</ele>
        <time>2013-05-25T06:42:26Z</time>
      </trkpt>
      <trkpt lat="43.7209" lon="3.53644">
        <ele>358.200012</ele>
        <time>2013-05-25T06:42:41Z</time>
      </trkpt>
      <trkpt lat="43.72087" lon="3.53633">
        <ele>358.700012</ele>
        <time>2013-05-25T06:45:13Z</time>
      </trkpt>
      <trkpt lat="43.72087" lon="3.53631">
        <ele>358.700012</ele>
        <time>2013-05-25T06:45:14Z</time>
      </trkpt>
      <trkpt lat="43.72089" lon="3.53612">
        <ele>358.299988</ele>
        <time>2013-05-25T06:45:21Z</time>
      </trkpt>
      <trkpt lat="43.72094" lon="3.53603">
        <ele>358.299988</ele>
        <time>2013-05-25T06:45:24Z</time>
      </trkpt>
      <trkpt lat="43.721" lon="3.53595">
        <ele>358.299988</ele>
        <time>2013-05-25T06:45:27Z</time>
      </trkpt>
      <trkpt lat="43.72106" lon="3.53587">
        <ele>357.899994</ele>
        <time>2013-05-25T06:45:30Z</time>
      </trkpt>
      <trkpt lat="43.72113" lon="3.5358">
        <ele>357.5</ele>
        <time>2013-05-25T06:45:33Z</time>
      </trkpt>
      <trkpt lat="43.7212" lon="3.53572">
        <ele>357.200012</ele>
        <time>2013-05-25T06:45:36Z</time>
      </trkpt>
      <trkpt lat="43.72126" lon="3.53565">
        <ele>356.799988</ele>
        <time>2013-05-25T06:45:39Z</time>
      </trkpt>
      <trkpt lat="43.72132" lon="3.53558">
        <ele>357.299988</ele>
        <time>2013-05-25T06:45:42Z</time>
      </trkpt>
      <trkpt lat="43.72139" lon="3.53552">
        <ele>358.100006</ele>
        <time>2013-05-25T06:45:45Z</time>
      </trkpt>
      <trkpt lat="43.72145" lon="3.53546">
        <ele>359.299988</ele>
        <time>2013-05-25T06:45:48Z</time>
      </trkpt>
      <trkpt lat="43.72153" lon="3.53541">
        <ele>360.299988</ele>
        <time>2013-05-25T06:45:51Z</time>
      </trkpt>
      <trkpt lat="43.7216" lon="3.53538">
        <ele>361</ele>
        <time>2013-05-25T06:45:54Z</time>
      </trkpt>
      <trkpt lat="43.72167" lon="3.53535">
        <ele>362.100006</ele>
        <time>2013-05-25T06:45:57Z</time>
      </trkpt>
      <trkpt lat="43.72173" lon="3.5353">
        <ele>362.399994</ele>
        <time>2013-05-25T06:46:00Z</time>
      </trkpt>
      <trkpt lat="43.7218" lon="3.53523">
        <ele>361.899994</ele>
        <time>2013-05-25T06:46:04Z</time>
      </trkpt>
      <trkpt lat="43.72185" lon="3.53517">
        <ele>362</ele>
        <time>2013-05-25T06:46:07Z</time>
      </trkpt>
      <trkpt lat="43.72191" lon="3.53511">
        <ele>363.100006</ele>
        <time>2013-05-25T06:46:10Z</time>
      </trkpt>
      <trkpt lat="43.72196" lon="3.53504">
        <ele>364.200012</ele>
        <time>2013-05-25T06:46:13Z</time>
      </trkpt>
      <trkpt lat="43.72202" lon="3.53496">
        <ele>365.399994</ele>
        <time>2013-05-25T06:46:17Z</time>
      </trkpt>
      <trkpt lat="43.72204" lon="3.53494">
        <ele>365.700012</ele>
        <time>2013-05-25T06:46:18Z</time>
      </trkpt>
      <trkpt lat="43.72213" lon="3.53484">
        <ele>366.5</ele>
        <time>2013-05-25T06:46:23Z</time>
      </trkpt>
      <trkpt lat="43.72219" lon="3.53476">
        <ele>367.299988</ele>
        <time>2013-05-25T06:46:27Z</time>
      </trkpt>
      <trkpt lat="43.72226" lon="3.53468">
        <ele>367.899994</ele>
        <time>2013-05-25T06:46:31Z</time>
      </trkpt>
      <trkpt lat="43.72232" lon="3.53459">
        <ele>368.700012</ele>
        <time>2013-05-25T06:46:35Z</time>
      </trkpt>
      <trkpt lat="43.72236" lon="3.53452">
        <ele>368.799988</ele>
        <time>2013-05-25T06:46:38Z</time>
      </trkpt>
      <trkpt lat="43.7224" lon="3.53441">
        <ele>369.299988</ele>
        <time>2013-05-25T06:46:42Z</time>
      </trkpt>
      <trkpt lat="43.72241" lon="3.53431">
        <ele>368.799988</ele>
        <time>2013-05-25T06:46:46Z</time>
      </trkpt>
      <trkpt lat="43.7224" lon="3.53419">
        <ele>370</ele>
        <time>2013-05-25T06:46:50Z</time>
      </trkpt>
      <trkpt lat="43.72238" lon="3.53408">
        <ele>370.799988</ele>
        <time>2013-05-25T06:46:54Z</time>
      </trkpt>
      <trkpt lat="43.72236" lon="3.53397">
        <ele>371.200012</ele>
        <time>2013-05-25T06:46:58Z</time>
      </trkpt>
      <trkpt lat="43.72234" lon="3.53385">
        <ele>371.700012</ele>
        <time>2013-05-25T06:47:02Z</time>
      </trkpt>
      <trkpt lat="43.72233" lon="3.53374">
        <ele>373</ele>
        <time>2013-05-25T06:47:06Z</time>
      </trkpt>
      <trkpt lat="43.72232" lon="3.53364">
        <ele>372.799988</ele>
        <time>2013-05-25T06:47:09Z</time>
      </trkpt>
      <trkpt lat="43.72231" lon="3.53355">
        <ele>373.399994</ele>
        <time>2013-05-25T06:47:12Z</time>
      </trkpt>
      <trkpt lat="43.7223" lon="3.53343">
        <ele>374</ele>
        <time>2013-05-25T06:47:16Z</time>
      </trkpt>
      <trkpt lat="43.72229" lon="3.53331">
        <ele>375.200012</ele>
        <time>2013-05-25T06:47:20Z</time>
      </trkpt>
      <trkpt lat="43.72229" lon="3.53328">
        <ele>375.299988</ele>
        <time>2013-05-25T06:47:21Z</time>
      </trkpt>
      <trkpt lat="43.72231" lon="3.53307">
        <ele>375.899994</ele>
        <time>2013-05-25T06:47:28Z</time>
      </trkpt>
      <trkpt lat="43.72232" lon="3.53295">
        <ele>377.700012</ele>
        <time>2013-05-25T06:47:32Z</time>
      </trkpt>
      <trkpt lat="43.72232" lon="3.53286">
        <ele>377.200012</ele>
        <time>2013-05-25T06:47:35Z</time>
      </trkpt>
      <trkpt lat="43.7223" lon="3.53274">
        <ele>378.700012</ele>
        <time>2013-05-25T06:47:39Z</time>
      </trkpt>
      <trkpt lat="43.72227" lon="3.53264">
        <ele>380.700012</ele>
        <time>2013-05-25T06:47:43Z</time>
      </trkpt>
      <trkpt lat="43.72224" lon="3.53254">
        <ele>381.399994</ele>
        <time>2013-05-25T06:47:47Z</time>
      </trkpt>
      <trkpt lat="43.72221" lon="3.53242">
        <ele>381.799988</ele>
        <time>2013-05-25T06:47:51Z</time>
      </trkpt>
      <trkpt lat="43.72224" lon="3.5323">
        <ele>381.700012</ele>
        <time>2013-05-25T06:47:55Z</time>
      </trkpt>
      <trkpt lat="43.72232" lon="3.53234">
        <ele>383.700012</ele>
        <time>2013-05-25T06:48:00Z</time>
      </trkpt>
      <trkpt lat="43.72238" lon="3.53244">
        <ele>384.899994</ele>
        <time>2013-05-25T06:48:05Z</time>
      </trkpt>
      <trkpt lat="43.72244" lon="3.53249">
        <ele>385.200012</ele>
        <time>2013-05-25T06:48:09Z</time>
      </trkpt>
      <trkpt lat="43.72251" lon="3.53253">
        <ele>385.600006</ele>
        <time>2013-05-25T06:48:13Z</time>
      </trkpt>
      <trkpt lat="43.72258" lon="3.53258">
        <ele>385.5</ele>
        <time>2013-05-25T06:48:17Z</time>
      </trkpt>
      <trkpt lat="43.72264" lon="3.53264">
        <ele>385.899994</ele>
        <time>2013-05-25T06:48:21Z</time>
      </trkpt>
      <trkpt lat="43.72265" lon="3.53266">
        <ele>386.100006</ele>
        <time>2013-05-25T06:48:22Z</time>
      </trkpt>
      <trkpt lat="43.72274" lon="3.53281">
        <ele>386.600006</ele>
        <time>2013-05-25T06:48:29Z</time>
      </trkpt>
      <trkpt lat="43.72279" lon="3.53289">
        <ele>387.200012</ele>
        <time>2013-05-25T06:48:33Z</time>
      </trkpt>
      <trkpt lat="43.72284" lon="3.53297">
        <ele>387.700012</ele>
        <time>2013-05-25T06:48:37Z</time>
      </trkpt>
      <trkpt lat="43.72289" lon="3.53306">
        <ele>388.700012</ele>
        <time>2013-05-25T06:48:41Z</time>
      </trkpt>
      <trkpt lat="43.72295" lon="3.53313">
        <ele>389.600006</ele>
        <time>2013-05-25T06:48:45Z</time>
      </trkpt>
      <trkpt lat="43.72301" lon="3.53319">
        <ele>390</ele>
        <time>2013-05-25T06:48:49Z</time>
      </trkpt>
      <trkpt lat="43.72309" lon="3.53323">
        <ele>390.200012</ele>
        <time>2013-05-25T06:48:53Z</time>
      </trkpt>
      <trkpt lat="43.72317" lon="3.53325">
        <ele>391.299988</ele>
        <time>2013-05-25T06:48:57Z</time>
      </trkpt>
      <trkpt lat="43.72324" lon="3.53324">
        <ele>391.5</ele>
        <time>2013-05-25T06:49:01Z</time>
      </trkpt>
      <trkpt lat="43.72332" lon="3.53322">
        <ele>392.600006</ele>
        <time>2013-05-25T06:49:05Z</time>
      </trkpt>
      <trkpt lat="43.72339" lon="3.53318">
        <ele>393.600006</ele>
        <time>2013-05-25T06:49:09Z</time>
      </trkpt>
      <trkpt lat="43.72347" lon="3.53315">
        <ele>394.200012</ele>
        <time>2013-05-25T06:49:13Z</time>
      </trkpt>
      <trkpt lat="43.72355" lon="3.53313">
        <ele>395</ele>
        <time>2013-05-25T06:49:17Z</time>
      </trkpt>
      <trkpt lat="43.72363" lon="3.53313">
        <ele>395.600006</ele>
        <time>2013-05-25T06:49:21Z</time>
      </trkpt>
      <trkpt lat="43.72371" lon="3.53312">
        <ele>395.899994</ele>
        <time>2013-05-25T06:49:25Z</time>
      </trkpt>
      <trkpt lat="43.72373" lon="3.53312">
        <ele>396</ele>
        <time>2013-05-25T06:49:26Z</time>
      </trkpt>
      <trkpt lat="43.72386" lon="3.53311">
        <ele>396.200012</ele>
        <time>2013-05-25T06:49:33Z</time>
      </trkpt>
      <trkpt lat="43.72382" lon="3.53301">
        <ele>398.600006</ele>
        <time>2013-05-25T06:49:42Z</time>
      </trkpt>
      <trkpt lat="43.72375" lon="3.53299">
        <ele>399.799988</ele>
        <time>2013-05-25T06:49:46Z</time>
      </trkpt>
      <trkpt lat="43.72368" lon="3.53295">
        <ele>399.700012</ele>
        <time>2013-05-25T06:49:50Z</time>
      </trkpt>
      <trkpt lat="43.72362" lon="3.5329">
        <ele>399.5</ele>
        <time>2013-05-25T06:49:54Z</time>
      </trkpt>
      <trkpt lat="43.72356" lon="3.53282">
        <ele>400.200012</ele>
        <time>2013-05-25T06:49:58Z</time>
      </trkpt>
      <trkpt lat="43.72351" lon="3.53273">
        <ele>401.5</ele>
        <time>2013-05-25T06:50:02Z</time>
      </trkpt>
      <trkpt lat="43.72347" lon="3.53264">
        <ele>402.700012</ele>
        <time>2013-05-25T06:50:06Z</time>
      </trkpt>
      <trkpt lat="43.72343" lon="3.53254">
        <ele>403.200012</ele>
        <time>2013-05-25T06:50:10Z</time>
      </trkpt>
      <trkpt lat="43.7234" lon="3.53244">
        <ele>402.799988</ele>
        <time>2013-05-25T06:50:14Z</time>
      </trkpt>
      <trkpt lat="43.72337" lon="3.53233">
        <ele>404.899994</ele>
        <time>2013-05-25T06:50:18Z</time>
      </trkpt>
      <trkpt lat="43.72336" lon="3.53222">
        <ele>405.299988</ele>
        <time>2013-05-25T06:50:22Z</time>
      </trkpt>
      <trkpt lat="43.72334" lon="3.53211">
        <ele>405.600006</ele>
        <time>2013-05-25T06:50:26Z</time>
      </trkpt>
      <trkpt lat="43.72334" lon="3.53208">
        <ele>405.799988</ele>
        <time>2013-05-25T06:50:27Z</time>
      </trkpt>
      <trkpt lat="43.72332" lon="3.5319">
        <ele>406.700012</ele>
        <time>2013-05-25T06:50:34Z</time>
      </trkpt>
      <trkpt lat="43.7233" lon="3.53178">
        <ele>407.399994</ele>
        <time>2013-05-25T06:50:38Z</time>
      </trkpt>
      <trkpt lat="43.7233" lon="3.53167">
        <ele>407.399994</ele>
        <time>2013-05-25T06:50:42Z</time>
      </trkpt>
      <trkpt lat="43.72329" lon="3.53156">
        <ele>407.600006</ele>
        <time>2013-05-25T06:50:46Z</time>
      </trkpt>
      <trkpt lat="43.72328" lon="3.53145">
        <ele>408.899994</ele>
        <time>2013-05-25T06:50:50Z</time>
      </trkpt>
      <trkpt lat="43.72328" lon="3.53134">
        <ele>409.600006</ele>
        <time>2013-05-25T06:50:54Z</time>
      </trkpt>
      <trkpt lat="43.72328" lon="3.53123">
        <ele>410.100006</ele>
        <time>2013-05-25T06:50:58Z</time>
      </trkpt>
      <trkpt lat="43.7233" lon="3.53113">
        <ele>411.5</ele>
        <time>2013-05-25T06:51:02Z</time>
      </trkpt>
      <trkpt lat="43.72332" lon="3.53102">
        <ele>412.600006</ele>
        <time>2013-05-25T06:51:06Z</time>
      </trkpt>
      <trkpt lat="43.72334" lon="3.53091">
        <ele>414</ele>
        <time>2013-05-25T06:51:10Z</time>
      </trkpt>
      <trkpt lat="43.72336" lon="3.5308">
        <ele>414.299988</ele>
        <time>2013-05-25T06:51:14Z</time>
      </trkpt>
      <trkpt lat="43.72338" lon="3.53069">
        <ele>415.5</ele>
        <time>2013-05-25T06:51:18Z</time>
      </trkpt>
      <trkpt lat="43.7234" lon="3.53059">
        <ele>416.299988</ele>
        <time>2013-05-25T06:51:22Z</time>
      </trkpt>
      <trkpt lat="43.72341" lon="3.53048">
        <ele>417.399994</ele>
        <time>2013-05-25T06:51:26Z</time>
      </trkpt>
      <trkpt lat="43.72343" lon="3.53037">
        <ele>417.899994</ele>
        <time>2013-05-25T06:51:30Z</time>
      </trkpt>
      <trkpt lat="43.72344" lon="3.53035">
        <ele>417.799988</ele>
        <time>2013-05-25T06:51:31Z</time>
      </trkpt>
      <trkpt lat="43.72352" lon="3.53018">
        <ele>417</ele>
        <time>2013-05-25T06:51:38Z</time>
      </trkpt>
      <trkpt lat="43.72356" lon="3.5301">
        <ele>418.399994</ele>
        <time>2013-05-25T06:51:42Z</time>
      </trkpt>
      <trkpt lat="43.72361" lon="3.53002">
        <ele>419.600006</ele>
        <time>2013-05-25T06:51:46Z</time>
      </trkpt>
      <trkpt lat="43.72365" lon="3.52993">
        <ele>421.200012</ele>
        <time>2013-05-25T06:51:50Z</time>
      </trkpt>
      <trkpt lat="43.7237" lon="3.52983">
        <ele>421.299988</ele>
        <time>2013-05-25T06:51:55Z</time>
      </trkpt>
      <trkpt lat="43.72376" lon="3.52976">
        <ele>422.899994</ele>
        <time>2013-05-25T06:51:59Z</time>
      </trkpt>
      <trkpt lat="43.72381" lon="3.52968">
        <ele>421.899994</ele>
        <time>2013-05-25T06:52:03Z</time>
      </trkpt>
      <trkpt lat="43.72385" lon="3.52959">
        <ele>422.399994</ele>
        <time>2013-05-25T06:52:07Z</time>
      </trkpt>
      <trkpt lat="43.72388" lon="3.52949">
        <ele>423</ele>
        <time>2013-05-25T06:52:11Z</time>
      </trkpt>
      <trkpt lat="43.7239" lon="3.52938">
        <ele>423.5</ele>
        <time>2013-05-25T06:52:15Z</time>
      </trkpt>
      <trkpt lat="43.72394" lon="3.52929">
        <ele>424.200012</ele>
        <time>2013-05-25T06:52:19Z</time>
      </trkpt>
      <trkpt lat="43.724" lon="3.52922">
        <ele>424.299988</ele>
        <time>2013-05-25T06:52:23Z</time>
      </trkpt>
      <trkpt lat="43.72408" lon="3.52926">
        <ele>424.899994</ele>
        <time>2013-05-25T06:52:27Z</time>
      </trkpt>
      <trkpt lat="43.7241" lon="3.52938">
        <ele>424.899994</ele>
        <time>2013-05-25T06:52:31Z</time>
      </trkpt>
      <trkpt lat="43.72409" lon="3.52941">
        <ele>425</ele>
        <time>2013-05-25T06:52:32Z</time>
      </trkpt>
      <trkpt lat="43.72403" lon="3.52956">
        <ele>425.799988</ele>
        <time>2013-05-25T06:52:37Z</time>
      </trkpt>
      <trkpt lat="43.72399" lon="3.52964">
        <ele>426.700012</ele>
        <time>2013-05-25T06:52:40Z</time>
      </trkpt>
      <trkpt lat="43.72394" lon="3.52974">
        <ele>427.399994</ele>
        <time>2013-05-25T06:52:44Z</time>
      </trkpt>
      <trkpt lat="43.72391" lon="3.52983">
        <ele>427.399994</ele>
        <time>2013-05-25T06:52:47Z</time>
      </trkpt>
      <trkpt lat="43.7239" lon="3.52995">
        <ele>428.200012</ele>
        <time>2013-05-25T06:52:51Z</time>
      </trkpt>
      <trkpt lat="43.72388" lon="3.53007">
        <ele>427.899994</ele>
        <time>2013-05-25T06:52:55Z</time>
      </trkpt>
      <trkpt lat="43.72387" lon="3.53019">
        <ele>428.5</ele>
        <time>2013-05-25T06:52:59Z</time>
      </trkpt>
      <trkpt lat="43.72387" lon="3.53032">
        <ele>428.100006</ele>
        <time>2013-05-25T06:53:03Z</time>
      </trkpt>
      <trkpt lat="43.72387" lon="3.53041">
        <ele>428.799988</ele>
        <time>2013-05-25T06:53:06Z</time>
      </trkpt>
      <trkpt lat="43.72389" lon="3.5305">
        <ele>429.299988</ele>
        <time>2013-05-25T06:53:09Z</time>
      </trkpt>
      <trkpt lat="43.72394" lon="3.5306">
        <ele>431</ele>
        <time>2013-05-25T06:53:13Z</time>
      </trkpt>
      <trkpt lat="43.72401" lon="3.53068">
        <ele>431.899994</ele>
        <time>2013-05-25T06:53:17Z</time>
      </trkpt>
      <trkpt lat="43.72408" lon="3.53074">
        <ele>433.299988</ele>
        <time>2013-05-25T06:53:21Z</time>
      </trkpt>
      <trkpt lat="43.72415" lon="3.53077">
        <ele>432.299988</ele>
        <time>2013-05-25T06:53:25Z</time>
      </trkpt>
      <trkpt lat="43.72423" lon="3.53082">
        <ele>434.700012</ele>
        <time>2013-05-25T06:53:29Z</time>
      </trkpt>
      <trkpt lat="43.7243" lon="3.53086">
        <ele>435.100006</ele>
        <time>2013-05-25T06:53:33Z</time>
      </trkpt>
      <trkpt lat="43.72432" lon="3.53086">
        <ele>435.200012</ele>
        <time>2013-05-25T06:53:34Z</time>
      </trkpt>
      <trkpt lat="43.72446" lon="3.53084">
        <ele>436.5</ele>
        <time>2013-05-25T06:53:42Z</time>
      </trkpt>
      <trkpt lat="43.72446" lon="3.53074">
        <ele>436.899994</ele>
        <time>2013-05-25T06:53:46Z</time>
      </trkpt>
      <trkpt lat="43.7244" lon="3.53066">
        <ele>437.700012</ele>
        <time>2013-05-25T06:53:50Z</time>
      </trkpt>
      <trkpt lat="43.72435" lon="3.53057">
        <ele>439.100006</ele>
        <time>2013-05-25T06:53:54Z</time>
      </trkpt>
      <trkpt lat="43.72434" lon="3.53045">
        <ele>439.5</ele>
        <time>2013-05-25T06:53:58Z</time>
      </trkpt>
      <trkpt lat="43.72435" lon="3.53034">
        <ele>439.899994</ele>
        <time>2013-05-25T06:54:02Z</time>
      </trkpt>
      <trkpt lat="43.72438" lon="3.53024">
        <ele>438.700012</ele>
        <time>2013-05-25T06:54:06Z</time>
      </trkpt>
      <trkpt lat="43.72442" lon="3.53015">
        <ele>439.200012</ele>
        <time>2013-05-25T06:54:10Z</time>
      </trkpt>
      <trkpt lat="43.72447" lon="3.53006">
        <ele>440.299988</ele>
        <time>2013-05-25T06:54:14Z</time>
      </trkpt>
      <trkpt lat="43.72453" lon="3.52999">
        <ele>441.799988</ele>
        <time>2013-05-25T06:54:18Z</time>
      </trkpt>
      <trkpt lat="43.72458" lon="3.52991">
        <ele>442.700012</ele>
        <time>2013-05-25T06:54:22Z</time>
      </trkpt>
      <trkpt lat="43.72462" lon="3.52982">
        <ele>445.100006</ele>
        <time>2013-05-25T06:54:26Z</time>
      </trkpt>
      <trkpt lat="43.72466" lon="3.52973">
        <ele>446</ele>
        <time>2013-05-25T06:54:30Z</time>
      </trkpt>
      <trkpt lat="43.72469" lon="3.52963">
        <ele>446.700012</ele>
        <time>2013-05-25T06:54:34Z</time>
      </trkpt>
      <trkpt lat="43.72469" lon="3.5296">
        <ele>446.799988</ele>
        <time>2013-05-25T06:54:35Z</time>
      </trkpt>
      <trkpt lat="43.72475" lon="3.52943">
        <ele>448.100006</ele>
        <time>2013-05-25T06:54:43Z</time>
      </trkpt>
      <trkpt lat="43.7248" lon="3.52953">
        <ele>449.5</ele>
        <time>2013-05-25T06:54:49Z</time>
      </trkpt>
      <trkpt lat="43.72482" lon="3.52965">
        <ele>450.200012</ele>
        <time>2013-05-25T06:54:54Z</time>
      </trkpt>
      <trkpt lat="43.72484" lon="3.52977">
        <ele>450</ele>
        <time>2013-05-25T06:54:59Z</time>
      </trkpt>
      <trkpt lat="43.72487" lon="3.52988">
        <ele>451.399994</ele>
        <time>2013-05-25T06:55:04Z</time>
      </trkpt>
      <trkpt lat="43.72494" lon="3.52995">
        <ele>452.100006</ele>
        <time>2013-05-25T06:55:09Z</time>
      </trkpt>
      <trkpt lat="43.72497" lon="3.52986">
        <ele>454.399994</ele>
        <time>2013-05-25T06:55:14Z</time>
      </trkpt>
      <trkpt lat="43.72497" lon="3.52974">
        <ele>454.899994</ele>
        <time>2013-05-25T06:55:19Z</time>
      </trkpt>
      <trkpt lat="43.72498" lon="3.52963">
        <ele>455.799988</ele>
        <time>2013-05-25T06:55:23Z</time>
      </trkpt>
      <trkpt lat="43.72499" lon="3.52952">
        <ele>456.399994</ele>
        <time>2013-05-25T06:55:27Z</time>
      </trkpt>
      <trkpt lat="43.72501" lon="3.52941">
        <ele>456.100006</ele>
        <time>2013-05-25T06:55:31Z</time>
      </trkpt>
      <trkpt lat="43.72503" lon="3.5293">
        <ele>456.399994</ele>
        <time>2013-05-25T06:55:35Z</time>
      </trkpt>
      <trkpt lat="43.72504" lon="3.52928">
        <ele>456.100006</ele>
        <time>2013-05-25T06:55:36Z</time>
      </trkpt>
      <trkpt lat="43.72507" lon="3.52911">
        <ele>457.299988</ele>
        <time>2013-05-25T06:55:43Z</time>
      </trkpt>
      <trkpt lat="43.72509" lon="3.529">
        <ele>458.399994</ele>
        <time>2013-05-25T06:55:47Z</time>
      </trkpt>
      <trkpt lat="43.7251" lon="3.52889">
        <ele>459.299988</ele>
        <time>2013-05-25T06:55:51Z</time>
      </trkpt>
      <trkpt lat="43.72511" lon="3.52879">
        <ele>459</ele>
        <time>2013-05-25T06:55:55Z</time>
      </trkpt>
      <trkpt lat="43.72512" lon="3.52869">
        <ele>459.5</ele>
        <time>2013-05-25T06:55:59Z</time>
      </trkpt>
      <trkpt lat="43.72513" lon="3.52859">
        <ele>461</ele>
        <time>2013-05-25T06:56:03Z</time>
      </trkpt>
      <trkpt lat="43.72514" lon="3.52848">
        <ele>461.799988</ele>
        <time>2013-05-25T06:56:07Z</time>
      </trkpt>
      <trkpt lat="43.72515" lon="3.52838">
        <ele>462.700012</ele>
        <time>2013-05-25T06:56:11Z</time>
      </trkpt>
      <trkpt lat="43.72516" lon="3.52827">
        <ele>463.299988</ele>
        <time>2013-05-25T06:56:15Z</time>
      </trkpt>
      <trkpt lat="43.72518" lon="3.52817">
        <ele>464.399994</ele>
        <time>2013-05-25T06:56:19Z</time>
      </trkpt>
      <trkpt lat="43.7252" lon="3.52807">
        <ele>464.799988</ele>
        <time>2013-05-25T06:56:23Z</time>
      </trkpt>
      <trkpt lat="43.72523" lon="3.52797">
        <ele>465.200012</ele>
        <time>2013-05-25T06:56:27Z</time>
      </trkpt>
      <trkpt lat="43.72527" lon="3.52789">
        <ele>466.100006</ele>
        <time>2013-05-25T06:56:31Z</time>
      </trkpt>
      <trkpt lat="43.72531" lon="3.5278">
        <ele>466.399994</ele>
        <time>2013-05-25T06:56:35Z</time>
      </trkpt>
      <trkpt lat="43.72534" lon="3.5277">
        <ele>468.200012</ele>
        <time>2013-05-25T06:56:39Z</time>
      </trkpt>
      <trkpt lat="43.72534" lon="3.52768">
        <ele>468.399994</ele>
        <time>2013-05-25T06:56:40Z</time>
      </trkpt>
      <trkpt lat="43.7253" lon="3.5275">
        <ele>469.600006</ele>
        <time>2013-05-25T06:56:47Z</time>
      </trkpt>
      <trkpt lat="43.72527" lon="3.52741">
        <ele>470.799988</ele>
        <time>2013-05-25T06:56:51Z</time>
      </trkpt>
      <trkpt lat="43.72525" lon="3.52729">
        <ele>472.700012</ele>
        <time>2013-05-25T06:56:56Z</time>
      </trkpt>
      <trkpt lat="43.72524" lon="3.52719">
        <ele>473</ele>
        <time>2013-05-25T06:57:00Z</time>
      </trkpt>
      <trkpt lat="43.72527" lon="3.52709">
        <ele>473.899994</ele>
        <time>2013-05-25T06:57:04Z</time>
      </trkpt>
      <trkpt lat="43.7253" lon="3.52699">
        <ele>473.799988</ele>
        <time>2013-05-25T06:57:08Z</time>
      </trkpt>
      <trkpt lat="43.72532" lon="3.5269">
        <ele>474.700012</ele>
        <time>2013-05-25T06:57:12Z</time>
      </trkpt>
      <trkpt lat="43.72534" lon="3.5268">
        <ele>475</ele>
        <time>2013-05-25T06:57:16Z</time>
      </trkpt>
      <trkpt lat="43.72537" lon="3.5267">
        <ele>475.799988</ele>
        <time>2013-05-25T06:57:20Z</time>
      </trkpt>
      <trkpt lat="43.7254" lon="3.52661">
        <ele>477.200012</ele>
        <time>2013-05-25T06:57:24Z</time>
      </trkpt>
      <trkpt lat="43.72545" lon="3.52651">
        <ele>478.899994</ele>
        <time>2013-05-25T06:57:29Z</time>
      </trkpt>
      <trkpt lat="43.7255" lon="3.52642">
        <ele>478.100006</ele>
        <time>2013-05-25T06:57:34Z</time>
      </trkpt>
      <trkpt lat="43.72557" lon="3.52634">
        <ele>477.899994</ele>
        <time>2013-05-25T06:57:39Z</time>
      </trkpt>
      <trkpt lat="43.72563" lon="3.52626">
        <ele>480</ele>
        <time>2013-05-25T06:57:44Z</time>
      </trkpt>
      <trkpt lat="43.72565" lon="3.52625">
        <ele>480.299988</ele>
        <time>2013-05-25T06:57:45Z</time>
      </trkpt>
      <trkpt lat="43.72578" lon="3.52613">
        <ele>479.700012</ele>
        <time>2013-05-25T06:57:54Z</time>
      </trkpt>
      <trkpt lat="43.72585" lon="3.52606">
        <ele>480.5</ele>
        <time>2013-05-25T06:57:59Z</time>
      </trkpt>
      <trkpt lat="43.7259" lon="3.52599">
        <ele>481.200012</ele>
        <time>2013-05-25T06:58:03Z</time>
      </trkpt>
      <trkpt lat="43.72596" lon="3.52591">
        <ele>482.899994</ele>
        <time>2013-05-25T06:58:08Z</time>
      </trkpt>
      <trkpt lat="43.72602" lon="3.52582">
        <ele>484.299988</ele>
        <time>2013-05-25T06:58:13Z</time>
      </trkpt>
      <trkpt lat="43.72607" lon="3.52574">
        <ele>485.600006</ele>
        <time>2013-05-25T06:58:18Z</time>
      </trkpt>
      <trkpt lat="43.72614" lon="3.52566">
        <ele>486.299988</ele>
        <time>2013-05-25T06:58:23Z</time>
      </trkpt>
      <trkpt lat="43.7262" lon="3.52558">
        <ele>486.600006</ele>
        <time>2013-05-25T06:58:28Z</time>
      </trkpt>
      <trkpt lat="43.72626" lon="3.52552">
        <ele>487.600006</ele>
        <time>2013-05-25T06:58:32Z</time>
      </trkpt>
      <trkpt lat="43.72632" lon="3.52544">
        <ele>488.799988</ele>
        <time>2013-05-25T06:58:37Z</time>
      </trkpt>
      <trkpt lat="43.72638" lon="3.52534">
        <ele>490.600006</ele>
        <time>2013-05-25T06:58:42Z</time>
      </trkpt>
      <trkpt lat="43.72643" lon="3.52525">
        <ele>491.200012</ele>
        <time>2013-05-25T06:58:47Z</time>
      </trkpt>
      <trkpt lat="43.72644" lon="3.52522">
        <ele>491.299988</ele>
        <time>2013-05-25T06:58:48Z</time>
      </trkpt>
      <trkpt lat="43.72652" lon="3.52506">
        <ele>492</ele>
        <time>2013-05-25T06:58:56Z</time>
      </trkpt>
      <trkpt lat="43.72657" lon="3.52496">
        <ele>493.299988</ele>
        <time>2013-05-25T06:59:01Z</time>
      </trkpt>
      <trkpt lat="43.72661" lon="3.52485">
        <ele>493.600006</ele>
        <time>2013-05-25T06:59:06Z</time>
      </trkpt>
      <trkpt lat="43.72666" lon="3.52475">
        <ele>495.700012</ele>
        <time>2013-05-25T06:59:11Z</time>
      </trkpt>
      <trkpt lat="43.72671" lon="3.52466">
        <ele>497.299988</ele>
        <time>2013-05-25T06:59:16Z</time>
      </trkpt>
      <trkpt lat="43.72675" lon="3.52458">
        <ele>498.600006</ele>
        <time>2013-05-25T06:59:20Z</time>
      </trkpt>
      <trkpt lat="43.72681" lon="3.52449">
        <ele>500.700012</ele>
        <time>2013-05-25T06:59:25Z</time>
      </trkpt>
      <trkpt lat="43.72687" lon="3.5244">
        <ele>500.799988</ele>
        <time>2013-05-25T06:59:30Z</time>
      </trkpt>
      <trkpt lat="43.72694" lon="3.52433">
        <ele>500.700012</ele>
        <time>2013-05-25T06:59:35Z</time>
      </trkpt>
      <trkpt lat="43.72701" lon="3.52427">
        <ele>500.100006</ele>
        <time>2013-05-25T06:59:40Z</time>
      </trkpt>
      <trkpt lat="43.72709" lon="3.52422">
        <ele>500.200012</ele>
        <time>2013-05-25T06:59:45Z</time>
      </trkpt>
      <trkpt lat="43.72717" lon="3.52418">
        <ele>499.899994</ele>
        <time>2013-05-25T06:59:50Z</time>
      </trkpt>
      <trkpt lat="43.72719" lon="3.52417">
        <ele>499.5</ele>
        <time>2013-05-25T06:59:51Z</time>
      </trkpt>
      <trkpt lat="43.72732" lon="3.52409">
        <ele>499.899994</ele>
        <time>2013-05-25T06:59:59Z</time>
      </trkpt>
      <trkpt lat="43.72739" lon="3.52405">
        <ele>499.899994</ele>
        <time>2013-05-25T07:00:03Z</time>
      </trkpt>
      <trkpt lat="43.72747" lon="3.524">
        <ele>499.700012</ele>
        <time>2013-05-25T07:00:07Z</time>
      </trkpt>
      <trkpt lat="43.72754" lon="3.52393">
        <ele>500.600006</ele>
        <time>2013-05-25T07:00:11Z</time>
      </trkpt>
      <trkpt lat="43.72759" lon="3.52387">
        <ele>500.100006</ele>
        <time>2013-05-25T07:00:14Z</time>
      </trkpt>
      <trkpt lat="43.72765" lon="3.5238">
        <ele>499.299988</ele>
        <time>2013-05-25T07:00:17Z</time>
      </trkpt>
      <trkpt lat="43.7277" lon="3.52373">
        <ele>499.700012</ele>
        <time>2013-05-25T07:00:20Z</time>
      </trkpt>
      <trkpt lat="43.72775" lon="3.52366">
        <ele>501.700012</ele>
        <time>2013-05-25T07:00:23Z</time>
      </trkpt>
      <trkpt lat="43.72779" lon="3.52358">
        <ele>503.200012</ele>
        <time>2013-05-25T07:00:26Z</time>
      </trkpt>
      <trkpt lat="43.72784" lon="3.5235">
        <ele>504.5</ele>
        <time>2013-05-25T07:00:29Z</time>
      </trkpt>
      <trkpt lat="43.72789" lon="3.52341">
        <ele>506.100006</ele>
        <time>2013-05-25T07:00:32Z</time>
      </trkpt>
      <trkpt lat="43.72794" lon="3.52333">
        <ele>506.600006</ele>
        <time>2013-05-25T07:00:35Z</time>
      </trkpt>
      <trkpt lat="43.72798" lon="3.52325">
        <ele>507.100006</ele>
        <time>2013-05-25T07:00:38Z</time>
      </trkpt>
      <trkpt lat="43.72804" lon="3.52316">
        <ele>508.600006</ele>
        <time>2013-05-25T07:00:42Z</time>
      </trkpt>
      <trkpt lat="43.7281" lon="3.52308">
        <ele>508.299988</ele>
        <time>2013-05-25T07:00:46Z</time>
      </trkpt>
      <trkpt lat="43.72815" lon="3.52299">
        <ele>508.799988</ele>
        <time>2013-05-25T07:00:50Z</time>
      </trkpt>
      <trkpt lat="43.72821" lon="3.52289">
        <ele>509.600006</ele>
        <time>2013-05-25T07:00:54Z</time>
      </trkpt>
      <trkpt lat="43.72822" lon="3.52287">
        <ele>509.899994</ele>
        <time>2013-05-25T07:00:55Z</time>
      </trkpt>
      <trkpt lat="43.72828" lon="3.52279">
        <ele>508.700012</ele>
        <time>2013-05-25T07:03:09Z</time>
      </trkpt>
      <trkpt lat="43.72837" lon="3.52264">
        <ele>510.399994</ele>
        <time>2013-05-25T07:03:16Z</time>
      </trkpt>
      <trkpt lat="43.72843" lon="3.52257">
        <ele>511</ele>
        <time>2013-05-25T07:03:20Z</time>
      </trkpt>
      <trkpt lat="43.72849" lon="3.5225">
        <ele>511.399994</ele>
        <time>2013-05-25T07:03:24Z</time>
      </trkpt>
      <trkpt lat="43.72857" lon="3.52243">
        <ele>511.600006</ele>
        <time>2013-05-25T07:03:29Z</time>
      </trkpt>
      <trkpt lat="43.72862" lon="3.52236">
        <ele>511.799988</ele>
        <time>2013-05-25T07:03:33Z</time>
      </trkpt>
      <trkpt lat="43.72868" lon="3.52229">
        <ele>511.899994</ele>
        <time>2013-05-25T07:03:37Z</time>
      </trkpt>
      <trkpt lat="43.72874" lon="3.52222">
        <ele>511.799988</ele>
        <time>2013-05-25T07:03:41Z</time>
      </trkpt>
      <trkpt lat="43.72881" lon="3.52217">
        <ele>513.200012</ele>
        <time>2013-05-25T07:03:45Z</time>
      </trkpt>
      <trkpt lat="43.72889" lon="3.52212">
        <ele>514.599976</ele>
        <time>2013-05-25T07:03:49Z</time>
      </trkpt>
      <trkpt lat="43.72896" lon="3.52207">
        <ele>514.799988</ele>
        <time>2013-05-25T07:03:53Z</time>
      </trkpt>
      <trkpt lat="43.72904" lon="3.52205">
        <ele>515.700012</ele>
        <time>2013-05-25T07:03:57Z</time>
      </trkpt>
      <trkpt lat="43.72912" lon="3.52205">
        <ele>516.099976</ele>
        <time>2013-05-25T07:04:01Z</time>
      </trkpt>
      <trkpt lat="43.7292" lon="3.52203">
        <ele>516.200012</ele>
        <time>2013-05-25T07:04:05Z</time>
      </trkpt>
      <trkpt lat="43.72927" lon="3.52202">
        <ele>516.900024</ele>
        <time>2013-05-25T07:04:09Z</time>
      </trkpt>
      <trkpt lat="43.72929" lon="3.52201">
        <ele>516.900024</ele>
        <time>2013-05-25T07:04:10Z</time>
      </trkpt>
      <trkpt lat="43.72942" lon="3.52195">
        <ele>518</ele>
        <time>2013-05-25T07:04:16Z</time>
      </trkpt>
      <trkpt lat="43.72949" lon="3.5219">
        <ele>518.599976</ele>
        <time>2013-05-25T07:04:20Z</time>
      </trkpt>
      <trkpt lat="43.72956" lon="3.52184">
        <ele>519.200012</ele>
        <time>2013-05-25T07:04:24Z</time>
      </trkpt>
      <trkpt lat="43.72962" lon="3.52179">
        <ele>519.400024</ele>
        <time>2013-05-25T07:04:28Z</time>
      </trkpt>
      <trkpt lat="43.7297" lon="3.52176">
        <ele>519.799988</ele>
        <time>2013-05-25T07:04:32Z</time>
      </trkpt>
      <trkpt lat="43.72978" lon="3.52173">
        <ele>519.799988</ele>
        <time>2013-05-25T07:04:36Z</time>
      </trkpt>
      <trkpt lat="43.72985" lon="3.52167">
        <ele>520.799988</ele>
        <time>2013-05-25T07:04:40Z</time>
      </trkpt>
      <trkpt lat="43.72994" lon="3.52163">
        <ele>521.700012</ele>
        <time>2013-05-25T07:04:44Z</time>
      </trkpt>
      <trkpt lat="43.73001" lon="3.52157">
        <ele>523</ele>
        <time>2013-05-25T07:04:48Z</time>
      </trkpt>
      <trkpt lat="43.73009" lon="3.52154">
        <ele>522.5</ele>
        <time>2013-05-25T07:04:52Z</time>
      </trkpt>
      <trkpt lat="43.73017" lon="3.52153">
        <ele>522.099976</ele>
        <time>2013-05-25T07:04:56Z</time>
      </trkpt>
      <trkpt lat="43.73026" lon="3.5215">
        <ele>522.599976</ele>
        <time>2013-05-25T07:05:00Z</time>
      </trkpt>
      <trkpt lat="43.73033" lon="3.52148">
        <ele>523.900024</ele>
        <time>2013-05-25T07:05:04Z</time>
      </trkpt>
      <trkpt lat="43.73041" lon="3.5215">
        <ele>524.700012</ele>
        <time>2013-05-25T07:05:09Z</time>
      </trkpt>
      <trkpt lat="43.73049" lon="3.5215">
        <ele>525</ele>
        <time>2013-05-25T07:05:13Z</time>
      </trkpt>
      <trkpt lat="43.7305" lon="3.52149">
        <ele>525.599976</ele>
        <time>2013-05-25T07:05:14Z</time>
      </trkpt>
      <trkpt lat="43.73061" lon="3.52138">
        <ele>526.400024</ele>
        <time>2013-05-25T07:05:23Z</time>
      </trkpt>
      <trkpt lat="43.73068" lon="3.5213">
        <ele>528.5</ele>
        <time>2013-05-25T07:05:29Z</time>
      </trkpt>
      <trkpt lat="43.73076" lon="3.52126">
        <ele>530.400024</ele>
        <time>2013-05-25T07:05:34Z</time>
      </trkpt>
      <trkpt lat="43.7308" lon="3.52118">
        <ele>531.700012</ele>
        <time>2013-05-25T07:05:38Z</time>
      </trkpt>
      <trkpt lat="43.73086" lon="3.52108">
        <ele>534.799988</ele>
        <time>2013-05-25T07:05:43Z</time>
      </trkpt>
      <trkpt lat="43.73091" lon="3.52101">
        <ele>535.5</ele>
        <time>2013-05-25T07:05:47Z</time>
      </trkpt>
      <trkpt lat="43.73097" lon="3.52094">
        <ele>536.200012</ele>
        <time>2013-05-25T07:05:51Z</time>
      </trkpt>
      <trkpt lat="43.73104" lon="3.52087">
        <ele>536</ele>
        <time>2013-05-25T07:05:56Z</time>
      </trkpt>
      <trkpt lat="43.73111" lon="3.52082">
        <ele>536.099976</ele>
        <time>2013-05-25T07:06:01Z</time>
      </trkpt>
      <trkpt lat="43.73119" lon="3.52077">
        <ele>537.799988</ele>
        <time>2013-05-25T07:06:06Z</time>
      </trkpt>
      <trkpt lat="43.73126" lon="3.52072">
        <ele>539.099976</ele>
        <time>2013-05-25T07:06:11Z</time>
      </trkpt>
      <trkpt lat="43.73133" lon="3.52067">
        <ele>539.799988</ele>
        <time>2013-05-25T07:06:15Z</time>
      </trkpt>
      <trkpt lat="43.73134" lon="3.52065">
        <ele>540.099976</ele>
        <time>2013-05-25T07:06:16Z</time>
      </trkpt>
      <trkpt lat="43.73147" lon="3.52054">
        <ele>541.599976</ele>
        <time>2013-05-25T07:06:25Z</time>
      </trkpt>
      <trkpt lat="43.73154" lon="3.52046">
        <ele>542.299988</ele>
        <time>2013-05-25T07:06:30Z</time>
      </trkpt>
      <trkpt lat="43.7316" lon="3.52039">
        <ele>541.599976</ele>
        <time>2013-05-25T07:06:35Z</time>
      </trkpt>
      <trkpt lat="43.73165" lon="3.5203">
        <ele>542.299988</ele>
        <time>2013-05-25T07:06:40Z</time>
      </trkpt>
      <trkpt lat="43.73169" lon="3.52019">
        <ele>541.799988</ele>
        <time>2013-05-25T07:06:45Z</time>
      </trkpt>
      <trkpt lat="43.73173" lon="3.52009">
        <ele>541.599976</ele>
        <time>2013-05-25T07:06:57Z</time>
      </trkpt>
      <trkpt lat="43.73179" lon="3.52002">
        <ele>542.099976</ele>
        <time>2013-05-25T07:07:02Z</time>
      </trkpt>
      <trkpt lat="43.73186" lon="3.51996">
        <ele>544.599976</ele>
        <time>2013-05-25T07:07:07Z</time>
      </trkpt>
      <trkpt lat="43.73193" lon="3.51989">
        <ele>544.200012</ele>
        <time>2013-05-25T07:07:12Z</time>
      </trkpt>
      <trkpt lat="43.732" lon="3.51983">
        <ele>544.900024</ele>
        <time>2013-05-25T07:07:17Z</time>
      </trkpt>
      <trkpt lat="43.73201" lon="3.51982">
        <ele>545.700012</ele>
        <time>2013-05-25T07:07:18Z</time>
      </trkpt>
      <trkpt lat="43.73213" lon="3.5197">
        <ele>547.599976</ele>
        <time>2013-05-25T07:07:27Z</time>
      </trkpt>
      <trkpt lat="43.7322" lon="3.51965">
        <ele>549.599976</ele>
        <time>2013-05-25T07:07:32Z</time>
      </trkpt>
      <trkpt lat="43.73228" lon="3.51961">
        <ele>549.200012</ele>
        <time>2013-05-25T07:07:37Z</time>
      </trkpt>
      <trkpt lat="43.73224" lon="3.51951">
        <ele>551</ele>
        <time>2013-05-25T07:07:51Z</time>
      </trkpt>
      <trkpt lat="43.73217" lon="3.51947">
        <ele>552.799988</ele>
        <time>2013-05-25T07:07:56Z</time>
      </trkpt>
      <trkpt lat="43.73224" lon="3.5194">
        <ele>554.799988</ele>
        <time>2013-05-25T07:08:05Z</time>
      </trkpt>
      <trkpt lat="43.73232" lon="3.51941">
        <ele>555.5</ele>
        <time>2013-05-25T07:08:10Z</time>
      </trkpt>
      <trkpt lat="43.7324" lon="3.51939">
        <ele>556.5</ele>
        <time>2013-05-25T07:08:15Z</time>
      </trkpt>
      <trkpt lat="43.73248" lon="3.51935">
        <ele>557.099976</ele>
        <time>2013-05-25T07:08:20Z</time>
      </trkpt>
      <trkpt lat="43.73249" lon="3.51935">
        <ele>556.799988</ele>
        <time>2013-05-25T07:08:21Z</time>
      </trkpt>
      <trkpt lat="43.73264" lon="3.51933">
        <ele>556.599976</ele>
        <time>2013-05-25T07:08:31Z</time>
      </trkpt>
      <trkpt lat="43.73269" lon="3.51942">
        <ele>558.400024</ele>
        <time>2013-05-25T07:08:37Z</time>
      </trkpt>
      <trkpt lat="43.73272" lon="3.51953">
        <ele>562.599976</ele>
        <time>2013-05-25T07:08:43Z</time>
      </trkpt>
      <trkpt lat="43.73278" lon="3.51962">
        <ele>565.299988</ele>
        <time>2013-05-25T07:08:49Z</time>
      </trkpt>
      <trkpt lat="43.73281" lon="3.51953">
        <ele>566</ele>
        <time>2013-05-25T07:08:54Z</time>
      </trkpt>
      <trkpt lat="43.73288" lon="3.51945">
        <ele>567</ele>
        <time>2013-05-25T07:09:03Z</time>
      </trkpt>
      <trkpt lat="43.73297" lon="3.51946">
        <ele>566.200012</ele>
        <time>2013-05-25T07:09:21Z</time>
      </trkpt>
      <trkpt lat="43.73298" lon="3.51947">
        <ele>566.200012</ele>
        <time>2013-05-25T07:09:22Z</time>
      </trkpt>
      <trkpt lat="43.73306" lon="3.51966">
        <ele>570.700012</ele>
        <time>2013-05-25T07:09:40Z</time>
      </trkpt>
      <trkpt lat="43.7331" lon="3.51975">
        <ele>570.099976</ele>
        <time>2013-05-25T07:09:45Z</time>
      </trkpt>
      <trkpt lat="43.73315" lon="3.51986">
        <ele>574</ele>
        <time>2013-05-25T07:09:51Z</time>
      </trkpt>
      <trkpt lat="43.73323" lon="3.51981">
        <ele>575.599976</ele>
        <time>2013-05-25T07:10:02Z</time>
      </trkpt>
      <trkpt lat="43.73325" lon="3.5197">
        <ele>573.700012</ele>
        <time>2013-05-25T07:10:07Z</time>
      </trkpt>
      <trkpt lat="43.73327" lon="3.5196">
        <ele>575.099976</ele>
        <time>2013-05-25T07:10:12Z</time>
      </trkpt>
      <trkpt lat="43.73334" lon="3.51954">
        <ele>578</ele>
        <time>2013-05-25T07:10:17Z</time>
      </trkpt>
      <trkpt lat="43.73342" lon="3.51947">
        <ele>578.599976</ele>
        <time>2013-05-25T07:10:23Z</time>
      </trkpt>
      <trkpt lat="43.73343" lon="3.51946">
        <ele>578.299988</ele>
        <time>2013-05-25T07:10:24Z</time>
      </trkpt>
      <trkpt lat="43.73356" lon="3.51934">
        <ele>576.799988</ele>
        <time>2013-05-25T07:10:33Z</time>
      </trkpt>
      <trkpt lat="43.73363" lon="3.5193">
        <ele>577.200012</ele>
        <time>2013-05-25T07:10:37Z</time>
      </trkpt>
      <trkpt lat="43.7337" lon="3.51927">
        <ele>578.299988</ele>
        <time>2013-05-25T07:10:41Z</time>
      </trkpt>
      <trkpt lat="43.73378" lon="3.51922">
        <ele>578.799988</ele>
        <time>2013-05-25T07:10:45Z</time>
      </trkpt>
      <trkpt lat="43.73386" lon="3.51918">
        <ele>581.099976</ele>
        <time>2013-05-25T07:10:50Z</time>
      </trkpt>
      <trkpt lat="43.73394" lon="3.51916">
        <ele>583</ele>
        <time>2013-05-25T07:10:55Z</time>
      </trkpt>
      <trkpt lat="43.73403" lon="3.51914">
        <ele>579.599976</ele>
        <time>2013-05-25T07:11:26Z</time>
      </trkpt>
      <trkpt lat="43.73403" lon="3.51914">
        <ele>579.599976</ele>
        <time>2013-05-25T07:11:27Z</time>
      </trkpt>
      <trkpt lat="43.73413" lon="3.51919">
        <ele>577.799988</ele>
        <time>2013-05-25T07:12:52Z</time>
      </trkpt>
      <trkpt lat="43.73422" lon="3.51907">
        <ele>575.299988</ele>
        <time>2013-05-25T07:12:58Z</time>
      </trkpt>
      <trkpt lat="43.73426" lon="3.51897">
        <ele>573.599976</ele>
        <time>2013-05-25T07:13:01Z</time>
      </trkpt>
      <trkpt lat="43.7343" lon="3.5189">
        <ele>572.700012</ele>
        <time>2013-05-25T07:13:03Z</time>
      </trkpt>
      <trkpt lat="43.73435" lon="3.51884">
        <ele>571.799988</ele>
        <time>2013-05-25T07:13:05Z</time>
      </trkpt>
      <trkpt lat="43.73441" lon="3.51876">
        <ele>570.099976</ele>
        <time>2013-05-25T07:13:08Z</time>
      </trkpt>
      <trkpt lat="43.73447" lon="3.51872">
        <ele>569.200012</ele>
        <time>2013-05-25T07:13:10Z</time>
      </trkpt>
      <trkpt lat="43.73452" lon="3.51865">
        <ele>568.599976</ele>
        <time>2013-05-25T07:13:12Z</time>
      </trkpt>
      <trkpt lat="43.7346" lon="3.5186">
        <ele>569.599976</ele>
        <time>2013-05-25T07:13:15Z</time>
      </trkpt>
      <trkpt lat="43.73466" lon="3.51859">
        <ele>569.5</ele>
        <time>2013-05-25T07:13:17Z</time>
      </trkpt>
      <trkpt lat="43.73474" lon="3.51859">
        <ele>569.200012</ele>
        <time>2013-05-25T07:13:21Z</time>
      </trkpt>
      <trkpt lat="43.7348" lon="3.51866">
        <ele>568.400024</ele>
        <time>2013-05-25T07:13:25Z</time>
      </trkpt>
      <trkpt lat="43.73486" lon="3.51873">
        <ele>566.599976</ele>
        <time>2013-05-25T07:13:28Z</time>
      </trkpt>
      <trkpt lat="43.73492" lon="3.5188">
        <ele>563.799988</ele>
        <time>2013-05-25T07:13:31Z</time>
      </trkpt>
      <trkpt lat="43.73497" lon="3.51889">
        <ele>561.799988</ele>
        <time>2013-05-25T07:13:34Z</time>
      </trkpt>
      <trkpt lat="43.73501" lon="3.519">
        <ele>560.200012</ele>
        <time>2013-05-25T07:13:37Z</time>
      </trkpt>
      <trkpt lat="43.73509" lon="3.51893">
        <ele>554</ele>
        <time>2013-05-25T07:13:48Z</time>
      </trkpt>
      <trkpt lat="43.73508" lon="3.51883">
        <ele>552.099976</ele>
        <time>2013-05-25T07:13:51Z</time>
      </trkpt>
      <trkpt lat="43.73509" lon="3.51874">
        <ele>550.700012</ele>
        <time>2013-05-25T07:13:54Z</time>
      </trkpt>
      <trkpt lat="43.73509" lon="3.5187">
        <ele>549.599976</ele>
        <time>2013-05-25T07:13:55Z</time>
      </trkpt>
      <trkpt lat="43.73507" lon="3.51853">
        <ele>546.799988</ele>
        <time>2013-05-25T07:14:00Z</time>
      </trkpt>
      <trkpt lat="43.73505" lon="3.51844">
        <ele>546.099976</ele>
        <time>2013-05-25T07:14:03Z</time>
      </trkpt>
      <trkpt lat="43.73503" lon="3.51834">
        <ele>544.5</ele>
        <time>2013-05-25T07:14:06Z</time>
      </trkpt>
      <trkpt lat="43.73499" lon="3.51825">
        <ele>543.099976</ele>
        <time>2013-05-25T07:14:09Z</time>
      </trkpt>
      <trkpt lat="43.73503" lon="3.51815">
        <ele>540.400024</ele>
        <time>2013-05-25T07:14:15Z</time>
      </trkpt>
      <trkpt lat="43.7351" lon="3.51809">
        <ele>540.599976</ele>
        <time>2013-05-25T07:14:19Z</time>
      </trkpt>
      <trkpt lat="43.73516" lon="3.518">
        <ele>539.400024</ele>
        <time>2013-05-25T07:14:23Z</time>
      </trkpt>
      <trkpt lat="43.7352" lon="3.51792">
        <ele>537.799988</ele>
        <time>2013-05-25T07:14:26Z</time>
      </trkpt>
      <trkpt lat="43.73524" lon="3.51781">
        <ele>535.5</ele>
        <time>2013-05-25T07:14:29Z</time>
      </trkpt>
      <trkpt lat="43.73526" lon="3.51773">
        <ele>533.799988</ele>
        <time>2013-05-25T07:14:31Z</time>
      </trkpt>
      <trkpt lat="43.73527" lon="3.5176">
        <ele>531.200012</ele>
        <time>2013-05-25T07:14:34Z</time>
      </trkpt>
      <trkpt lat="43.73529" lon="3.5175">
        <ele>528</ele>
        <time>2013-05-25T07:14:37Z</time>
      </trkpt>
      <trkpt lat="43.73529" lon="3.51739">
        <ele>525.700012</ele>
        <time>2013-05-25T07:14:41Z</time>
      </trkpt>
      <trkpt lat="43.73534" lon="3.51749">
        <ele>524.400024</ele>
        <time>2013-05-25T07:15:09Z</time>
      </trkpt>
      <trkpt lat="43.73534" lon="3.5175">
        <ele>524.5</ele>
        <time>2013-05-25T07:15:10Z</time>
      </trkpt>
      <trkpt lat="43.73532" lon="3.51772">
        <ele>529</ele>
        <time>2013-05-25T07:15:55Z</time>
      </trkpt>
      <trkpt lat="43.73537" lon="3.51782">
        <ele>527.299988</ele>
        <time>2013-05-25T07:16:03Z</time>
      </trkpt>
      <trkpt lat="43.73545" lon="3.51781">
        <ele>527.900024</ele>
        <time>2013-05-25T07:16:08Z</time>
      </trkpt>
      <trkpt lat="43.73551" lon="3.51775">
        <ele>527.900024</ele>
        <time>2013-05-25T07:16:12Z</time>
      </trkpt>
      <trkpt lat="43.73552" lon="3.51773">
        <ele>528</ele>
        <time>2013-05-25T07:16:13Z</time>
      </trkpt>
      <trkpt lat="43.73561" lon="3.5176">
        <ele>528.799988</ele>
        <time>2013-05-25T07:16:20Z</time>
      </trkpt>
      <trkpt lat="43.73566" lon="3.51752">
        <ele>531.299988</ele>
        <time>2013-05-25T07:16:24Z</time>
      </trkpt>
      <trkpt lat="43.73575" lon="3.51753">
        <ele>535.799988</ele>
        <time>2013-05-25T07:16:29Z</time>
      </trkpt>
      <trkpt lat="43.73573" lon="3.51763">
        <ele>538.700012</ele>
        <time>2013-05-25T07:16:33Z</time>
      </trkpt>
      <trkpt lat="43.73569" lon="3.51773">
        <ele>538.299988</ele>
        <time>2013-05-25T07:16:37Z</time>
      </trkpt>
      <trkpt lat="43.73567" lon="3.51782">
        <ele>537</ele>
        <time>2013-05-25T07:16:40Z</time>
      </trkpt>
      <trkpt lat="43.73564" lon="3.51792">
        <ele>535</ele>
        <time>2013-05-25T07:16:43Z</time>
      </trkpt>
      <trkpt lat="43.73563" lon="3.518">
        <ele>534.099976</ele>
        <time>2013-05-25T07:16:45Z</time>
      </trkpt>
      <trkpt lat="43.73562" lon="3.5181">
        <ele>531.799988</ele>
        <time>2013-05-25T07:16:47Z</time>
      </trkpt>
      <trkpt lat="43.7356" lon="3.5182">
        <ele>529.900024</ele>
        <time>2013-05-25T07:16:49Z</time>
      </trkpt>
      <trkpt lat="43.7356" lon="3.51829">
        <ele>528.299988</ele>
        <time>2013-05-25T07:16:51Z</time>
      </trkpt>
      <trkpt lat="43.73558" lon="3.51839">
        <ele>530.099976</ele>
        <time>2013-05-25T07:16:54Z</time>
      </trkpt>
      <trkpt lat="43.73557" lon="3.5185">
        <ele>530.5</ele>
        <time>2013-05-25T07:16:57Z</time>
      </trkpt>
      <trkpt lat="43.73556" lon="3.51859">
        <ele>531.299988</ele>
        <time>2013-05-25T07:17:00Z</time>
      </trkpt>
      <trkpt lat="43.73556" lon="3.51869">
        <ele>530.599976</ele>
        <time>2013-05-25T07:17:03Z</time>
      </trkpt>
      <trkpt lat="43.73554" lon="3.5188">
        <ele>531.900024</ele>
        <time>2013-05-25T07:17:06Z</time>
      </trkpt>
      <trkpt lat="43.73551" lon="3.51888">
        <ele>532.299988</ele>
        <time>2013-05-25T07:17:08Z</time>
      </trkpt>
      <trkpt lat="43.73548" lon="3.51896">
        <ele>532.099976</ele>
        <time>2013-05-25T07:17:10Z</time>
      </trkpt>
      <trkpt lat="43.73546" lon="3.51904">
        <ele>531.700012</ele>
        <time>2013-05-25T07:17:12Z</time>
      </trkpt>
      <trkpt lat="43.73545" lon="3.51912">
        <ele>531.400024</ele>
        <time>2013-05-25T07:17:14Z</time>
      </trkpt>
      <trkpt lat="43.73544" lon="3.51916">
        <ele>531.799988</ele>
        <time>2013-05-25T07:17:15Z</time>
      </trkpt>
      <trkpt lat="43.73541" lon="3.51933">
        <ele>531.5</ele>
        <time>2013-05-25T07:17:20Z</time>
      </trkpt>
      <trkpt lat="43.73539" lon="3.51943">
        <ele>533.5</ele>
        <time>2013-05-25T07:17:23Z</time>
      </trkpt>
      <trkpt lat="43.73537" lon="3.51953">
        <ele>535</ele>
        <time>2013-05-25T07:17:27Z</time>
      </trkpt>
      <trkpt lat="43.73535" lon="3.51963">
        <ele>535.799988</ele>
        <time>2013-05-25T07:17:31Z</time>
      </trkpt>
      <trkpt lat="43.73533" lon="3.51973">
        <ele>536.400024</ele>
        <time>2013-05-25T07:17:35Z</time>
      </trkpt>
      <trkpt lat="43.73532" lon="3.51985">
        <ele>536.200012</ele>
        <time>2013-05-25T07:17:39Z</time>
      </trkpt>
      <trkpt lat="43.7353" lon="3.51995">
        <ele>537.900024</ele>
        <time>2013-05-25T07:17:43Z</time>
      </trkpt>
      <trkpt lat="43.73529" lon="3.52006">
        <ele>537.599976</ele>
        <time>2013-05-25T07:17:47Z</time>
      </trkpt>
      <trkpt lat="43.73528" lon="3.52016">
        <ele>537.700012</ele>
        <time>2013-05-25T07:17:51Z</time>
      </trkpt>
      <trkpt lat="43.73527" lon="3.52028">
        <ele>539.700012</ele>
        <time>2013-05-25T07:17:56Z</time>
      </trkpt>
      <trkpt lat="43.73535" lon="3.52034">
        <ele>544.299988</ele>
        <time>2013-05-25T07:21:15Z</time>
      </trkpt>
      <trkpt lat="43.73536" lon="3.52034">
        <ele>544</ele>
        <time>2013-05-25T07:21:16Z</time>
      </trkpt>
      <trkpt lat="43.73539" lon="3.52039">
        <ele>542.799988</ele>
        <time>2013-05-25T07:22:05Z</time>
      </trkpt>
      <trkpt lat="43.73541" lon="3.52029">
        <ele>541.400024</ele>
        <time>2013-05-25T07:22:08Z</time>
      </trkpt>
      <trkpt lat="43.73541" lon="3.52019">
        <ele>540.099976</ele>
        <time>2013-05-25T07:22:10Z</time>
      </trkpt>
      <trkpt lat="43.73541" lon="3.52008">
        <ele>539.299988</ele>
        <time>2013-05-25T07:22:12Z</time>
      </trkpt>
      <trkpt lat="43.73541" lon="3.51998">
        <ele>538</ele>
        <time>2013-05-25T07:22:15Z</time>
      </trkpt>
      <trkpt lat="43.73544" lon="3.51989">
        <ele>536.700012</ele>
        <time>2013-05-25T07:22:18Z</time>
      </trkpt>
      <trkpt lat="43.73545" lon="3.51986">
        <ele>536.200012</ele>
        <time>2013-05-25T07:22:19Z</time>
      </trkpt>
      <trkpt lat="43.73549" lon="3.5197">
        <ele>533.799988</ele>
        <time>2013-05-25T07:22:23Z</time>
      </trkpt>
      <trkpt lat="43.7355" lon="3.51961">
        <ele>533.099976</ele>
        <time>2013-05-25T07:22:25Z</time>
      </trkpt>
      <trkpt lat="43.73551" lon="3.51952">
        <ele>532.400024</ele>
        <time>2013-05-25T07:22:27Z</time>
      </trkpt>
      <trkpt lat="43.73553" lon="3.51942">
        <ele>531.700012</ele>
        <time>2013-05-25T07:22:29Z</time>
      </trkpt>
      <trkpt lat="43.73555" lon="3.51933">
        <ele>530.799988</ele>
        <time>2013-05-25T07:22:31Z</time>
      </trkpt>
      <trkpt lat="43.73557" lon="3.51925">
        <ele>529.900024</ele>
        <time>2013-05-25T07:22:33Z</time>
      </trkpt>
      <trkpt lat="43.73559" lon="3.51915">
        <ele>529.099976</ele>
        <time>2013-05-25T07:22:35Z</time>
      </trkpt>
      <trkpt lat="43.73562" lon="3.51906">
        <ele>527.799988</ele>
        <time>2013-05-25T07:22:37Z</time>
      </trkpt>
      <trkpt lat="43.73566" lon="3.51899">
        <ele>526.5</ele>
        <time>2013-05-25T07:22:39Z</time>
      </trkpt>
      <trkpt lat="43.73572" lon="3.51892">
        <ele>524.599976</ele>
        <time>2013-05-25T07:22:42Z</time>
      </trkpt>
      <trkpt lat="43.73576" lon="3.51885">
        <ele>524.200012</ele>
        <time>2013-05-25T07:22:45Z</time>
      </trkpt>
      <trkpt lat="43.73578" lon="3.51874">
        <ele>523</ele>
        <time>2013-05-25T07:22:48Z</time>
      </trkpt>
      <trkpt lat="43.73579" lon="3.51863">
        <ele>521.400024</ele>
        <time>2013-05-25T07:22:51Z</time>
      </trkpt>
      <trkpt lat="43.73581" lon="3.51851">
        <ele>518.900024</ele>
        <time>2013-05-25T07:22:55Z</time>
      </trkpt>
      <trkpt lat="43.73583" lon="3.5184">
        <ele>517.200012</ele>
        <time>2013-05-25T07:22:58Z</time>
      </trkpt>
      <trkpt lat="43.73584" lon="3.51832">
        <ele>515.599976</ele>
        <time>2013-05-25T07:23:00Z</time>
      </trkpt>
      <trkpt lat="43.73587" lon="3.51824">
        <ele>513.900024</ele>
        <time>2013-05-25T07:23:02Z</time>
      </trkpt>
      <trkpt lat="43.73591" lon="3.51814">
        <ele>511.200012</ele>
        <time>2013-05-25T07:23:05Z</time>
      </trkpt>
      <trkpt lat="43.73595" lon="3.51803">
        <ele>509.600006</ele>
        <time>2013-05-25T07:23:09Z</time>
      </trkpt>
      <trkpt lat="43.73599" lon="3.51793">
        <ele>506.899994</ele>
        <time>2013-05-25T07:23:19Z</time>
      </trkpt>
      <trkpt lat="43.73601" lon="3.5179">
        <ele>506.700012</ele>
        <time>2013-05-25T07:23:20Z</time>
      </trkpt>
      <trkpt lat="43.73612" lon="3.51777">
        <ele>506.799988</ele>
        <time>2013-05-25T07:23:25Z</time>
      </trkpt>
      <trkpt lat="43.73619" lon="3.5177">
        <ele>505.600006</ele>
        <time>2013-05-25T07:23:28Z</time>
      </trkpt>
      <trkpt lat="43.73627" lon="3.51764">
        <ele>505.200012</ele>
        <time>2013-05-25T07:23:46Z</time>
      </trkpt>
      <trkpt lat="43.73636" lon="3.51766">
        <ele>503.799988</ele>
        <time>2013-05-25T07:24:18Z</time>
      </trkpt>
      <trkpt lat="43.73644" lon="3.51761">
        <ele>505.100006</ele>
        <time>2013-05-25T07:24:23Z</time>
      </trkpt>
      <trkpt lat="43.73646" lon="3.5176">
        <ele>503.700012</ele>
        <time>2013-05-25T07:24:24Z</time>
      </trkpt>
      <trkpt lat="43.73661" lon="3.51756">
        <ele>497.5</ele>
        <time>2013-05-25T07:24:33Z</time>
      </trkpt>
      <trkpt lat="43.73669" lon="3.5175">
        <ele>494.5</ele>
        <time>2013-05-25T07:24:37Z</time>
      </trkpt>
      <trkpt lat="43.73675" lon="3.51745">
        <ele>492.899994</ele>
        <time>2013-05-25T07:24:40Z</time>
      </trkpt>
      <trkpt lat="43.73683" lon="3.51741">
        <ele>491.200012</ele>
        <time>2013-05-25T07:24:44Z</time>
      </trkpt>
      <trkpt lat="43.73692" lon="3.51743">
        <ele>488.5</ele>
        <time>2013-05-25T07:24:57Z</time>
      </trkpt>
      <trkpt lat="43.73697" lon="3.51733">
        <ele>488.700012</ele>
        <time>2013-05-25T07:25:06Z</time>
      </trkpt>
      <trkpt lat="43.73704" lon="3.51728">
        <ele>486.200012</ele>
        <time>2013-05-25T07:25:18Z</time>
      </trkpt>
      <trkpt lat="43.73712" lon="3.51723">
        <ele>485.799988</ele>
        <time>2013-05-25T07:25:22Z</time>
      </trkpt>
      <trkpt lat="43.73714" lon="3.51715">
        <ele>485.299988</ele>
        <time>2013-05-25T07:25:24Z</time>
      </trkpt>
      <trkpt lat="43.73715" lon="3.5171">
        <ele>485.299988</ele>
        <time>2013-05-25T07:25:25Z</time>
      </trkpt>
      <trkpt lat="43.73717" lon="3.51696">
        <ele>483.899994</ele>
        <time>2013-05-25T07:25:29Z</time>
      </trkpt>
      <trkpt lat="43.73724" lon="3.51687">
        <ele>476.700012</ele>
        <time>2013-05-25T07:25:56Z</time>
      </trkpt>
      <trkpt lat="43.7373" lon="3.5168">
        <ele>476.200012</ele>
        <time>2013-05-25T07:26:00Z</time>
      </trkpt>
      <trkpt lat="43.73738" lon="3.51677">
        <ele>475.200012</ele>
        <time>2013-05-25T07:26:05Z</time>
      </trkpt>
      <trkpt lat="43.73744" lon="3.51669">
        <ele>474.700012</ele>
        <time>2013-05-25T07:26:09Z</time>
      </trkpt>
      <trkpt lat="43.73745" lon="3.51657">
        <ele>473.799988</ele>
        <time>2013-05-25T07:26:25Z</time>
      </trkpt>
      <trkpt lat="43.73745" lon="3.51656">
        <ele>473.600006</ele>
        <time>2013-05-25T07:26:26Z</time>
      </trkpt>
      <trkpt lat="43.73751" lon="3.51636">
        <ele>470.600006</ele>
        <time>2013-05-25T07:26:45Z</time>
      </trkpt>
      <trkpt lat="43.73759" lon="3.51631">
        <ele>469.299988</ele>
        <time>2013-05-25T07:27:00Z</time>
      </trkpt>
      <trkpt lat="43.73757" lon="3.51619">
        <ele>466.399994</ele>
        <time>2013-05-25T07:27:17Z</time>
      </trkpt>
      <trkpt lat="43.73765" lon="3.51617">
        <ele>464.100006</ele>
        <time>2013-05-25T07:27:26Z</time>
      </trkpt>
      <trkpt lat="43.73767" lon="3.51617">
        <ele>464</ele>
        <time>2013-05-25T07:27:27Z</time>
      </trkpt>
      <trkpt lat="43.73778" lon="3.51625">
        <ele>465.299988</ele>
        <time>2013-05-25T07:27:39Z</time>
      </trkpt>
      <trkpt lat="43.73785" lon="3.51632">
        <ele>462.100006</ele>
        <time>2013-05-25T07:28:00Z</time>
      </trkpt>
      <trkpt lat="43.73791" lon="3.51638">
        <ele>460.899994</ele>
        <time>2013-05-25T07:28:03Z</time>
      </trkpt>
      <trkpt lat="43.73795" lon="3.51647">
        <ele>459.299988</ele>
        <time>2013-05-25T07:28:06Z</time>
      </trkpt>
      <trkpt lat="43.73798" lon="3.51657">
        <ele>458.399994</ele>
        <time>2013-05-25T07:28:10Z</time>
      </trkpt>
      <trkpt lat="43.73797" lon="3.51668">
        <ele>457.399994</ele>
        <time>2013-05-25T07:28:14Z</time>
      </trkpt>
      <trkpt lat="43.73793" lon="3.51676">
        <ele>455.700012</ele>
        <time>2013-05-25T07:28:18Z</time>
      </trkpt>
      <trkpt lat="43.73788" lon="3.5168">
        <ele>454.899994</ele>
        <time>2013-05-25T07:28:20Z</time>
      </trkpt>
      <trkpt lat="43.7378" lon="3.51686">
        <ele>453.799988</ele>
        <time>2013-05-25T07:28:22Z</time>
      </trkpt>
      <trkpt lat="43.73775" lon="3.51693">
        <ele>452.899994</ele>
        <time>2013-05-25T07:28:24Z</time>
      </trkpt>
      <trkpt lat="43.73772" lon="3.51702">
        <ele>451.600006</ele>
        <time>2013-05-25T07:28:26Z</time>
      </trkpt>
      <trkpt lat="43.7377" lon="3.51712">
        <ele>450.399994</ele>
        <time>2013-05-25T07:28:28Z</time>
      </trkpt>
      <trkpt lat="43.73769" lon="3.51718">
        <ele>449.899994</ele>
        <time>2013-05-25T07:28:29Z</time>
      </trkpt>
      <trkpt lat="43.73768" lon="3.51731">
        <ele>448.399994</ele>
        <time>2013-05-25T07:28:32Z</time>
      </trkpt>
      <trkpt lat="43.73766" lon="3.51742">
        <ele>446.5</ele>
        <time>2013-05-25T07:28:35Z</time>
      </trkpt>
      <trkpt lat="43.73759" lon="3.5175">
        <ele>444.399994</ele>
        <time>2013-05-25T07:28:38Z</time>
      </trkpt>
      <trkpt lat="43.73763" lon="3.51761">
        <ele>439.399994</ele>
        <time>2013-05-25T07:29:01Z</time>
      </trkpt>
      <trkpt lat="43.7377" lon="3.51758">
        <ele>439.200012</ele>
        <time>2013-05-25T07:29:05Z</time>
      </trkpt>
      <trkpt lat="43.73775" lon="3.5175">
        <ele>439</ele>
        <time>2013-05-25T07:29:08Z</time>
      </trkpt>
      <trkpt lat="43.73779" lon="3.51743">
        <ele>438.700012</ele>
        <time>2013-05-25T07:29:10Z</time>
      </trkpt>
      <trkpt lat="43.73783" lon="3.51735">
        <ele>438.399994</ele>
        <time>2013-05-25T07:29:12Z</time>
      </trkpt>
      <trkpt lat="43.73784" lon="3.51745">
        <ele>434.899994</ele>
        <time>2013-05-25T07:29:25Z</time>
      </trkpt>
      <trkpt lat="43.73781" lon="3.51755">
        <ele>432.700012</ele>
        <time>2013-05-25T07:29:28Z</time>
      </trkpt>
      <trkpt lat="43.7378" lon="3.51766">
        <ele>430.799988</ele>
        <time>2013-05-25T07:29:31Z</time>
      </trkpt>
      <trkpt lat="43.7378" lon="3.5177">
        <ele>429.899994</ele>
        <time>2013-05-25T07:29:32Z</time>
      </trkpt>
      <trkpt lat="43.73774" lon="3.51784">
        <ele>427.299988</ele>
        <time>2013-05-25T07:29:38Z</time>
      </trkpt>
      <trkpt lat="43.73768" lon="3.5179">
        <ele>425.5</ele>
        <time>2013-05-25T07:29:42Z</time>
      </trkpt>
      <trkpt lat="43.73763" lon="3.51797">
        <ele>424.200012</ele>
        <time>2013-05-25T07:29:46Z</time>
      </trkpt>
      <trkpt lat="43.7376" lon="3.51807">
        <ele>422.5</ele>
        <time>2013-05-25T07:29:49Z</time>
      </trkpt>
      <trkpt lat="43.73756" lon="3.51814">
        <ele>420.799988</ele>
        <time>2013-05-25T07:29:51Z</time>
      </trkpt>
      <trkpt lat="43.73753" lon="3.51825">
        <ele>419.299988</ele>
        <time>2013-05-25T07:29:53Z</time>
      </trkpt>
      <trkpt lat="43.73752" lon="3.51835">
        <ele>417.700012</ele>
        <time>2013-05-25T07:29:55Z</time>
      </trkpt>
      <trkpt lat="43.73751" lon="3.51843">
        <ele>416.799988</ele>
        <time>2013-05-25T07:29:57Z</time>
      </trkpt>
      <trkpt lat="43.73749" lon="3.51852">
        <ele>416.299988</ele>
        <time>2013-05-25T07:29:59Z</time>
      </trkpt>
      <trkpt lat="43.73747" lon="3.51864">
        <ele>415.200012</ele>
        <time>2013-05-25T07:30:01Z</time>
      </trkpt>
      <trkpt lat="43.73748" lon="3.51876">
        <ele>413.899994</ele>
        <time>2013-05-25T07:30:03Z</time>
      </trkpt>
      <trkpt lat="43.73751" lon="3.51884">
        <ele>412.299988</ele>
        <time>2013-05-25T07:30:05Z</time>
      </trkpt>
      <trkpt lat="43.73752" lon="3.51894">
        <ele>410.399994</ele>
        <time>2013-05-25T07:30:08Z</time>
      </trkpt>
      <trkpt lat="43.73751" lon="3.51906">
        <ele>409.700012</ele>
        <time>2013-05-25T07:30:12Z</time>
      </trkpt>
      <trkpt lat="43.73749" lon="3.51916">
        <ele>409.200012</ele>
        <time>2013-05-25T07:30:14Z</time>
      </trkpt>
      <trkpt lat="43.73747" lon="3.51926">
        <ele>408.700012</ele>
        <time>2013-05-25T07:30:16Z</time>
      </trkpt>
      <trkpt lat="43.73752" lon="3.51934">
        <ele>406.399994</ele>
        <time>2013-05-25T07:30:20Z</time>
      </trkpt>
      <trkpt lat="43.73758" lon="3.51936">
        <ele>405.200012</ele>
        <time>2013-05-25T07:30:23Z</time>
      </trkpt>
      <trkpt lat="43.73766" lon="3.51934">
        <ele>403.5</ele>
        <time>2013-05-25T07:30:27Z</time>
      </trkpt>
      <trkpt lat="43.73772" lon="3.51925">
        <ele>401.399994</ele>
        <time>2013-05-25T07:30:32Z</time>
      </trkpt>
      <trkpt lat="43.73773" lon="3.51923">
        <ele>400.100006</ele>
        <time>2013-05-25T07:30:33Z</time>
      </trkpt>
      <trkpt lat="43.73782" lon="3.5191">
        <ele>397.700012</ele>
        <time>2013-05-25T07:30:38Z</time>
      </trkpt>
      <trkpt lat="43.73789" lon="3.51904">
        <ele>396.299988</ele>
        <time>2013-05-25T07:30:41Z</time>
      </trkpt>
      <trkpt lat="43.73796" lon="3.51901">
        <ele>395.100006</ele>
        <time>2013-05-25T07:30:44Z</time>
      </trkpt>
      <trkpt lat="43.73802" lon="3.51899">
        <ele>393.700012</ele>
        <time>2013-05-25T07:30:46Z</time>
      </trkpt>
      <trkpt lat="43.73808" lon="3.51894">
        <ele>392.299988</ele>
        <time>2013-05-25T07:30:48Z</time>
      </trkpt>
      <trkpt lat="43.73815" lon="3.5189">
        <ele>390.899994</ele>
        <time>2013-05-25T07:30:51Z</time>
      </trkpt>
      <trkpt lat="43.73823" lon="3.51889">
        <ele>388.799988</ele>
        <time>2013-05-25T07:30:54Z</time>
      </trkpt>
      <trkpt lat="43.73831" lon="3.5189">
        <ele>387.5</ele>
        <time>2013-05-25T07:30:56Z</time>
      </trkpt>
      <trkpt lat="43.73836" lon="3.51895">
        <ele>386.700012</ele>
        <time>2013-05-25T07:30:58Z</time>
      </trkpt>
      <trkpt lat="43.73842" lon="3.51903">
        <ele>385.299988</ele>
        <time>2013-05-25T07:31:01Z</time>
      </trkpt>
      <trkpt lat="43.7385" lon="3.51904">
        <ele>383.600006</ele>
        <time>2013-05-25T07:31:04Z</time>
      </trkpt>
      <trkpt lat="43.73858" lon="3.51904">
        <ele>382.200012</ele>
        <time>2013-05-25T07:31:07Z</time>
      </trkpt>
      <trkpt lat="43.73866" lon="3.51905">
        <ele>381.100006</ele>
        <time>2013-05-25T07:31:10Z</time>
      </trkpt>
      <trkpt lat="43.73873" lon="3.51905">
        <ele>379.600006</ele>
        <time>2013-05-25T07:31:12Z</time>
      </trkpt>
      <trkpt lat="43.73882" lon="3.51907">
        <ele>378</ele>
        <time>2013-05-25T07:31:14Z</time>
      </trkpt>
      <trkpt lat="43.73887" lon="3.51909">
        <ele>377</ele>
        <time>2013-05-25T07:31:15Z</time>
      </trkpt>
      <trkpt lat="43.73896" lon="3.51912">
        <ele>375.399994</ele>
        <time>2013-05-25T07:31:17Z</time>
      </trkpt>
      <trkpt lat="43.73903" lon="3.51915">
        <ele>374.200012</ele>
        <time>2013-05-25T07:31:19Z</time>
      </trkpt>
      <trkpt lat="43.73909" lon="3.51918">
        <ele>372.5</ele>
        <time>2013-05-25T07:31:21Z</time>
      </trkpt>
      <trkpt lat="43.73915" lon="3.51923">
        <ele>371.399994</ele>
        <time>2013-05-25T07:31:23Z</time>
      </trkpt>
      <trkpt lat="43.73921" lon="3.51928">
        <ele>370.700012</ele>
        <time>2013-05-25T07:31:25Z</time>
      </trkpt>
      <trkpt lat="43.73928" lon="3.51934">
        <ele>369.200012</ele>
        <time>2013-05-25T07:31:27Z</time>
      </trkpt>
      <trkpt lat="43.73934" lon="3.5194">
        <ele>367.5</ele>
        <time>2013-05-25T07:31:29Z</time>
      </trkpt>
      <trkpt lat="43.7394" lon="3.51945">
        <ele>365.100006</ele>
        <time>2013-05-25T07:31:31Z</time>
      </trkpt>
      <trkpt lat="43.73946" lon="3.5195">
        <ele>363.5</ele>
        <time>2013-05-25T07:31:33Z</time>
      </trkpt>
      <trkpt lat="43.73949" lon="3.51952">
        <ele>362.899994</ele>
        <time>2013-05-25T07:31:34Z</time>
      </trkpt>
      <trkpt lat="43.73955" lon="3.51964">
        <ele>360.399994</ele>
        <time>2013-05-25T07:31:37Z</time>
      </trkpt>
      <trkpt lat="43.73956" lon="3.51975">
        <ele>358.799988</ele>
        <time>2013-05-25T07:31:39Z</time>
      </trkpt>
      <trkpt lat="43.73956" lon="3.51985">
        <ele>357.5</ele>
        <time>2013-05-25T07:31:41Z</time>
      </trkpt>
      <trkpt lat="43.73952" lon="3.51995">
        <ele>356.700012</ele>
        <time>2013-05-25T07:31:43Z</time>
      </trkpt>
      <trkpt lat="43.7395" lon="3.52">
        <ele>356.399994</ele>
        <time>2013-05-25T07:31:44Z</time>
      </trkpt>
      <trkpt lat="43.73947" lon="3.52012">
        <ele>355.100006</ele>
        <time>2013-05-25T07:31:46Z</time>
      </trkpt>
      <trkpt lat="43.73945" lon="3.52018">
        <ele>354.299988</ele>
        <time>2013-05-25T07:31:47Z</time>
      </trkpt>
      <trkpt lat="43.73944" lon="3.52025">
        <ele>353.799988</ele>
        <time>2013-05-25T07:31:48Z</time>
      </trkpt>
      <trkpt lat="43.73943" lon="3.52032">
        <ele>352.799988</ele>
        <time>2013-05-25T07:31:49Z</time>
      </trkpt>
      <trkpt lat="43.73941" lon="3.52043">
        <ele>351.5</ele>
        <time>2013-05-25T07:31:51Z</time>
      </trkpt>
      <trkpt lat="43.7394" lon="3.52049">
        <ele>350.899994</ele>
        <time>2013-05-25T07:31:52Z</time>
      </trkpt>
      <trkpt lat="43.7394" lon="3.52055">
        <ele>350.5</ele>
        <time>2013-05-25T07:31:53Z</time>
      </trkpt>
      <trkpt lat="43.7394" lon="3.52067">
        <ele>349.600006</ele>
        <time>2013-05-25T07:31:55Z</time>
      </trkpt>
      <trkpt lat="43.73937" lon="3.52079">
        <ele>348.700012</ele>
        <time>2013-05-25T07:31:57Z</time>
      </trkpt>
      <trkpt lat="43.73936" lon="3.52091">
        <ele>347</ele>
        <time>2013-05-25T07:31:59Z</time>
      </trkpt>
      <trkpt lat="43.73937" lon="3.52103">
        <ele>345.299988</ele>
        <time>2013-05-25T07:32:01Z</time>
      </trkpt>
      <trkpt lat="43.73938" lon="3.5211">
        <ele>344.5</ele>
        <time>2013-05-25T07:32:02Z</time>
      </trkpt>
      <trkpt lat="43.73939" lon="3.52116">
        <ele>343.799988</ele>
        <time>2013-05-25T07:32:03Z</time>
      </trkpt>
      <trkpt lat="43.7394" lon="3.52123">
        <ele>343.399994</ele>
        <time>2013-05-25T07:32:04Z</time>
      </trkpt>
      <trkpt lat="43.73942" lon="3.52129">
        <ele>343</ele>
        <time>2013-05-25T07:32:05Z</time>
      </trkpt>
      <trkpt lat="43.73944" lon="3.52141">
        <ele>342.600006</ele>
        <time>2013-05-25T07:32:07Z</time>
      </trkpt>
      <trkpt lat="43.73946" lon="3.52152">
        <ele>341.100006</ele>
        <time>2013-05-25T07:32:10Z</time>
      </trkpt>
      <trkpt lat="43.73948" lon="3.52162">
        <ele>339.899994</ele>
        <time>2013-05-25T07:32:13Z</time>
      </trkpt>
      <trkpt lat="43.7395" lon="3.52172">
        <ele>339.200012</ele>
        <time>2013-05-25T07:32:17Z</time>
      </trkpt>
      <trkpt lat="43.73951" lon="3.52183">
        <ele>338.600006</ele>
        <time>2013-05-25T07:32:20Z</time>
      </trkpt>
      <trkpt lat="43.73949" lon="3.52193">
        <ele>336.799988</ele>
        <time>2013-05-25T07:32:23Z</time>
      </trkpt>
      <trkpt lat="43.73945" lon="3.52204">
        <ele>333.899994</ele>
        <time>2013-05-25T07:32:26Z</time>
      </trkpt>
      <trkpt lat="43.73942" lon="3.52214">
        <ele>333.100006</ele>
        <time>2013-05-25T07:32:28Z</time>
      </trkpt>
      <trkpt lat="43.73938" lon="3.52224">
        <ele>330.5</ele>
        <time>2013-05-25T07:32:31Z</time>
      </trkpt>
      <trkpt lat="43.73935" lon="3.52235">
        <ele>329</ele>
        <time>2013-05-25T07:32:34Z</time>
      </trkpt>
      <trkpt lat="43.73935" lon="3.52238">
        <ele>328.700012</ele>
        <time>2013-05-25T07:32:35Z</time>
      </trkpt>
      <trkpt lat="43.73935" lon="3.52257">
        <ele>325.399994</ele>
        <time>2013-05-25T07:32:40Z</time>
      </trkpt>
      <trkpt lat="43.73932" lon="3.52269">
        <ele>322.799988</ele>
        <time>2013-05-25T07:32:44Z</time>
      </trkpt>
      <trkpt lat="43.73928" lon="3.52279">
        <ele>320.899994</ele>
        <time>2013-05-25T07:32:47Z</time>
      </trkpt>
      <trkpt lat="43.73927" lon="3.52287">
        <ele>319.5</ele>
        <time>2013-05-25T07:32:49Z</time>
      </trkpt>
      <trkpt lat="43.73926" lon="3.52299">
        <ele>317.600006</ele>
        <time>2013-05-25T07:32:52Z</time>
      </trkpt>
      <trkpt lat="43.73925" lon="3.52311">
        <ele>316.399994</ele>
        <time>2013-05-25T07:32:55Z</time>
      </trkpt>
      <trkpt lat="43.73924" lon="3.52319">
        <ele>315.899994</ele>
        <time>2013-05-25T07:32:57Z</time>
      </trkpt>
      <trkpt lat="43.73922" lon="3.5233">
        <ele>314.799988</ele>
        <time>2013-05-25T07:32:59Z</time>
      </trkpt>
      <trkpt lat="43.73924" lon="3.52342">
        <ele>312.399994</ele>
        <time>2013-05-25T07:33:05Z</time>
      </trkpt>
      <trkpt lat="43.73922" lon="3.52331">
        <ele>311.899994</ele>
        <time>2013-05-25T07:35:07Z</time>
      </trkpt>
      <trkpt lat="43.73923" lon="3.5233">
        <ele>311.899994</ele>
        <time>2013-05-25T07:35:08Z</time>
      </trkpt>
      <trkpt lat="43.73932" lon="3.52313">
        <ele>310.299988</ele>
        <time>2013-05-25T07:35:15Z</time>
      </trkpt>
      <trkpt lat="43.73938" lon="3.52305">
        <ele>310.200012</ele>
        <time>2013-05-25T07:35:18Z</time>
      </trkpt>
      <trkpt lat="43.73943" lon="3.52298">
        <ele>310.100006</ele>
        <time>2013-05-25T07:35:20Z</time>
      </trkpt>
      <trkpt lat="43.73948" lon="3.52291">
        <ele>309.899994</ele>
        <time>2013-05-25T07:35:22Z</time>
      </trkpt>
      <trkpt lat="43.73953" lon="3.52283">
        <ele>309.700012</ele>
        <time>2013-05-25T07:35:24Z</time>
      </trkpt>
      <trkpt lat="43.73959" lon="3.52276">
        <ele>309.600006</ele>
        <time>2013-05-25T07:35:26Z</time>
      </trkpt>
      <trkpt lat="43.73964" lon="3.52268">
        <ele>310.200012</ele>
        <time>2013-05-25T07:35:29Z</time>
      </trkpt>
      <trkpt lat="43.7397" lon="3.52259">
        <ele>310.700012</ele>
        <time>2013-05-25T07:35:34Z</time>
      </trkpt>
      <trkpt lat="43.73977" lon="3.52251">
        <ele>309.799988</ele>
        <time>2013-05-25T07:35:59Z</time>
      </trkpt>
      <trkpt lat="43.73983" lon="3.52247">
        <ele>310</ele>
        <time>2013-05-25T07:36:21Z</time>
      </trkpt>
      <trkpt lat="43.73985" lon="3.52246">
        <ele>309.799988</ele>
        <time>2013-05-25T07:36:22Z</time>
      </trkpt>
      <trkpt lat="43.73986" lon="3.52228">
        <ele>309.600006</ele>
        <time>2013-05-25T07:36:57Z</time>
      </trkpt>
      <trkpt lat="43.73988" lon="3.52216">
        <ele>309.899994</ele>
        <time>2013-05-25T07:37:00Z</time>
      </trkpt>
      <trkpt lat="43.7399" lon="3.52204">
        <ele>310.100006</ele>
        <time>2013-05-25T07:37:03Z</time>
      </trkpt>
      <trkpt lat="43.73991" lon="3.52192">
        <ele>310</ele>
        <time>2013-05-25T07:37:06Z</time>
      </trkpt>
      <trkpt lat="43.73992" lon="3.52183">
        <ele>309.899994</ele>
        <time>2013-05-25T07:37:08Z</time>
      </trkpt>
      <trkpt lat="43.73993" lon="3.52173">
        <ele>309.799988</ele>
        <time>2013-05-25T07:37:10Z</time>
      </trkpt>
      <trkpt lat="43.73994" lon="3.52163">
        <ele>309.700012</ele>
        <time>2013-05-25T07:37:12Z</time>
      </trkpt>
      <trkpt lat="43.73995" lon="3.52153">
        <ele>309.5</ele>
        <time>2013-05-25T07:37:14Z</time>
      </trkpt>
      <trkpt lat="43.73996" lon="3.52143">
        <ele>309.100006</ele>
        <time>2013-05-25T07:37:16Z</time>
      </trkpt>
      <trkpt lat="43.73997" lon="3.52134">
        <ele>308.600006</ele>
        <time>2013-05-25T07:37:18Z</time>
      </trkpt>
      <trkpt lat="43.73998" lon="3.52126">
        <ele>308.5</ele>
        <time>2013-05-25T07:37:20Z</time>
      </trkpt>
      <trkpt lat="43.73999" lon="3.52114">
        <ele>308.600006</ele>
        <time>2013-05-25T07:37:23Z</time>
      </trkpt>
      <trkpt lat="43.74" lon="3.5211">
        <ele>308.600006</ele>
        <time>2013-05-25T07:37:24Z</time>
      </trkpt>
      <trkpt lat="43.74004" lon="3.52098">
        <ele>308.700012</ele>
        <time>2013-05-25T07:37:27Z</time>
      </trkpt>
      <trkpt lat="43.74006" lon="3.52089">
        <ele>308.799988</ele>
        <time>2013-05-25T07:37:29Z</time>
      </trkpt>
      <trkpt lat="43.74011" lon="3.52081">
        <ele>309</ele>
        <time>2013-05-25T07:37:31Z</time>
      </trkpt>
      <trkpt lat="43.74015" lon="3.52074">
        <ele>309.100006</ele>
        <time>2013-05-25T07:37:33Z</time>
      </trkpt>
      <trkpt lat="43.74019" lon="3.52067">
        <ele>309.600006</ele>
        <time>2013-05-25T07:37:35Z</time>
      </trkpt>
      <trkpt lat="43.74024" lon="3.52059">
        <ele>310.100006</ele>
        <time>2013-05-25T07:37:37Z</time>
      </trkpt>
      <trkpt lat="43.74028" lon="3.52052">
        <ele>310.899994</ele>
        <time>2013-05-25T07:37:39Z</time>
      </trkpt>
      <trkpt lat="43.74034" lon="3.52046">
        <ele>311.299988</ele>
        <time>2013-05-25T07:37:41Z</time>
      </trkpt>
      <trkpt lat="43.74041" lon="3.5204">
        <ele>311.700012</ele>
        <time>2013-05-25T07:37:43Z</time>
      </trkpt>
      <trkpt lat="43.74047" lon="3.52034">
        <ele>312</ele>
        <time>2013-05-25T07:37:45Z</time>
      </trkpt>
      <trkpt lat="43.74052" lon="3.52029">
        <ele>312.200012</ele>
        <time>2013-05-25T07:37:47Z</time>
      </trkpt>
      <trkpt lat="43.74058" lon="3.52024">
        <ele>312.600006</ele>
        <time>2013-05-25T07:37:49Z</time>
      </trkpt>
      <trkpt lat="43.74064" lon="3.52016">
        <ele>313.899994</ele>
        <time>2013-05-25T07:37:52Z</time>
      </trkpt>
      <trkpt lat="43.74071" lon="3.52009">
        <ele>315.399994</ele>
        <time>2013-05-25T07:37:55Z</time>
      </trkpt>
      <trkpt lat="43.74077" lon="3.52001">
        <ele>315.799988</ele>
        <time>2013-05-25T07:37:58Z</time>
      </trkpt>
      <trkpt lat="43.74083" lon="3.51992">
        <ele>316</ele>
        <time>2013-05-25T07:38:01Z</time>
      </trkpt>
      <trkpt lat="43.74087" lon="3.51985">
        <ele>316.299988</ele>
        <time>2013-05-25T07:38:03Z</time>
      </trkpt>
      <trkpt lat="43.7409" lon="3.51978">
        <ele>316.600006</ele>
        <time>2013-05-25T07:38:05Z</time>
      </trkpt>
      <trkpt lat="43.74095" lon="3.5197">
        <ele>316.299988</ele>
        <time>2013-05-25T07:38:07Z</time>
      </trkpt>
      <trkpt lat="43.74098" lon="3.51963">
        <ele>315.600006</ele>
        <time>2013-05-25T07:38:09Z</time>
      </trkpt>
      <trkpt lat="43.74102" lon="3.51954">
        <ele>314.799988</ele>
        <time>2013-05-25T07:38:11Z</time>
      </trkpt>
      <trkpt lat="43.74105" lon="3.51945">
        <ele>314.399994</ele>
        <time>2013-05-25T07:38:13Z</time>
      </trkpt>
      <trkpt lat="43.74108" lon="3.51937">
        <ele>314.200012</ele>
        <time>2013-05-25T07:38:15Z</time>
      </trkpt>
      <trkpt lat="43.74109" lon="3.51928">
        <ele>314.200012</ele>
        <time>2013-05-25T07:38:17Z</time>
      </trkpt>
      <trkpt lat="43.74109" lon="3.51919">
        <ele>314.299988</ele>
        <time>2013-05-25T07:38:19Z</time>
      </trkpt>
      <trkpt lat="43.74109" lon="3.5191">
        <ele>315.100006</ele>
        <time>2013-05-25T07:38:21Z</time>
      </trkpt>
      <trkpt lat="43.74109" lon="3.51902">
        <ele>315.899994</ele>
        <time>2013-05-25T07:38:23Z</time>
      </trkpt>
      <trkpt lat="43.74108" lon="3.51893">
        <ele>316.600006</ele>
        <time>2013-05-25T07:38:25Z</time>
      </trkpt>
      <trkpt lat="43.74107" lon="3.51889">
        <ele>316.600006</ele>
        <time>2013-05-25T07:38:26Z</time>
      </trkpt>
      <trkpt lat="43.74103" lon="3.5187">
        <ele>318.100006</ele>
        <time>2013-05-25T07:38:31Z</time>
      </trkpt>
      <trkpt lat="43.74101" lon="3.51862">
        <ele>318.200012</ele>
        <time>2013-05-25T07:38:33Z</time>
      </trkpt>
      <trkpt lat="43.74096" lon="3.51856">
        <ele>317.899994</ele>
        <time>2013-05-25T07:38:35Z</time>
      </trkpt>
      <trkpt lat="43.7409" lon="3.51853">
        <ele>318.5</ele>
        <time>2013-05-25T07:38:37Z</time>
      </trkpt>
      <trkpt lat="43.74084" lon="3.5185">
        <ele>318.799988</ele>
        <time>2013-05-25T07:38:39Z</time>
      </trkpt>
      <trkpt lat="43.74078" lon="3.51843">
        <ele>319.299988</ele>
        <time>2013-05-25T07:38:43Z</time>
      </trkpt>
      <trkpt lat="43.74078" lon="3.51833">
        <ele>320</ele>
        <time>2013-05-25T07:38:47Z</time>
      </trkpt>
      <trkpt lat="43.74078" lon="3.51821">
        <ele>320.200012</ele>
        <time>2013-05-25T07:38:52Z</time>
      </trkpt>
      <trkpt lat="43.74082" lon="3.5181">
        <ele>320.299988</ele>
        <time>2013-05-25T07:38:57Z</time>
      </trkpt>
      <trkpt lat="43.74088" lon="3.51802">
        <ele>322</ele>
        <time>2013-05-25T07:39:01Z</time>
      </trkpt>
      <trkpt lat="43.74095" lon="3.51794">
        <ele>322.100006</ele>
        <time>2013-05-25T07:39:04Z</time>
      </trkpt>
      <trkpt lat="43.74099" lon="3.51785">
        <ele>322.700012</ele>
        <time>2013-05-25T07:39:07Z</time>
      </trkpt>
      <trkpt lat="43.74105" lon="3.51776">
        <ele>324.299988</ele>
        <time>2013-05-25T07:39:12Z</time>
      </trkpt>
      <trkpt lat="43.74111" lon="3.51769">
        <ele>326.100006</ele>
        <time>2013-05-25T07:39:18Z</time>
      </trkpt>
      <trkpt lat="43.74116" lon="3.5176">
        <ele>327.200012</ele>
        <time>2013-05-25T07:39:23Z</time>
      </trkpt>
      <trkpt lat="43.74122" lon="3.51752">
        <ele>328.299988</ele>
        <time>2013-05-25T07:39:28Z</time>
      </trkpt>
      <trkpt lat="43.74123" lon="3.5175">
        <ele>328.600006</ele>
        <time>2013-05-25T07:39:29Z</time>
      </trkpt>
      <trkpt lat="43.74131" lon="3.51737">
        <ele>329</ele>
        <time>2013-05-25T07:39:35Z</time>
      </trkpt>
      <trkpt lat="43.74135" lon="3.51728">
        <ele>328.100006</ele>
        <time>2013-05-25T07:39:38Z</time>
      </trkpt>
      <trkpt lat="43.74139" lon="3.51718">
        <ele>327.600006</ele>
        <time>2013-05-25T07:39:41Z</time>
      </trkpt>
      <trkpt lat="43.74145" lon="3.5171">
        <ele>328.100006</ele>
        <time>2013-05-25T07:39:44Z</time>
      </trkpt>
      <trkpt lat="43.74149" lon="3.51704">
        <ele>328.600006</ele>
        <time>2013-05-25T07:39:46Z</time>
      </trkpt>
      <trkpt lat="43.74154" lon="3.51695">
        <ele>328.600006</ele>
        <time>2013-05-25T07:39:49Z</time>
      </trkpt>
      <trkpt lat="43.7416" lon="3.51686">
        <ele>328.399994</ele>
        <time>2013-05-25T07:39:52Z</time>
      </trkpt>
      <trkpt lat="43.74166" lon="3.5168">
        <ele>328.5</ele>
        <time>2013-05-25T07:39:55Z</time>
      </trkpt>
      <trkpt lat="43.74174" lon="3.51675">
        <ele>330</ele>
        <time>2013-05-25T07:39:59Z</time>
      </trkpt>
      <trkpt lat="43.74179" lon="3.51667">
        <ele>330.399994</ele>
        <time>2013-05-25T07:40:02Z</time>
      </trkpt>
      <trkpt lat="43.74182" lon="3.51658">
        <ele>330.600006</ele>
        <time>2013-05-25T07:40:05Z</time>
      </trkpt>
      <trkpt lat="43.74187" lon="3.5165">
        <ele>330.799988</ele>
        <time>2013-05-25T07:40:08Z</time>
      </trkpt>
      <trkpt lat="43.74191" lon="3.51643">
        <ele>330.899994</ele>
        <time>2013-05-25T07:40:10Z</time>
      </trkpt>
      <trkpt lat="43.74195" lon="3.51636">
        <ele>330.799988</ele>
        <time>2013-05-25T07:40:12Z</time>
      </trkpt>
      <trkpt lat="43.74197" lon="3.51628">
        <ele>330.600006</ele>
        <time>2013-05-25T07:40:14Z</time>
      </trkpt>
      <trkpt lat="43.74201" lon="3.51618">
        <ele>330.700012</ele>
        <time>2013-05-25T07:40:17Z</time>
      </trkpt>
      <trkpt lat="43.74202" lon="3.51608">
        <ele>331.200012</ele>
        <time>2013-05-25T07:40:20Z</time>
      </trkpt>
      <trkpt lat="43.742" lon="3.51597">
        <ele>330.700012</ele>
        <time>2013-05-25T07:40:24Z</time>
      </trkpt>
      <trkpt lat="43.74202" lon="3.51587">
        <ele>330.600006</ele>
        <time>2013-05-25T07:40:28Z</time>
      </trkpt>
      <trkpt lat="43.74201" lon="3.51575">
        <ele>332</ele>
        <time>2013-05-25T07:40:35Z</time>
      </trkpt>
      <trkpt lat="43.74201" lon="3.51574">
        <ele>332.100006</ele>
        <time>2013-05-25T07:40:36Z</time>
      </trkpt>
      <trkpt lat="43.74213" lon="3.51566">
        <ele>334.700012</ele>
        <time>2013-05-25T07:42:12Z</time>
      </trkpt>
      <trkpt lat="43.74217" lon="3.51568">
        <ele>334.200012</ele>
        <time>2013-05-25T07:42:13Z</time>
      </trkpt>
      <trkpt lat="43.74227" lon="3.51572">
        <ele>333.399994</ele>
        <time>2013-05-25T07:42:16Z</time>
      </trkpt>
      <trkpt lat="43.74234" lon="3.51576">
        <ele>333.100006</ele>
        <time>2013-05-25T07:42:19Z</time>
      </trkpt>
      <trkpt lat="43.74242" lon="3.51578">
        <ele>333.100006</ele>
        <time>2013-05-25T07:42:22Z</time>
      </trkpt>
      <trkpt lat="43.7425" lon="3.51581">
        <ele>333.100006</ele>
        <time>2013-05-25T07:42:25Z</time>
      </trkpt>
      <trkpt lat="43.74256" lon="3.51584">
        <ele>333</ele>
        <time>2013-05-25T07:42:28Z</time>
      </trkpt>
      <trkpt lat="43.74263" lon="3.51588">
        <ele>333.899994</ele>
        <time>2013-05-25T07:42:31Z</time>
      </trkpt>
      <trkpt lat="43.7427" lon="3.51594">
        <ele>335.299988</ele>
        <time>2013-05-25T07:42:35Z</time>
      </trkpt>
      <trkpt lat="43.74277" lon="3.516">
        <ele>335.299988</ele>
        <time>2013-05-25T07:42:38Z</time>
      </trkpt>
      <trkpt lat="43.74283" lon="3.51605">
        <ele>335.5</ele>
        <time>2013-05-25T07:42:41Z</time>
      </trkpt>
      <trkpt lat="43.74289" lon="3.5161">
        <ele>335.799988</ele>
        <time>2013-05-25T07:42:44Z</time>
      </trkpt>
      <trkpt lat="43.74297" lon="3.51616">
        <ele>336</ele>
        <time>2013-05-25T07:42:48Z</time>
      </trkpt>
      <trkpt lat="43.74304" lon="3.51617">
        <ele>336</ele>
        <time>2013-05-25T07:42:51Z</time>
      </trkpt>
      <trkpt lat="43.74312" lon="3.51616">
        <ele>335.899994</ele>
        <time>2013-05-25T07:42:54Z</time>
      </trkpt>
      <trkpt lat="43.7432" lon="3.51619">
        <ele>336.5</ele>
        <time>2013-05-25T07:42:59Z</time>
      </trkpt>
      <trkpt lat="43.74327" lon="3.51625">
        <ele>338</ele>
        <time>2013-05-25T07:43:05Z</time>
      </trkpt>
      <trkpt lat="43.74333" lon="3.51633">
        <ele>339.399994</ele>
        <time>2013-05-25T07:43:11Z</time>
      </trkpt>
      <trkpt lat="43.74339" lon="3.51641">
        <ele>341.799988</ele>
        <time>2013-05-25T07:43:17Z</time>
      </trkpt>
      <trkpt lat="43.7434" lon="3.51642">
        <ele>342.5</ele>
        <time>2013-05-25T07:43:18Z</time>
      </trkpt>
      <trkpt lat="43.74352" lon="3.51654">
        <ele>346.700012</ele>
        <time>2013-05-25T07:43:29Z</time>
      </trkpt>
      <trkpt lat="43.7436" lon="3.51658">
        <ele>348.700012</ele>
        <time>2013-05-25T07:43:35Z</time>
      </trkpt>
      <trkpt lat="43.74369" lon="3.5166">
        <ele>350.200012</ele>
        <time>2013-05-25T07:43:40Z</time>
      </trkpt>
      <trkpt lat="43.74376" lon="3.51663">
        <ele>350.899994</ele>
        <time>2013-05-25T07:43:45Z</time>
      </trkpt>
      <trkpt lat="43.74384" lon="3.51666">
        <ele>351</ele>
        <time>2013-05-25T07:43:50Z</time>
      </trkpt>
      <trkpt lat="43.74392" lon="3.51669">
        <ele>352.399994</ele>
        <time>2013-05-25T07:43:55Z</time>
      </trkpt>
      <trkpt lat="43.744" lon="3.51672">
        <ele>352.299988</ele>
        <time>2013-05-25T07:43:59Z</time>
      </trkpt>
      <trkpt lat="43.74408" lon="3.51676">
        <ele>352.200012</ele>
        <time>2013-05-25T07:44:02Z</time>
      </trkpt>
      <trkpt lat="43.74416" lon="3.5168">
        <ele>351.700012</ele>
        <time>2013-05-25T07:44:05Z</time>
      </trkpt>
      <trkpt lat="43.74423" lon="3.51684">
        <ele>350.799988</ele>
        <time>2013-05-25T07:44:08Z</time>
      </trkpt>
      <trkpt lat="43.7443" lon="3.51689">
        <ele>350.799988</ele>
        <time>2013-05-25T07:44:11Z</time>
      </trkpt>
      <trkpt lat="43.74438" lon="3.5169">
        <ele>351.299988</ele>
        <time>2013-05-25T07:44:14Z</time>
      </trkpt>
      <trkpt lat="43.74446" lon="3.5169">
        <ele>352.100006</ele>
        <time>2013-05-25T07:44:18Z</time>
      </trkpt>
      <trkpt lat="43.74447" lon="3.5169">
        <ele>352.200012</ele>
        <time>2013-05-25T07:44:19Z</time>
      </trkpt>
      <trkpt lat="43.74461" lon="3.51691">
        <ele>353.399994</ele>
        <time>2013-05-25T07:44:26Z</time>
      </trkpt>
      <trkpt lat="43.74468" lon="3.51694">
        <ele>354</ele>
        <time>2013-05-25T07:44:30Z</time>
      </trkpt>
      <trkpt lat="43.74476" lon="3.51699">
        <ele>353.600006</ele>
        <time>2013-05-25T07:44:35Z</time>
      </trkpt>
      <trkpt lat="43.74484" lon="3.51701">
        <ele>354.100006</ele>
        <time>2013-05-25T07:44:40Z</time>
      </trkpt>
      <trkpt lat="43.74492" lon="3.51703">
        <ele>355</ele>
        <time>2013-05-25T07:44:45Z</time>
      </trkpt>
      <trkpt lat="43.745" lon="3.51704">
        <ele>355.700012</ele>
        <time>2013-05-25T07:44:50Z</time>
      </trkpt>
      <trkpt lat="43.74508" lon="3.51704">
        <ele>357.600006</ele>
        <time>2013-05-25T07:44:55Z</time>
      </trkpt>
      <trkpt lat="43.74515" lon="3.51705">
        <ele>359.600006</ele>
        <time>2013-05-25T07:44:59Z</time>
      </trkpt>
      <trkpt lat="43.74523" lon="3.51705">
        <ele>360.700012</ele>
        <time>2013-05-25T07:45:03Z</time>
      </trkpt>
      <trkpt lat="43.7453" lon="3.51704">
        <ele>361.799988</ele>
        <time>2013-05-25T07:45:07Z</time>
      </trkpt>
      <trkpt lat="43.74538" lon="3.51703">
        <ele>363.600006</ele>
        <time>2013-05-25T07:45:11Z</time>
      </trkpt>
      <trkpt lat="43.74546" lon="3.51703">
        <ele>363.700012</ele>
        <time>2013-05-25T07:45:15Z</time>
      </trkpt>
      <trkpt lat="43.74555" lon="3.51703">
        <ele>362.899994</ele>
        <time>2013-05-25T07:45:19Z</time>
      </trkpt>
      <trkpt lat="43.74557" lon="3.51703">
        <ele>362.799988</ele>
        <time>2013-05-25T07:45:20Z</time>
      </trkpt>
      <trkpt lat="43.7457" lon="3.51695">
        <ele>363.899994</ele>
        <time>2013-05-25T07:45:27Z</time>
      </trkpt>
      <trkpt lat="43.74577" lon="3.51692">
        <ele>365</ele>
        <time>2013-05-25T07:45:31Z</time>
      </trkpt>
      <trkpt lat="43.74585" lon="3.51692">
        <ele>365.600006</ele>
        <time>2013-05-25T07:45:35Z</time>
      </trkpt>
      <trkpt lat="43.74592" lon="3.51697">
        <ele>366.5</ele>
        <time>2013-05-25T07:45:39Z</time>
      </trkpt>
      <trkpt lat="43.746" lon="3.51701">
        <ele>366.200012</ele>
        <time>2013-05-25T07:45:44Z</time>
      </trkpt>
      <trkpt lat="43.74608" lon="3.51706">
        <ele>367.899994</ele>
        <time>2013-05-25T07:45:48Z</time>
      </trkpt>
      <trkpt lat="43.74614" lon="3.51713">
        <ele>368</ele>
        <time>2013-05-25T07:45:52Z</time>
      </trkpt>
      <trkpt lat="43.74619" lon="3.51721">
        <ele>368.799988</ele>
        <time>2013-05-25T07:45:56Z</time>
      </trkpt>
      <trkpt lat="43.74626" lon="3.51727">
        <ele>369.600006</ele>
        <time>2013-05-25T07:46:00Z</time>
      </trkpt>
      <trkpt lat="43.74634" lon="3.51731">
        <ele>370.5</ele>
        <time>2013-05-25T07:46:04Z</time>
      </trkpt>
      <trkpt lat="43.74642" lon="3.51733">
        <ele>371.899994</ele>
        <time>2013-05-25T07:46:08Z</time>
      </trkpt>
      <trkpt lat="43.7465" lon="3.51739">
        <ele>372.5</ele>
        <time>2013-05-25T07:46:13Z</time>
      </trkpt>
      <trkpt lat="43.74656" lon="3.51744">
        <ele>371.5</ele>
        <time>2013-05-25T07:46:16Z</time>
      </trkpt>
      <trkpt lat="43.74662" lon="3.51749">
        <ele>371.100006</ele>
        <time>2013-05-25T07:46:19Z</time>
      </trkpt>
      <trkpt lat="43.74669" lon="3.51753">
        <ele>371</ele>
        <time>2013-05-25T07:46:22Z</time>
      </trkpt>
      <trkpt lat="43.7467" lon="3.51754">
        <ele>371</ele>
        <time>2013-05-25T07:46:23Z</time>
      </trkpt>
      <trkpt lat="43.74681" lon="3.51763">
        <ele>370.600006</ele>
        <time>2013-05-25T07:46:28Z</time>
      </trkpt>
      <trkpt lat="43.74687" lon="3.51767">
        <ele>370.899994</ele>
        <time>2013-05-25T07:46:31Z</time>
      </trkpt>
      <trkpt lat="43.74693" lon="3.51772">
        <ele>371.799988</ele>
        <time>2013-05-25T07:46:34Z</time>
      </trkpt>
      <trkpt lat="43.747" lon="3.51779">
        <ele>373.100006</ele>
        <time>2013-05-25T07:46:38Z</time>
      </trkpt>
      <trkpt lat="43.74706" lon="3.51785">
        <ele>372.5</ele>
        <time>2013-05-25T07:46:41Z</time>
      </trkpt>
      <trkpt lat="43.74712" lon="3.51791">
        <ele>373.200012</ele>
        <time>2013-05-25T07:46:44Z</time>
      </trkpt>
      <trkpt lat="43.74718" lon="3.51796">
        <ele>374.299988</ele>
        <time>2013-05-25T07:46:47Z</time>
      </trkpt>
      <trkpt lat="43.74725" lon="3.51803">
        <ele>375</ele>
        <time>2013-05-25T07:46:51Z</time>
      </trkpt>
      <trkpt lat="43.74732" lon="3.5181">
        <ele>375.5</ele>
        <time>2013-05-25T07:46:55Z</time>
      </trkpt>
      <trkpt lat="43.74738" lon="3.51819">
        <ele>375.700012</ele>
        <time>2013-05-25T07:46:59Z</time>
      </trkpt>
      <trkpt lat="43.74743" lon="3.51825">
        <ele>376.200012</ele>
        <time>2013-05-25T07:47:02Z</time>
      </trkpt>
      <trkpt lat="43.74749" lon="3.51831">
        <ele>376.399994</ele>
        <time>2013-05-25T07:47:05Z</time>
      </trkpt>
      <trkpt lat="43.74756" lon="3.51839">
        <ele>375.100006</ele>
        <time>2013-05-25T07:47:09Z</time>
      </trkpt>
      <trkpt lat="43.74763" lon="3.51844">
        <ele>374.799988</ele>
        <time>2013-05-25T07:47:13Z</time>
      </trkpt>
      <trkpt lat="43.74771" lon="3.51849">
        <ele>373.799988</ele>
        <time>2013-05-25T07:47:17Z</time>
      </trkpt>
      <trkpt lat="43.7478" lon="3.51852">
        <ele>372.399994</ele>
        <time>2013-05-25T07:47:21Z</time>
      </trkpt>
      <trkpt lat="43.74787" lon="3.51856">
        <ele>371.299988</ele>
        <time>2013-05-25T07:47:25Z</time>
      </trkpt>
      <trkpt lat="43.74789" lon="3.51857">
        <ele>371.299988</ele>
        <time>2013-05-25T07:47:26Z</time>
      </trkpt>
      <trkpt lat="43.74802" lon="3.51867">
        <ele>374.299988</ele>
        <time>2013-05-25T07:47:33Z</time>
      </trkpt>
      <trkpt lat="43.7481" lon="3.51874">
        <ele>376.399994</ele>
        <time>2013-05-25T07:47:37Z</time>
      </trkpt>
      <trkpt lat="43.74816" lon="3.51882">
        <ele>378</ele>
        <time>2013-05-25T07:47:41Z</time>
      </trkpt>
      <trkpt lat="43.74822" lon="3.51892">
        <ele>378.700012</ele>
        <time>2013-05-25T07:47:45Z</time>
      </trkpt>
      <trkpt lat="43.74827" lon="3.51901">
        <ele>378.700012</ele>
        <time>2013-05-25T07:47:49Z</time>
      </trkpt>
      <trkpt lat="43.74832" lon="3.5191">
        <ele>379.100006</ele>
        <time>2013-05-25T07:47:53Z</time>
      </trkpt>
      <trkpt lat="43.74837" lon="3.51919">
        <ele>379.600006</ele>
        <time>2013-05-25T07:47:57Z</time>
      </trkpt>
      <trkpt lat="43.74842" lon="3.51928">
        <ele>379.299988</ele>
        <time>2013-05-25T07:48:01Z</time>
      </trkpt>
      <trkpt lat="43.74848" lon="3.51936">
        <ele>378.700012</ele>
        <time>2013-05-25T07:48:05Z</time>
      </trkpt>
      <trkpt lat="43.74852" lon="3.51944">
        <ele>377.100006</ele>
        <time>2013-05-25T07:48:09Z</time>
      </trkpt>
      <trkpt lat="43.74857" lon="3.51953">
        <ele>377.700012</ele>
        <time>2013-05-25T07:48:13Z</time>
      </trkpt>
      <trkpt lat="43.74862" lon="3.51962">
        <ele>378.399994</ele>
        <time>2013-05-25T07:48:17Z</time>
      </trkpt>
      <trkpt lat="43.74865" lon="3.51974">
        <ele>379.700012</ele>
        <time>2013-05-25T07:48:22Z</time>
      </trkpt>
      <trkpt lat="43.74864" lon="3.51985">
        <ele>380.600006</ele>
        <time>2013-05-25T07:48:27Z</time>
      </trkpt>
      <trkpt lat="43.74864" lon="3.51987">
        <ele>381.100006</ele>
        <time>2013-05-25T07:48:28Z</time>
      </trkpt>
      <trkpt lat="43.74861" lon="3.52006">
        <ele>384.700012</ele>
        <time>2013-05-25T07:48:38Z</time>
      </trkpt>
      <trkpt lat="43.74859" lon="3.52017">
        <ele>385.799988</ele>
        <time>2013-05-25T07:48:44Z</time>
      </trkpt>
      <trkpt lat="43.7486" lon="3.52027">
        <ele>387.100006</ele>
        <time>2013-05-25T07:48:49Z</time>
      </trkpt>
      <trkpt lat="43.74863" lon="3.52038">
        <ele>388.5</ele>
        <time>2013-05-25T07:48:54Z</time>
      </trkpt>
      <trkpt lat="43.74866" lon="3.52047">
        <ele>388.600006</ele>
        <time>2013-05-25T07:48:58Z</time>
      </trkpt>
      <trkpt lat="43.74866" lon="3.52058">
        <ele>389.200012</ele>
        <time>2013-05-25T07:49:02Z</time>
      </trkpt>
      <trkpt lat="43.74863" lon="3.52068">
        <ele>389.899994</ele>
        <time>2013-05-25T07:49:06Z</time>
      </trkpt>
      <trkpt lat="43.74858" lon="3.52075">
        <ele>390.399994</ele>
        <time>2013-05-25T07:49:10Z</time>
      </trkpt>
      <trkpt lat="43.74851" lon="3.52083">
        <ele>391.700012</ele>
        <time>2013-05-25T07:49:15Z</time>
      </trkpt>
      <trkpt lat="43.74844" lon="3.52087">
        <ele>392.200012</ele>
        <time>2013-05-25T07:49:20Z</time>
      </trkpt>
      <trkpt lat="43.74839" lon="3.52096">
        <ele>392.100006</ele>
        <time>2013-05-25T07:49:25Z</time>
      </trkpt>
      <trkpt lat="43.74839" lon="3.52106">
        <ele>392.100006</ele>
        <time>2013-05-25T07:49:30Z</time>
      </trkpt>
      <trkpt lat="43.74839" lon="3.52108">
        <ele>392.100006</ele>
        <time>2013-05-25T07:49:31Z</time>
      </trkpt>
      <trkpt lat="43.74843" lon="3.52127">
        <ele>394</ele>
        <time>2013-05-25T07:49:39Z</time>
      </trkpt>
      <trkpt lat="43.74844" lon="3.52137">
        <ele>395.799988</ele>
        <time>2013-05-25T07:49:43Z</time>
      </trkpt>
      <trkpt lat="43.74845" lon="3.52149">
        <ele>396.799988</ele>
        <time>2013-05-25T07:49:47Z</time>
      </trkpt>
      <trkpt lat="43.74846" lon="3.52161">
        <ele>396.299988</ele>
        <time>2013-05-25T07:49:51Z</time>
      </trkpt>
      <trkpt lat="43.74846" lon="3.52173">
        <ele>396.5</ele>
        <time>2013-05-25T07:49:55Z</time>
      </trkpt>
      <trkpt lat="43.74847" lon="3.52184">
        <ele>396.899994</ele>
        <time>2013-05-25T07:49:59Z</time>
      </trkpt>
      <trkpt lat="43.74847" lon="3.52195">
        <ele>398</ele>
        <time>2013-05-25T07:50:02Z</time>
      </trkpt>
      <trkpt lat="43.74848" lon="3.52206">
        <ele>400.200012</ele>
        <time>2013-05-25T07:50:06Z</time>
      </trkpt>
      <trkpt lat="43.74854" lon="3.52213">
        <ele>400.799988</ele>
        <time>2013-05-25T07:50:10Z</time>
      </trkpt>
      <trkpt lat="43.74861" lon="3.52216">
        <ele>400.200012</ele>
        <time>2013-05-25T07:50:13Z</time>
      </trkpt>
      <trkpt lat="43.74868" lon="3.52223">
        <ele>400</ele>
        <time>2013-05-25T07:50:17Z</time>
      </trkpt>
      <trkpt lat="43.7487" lon="3.52232">
        <ele>399.700012</ele>
        <time>2013-05-25T07:50:20Z</time>
      </trkpt>
      <trkpt lat="43.74872" lon="3.52241">
        <ele>399.700012</ele>
        <time>2013-05-25T07:50:23Z</time>
      </trkpt>
      <trkpt lat="43.74874" lon="3.52253">
        <ele>400.600006</ele>
        <time>2013-05-25T07:50:27Z</time>
      </trkpt>
      <trkpt lat="43.74873" lon="3.52265">
        <ele>401.299988</ele>
        <time>2013-05-25T07:50:31Z</time>
      </trkpt>
      <trkpt lat="43.74873" lon="3.52268">
        <ele>401.399994</ele>
        <time>2013-05-25T07:50:32Z</time>
      </trkpt>
      <trkpt lat="43.7487" lon="3.52286">
        <ele>402.100006</ele>
        <time>2013-05-25T07:50:39Z</time>
      </trkpt>
      <trkpt lat="43.74867" lon="3.52295">
        <ele>402.5</ele>
        <time>2013-05-25T07:50:42Z</time>
      </trkpt>
      <trkpt lat="43.74863" lon="3.52303">
        <ele>402.100006</ele>
        <time>2013-05-25T07:50:45Z</time>
      </trkpt>
      <trkpt lat="43.74859" lon="3.52311">
        <ele>401.799988</ele>
        <time>2013-05-25T07:50:48Z</time>
      </trkpt>
      <trkpt lat="43.74854" lon="3.52321">
        <ele>402.5</ele>
        <time>2013-05-25T07:50:52Z</time>
      </trkpt>
      <trkpt lat="43.7485" lon="3.5233">
        <ele>402.799988</ele>
        <time>2013-05-25T07:50:55Z</time>
      </trkpt>
      <trkpt lat="43.74847" lon="3.52338">
        <ele>403.100006</ele>
        <time>2013-05-25T07:50:58Z</time>
      </trkpt>
      <trkpt lat="43.74845" lon="3.52348">
        <ele>403.299988</ele>
        <time>2013-05-25T07:51:01Z</time>
      </trkpt>
      <trkpt lat="43.74843" lon="3.52358">
        <ele>403.399994</ele>
        <time>2013-05-25T07:51:04Z</time>
      </trkpt>
      <trkpt lat="43.74841" lon="3.52369">
        <ele>404</ele>
        <time>2013-05-25T07:51:08Z</time>
      </trkpt>
      <trkpt lat="43.74839" lon="3.52379">
        <ele>404.399994</ele>
        <time>2013-05-25T07:51:11Z</time>
      </trkpt>
      <trkpt lat="43.74838" lon="3.52388">
        <ele>404.899994</ele>
        <time>2013-05-25T07:51:14Z</time>
      </trkpt>
      <trkpt lat="43.74837" lon="3.52398">
        <ele>405.5</ele>
        <time>2013-05-25T07:51:17Z</time>
      </trkpt>
      <trkpt lat="43.74838" lon="3.52408">
        <ele>406.200012</ele>
        <time>2013-05-25T07:51:20Z</time>
      </trkpt>
      <trkpt lat="43.74842" lon="3.52416">
        <ele>406.799988</ele>
        <time>2013-05-25T07:51:23Z</time>
      </trkpt>
      <trkpt lat="43.74849" lon="3.52421">
        <ele>407.399994</ele>
        <time>2013-05-25T07:51:26Z</time>
      </trkpt>
      <trkpt lat="43.74857" lon="3.52423">
        <ele>408</ele>
        <time>2013-05-25T07:51:29Z</time>
      </trkpt>
      <trkpt lat="43.74864" lon="3.52424">
        <ele>408.799988</ele>
        <time>2013-05-25T07:51:32Z</time>
      </trkpt>
      <trkpt lat="43.74867" lon="3.52425">
        <ele>408.799988</ele>
        <time>2013-05-25T07:51:33Z</time>
      </trkpt>
      <trkpt lat="43.74878" lon="3.52431">
        <ele>409.399994</ele>
        <time>2013-05-25T07:51:38Z</time>
      </trkpt>
      <trkpt lat="43.74885" lon="3.52436">
        <ele>409.700012</ele>
        <time>2013-05-25T07:51:41Z</time>
      </trkpt>
      <trkpt lat="43.74893" lon="3.5244">
        <ele>409.799988</ele>
        <time>2013-05-25T07:51:45Z</time>
      </trkpt>
      <trkpt lat="43.74899" lon="3.52444">
        <ele>409.600006</ele>
        <time>2013-05-25T07:51:48Z</time>
      </trkpt>
      <trkpt lat="43.74906" lon="3.52449">
        <ele>409.5</ele>
        <time>2013-05-25T07:51:51Z</time>
      </trkpt>
      <trkpt lat="43.74912" lon="3.52454">
        <ele>408.899994</ele>
        <time>2013-05-25T07:51:54Z</time>
      </trkpt>
      <trkpt lat="43.74918" lon="3.5246">
        <ele>409.100006</ele>
        <time>2013-05-25T07:51:57Z</time>
      </trkpt>
      <trkpt lat="43.74924" lon="3.52468">
        <ele>410.100006</ele>
        <time>2013-05-25T07:52:00Z</time>
      </trkpt>
      <trkpt lat="43.74928" lon="3.52477">
        <ele>411.100006</ele>
        <time>2013-05-25T07:52:03Z</time>
      </trkpt>
      <trkpt lat="43.74933" lon="3.52485">
        <ele>411.700012</ele>
        <time>2013-05-25T07:52:06Z</time>
      </trkpt>
      <trkpt lat="43.74938" lon="3.52492">
        <ele>411.5</ele>
        <time>2013-05-25T07:52:09Z</time>
      </trkpt>
      <trkpt lat="43.74944" lon="3.52497">
        <ele>411.399994</ele>
        <time>2013-05-25T07:52:12Z</time>
      </trkpt>
      <trkpt lat="43.7495" lon="3.52502">
        <ele>411.899994</ele>
        <time>2013-05-25T07:52:15Z</time>
      </trkpt>
      <trkpt lat="43.74954" lon="3.52509">
        <ele>411.799988</ele>
        <time>2013-05-25T07:52:17Z</time>
      </trkpt>
      <trkpt lat="43.74956" lon="3.52519">
        <ele>410.700012</ele>
        <time>2013-05-25T07:52:20Z</time>
      </trkpt>
      <trkpt lat="43.74957" lon="3.52531">
        <ele>410.200012</ele>
        <time>2013-05-25T07:52:24Z</time>
      </trkpt>
      <trkpt lat="43.74962" lon="3.52541">
        <ele>409.899994</ele>
        <time>2013-05-25T07:52:28Z</time>
      </trkpt>
      <trkpt lat="43.74966" lon="3.5255">
        <ele>409.799988</ele>
        <time>2013-05-25T07:52:31Z</time>
      </trkpt>
      <trkpt lat="43.74969" lon="3.5256">
        <ele>410.299988</ele>
        <time>2013-05-25T07:52:34Z</time>
      </trkpt>
      <trkpt lat="43.7497" lon="3.52564">
        <ele>410.600006</ele>
        <time>2013-05-25T07:52:35Z</time>
      </trkpt>
      <trkpt lat="43.74975" lon="3.5258">
        <ele>411.700012</ele>
        <time>2013-05-25T07:52:40Z</time>
      </trkpt>
      <trkpt lat="43.7498" lon="3.52589">
        <ele>411.299988</ele>
        <time>2013-05-25T07:52:43Z</time>
      </trkpt>
      <trkpt lat="43.74984" lon="3.52597">
        <ele>412.700012</ele>
        <time>2013-05-25T07:52:46Z</time>
      </trkpt>
      <trkpt lat="43.74989" lon="3.52605">
        <ele>413</ele>
        <time>2013-05-25T07:52:49Z</time>
      </trkpt>
      <trkpt lat="43.74994" lon="3.52612">
        <ele>413.200012</ele>
        <time>2013-05-25T07:52:52Z</time>
      </trkpt>
      <trkpt lat="43.74999" lon="3.5262">
        <ele>412.899994</ele>
        <time>2013-05-25T07:52:55Z</time>
      </trkpt>
      <trkpt lat="43.75003" lon="3.52627">
        <ele>412.299988</ele>
        <time>2013-05-25T07:52:58Z</time>
      </trkpt>
      <trkpt lat="43.75008" lon="3.52635">
        <ele>413.399994</ele>
        <time>2013-05-25T07:53:01Z</time>
      </trkpt>
      <trkpt lat="43.75013" lon="3.52641">
        <ele>412.700012</ele>
        <time>2013-05-25T07:53:04Z</time>
      </trkpt>
      <trkpt lat="43.75019" lon="3.52645">
        <ele>413</ele>
        <time>2013-05-25T07:53:07Z</time>
      </trkpt>
      <trkpt lat="43.75028" lon="3.52649">
        <ele>413.799988</ele>
        <time>2013-05-25T07:53:11Z</time>
      </trkpt>
      <trkpt lat="43.75035" lon="3.52651">
        <ele>415.299988</ele>
        <time>2013-05-25T07:53:15Z</time>
      </trkpt>
      <trkpt lat="43.75043" lon="3.52654">
        <ele>415.600006</ele>
        <time>2013-05-25T07:53:19Z</time>
      </trkpt>
      <trkpt lat="43.7505" lon="3.5266">
        <ele>415.600006</ele>
        <time>2013-05-25T07:53:23Z</time>
      </trkpt>
      <trkpt lat="43.75051" lon="3.52671">
        <ele>417.700012</ele>
        <time>2013-05-25T07:53:27Z</time>
      </trkpt>
      <trkpt lat="43.75045" lon="3.52679">
        <ele>419.200012</ele>
        <time>2013-05-25T07:53:31Z</time>
      </trkpt>
      <trkpt lat="43.7504" lon="3.52688">
        <ele>419.700012</ele>
        <time>2013-05-25T07:53:35Z</time>
      </trkpt>
      <trkpt lat="43.75039" lon="3.5269">
        <ele>419.700012</ele>
        <time>2013-05-25T07:53:36Z</time>
      </trkpt>
      <trkpt lat="43.75034" lon="3.52708">
        <ele>419.700012</ele>
        <time>2013-05-25T07:53:42Z</time>
      </trkpt>
      <trkpt lat="43.75031" lon="3.52716">
        <ele>419.700012</ele>
        <time>2013-05-25T07:53:44Z</time>
      </trkpt>
      <trkpt lat="43.75028" lon="3.52724">
        <ele>419.799988</ele>
        <time>2013-05-25T07:53:46Z</time>
      </trkpt>
      <trkpt lat="43.75026" lon="3.52732">
        <ele>420.399994</ele>
        <time>2013-05-25T07:53:48Z</time>
      </trkpt>
      <trkpt lat="43.75023" lon="3.5274">
        <ele>420.600006</ele>
        <time>2013-05-25T07:53:50Z</time>
      </trkpt>
      <trkpt lat="43.75019" lon="3.5275">
        <ele>420.700012</ele>
        <time>2013-05-25T07:53:53Z</time>
      </trkpt>
      <trkpt lat="43.75015" lon="3.52757">
        <ele>420.899994</ele>
        <time>2013-05-25T07:53:56Z</time>
      </trkpt>
      <trkpt lat="43.75006" lon="3.52761">
        <ele>421.200012</ele>
        <time>2013-05-25T07:54:00Z</time>
      </trkpt>
      <trkpt lat="43.74999" lon="3.52758">
        <ele>422.100006</ele>
        <time>2013-05-25T07:54:04Z</time>
      </trkpt>
      <trkpt lat="43.74991" lon="3.52756">
        <ele>423.899994</ele>
        <time>2013-05-25T07:54:08Z</time>
      </trkpt>
      <trkpt lat="43.74983" lon="3.52759">
        <ele>423.600006</ele>
        <time>2013-05-25T07:54:12Z</time>
      </trkpt>
      <trkpt lat="43.74978" lon="3.52765">
        <ele>423.899994</ele>
        <time>2013-05-25T07:54:15Z</time>
      </trkpt>
      <trkpt lat="43.74973" lon="3.52773">
        <ele>424.399994</ele>
        <time>2013-05-25T07:54:18Z</time>
      </trkpt>
      <trkpt lat="43.74966" lon="3.52781">
        <ele>424.5</ele>
        <time>2013-05-25T07:54:21Z</time>
      </trkpt>
      <trkpt lat="43.7496" lon="3.52788">
        <ele>424.700012</ele>
        <time>2013-05-25T07:54:24Z</time>
      </trkpt>
      <trkpt lat="43.74953" lon="3.52795">
        <ele>424.899994</ele>
        <time>2013-05-25T07:54:27Z</time>
      </trkpt>
      <trkpt lat="43.74948" lon="3.528">
        <ele>424.600006</ele>
        <time>2013-05-25T07:54:29Z</time>
      </trkpt>
      <trkpt lat="43.74943" lon="3.52807">
        <ele>424.200012</ele>
        <time>2013-05-25T07:54:31Z</time>
      </trkpt>
      <trkpt lat="43.7494" lon="3.52814">
        <ele>424.299988</ele>
        <time>2013-05-25T07:54:33Z</time>
      </trkpt>
      <trkpt lat="43.74937" lon="3.52822">
        <ele>424.700012</ele>
        <time>2013-05-25T07:54:35Z</time>
      </trkpt>
      <trkpt lat="43.74935" lon="3.52833">
        <ele>425.600006</ele>
        <time>2013-05-25T07:54:38Z</time>
      </trkpt>
      <trkpt lat="43.74935" lon="3.52837">
        <ele>426</ele>
        <time>2013-05-25T07:54:39Z</time>
      </trkpt>
      <trkpt lat="43.74935" lon="3.52854">
        <ele>427.100006</ele>
        <time>2013-05-25T07:54:44Z</time>
      </trkpt>
      <trkpt lat="43.74937" lon="3.52864">
        <ele>427.100006</ele>
        <time>2013-05-25T07:54:47Z</time>
      </trkpt>
      <trkpt lat="43.74939" lon="3.52873">
        <ele>427.799988</ele>
        <time>2013-05-25T07:54:50Z</time>
      </trkpt>
      <trkpt lat="43.7494" lon="3.52883">
        <ele>428.600006</ele>
        <time>2013-05-25T07:54:53Z</time>
      </trkpt>
      <trkpt lat="43.74943" lon="3.52895">
        <ele>428.799988</ele>
        <time>2013-05-25T07:54:57Z</time>
      </trkpt>
      <trkpt lat="43.74945" lon="3.52903">
        <ele>428.799988</ele>
        <time>2013-05-25T07:55:00Z</time>
      </trkpt>
      <trkpt lat="43.74946" lon="3.52913">
        <ele>431</ele>
        <time>2013-05-25T07:55:03Z</time>
      </trkpt>
      <trkpt lat="43.74947" lon="3.52923">
        <ele>430.799988</ele>
        <time>2013-05-25T07:55:06Z</time>
      </trkpt>
      <trkpt lat="43.74948" lon="3.52932">
        <ele>431.100006</ele>
        <time>2013-05-25T07:55:09Z</time>
      </trkpt>
      <trkpt lat="43.74949" lon="3.52945">
        <ele>432.200012</ele>
        <time>2013-05-25T07:55:13Z</time>
      </trkpt>
      <trkpt lat="43.7495" lon="3.52956">
        <ele>433.200012</ele>
        <time>2013-05-25T07:55:17Z</time>
      </trkpt>
      <trkpt lat="43.74951" lon="3.52967">
        <ele>434.5</ele>
        <time>2013-05-25T07:55:21Z</time>
      </trkpt>
      <trkpt lat="43.74952" lon="3.52977">
        <ele>436.100006</ele>
        <time>2013-05-25T07:55:25Z</time>
      </trkpt>
      <trkpt lat="43.74952" lon="3.52988">
        <ele>437.100006</ele>
        <time>2013-05-25T07:55:29Z</time>
      </trkpt>
      <trkpt lat="43.74949" lon="3.52997">
        <ele>437.700012</ele>
        <time>2013-05-25T07:55:33Z</time>
      </trkpt>
      <trkpt lat="43.74947" lon="3.53009">
        <ele>437.899994</ele>
        <time>2013-05-25T07:55:38Z</time>
      </trkpt>
      <trkpt lat="43.74943" lon="3.53019">
        <ele>440</ele>
        <time>2013-05-25T07:55:42Z</time>
      </trkpt>
      <trkpt lat="43.74942" lon="3.53021">
        <ele>440.200012</ele>
        <time>2013-05-25T07:55:43Z</time>
      </trkpt>
      <trkpt lat="43.74932" lon="3.53035">
        <ele>442.700012</ele>
        <time>2013-05-25T07:55:50Z</time>
      </trkpt>
      <trkpt lat="43.74926" lon="3.53043">
        <ele>442.5</ele>
        <time>2013-05-25T07:55:54Z</time>
      </trkpt>
      <trkpt lat="43.74921" lon="3.53051">
        <ele>442.399994</ele>
        <time>2013-05-25T07:55:58Z</time>
      </trkpt>
      <trkpt lat="43.74917" lon="3.53061">
        <ele>442.799988</ele>
        <time>2013-05-25T07:56:02Z</time>
      </trkpt>
      <trkpt lat="43.74913" lon="3.5307">
        <ele>444.200012</ele>
        <time>2013-05-25T07:56:06Z</time>
      </trkpt>
      <trkpt lat="43.74909" lon="3.53079">
        <ele>444.600006</ele>
        <time>2013-05-25T07:56:10Z</time>
      </trkpt>
      <trkpt lat="43.74905" lon="3.53088">
        <ele>444.600006</ele>
        <time>2013-05-25T07:56:14Z</time>
      </trkpt>
      <trkpt lat="43.74899" lon="3.53096">
        <ele>446</ele>
        <time>2013-05-25T07:56:19Z</time>
      </trkpt>
      <trkpt lat="43.74893" lon="3.53104">
        <ele>449.100006</ele>
        <time>2013-05-25T07:56:25Z</time>
      </trkpt>
      <trkpt lat="43.74887" lon="3.5311">
        <ele>451.100006</ele>
        <time>2013-05-25T07:56:30Z</time>
      </trkpt>
      <trkpt lat="43.7488" lon="3.53117">
        <ele>452.700012</ele>
        <time>2013-05-25T07:56:35Z</time>
      </trkpt>
      <trkpt lat="43.74874" lon="3.53122">
        <ele>452.799988</ele>
        <time>2013-05-25T07:56:39Z</time>
      </trkpt>
      <trkpt lat="43.74868" lon="3.53128">
        <ele>452</ele>
        <time>2013-05-25T07:56:43Z</time>
      </trkpt>
      <trkpt lat="43.74866" lon="3.53129">
        <ele>451.799988</ele>
        <time>2013-05-25T07:56:44Z</time>
      </trkpt>
      <trkpt lat="43.74855" lon="3.53137">
        <ele>453</ele>
        <time>2013-05-25T07:56:51Z</time>
      </trkpt>
      <trkpt lat="43.74847" lon="3.53139">
        <ele>453.899994</ele>
        <time>2013-05-25T07:56:55Z</time>
      </trkpt>
      <trkpt lat="43.74839" lon="3.5314">
        <ele>455</ele>
        <time>2013-05-25T07:57:00Z</time>
      </trkpt>
      <trkpt lat="43.7483" lon="3.53143">
        <ele>455.799988</ele>
        <time>2013-05-25T07:57:05Z</time>
      </trkpt>
      <trkpt lat="43.74823" lon="3.53149">
        <ele>456.899994</ele>
        <time>2013-05-25T07:57:10Z</time>
      </trkpt>
      <trkpt lat="43.74817" lon="3.53157">
        <ele>458.700012</ele>
        <time>2013-05-25T07:57:14Z</time>
      </trkpt>
      <trkpt lat="43.74811" lon="3.53163">
        <ele>458</ele>
        <time>2013-05-25T07:57:18Z</time>
      </trkpt>
      <trkpt lat="43.74804" lon="3.53167">
        <ele>457.600006</ele>
        <time>2013-05-25T07:57:22Z</time>
      </trkpt>
      <trkpt lat="43.74797" lon="3.53169">
        <ele>457.399994</ele>
        <time>2013-05-25T07:57:26Z</time>
      </trkpt>
      <trkpt lat="43.7479" lon="3.53169">
        <ele>458.899994</ele>
        <time>2013-05-25T07:57:30Z</time>
      </trkpt>
      <trkpt lat="43.74782" lon="3.53168">
        <ele>459.399994</ele>
        <time>2013-05-25T07:57:34Z</time>
      </trkpt>
      <trkpt lat="43.74774" lon="3.53166">
        <ele>460.299988</ele>
        <time>2013-05-25T07:57:38Z</time>
      </trkpt>
      <trkpt lat="43.74767" lon="3.53164">
        <ele>461.100006</ele>
        <time>2013-05-25T07:57:42Z</time>
      </trkpt>
      <trkpt lat="43.74759" lon="3.5316">
        <ele>462.100006</ele>
        <time>2013-05-25T07:57:46Z</time>
      </trkpt>
      <trkpt lat="43.74757" lon="3.53159">
        <ele>462.600006</ele>
        <time>2013-05-25T07:57:47Z</time>
      </trkpt>
      <trkpt lat="43.74744" lon="3.53152">
        <ele>463.600006</ele>
        <time>2013-05-25T07:57:54Z</time>
      </trkpt>
      <trkpt lat="43.74736" lon="3.53147">
        <ele>463.700012</ele>
        <time>2013-05-25T07:57:58Z</time>
      </trkpt>
      <trkpt lat="43.74728" lon="3.53144">
        <ele>465.700012</ele>
        <time>2013-05-25T07:58:02Z</time>
      </trkpt>
      <trkpt lat="43.7472" lon="3.53144">
        <ele>466.200012</ele>
        <time>2013-05-25T07:58:06Z</time>
      </trkpt>
      <trkpt lat="43.74712" lon="3.53146">
        <ele>467.399994</ele>
        <time>2013-05-25T07:58:10Z</time>
      </trkpt>
      <trkpt lat="43.74703" lon="3.53147">
        <ele>467.5</ele>
        <time>2013-05-25T07:58:14Z</time>
      </trkpt>
      <trkpt lat="43.74695" lon="3.53143">
        <ele>468.100006</ele>
        <time>2013-05-25T07:58:18Z</time>
      </trkpt>
      <trkpt lat="43.74688" lon="3.53138">
        <ele>468.299988</ele>
        <time>2013-05-25T07:58:22Z</time>
      </trkpt>
      <trkpt lat="43.74683" lon="3.5313">
        <ele>468.200012</ele>
        <time>2013-05-25T07:58:26Z</time>
      </trkpt>
      <trkpt lat="43.74678" lon="3.53121">
        <ele>468.200012</ele>
        <time>2013-05-25T07:58:30Z</time>
      </trkpt>
      <trkpt lat="43.74674" lon="3.53112">
        <ele>469.899994</ele>
        <time>2013-05-25T07:58:34Z</time>
      </trkpt>
      <trkpt lat="43.74669" lon="3.53104">
        <ele>470.700012</ele>
        <time>2013-05-25T07:58:38Z</time>
      </trkpt>
      <trkpt lat="43.74664" lon="3.53095">
        <ele>472.399994</ele>
        <time>2013-05-25T07:58:42Z</time>
      </trkpt>
      <trkpt lat="43.7466" lon="3.53085">
        <ele>472.700012</ele>
        <time>2013-05-25T07:58:46Z</time>
      </trkpt>
      <trkpt lat="43.74657" lon="3.53074">
        <ele>474</ele>
        <time>2013-05-25T07:58:50Z</time>
      </trkpt>
      <trkpt lat="43.74656" lon="3.53072">
        <ele>473.799988</ele>
        <time>2013-05-25T07:58:51Z</time>
      </trkpt>
      <trkpt lat="43.7465" lon="3.53075">
        <ele>476.5</ele>
        <time>2013-05-25T07:59:04Z</time>
      </trkpt>
      <trkpt lat="43.7465" lon="3.53085">
        <ele>476.899994</ele>
        <time>2013-05-25T07:59:08Z</time>
      </trkpt>
      <trkpt lat="43.7465" lon="3.53096">
        <ele>476.799988</ele>
        <time>2013-05-25T07:59:12Z</time>
      </trkpt>
      <trkpt lat="43.74649" lon="3.53108">
        <ele>478.100006</ele>
        <time>2013-05-25T07:59:17Z</time>
      </trkpt>
      <trkpt lat="43.74648" lon="3.53119">
        <ele>478.600006</ele>
        <time>2013-05-25T07:59:22Z</time>
      </trkpt>
      <trkpt lat="43.74647" lon="3.53131">
        <ele>479</ele>
        <time>2013-05-25T07:59:27Z</time>
      </trkpt>
      <trkpt lat="43.74643" lon="3.53142">
        <ele>478.899994</ele>
        <time>2013-05-25T07:59:32Z</time>
      </trkpt>
      <trkpt lat="43.74641" lon="3.53152">
        <ele>479</ele>
        <time>2013-05-25T07:59:36Z</time>
      </trkpt>
      <trkpt lat="43.74638" lon="3.53164">
        <ele>480.200012</ele>
        <time>2013-05-25T07:59:41Z</time>
      </trkpt>
      <trkpt lat="43.74634" lon="3.53175">
        <ele>482.399994</ele>
        <time>2013-05-25T07:59:46Z</time>
      </trkpt>
      <trkpt lat="43.7463" lon="3.53186">
        <ele>482.799988</ele>
        <time>2013-05-25T07:59:51Z</time>
      </trkpt>
      <trkpt lat="43.7463" lon="3.53188">
        <ele>482.799988</ele>
        <time>2013-05-25T07:59:52Z</time>
      </trkpt>
      <trkpt lat="43.74638" lon="3.53205">
        <ele>485.799988</ele>
        <time>2013-05-25T08:00:01Z</time>
      </trkpt>
      <trkpt lat="43.74644" lon="3.53214">
        <ele>488.799988</ele>
        <time>2013-05-25T08:00:07Z</time>
      </trkpt>
      <trkpt lat="43.74648" lon="3.53225">
        <ele>487.700012</ele>
        <time>2013-05-25T08:00:13Z</time>
      </trkpt>
      <trkpt lat="43.74648" lon="3.53236">
        <ele>487.200012</ele>
        <time>2013-05-25T08:00:19Z</time>
      </trkpt>
      <trkpt lat="43.74647" lon="3.53248">
        <ele>488.600006</ele>
        <time>2013-05-25T08:00:25Z</time>
      </trkpt>
      <trkpt lat="43.74645" lon="3.53259">
        <ele>490.700012</ele>
        <time>2013-05-25T08:00:30Z</time>
      </trkpt>
      <trkpt lat="43.74644" lon="3.5327">
        <ele>491.799988</ele>
        <time>2013-05-25T08:00:35Z</time>
      </trkpt>
      <trkpt lat="43.74643" lon="3.53281">
        <ele>493.5</ele>
        <time>2013-05-25T08:00:40Z</time>
      </trkpt>
      <trkpt lat="43.74645" lon="3.53293">
        <ele>496</ele>
        <time>2013-05-25T08:00:46Z</time>
      </trkpt>
      <trkpt lat="43.7465" lon="3.53302">
        <ele>495.200012</ele>
        <time>2013-05-25T08:00:51Z</time>
      </trkpt>
      <trkpt lat="43.74656" lon="3.5331">
        <ele>499</ele>
        <time>2013-05-25T08:00:58Z</time>
      </trkpt>
      <trkpt lat="43.74657" lon="3.53311">
        <ele>499.200012</ele>
        <time>2013-05-25T08:00:59Z</time>
      </trkpt>
      <trkpt lat="43.74672" lon="3.53315">
        <ele>498.600006</ele>
        <time>2013-05-25T08:01:07Z</time>
      </trkpt>
      <trkpt lat="43.74678" lon="3.53313">
        <ele>498.899994</ele>
        <time>2013-05-25T08:01:09Z</time>
      </trkpt>
      <trkpt lat="43.74684" lon="3.53311">
        <ele>498.100006</ele>
        <time>2013-05-25T08:01:11Z</time>
      </trkpt>
      <trkpt lat="43.74691" lon="3.53307">
        <ele>497</ele>
        <time>2013-05-25T08:01:13Z</time>
      </trkpt>
      <trkpt lat="43.74698" lon="3.53302">
        <ele>497.399994</ele>
        <time>2013-05-25T08:01:15Z</time>
      </trkpt>
      <trkpt lat="43.74704" lon="3.53298">
        <ele>497.100006</ele>
        <time>2013-05-25T08:01:17Z</time>
      </trkpt>
      <trkpt lat="43.74712" lon="3.53293">
        <ele>496.100006</ele>
        <time>2013-05-25T08:01:20Z</time>
      </trkpt>
      <trkpt lat="43.7472" lon="3.53293">
        <ele>495.5</ele>
        <time>2013-05-25T08:01:23Z</time>
      </trkpt>
      <trkpt lat="43.74727" lon="3.53296">
        <ele>495</ele>
        <time>2013-05-25T08:01:26Z</time>
      </trkpt>
      <trkpt lat="43.74735" lon="3.53297">
        <ele>494.5</ele>
        <time>2013-05-25T08:01:29Z</time>
      </trkpt>
      <trkpt lat="43.74743" lon="3.53296">
        <ele>493.299988</ele>
        <time>2013-05-25T08:01:32Z</time>
      </trkpt>
      <trkpt lat="43.74752" lon="3.53296">
        <ele>494.5</ele>
        <time>2013-05-25T08:01:35Z</time>
      </trkpt>
      <trkpt lat="43.74758" lon="3.53296">
        <ele>495</ele>
        <time>2013-05-25T08:01:37Z</time>
      </trkpt>
      <trkpt lat="43.74765" lon="3.53299">
        <ele>495.200012</ele>
        <time>2013-05-25T08:01:39Z</time>
      </trkpt>
      <trkpt lat="43.74771" lon="3.53302">
        <ele>495.200012</ele>
        <time>2013-05-25T08:01:41Z</time>
      </trkpt>
      <trkpt lat="43.74778" lon="3.53305">
        <ele>494.799988</ele>
        <time>2013-05-25T08:01:43Z</time>
      </trkpt>
      <trkpt lat="43.74784" lon="3.53309">
        <ele>494.299988</ele>
        <time>2013-05-25T08:01:45Z</time>
      </trkpt>
      <trkpt lat="43.74789" lon="3.53313">
        <ele>494.200012</ele>
        <time>2013-05-25T08:01:47Z</time>
      </trkpt>
      <trkpt lat="43.74795" lon="3.53318">
        <ele>494.200012</ele>
        <time>2013-05-25T08:01:49Z</time>
      </trkpt>
      <trkpt lat="43.74801" lon="3.53322">
        <ele>494.200012</ele>
        <time>2013-05-25T08:01:51Z</time>
      </trkpt>
      <trkpt lat="43.74807" lon="3.53325">
        <ele>494.700012</ele>
        <time>2013-05-25T08:01:53Z</time>
      </trkpt>
      <trkpt lat="43.74813" lon="3.53325">
        <ele>495.299988</ele>
        <time>2013-05-25T08:01:55Z</time>
      </trkpt>
      <trkpt lat="43.74822" lon="3.53323">
        <ele>496.100006</ele>
        <time>2013-05-25T08:01:58Z</time>
      </trkpt>
      <trkpt lat="43.74827" lon="3.53319">
        <ele>496.100006</ele>
        <time>2013-05-25T08:02:00Z</time>
      </trkpt>
      <trkpt lat="43.74831" lon="3.53317">
        <ele>496.200012</ele>
        <time>2013-05-25T08:02:01Z</time>
      </trkpt>
      <trkpt lat="43.74842" lon="3.53309">
        <ele>494.100006</ele>
        <time>2013-05-25T08:02:04Z</time>
      </trkpt>
      <trkpt lat="43.74847" lon="3.53307">
        <ele>493.399994</ele>
        <time>2013-05-25T08:02:05Z</time>
      </trkpt>
      <trkpt lat="43.74852" lon="3.53305">
        <ele>492.899994</ele>
        <time>2013-05-25T08:02:06Z</time>
      </trkpt>
      <trkpt lat="43.74857" lon="3.53303">
        <ele>492.600006</ele>
        <time>2013-05-25T08:02:07Z</time>
      </trkpt>
      <trkpt lat="43.74862" lon="3.533">
        <ele>491.899994</ele>
        <time>2013-05-25T08:02:08Z</time>
      </trkpt>
      <trkpt lat="43.74866" lon="3.53297">
        <ele>491.299988</ele>
        <time>2013-05-25T08:02:09Z</time>
      </trkpt>
      <trkpt lat="43.74871" lon="3.53293">
        <ele>490.899994</ele>
        <time>2013-05-25T08:02:10Z</time>
      </trkpt>
      <trkpt lat="43.74875" lon="3.53288">
        <ele>491.100006</ele>
        <time>2013-05-25T08:02:11Z</time>
      </trkpt>
      <trkpt lat="43.74879" lon="3.53283">
        <ele>491.200012</ele>
        <time>2013-05-25T08:02:12Z</time>
      </trkpt>
      <trkpt lat="43.74882" lon="3.53279">
        <ele>491.299988</ele>
        <time>2013-05-25T08:02:13Z</time>
      </trkpt>
      <trkpt lat="43.74888" lon="3.5327">
        <ele>492.100006</ele>
        <time>2013-05-25T08:02:15Z</time>
      </trkpt>
      <trkpt lat="43.74893" lon="3.53262">
        <ele>493.100006</ele>
        <time>2013-05-25T08:02:17Z</time>
      </trkpt>
      <trkpt lat="43.74898" lon="3.53255">
        <ele>494.5</ele>
        <time>2013-05-25T08:02:19Z</time>
      </trkpt>
      <trkpt lat="43.74904" lon="3.53253">
        <ele>495.200012</ele>
        <time>2013-05-25T08:02:21Z</time>
      </trkpt>
      <trkpt lat="43.74912" lon="3.53257">
        <ele>495</ele>
        <time>2013-05-25T08:02:24Z</time>
      </trkpt>
      <trkpt lat="43.74919" lon="3.53263">
        <ele>493.5</ele>
        <time>2013-05-25T08:02:27Z</time>
      </trkpt>
      <trkpt lat="43.74926" lon="3.53268">
        <ele>493.299988</ele>
        <time>2013-05-25T08:02:30Z</time>
      </trkpt>
      <trkpt lat="43.74934" lon="3.53274">
        <ele>494</ele>
        <time>2013-05-25T08:02:33Z</time>
      </trkpt>
      <trkpt lat="43.74941" lon="3.53281">
        <ele>494.600006</ele>
        <time>2013-05-25T08:02:36Z</time>
      </trkpt>
      <trkpt lat="43.74947" lon="3.53288">
        <ele>493.200012</ele>
        <time>2013-05-25T08:02:39Z</time>
      </trkpt>
      <trkpt lat="43.74952" lon="3.53293">
        <ele>492.200012</ele>
        <time>2013-05-25T08:02:41Z</time>
      </trkpt>
      <trkpt lat="43.74959" lon="3.53297">
        <ele>492.100006</ele>
        <time>2013-05-25T08:02:43Z</time>
      </trkpt>
      <trkpt lat="43.74965" lon="3.53299">
        <ele>492.299988</ele>
        <time>2013-05-25T08:02:45Z</time>
      </trkpt>
      <trkpt lat="43.74971" lon="3.53301">
        <ele>492</ele>
        <time>2013-05-25T08:02:47Z</time>
      </trkpt>
      <trkpt lat="43.74977" lon="3.53301">
        <ele>491.799988</ele>
        <time>2013-05-25T08:02:49Z</time>
      </trkpt>
      <trkpt lat="43.74986" lon="3.53302">
        <ele>491.600006</ele>
        <time>2013-05-25T08:02:52Z</time>
      </trkpt>
      <trkpt lat="43.74993" lon="3.53309">
        <ele>492.100006</ele>
        <time>2013-05-25T08:02:55Z</time>
      </trkpt>
      <trkpt lat="43.74996" lon="3.53317">
        <ele>492.299988</ele>
        <time>2013-05-25T08:02:57Z</time>
      </trkpt>
      <trkpt lat="43.75" lon="3.53327">
        <ele>492.5</ele>
        <time>2013-05-25T08:02:59Z</time>
      </trkpt>
      <trkpt lat="43.75003" lon="3.53337">
        <ele>492.5</ele>
        <time>2013-05-25T08:03:01Z</time>
      </trkpt>
      <trkpt lat="43.75006" lon="3.53341">
        <ele>492.600006</ele>
        <time>2013-05-25T08:03:02Z</time>
      </trkpt>
      <trkpt lat="43.75016" lon="3.5335">
        <ele>493</ele>
        <time>2013-05-25T08:03:05Z</time>
      </trkpt>
      <trkpt lat="43.75025" lon="3.53352">
        <ele>493.5</ele>
        <time>2013-05-25T08:03:07Z</time>
      </trkpt>
      <trkpt lat="43.75033" lon="3.53347">
        <ele>493.700012</ele>
        <time>2013-05-25T08:03:09Z</time>
      </trkpt>
      <trkpt lat="43.7504" lon="3.53343">
        <ele>493.799988</ele>
        <time>2013-05-25T08:03:11Z</time>
      </trkpt>
      <trkpt lat="43.75048" lon="3.53341">
        <ele>494.799988</ele>
        <time>2013-05-25T08:03:13Z</time>
      </trkpt>
      <trkpt lat="43.75054" lon="3.5334">
        <ele>495.5</ele>
        <time>2013-05-25T08:03:15Z</time>
      </trkpt>
      <trkpt lat="43.75061" lon="3.5334">
        <ele>496</ele>
        <time>2013-05-25T08:03:17Z</time>
      </trkpt>
      <trkpt lat="43.75068" lon="3.5334">
        <ele>496.100006</ele>
        <time>2013-05-25T08:03:19Z</time>
      </trkpt>
      <trkpt lat="43.75074" lon="3.53341">
        <ele>496.600006</ele>
        <time>2013-05-25T08:03:21Z</time>
      </trkpt>
      <trkpt lat="43.7508" lon="3.53344">
        <ele>497.299988</ele>
        <time>2013-05-25T08:03:23Z</time>
      </trkpt>
      <trkpt lat="43.75087" lon="3.53348">
        <ele>497.299988</ele>
        <time>2013-05-25T08:03:25Z</time>
      </trkpt>
      <trkpt lat="43.75094" lon="3.53351">
        <ele>496.899994</ele>
        <time>2013-05-25T08:03:27Z</time>
      </trkpt>
      <trkpt lat="43.75102" lon="3.53351">
        <ele>496.200012</ele>
        <time>2013-05-25T08:03:29Z</time>
      </trkpt>
      <trkpt lat="43.75107" lon="3.5335">
        <ele>495.899994</ele>
        <time>2013-05-25T08:03:30Z</time>
      </trkpt>
      <trkpt lat="43.75112" lon="3.53347">
        <ele>495.600006</ele>
        <time>2013-05-25T08:03:31Z</time>
      </trkpt>
      <trkpt lat="43.75116" lon="3.53342">
        <ele>495.399994</ele>
        <time>2013-05-25T08:03:32Z</time>
      </trkpt>
      <trkpt lat="43.7512" lon="3.53337">
        <ele>495.200012</ele>
        <time>2013-05-25T08:03:33Z</time>
      </trkpt>
      <trkpt lat="43.75124" lon="3.53331">
        <ele>495</ele>
        <time>2013-05-25T08:03:34Z</time>
      </trkpt>
      <trkpt lat="43.75128" lon="3.53325">
        <ele>494.899994</ele>
        <time>2013-05-25T08:03:35Z</time>
      </trkpt>
      <trkpt lat="43.75132" lon="3.53322">
        <ele>494.799988</ele>
        <time>2013-05-25T08:03:36Z</time>
      </trkpt>
      <trkpt lat="43.75137" lon="3.53321">
        <ele>494.399994</ele>
        <time>2013-05-25T08:03:37Z</time>
      </trkpt>
      <trkpt lat="43.75142" lon="3.53322">
        <ele>494.100006</ele>
        <time>2013-05-25T08:03:38Z</time>
      </trkpt>
      <trkpt lat="43.75146" lon="3.53322">
        <ele>493.899994</ele>
        <time>2013-05-25T08:03:39Z</time>
      </trkpt>
      <trkpt lat="43.75151" lon="3.53321">
        <ele>493.700012</ele>
        <time>2013-05-25T08:03:40Z</time>
      </trkpt>
      <trkpt lat="43.75158" lon="3.53314">
        <ele>494.200012</ele>
        <time>2013-05-25T08:03:42Z</time>
      </trkpt>
      <trkpt lat="43.75162" lon="3.53304">
        <ele>494.600006</ele>
        <time>2013-05-25T08:03:44Z</time>
      </trkpt>
      <trkpt lat="43.75164" lon="3.53295">
        <ele>494.899994</ele>
        <time>2013-05-25T08:03:46Z</time>
      </trkpt>
      <trkpt lat="43.75171" lon="3.53287">
        <ele>496.5</ele>
        <time>2013-05-25T08:03:49Z</time>
      </trkpt>
      <trkpt lat="43.75177" lon="3.53289">
        <ele>496.200012</ele>
        <time>2013-05-25T08:03:51Z</time>
      </trkpt>
      <trkpt lat="43.75182" lon="3.53295">
        <ele>495.399994</ele>
        <time>2013-05-25T08:03:53Z</time>
      </trkpt>
      <trkpt lat="43.75186" lon="3.53303">
        <ele>494.5</ele>
        <time>2013-05-25T08:03:55Z</time>
      </trkpt>
      <trkpt lat="43.75187" lon="3.53313">
        <ele>494.200012</ele>
        <time>2013-05-25T08:03:57Z</time>
      </trkpt>
      <trkpt lat="43.75188" lon="3.53325">
        <ele>494</ele>
        <time>2013-05-25T08:03:59Z</time>
      </trkpt>
      <trkpt lat="43.75187" lon="3.53331">
        <ele>494.100006</ele>
        <time>2013-05-25T08:04:00Z</time>
      </trkpt>
      <trkpt lat="43.75187" lon="3.53338">
        <ele>494.299988</ele>
        <time>2013-05-25T08:04:01Z</time>
      </trkpt>
      <trkpt lat="43.75187" lon="3.53345">
        <ele>494.299988</ele>
        <time>2013-05-25T08:04:02Z</time>
      </trkpt>
      <trkpt lat="43.75187" lon="3.53353">
        <ele>494.299988</ele>
        <time>2013-05-25T08:04:03Z</time>
      </trkpt>
      <trkpt lat="43.75187" lon="3.53361">
        <ele>494.299988</ele>
        <time>2013-05-25T08:04:04Z</time>
      </trkpt>
      <trkpt lat="43.75187" lon="3.53369">
        <ele>494.299988</ele>
        <time>2013-05-25T08:04:05Z</time>
      </trkpt>
      <trkpt lat="43.75189" lon="3.53378">
        <ele>493.5</ele>
        <time>2013-05-25T08:04:06Z</time>
      </trkpt>
      <trkpt lat="43.75191" lon="3.53385">
        <ele>492.799988</ele>
        <time>2013-05-25T08:04:07Z</time>
      </trkpt>
      <trkpt lat="43.75193" lon="3.53392">
        <ele>492.399994</ele>
        <time>2013-05-25T08:04:08Z</time>
      </trkpt>
      <trkpt lat="43.75196" lon="3.53398">
        <ele>491.700012</ele>
        <time>2013-05-25T08:04:09Z</time>
      </trkpt>
      <trkpt lat="43.75199" lon="3.53404">
        <ele>491.200012</ele>
        <time>2013-05-25T08:04:10Z</time>
      </trkpt>
      <trkpt lat="43.75202" lon="3.5341">
        <ele>490.899994</ele>
        <time>2013-05-25T08:04:11Z</time>
      </trkpt>
      <trkpt lat="43.75204" lon="3.53415">
        <ele>490.600006</ele>
        <time>2013-05-25T08:04:12Z</time>
      </trkpt>
      <trkpt lat="43.75207" lon="3.53421">
        <ele>490.700012</ele>
        <time>2013-05-25T08:04:13Z</time>
      </trkpt>
      <trkpt lat="43.7521" lon="3.53426">
        <ele>490.799988</ele>
        <time>2013-05-25T08:04:14Z</time>
      </trkpt>
      <trkpt lat="43.75214" lon="3.53431">
        <ele>490.899994</ele>
        <time>2013-05-25T08:04:15Z</time>
      </trkpt>
      <trkpt lat="43.75218" lon="3.53435">
        <ele>490.700012</ele>
        <time>2013-05-25T08:04:16Z</time>
      </trkpt>
      <trkpt lat="43.75222" lon="3.53439">
        <ele>490.600006</ele>
        <time>2013-05-25T08:04:17Z</time>
      </trkpt>
      <trkpt lat="43.75228" lon="3.5344">
        <ele>490.5</ele>
        <time>2013-05-25T08:04:18Z</time>
      </trkpt>
      <trkpt lat="43.75233" lon="3.53439">
        <ele>490.100006</ele>
        <time>2013-05-25T08:04:19Z</time>
      </trkpt>
      <trkpt lat="43.75239" lon="3.53437">
        <ele>489.899994</ele>
        <time>2013-05-25T08:04:20Z</time>
      </trkpt>
      <trkpt lat="43.75243" lon="3.53434">
        <ele>489.700012</ele>
        <time>2013-05-25T08:04:21Z</time>
      </trkpt>
      <trkpt lat="43.75247" lon="3.53429">
        <ele>489.899994</ele>
        <time>2013-05-25T08:04:22Z</time>
      </trkpt>
      <trkpt lat="43.75252" lon="3.53421">
        <ele>490.200012</ele>
        <time>2013-05-25T08:04:24Z</time>
      </trkpt>
      <trkpt lat="43.75256" lon="3.53411">
        <ele>491.5</ele>
        <time>2013-05-25T08:04:26Z</time>
      </trkpt>
      <trkpt lat="43.75261" lon="3.53403">
        <ele>492.399994</ele>
        <time>2013-05-25T08:04:28Z</time>
      </trkpt>
      <trkpt lat="43.75268" lon="3.53398">
        <ele>493</ele>
        <time>2013-05-25T08:04:30Z</time>
      </trkpt>
      <trkpt lat="43.75277" lon="3.53395">
        <ele>493.5</ele>
        <time>2013-05-25T08:04:32Z</time>
      </trkpt>
      <trkpt lat="43.75285" lon="3.53393">
        <ele>494</ele>
        <time>2013-05-25T08:04:34Z</time>
      </trkpt>
      <trkpt lat="43.75294" lon="3.53391">
        <ele>493.600006</ele>
        <time>2013-05-25T08:04:36Z</time>
      </trkpt>
      <trkpt lat="43.75302" lon="3.53388">
        <ele>492.899994</ele>
        <time>2013-05-25T08:04:38Z</time>
      </trkpt>
      <trkpt lat="43.7531" lon="3.53382">
        <ele>492.100006</ele>
        <time>2013-05-25T08:04:40Z</time>
      </trkpt>
      <trkpt lat="43.75316" lon="3.53375">
        <ele>492.299988</ele>
        <time>2013-05-25T08:04:42Z</time>
      </trkpt>
      <trkpt lat="43.75321" lon="3.53367">
        <ele>492</ele>
        <time>2013-05-25T08:04:44Z</time>
      </trkpt>
      <trkpt lat="43.75325" lon="3.53359">
        <ele>491.5</ele>
        <time>2013-05-25T08:04:46Z</time>
      </trkpt>
      <trkpt lat="43.7533" lon="3.53351">
        <ele>491.5</ele>
        <time>2013-05-25T08:04:48Z</time>
      </trkpt>
      <trkpt lat="43.75334" lon="3.53343">
        <ele>491.899994</ele>
        <time>2013-05-25T08:04:50Z</time>
      </trkpt>
      <trkpt lat="43.75337" lon="3.53335">
        <ele>492.299988</ele>
        <time>2013-05-25T08:04:52Z</time>
      </trkpt>
      <trkpt lat="43.75341" lon="3.53329">
        <ele>492.799988</ele>
        <time>2013-05-25T08:04:54Z</time>
      </trkpt>
      <trkpt lat="43.75346" lon="3.53324">
        <ele>493.200012</ele>
        <time>2013-05-25T08:04:56Z</time>
      </trkpt>
      <trkpt lat="43.75352" lon="3.53321">
        <ele>493.899994</ele>
        <time>2013-05-25T08:04:58Z</time>
      </trkpt>
      <trkpt lat="43.75361" lon="3.5332">
        <ele>494.299988</ele>
        <time>2013-05-25T08:05:01Z</time>
      </trkpt>
      <trkpt lat="43.75367" lon="3.53324">
        <ele>494</ele>
        <time>2013-05-25T08:05:03Z</time>
      </trkpt>
      <trkpt lat="43.75369" lon="3.53327">
        <ele>493.700012</ele>
        <time>2013-05-25T08:05:04Z</time>
      </trkpt>
      <trkpt lat="43.75377" lon="3.53334">
        <ele>493.5</ele>
        <time>2013-05-25T08:05:07Z</time>
      </trkpt>
      <trkpt lat="43.75382" lon="3.53334">
        <ele>493.600006</ele>
        <time>2013-05-25T08:05:08Z</time>
      </trkpt>
      <trkpt lat="43.75386" lon="3.53332">
        <ele>493.700012</ele>
        <time>2013-05-25T08:05:09Z</time>
      </trkpt>
      <trkpt lat="43.7539" lon="3.53328">
        <ele>494.100006</ele>
        <time>2013-05-25T08:05:10Z</time>
      </trkpt>
      <trkpt lat="43.75396" lon="3.5332">
        <ele>494.700012</ele>
        <time>2013-05-25T08:05:12Z</time>
      </trkpt>
      <trkpt lat="43.75401" lon="3.53311">
        <ele>494.799988</ele>
        <time>2013-05-25T08:05:14Z</time>
      </trkpt>
      <trkpt lat="43.75405" lon="3.53302">
        <ele>494.799988</ele>
        <time>2013-05-25T08:05:16Z</time>
      </trkpt>
      <trkpt lat="43.75407" lon="3.53293">
        <ele>494.700012</ele>
        <time>2013-05-25T08:05:18Z</time>
      </trkpt>
      <trkpt lat="43.75409" lon="3.53284">
        <ele>495.600006</ele>
        <time>2013-05-25T08:05:20Z</time>
      </trkpt>
      <trkpt lat="43.75411" lon="3.53275">
        <ele>496.200012</ele>
        <time>2013-05-25T08:05:22Z</time>
      </trkpt>
      <trkpt lat="43.75415" lon="3.53268">
        <ele>495.799988</ele>
        <time>2013-05-25T08:05:24Z</time>
      </trkpt>
      <trkpt lat="43.75422" lon="3.53261">
        <ele>495.100006</ele>
        <time>2013-05-25T08:05:27Z</time>
      </trkpt>
      <trkpt lat="43.7543" lon="3.53261">
        <ele>494.700012</ele>
        <time>2013-05-25T08:05:30Z</time>
      </trkpt>
      <trkpt lat="43.75436" lon="3.53267">
        <ele>495.200012</ele>
        <time>2013-05-25T08:05:33Z</time>
      </trkpt>
      <trkpt lat="43.75441" lon="3.53277">
        <ele>496.600006</ele>
        <time>2013-05-25T08:05:37Z</time>
      </trkpt>
      <trkpt lat="43.75444" lon="3.53288">
        <ele>497.5</ele>
        <time>2013-05-25T08:05:42Z</time>
      </trkpt>
      <trkpt lat="43.75447" lon="3.53299">
        <ele>499.200012</ele>
        <time>2013-05-25T08:05:47Z</time>
      </trkpt>
      <trkpt lat="43.75449" lon="3.5331">
        <ele>499.200012</ele>
        <time>2013-05-25T08:05:52Z</time>
      </trkpt>
      <trkpt lat="43.7545" lon="3.53321">
        <ele>499.299988</ele>
        <time>2013-05-25T08:05:57Z</time>
      </trkpt>
      <trkpt lat="43.75452" lon="3.53332">
        <ele>500</ele>
        <time>2013-05-25T08:06:02Z</time>
      </trkpt>
      <trkpt lat="43.75458" lon="3.53338">
        <ele>500.5</ele>
        <time>2013-05-25T08:06:06Z</time>
      </trkpt>
      <trkpt lat="43.75459" lon="3.5334">
        <ele>500.700012</ele>
        <time>2013-05-25T08:06:07Z</time>
      </trkpt>
      <trkpt lat="43.7547" lon="3.53352">
        <ele>502.799988</ele>
        <time>2013-05-25T08:06:13Z</time>
      </trkpt>
      <trkpt lat="43.75477" lon="3.5336">
        <ele>502.700012</ele>
        <time>2013-05-25T08:06:16Z</time>
      </trkpt>
      <trkpt lat="43.75481" lon="3.53368">
        <ele>502.299988</ele>
        <time>2013-05-25T08:06:19Z</time>
      </trkpt>
      <trkpt lat="43.75483" lon="3.53378">
        <ele>503.899994</ele>
        <time>2013-05-25T08:06:22Z</time>
      </trkpt>
      <trkpt lat="43.75486" lon="3.5339">
        <ele>505.899994</ele>
        <time>2013-05-25T08:06:25Z</time>
      </trkpt>
      <trkpt lat="43.75489" lon="3.53398">
        <ele>507.700012</ele>
        <time>2013-05-25T08:06:27Z</time>
      </trkpt>
      <trkpt lat="43.75492" lon="3.53406">
        <ele>508.5</ele>
        <time>2013-05-25T08:06:29Z</time>
      </trkpt>
      <trkpt lat="43.75494" lon="3.53415">
        <ele>508.899994</ele>
        <time>2013-05-25T08:06:31Z</time>
      </trkpt>
      <trkpt lat="43.75496" lon="3.53425">
        <ele>508.799988</ele>
        <time>2013-05-25T08:06:33Z</time>
      </trkpt>
      <trkpt lat="43.75499" lon="3.53435">
        <ele>508.600006</ele>
        <time>2013-05-25T08:06:35Z</time>
      </trkpt>
      <trkpt lat="43.75501" lon="3.53441">
        <ele>507.700012</ele>
        <time>2013-05-25T08:06:36Z</time>
      </trkpt>
      <trkpt lat="43.75504" lon="3.53447">
        <ele>507</ele>
        <time>2013-05-25T08:06:37Z</time>
      </trkpt>
      <trkpt lat="43.75508" lon="3.53453">
        <ele>506.5</ele>
        <time>2013-05-25T08:06:38Z</time>
      </trkpt>
      <trkpt lat="43.75512" lon="3.53458">
        <ele>505.399994</ele>
        <time>2013-05-25T08:06:39Z</time>
      </trkpt>
      <trkpt lat="43.75516" lon="3.53463">
        <ele>504.5</ele>
        <time>2013-05-25T08:06:40Z</time>
      </trkpt>
      <trkpt lat="43.7552" lon="3.53469">
        <ele>503.899994</ele>
        <time>2013-05-25T08:06:41Z</time>
      </trkpt>
      <trkpt lat="43.75523" lon="3.53474">
        <ele>502.899994</ele>
        <time>2013-05-25T08:06:42Z</time>
      </trkpt>
      <trkpt lat="43.75526" lon="3.5348">
        <ele>502.100006</ele>
        <time>2013-05-25T08:06:43Z</time>
      </trkpt>
      <trkpt lat="43.75533" lon="3.53487">
        <ele>502</ele>
        <time>2013-05-25T08:06:45Z</time>
      </trkpt>
      <trkpt lat="43.75541" lon="3.53488">
        <ele>502.799988</ele>
        <time>2013-05-25T08:06:48Z</time>
      </trkpt>
      <trkpt lat="43.75548" lon="3.53484">
        <ele>504</ele>
        <time>2013-05-25T08:06:51Z</time>
      </trkpt>
      <trkpt lat="43.75553" lon="3.53478">
        <ele>506.5</ele>
        <time>2013-05-25T08:06:54Z</time>
      </trkpt>
      <trkpt lat="43.75557" lon="3.53469">
        <ele>508.700012</ele>
        <time>2013-05-25T08:06:57Z</time>
      </trkpt>
      <trkpt lat="43.75559" lon="3.53459">
        <ele>509.100006</ele>
        <time>2013-05-25T08:07:00Z</time>
      </trkpt>
      <trkpt lat="43.75559" lon="3.53449">
        <ele>509.899994</ele>
        <time>2013-05-25T08:07:03Z</time>
      </trkpt>
      <trkpt lat="43.75559" lon="3.53438">
        <ele>511.200012</ele>
        <time>2013-05-25T08:07:06Z</time>
      </trkpt>
      <trkpt lat="43.7556" lon="3.53428">
        <ele>512</ele>
        <time>2013-05-25T08:07:09Z</time>
      </trkpt>
      <trkpt lat="43.75561" lon="3.53424">
        <ele>512.099976</ele>
        <time>2013-05-25T08:07:10Z</time>
      </trkpt>
      <trkpt lat="43.75565" lon="3.53408">
        <ele>512</ele>
        <time>2013-05-25T08:07:14Z</time>
      </trkpt>
      <trkpt lat="43.75568" lon="3.53397">
        <ele>510.799988</ele>
        <time>2013-05-25T08:07:17Z</time>
      </trkpt>
      <trkpt lat="43.75572" lon="3.53386">
        <ele>509.899994</ele>
        <time>2013-05-25T08:07:20Z</time>
      </trkpt>
      <trkpt lat="43.75576" lon="3.53378">
        <ele>510.299988</ele>
        <time>2013-05-25T08:07:23Z</time>
      </trkpt>
      <trkpt lat="43.75582" lon="3.5337">
        <ele>511.200012</ele>
        <time>2013-05-25T08:07:27Z</time>
      </trkpt>
      <trkpt lat="43.75588" lon="3.53363">
        <ele>511</ele>
        <time>2013-05-25T08:07:31Z</time>
      </trkpt>
      <trkpt lat="43.75595" lon="3.53356">
        <ele>510.600006</ele>
        <time>2013-05-25T08:07:35Z</time>
      </trkpt>
      <trkpt lat="43.75603" lon="3.53351">
        <ele>512</ele>
        <time>2013-05-25T08:07:39Z</time>
      </trkpt>
      <trkpt lat="43.7561" lon="3.53347">
        <ele>514.200012</ele>
        <time>2013-05-25T08:07:42Z</time>
      </trkpt>
      <trkpt lat="43.75617" lon="3.53342">
        <ele>514.099976</ele>
        <time>2013-05-25T08:07:45Z</time>
      </trkpt>
      <trkpt lat="43.75623" lon="3.53337">
        <ele>513</ele>
        <time>2013-05-25T08:07:48Z</time>
      </trkpt>
      <trkpt lat="43.75631" lon="3.53331">
        <ele>514.099976</ele>
        <time>2013-05-25T08:07:52Z</time>
      </trkpt>
      <trkpt lat="43.75637" lon="3.53327">
        <ele>514.200012</ele>
        <time>2013-05-25T08:07:55Z</time>
      </trkpt>
      <trkpt lat="43.75643" lon="3.53322">
        <ele>513.200012</ele>
        <time>2013-05-25T08:07:58Z</time>
      </trkpt>
      <trkpt lat="43.75651" lon="3.53317">
        <ele>514.5</ele>
        <time>2013-05-25T08:08:02Z</time>
      </trkpt>
      <trkpt lat="43.75659" lon="3.53317">
        <ele>515.400024</ele>
        <time>2013-05-25T08:08:05Z</time>
      </trkpt>
      <trkpt lat="43.75664" lon="3.53324">
        <ele>515.900024</ele>
        <time>2013-05-25T08:08:08Z</time>
      </trkpt>
      <trkpt lat="43.75665" lon="3.53335">
        <ele>515.900024</ele>
        <time>2013-05-25T08:08:11Z</time>
      </trkpt>
      <trkpt lat="43.75666" lon="3.53339">
        <ele>515.5</ele>
        <time>2013-05-25T08:08:12Z</time>
      </trkpt>
      <trkpt lat="43.75664" lon="3.53353">
        <ele>514.5</ele>
        <time>2013-05-25T08:08:15Z</time>
      </trkpt>
      <trkpt lat="43.75662" lon="3.53362">
        <ele>513.900024</ele>
        <time>2013-05-25T08:08:17Z</time>
      </trkpt>
      <trkpt lat="43.7566" lon="3.53371">
        <ele>513.400024</ele>
        <time>2013-05-25T08:08:19Z</time>
      </trkpt>
      <trkpt lat="43.75657" lon="3.53382">
        <ele>513.200012</ele>
        <time>2013-05-25T08:08:21Z</time>
      </trkpt>
      <trkpt lat="43.75656" lon="3.53388">
        <ele>513.200012</ele>
        <time>2013-05-25T08:08:22Z</time>
      </trkpt>
      <trkpt lat="43.75657" lon="3.53394">
        <ele>513.200012</ele>
        <time>2013-05-25T08:08:23Z</time>
      </trkpt>
      <trkpt lat="43.75658" lon="3.534">
        <ele>512.400024</ele>
        <time>2013-05-25T08:08:24Z</time>
      </trkpt>
      <trkpt lat="43.75661" lon="3.53405">
        <ele>511.799988</ele>
        <time>2013-05-25T08:08:25Z</time>
      </trkpt>
      <trkpt lat="43.75669" lon="3.53411">
        <ele>511.899994</ele>
        <time>2013-05-25T08:08:27Z</time>
      </trkpt>
      <trkpt lat="43.75676" lon="3.53416">
        <ele>512.5</ele>
        <time>2013-05-25T08:08:29Z</time>
      </trkpt>
      <trkpt lat="43.7568" lon="3.53419">
        <ele>512.799988</ele>
        <time>2013-05-25T08:08:30Z</time>
      </trkpt>
      <trkpt lat="43.75684" lon="3.53422">
        <ele>512.200012</ele>
        <time>2013-05-25T08:08:31Z</time>
      </trkpt>
      <trkpt lat="43.75688" lon="3.53426">
        <ele>511.799988</ele>
        <time>2013-05-25T08:08:32Z</time>
      </trkpt>
      <trkpt lat="43.75692" lon="3.53429">
        <ele>511.399994</ele>
        <time>2013-05-25T08:08:33Z</time>
      </trkpt>
      <trkpt lat="43.75697" lon="3.53431">
        <ele>510.600006</ele>
        <time>2013-05-25T08:08:34Z</time>
      </trkpt>
      <trkpt lat="43.75702" lon="3.53432">
        <ele>510</ele>
        <time>2013-05-25T08:08:35Z</time>
      </trkpt>
      <trkpt lat="43.7571" lon="3.5343">
        <ele>509.399994</ele>
        <time>2013-05-25T08:08:37Z</time>
      </trkpt>
      <trkpt lat="43.75716" lon="3.53425">
        <ele>509.100006</ele>
        <time>2013-05-25T08:08:39Z</time>
      </trkpt>
      <trkpt lat="43.75721" lon="3.53418">
        <ele>508.399994</ele>
        <time>2013-05-25T08:08:41Z</time>
      </trkpt>
      <trkpt lat="43.75725" lon="3.53407">
        <ele>509.200012</ele>
        <time>2013-05-25T08:08:44Z</time>
      </trkpt>
      <trkpt lat="43.75729" lon="3.53397">
        <ele>509.899994</ele>
        <time>2013-05-25T08:08:47Z</time>
      </trkpt>
      <trkpt lat="43.75732" lon="3.53386">
        <ele>509.700012</ele>
        <time>2013-05-25T08:08:50Z</time>
      </trkpt>
      <trkpt lat="43.75736" lon="3.53376">
        <ele>509.899994</ele>
        <time>2013-05-25T08:08:53Z</time>
      </trkpt>
      <trkpt lat="43.7574" lon="3.53368">
        <ele>510.600006</ele>
        <time>2013-05-25T08:08:55Z</time>
      </trkpt>
      <trkpt lat="43.75745" lon="3.53359">
        <ele>510.899994</ele>
        <time>2013-05-25T08:08:58Z</time>
      </trkpt>
      <trkpt lat="43.75751" lon="3.53351">
        <ele>513.099976</ele>
        <time>2013-05-25T08:09:01Z</time>
      </trkpt>
      <trkpt lat="43.75757" lon="3.53346">
        <ele>513.400024</ele>
        <time>2013-05-25T08:09:04Z</time>
      </trkpt>
      <trkpt lat="43.75764" lon="3.53341">
        <ele>513.299988</ele>
        <time>2013-05-25T08:09:07Z</time>
      </trkpt>
      <trkpt lat="43.75771" lon="3.53339">
        <ele>513.5</ele>
        <time>2013-05-25T08:09:10Z</time>
      </trkpt>
      <trkpt lat="43.75778" lon="3.53342">
        <ele>512.700012</ele>
        <time>2013-05-25T08:09:13Z</time>
      </trkpt>
      <trkpt lat="43.7578" lon="3.53343">
        <ele>512.400024</ele>
        <time>2013-05-25T08:09:14Z</time>
      </trkpt>
      <trkpt lat="43.75788" lon="3.53356">
        <ele>515.5</ele>
        <time>2013-05-25T08:09:19Z</time>
      </trkpt>
      <trkpt lat="43.7579" lon="3.53366">
        <ele>516.5</ele>
        <time>2013-05-25T08:09:22Z</time>
      </trkpt>
      <trkpt lat="43.75792" lon="3.53376">
        <ele>517.400024</ele>
        <time>2013-05-25T08:09:25Z</time>
      </trkpt>
      <trkpt lat="43.75795" lon="3.53387">
        <ele>517.599976</ele>
        <time>2013-05-25T08:09:28Z</time>
      </trkpt>
      <trkpt lat="43.75798" lon="3.53398">
        <ele>518.5</ele>
        <time>2013-05-25T08:09:31Z</time>
      </trkpt>
      <trkpt lat="43.75802" lon="3.53408">
        <ele>519</ele>
        <time>2013-05-25T08:09:34Z</time>
      </trkpt>
      <trkpt lat="43.75808" lon="3.53417">
        <ele>518</ele>
        <time>2013-05-25T08:09:37Z</time>
      </trkpt>
      <trkpt lat="43.75814" lon="3.53425">
        <ele>518.700012</ele>
        <time>2013-05-25T08:09:40Z</time>
      </trkpt>
      <trkpt lat="43.75821" lon="3.53433">
        <ele>517.799988</ele>
        <time>2013-05-25T08:09:43Z</time>
      </trkpt>
      <trkpt lat="43.75827" lon="3.53441">
        <ele>518.099976</ele>
        <time>2013-05-25T08:09:46Z</time>
      </trkpt>
      <trkpt lat="43.75831" lon="3.53447">
        <ele>517.700012</ele>
        <time>2013-05-25T08:09:48Z</time>
      </trkpt>
      <trkpt lat="43.75835" lon="3.53454">
        <ele>518.299988</ele>
        <time>2013-05-25T08:09:50Z</time>
      </trkpt>
      <trkpt lat="43.75837" lon="3.53462">
        <ele>519.099976</ele>
        <time>2013-05-25T08:09:52Z</time>
      </trkpt>
      <trkpt lat="43.75839" lon="3.53471">
        <ele>520.099976</ele>
        <time>2013-05-25T08:09:54Z</time>
      </trkpt>
      <trkpt lat="43.75841" lon="3.53481">
        <ele>520.599976</ele>
        <time>2013-05-25T08:09:56Z</time>
      </trkpt>
      <trkpt lat="43.75842" lon="3.53491">
        <ele>520.900024</ele>
        <time>2013-05-25T08:09:58Z</time>
      </trkpt>
      <trkpt lat="43.75844" lon="3.53501">
        <ele>520.799988</ele>
        <time>2013-05-25T08:10:00Z</time>
      </trkpt>
      <trkpt lat="43.75849" lon="3.5351">
        <ele>520.400024</ele>
        <time>2013-05-25T08:10:02Z</time>
      </trkpt>
      <trkpt lat="43.75856" lon="3.53515">
        <ele>520.200012</ele>
        <time>2013-05-25T08:10:04Z</time>
      </trkpt>
      <trkpt lat="43.75863" lon="3.53515">
        <ele>519.799988</ele>
        <time>2013-05-25T08:10:06Z</time>
      </trkpt>
      <trkpt lat="43.75869" lon="3.53515">
        <ele>519.400024</ele>
        <time>2013-05-25T08:10:08Z</time>
      </trkpt>
      <trkpt lat="43.75875" lon="3.53514">
        <ele>519.5</ele>
        <time>2013-05-25T08:10:10Z</time>
      </trkpt>
      <trkpt lat="43.75882" lon="3.53513">
        <ele>519.900024</ele>
        <time>2013-05-25T08:10:12Z</time>
      </trkpt>
      <trkpt lat="43.75889" lon="3.53514">
        <ele>520.5</ele>
        <time>2013-05-25T08:10:14Z</time>
      </trkpt>
      <trkpt lat="43.75892" lon="3.53514">
        <ele>520.599976</ele>
        <time>2013-05-25T08:10:15Z</time>
      </trkpt>
      <trkpt lat="43.75901" lon="3.5352">
        <ele>521.900024</ele>
        <time>2013-05-25T08:10:18Z</time>
      </trkpt>
      <trkpt lat="43.75905" lon="3.53529">
        <ele>523.099976</ele>
        <time>2013-05-25T08:10:20Z</time>
      </trkpt>
      <trkpt lat="43.75906" lon="3.53535">
        <ele>523.400024</ele>
        <time>2013-05-25T08:10:21Z</time>
      </trkpt>
      <trkpt lat="43.75904" lon="3.53541">
        <ele>525.200012</ele>
        <time>2013-05-25T08:10:22Z</time>
      </trkpt>
      <trkpt lat="43.75902" lon="3.53548">
        <ele>526.5</ele>
        <time>2013-05-25T08:10:23Z</time>
      </trkpt>
      <trkpt lat="43.75899" lon="3.53555">
        <ele>527.5</ele>
        <time>2013-05-25T08:10:24Z</time>
      </trkpt>
      <trkpt lat="43.75895" lon="3.53561">
        <ele>527.299988</ele>
        <time>2013-05-25T08:10:25Z</time>
      </trkpt>
      <trkpt lat="43.7589" lon="3.53568">
        <ele>527.200012</ele>
        <time>2013-05-25T08:10:26Z</time>
      </trkpt>
      <trkpt lat="43.75886" lon="3.53575">
        <ele>527.099976</ele>
        <time>2013-05-25T08:10:27Z</time>
      </trkpt>
      <trkpt lat="43.75881" lon="3.53583">
        <ele>526.099976</ele>
        <time>2013-05-25T08:10:28Z</time>
      </trkpt>
      <trkpt lat="43.75877" lon="3.53591">
        <ele>525.299988</ele>
        <time>2013-05-25T08:10:29Z</time>
      </trkpt>
      <trkpt lat="43.75875" lon="3.53601">
        <ele>524.700012</ele>
        <time>2013-05-25T08:10:30Z</time>
      </trkpt>
      <trkpt lat="43.75873" lon="3.53611">
        <ele>524.299988</ele>
        <time>2013-05-25T08:10:31Z</time>
      </trkpt>
      <trkpt lat="43.75872" lon="3.5362">
        <ele>523.200012</ele>
        <time>2013-05-25T08:10:32Z</time>
      </trkpt>
      <trkpt lat="43.7587" lon="3.53629">
        <ele>522.400024</ele>
        <time>2013-05-25T08:10:33Z</time>
      </trkpt>
      <trkpt lat="43.75867" lon="3.53636">
        <ele>521.799988</ele>
        <time>2013-05-25T08:10:34Z</time>
      </trkpt>
      <trkpt lat="43.75864" lon="3.53644">
        <ele>520.599976</ele>
        <time>2013-05-25T08:10:35Z</time>
      </trkpt>
      <trkpt lat="43.75879" lon="3.53693">
        <ele>519.200012</ele>
        <time>2013-05-25T08:10:42Z</time>
      </trkpt>
      <trkpt lat="43.75893" lon="3.53697">
        <ele>518.200012</ele>
        <time>2013-05-25T08:10:45Z</time>
      </trkpt>
      <trkpt lat="43.75906" lon="3.53693">
        <ele>517.200012</ele>
        <time>2013-05-25T08:10:49Z</time>
      </trkpt>
      <trkpt lat="43.75913" lon="3.5369">
        <ele>515.599976</ele>
        <time>2013-05-25T08:10:52Z</time>
      </trkpt>
      <trkpt lat="43.7592" lon="3.53685">
        <ele>514.900024</ele>
        <time>2013-05-25T08:10:55Z</time>
      </trkpt>
      <trkpt lat="43.75926" lon="3.53678">
        <ele>515.099976</ele>
        <time>2013-05-25T08:10:58Z</time>
      </trkpt>
      <trkpt lat="43.75931" lon="3.53672">
        <ele>515.400024</ele>
        <time>2013-05-25T08:11:00Z</time>
      </trkpt>
      <trkpt lat="43.75936" lon="3.53666">
        <ele>515.5</ele>
        <time>2013-05-25T08:11:02Z</time>
      </trkpt>
      <trkpt lat="43.75942" lon="3.53662">
        <ele>515</ele>
        <time>2013-05-25T08:11:04Z</time>
      </trkpt>
      <trkpt lat="43.75948" lon="3.53658">
        <ele>514.799988</ele>
        <time>2013-05-25T08:11:06Z</time>
      </trkpt>
      <trkpt lat="43.75954" lon="3.53654">
        <ele>514.099976</ele>
        <time>2013-05-25T08:11:08Z</time>
      </trkpt>
      <trkpt lat="43.7596" lon="3.53649">
        <ele>513.799988</ele>
        <time>2013-05-25T08:11:10Z</time>
      </trkpt>
      <trkpt lat="43.75967" lon="3.53641">
        <ele>514.700012</ele>
        <time>2013-05-25T08:11:13Z</time>
      </trkpt>
      <trkpt lat="43.75973" lon="3.53634">
        <ele>516.099976</ele>
        <time>2013-05-25T08:11:17Z</time>
      </trkpt>
      <trkpt lat="43.75975" lon="3.53632">
        <ele>516.099976</ele>
        <time>2013-05-25T08:11:18Z</time>
      </trkpt>
      <trkpt lat="43.75985" lon="3.53619">
        <ele>517.400024</ele>
        <time>2013-05-25T08:11:25Z</time>
      </trkpt>
      <trkpt lat="43.75991" lon="3.53611">
        <ele>520.299988</ele>
        <time>2013-05-25T08:11:29Z</time>
      </trkpt>
      <trkpt lat="43.75996" lon="3.53603">
        <ele>521.700012</ele>
        <time>2013-05-25T08:11:33Z</time>
      </trkpt>
      <trkpt lat="43.76001" lon="3.53595">
        <ele>524.299988</ele>
        <time>2013-05-25T08:11:37Z</time>
      </trkpt>
      <trkpt lat="43.76006" lon="3.53586">
        <ele>525.400024</ele>
        <time>2013-05-25T08:11:41Z</time>
      </trkpt>
      <trkpt lat="43.7601" lon="3.53575">
        <ele>524.299988</ele>
        <time>2013-05-25T08:11:45Z</time>
      </trkpt>
      <trkpt lat="43.76014" lon="3.53565">
        <ele>523.5</ele>
        <time>2013-05-25T08:11:49Z</time>
      </trkpt>
      <trkpt lat="43.76019" lon="3.53555">
        <ele>523.099976</ele>
        <time>2013-05-25T08:11:53Z</time>
      </trkpt>
      <trkpt lat="43.76027" lon="3.5355">
        <ele>523.299988</ele>
        <time>2013-05-25T08:11:57Z</time>
      </trkpt>
      <trkpt lat="43.76034" lon="3.53546">
        <ele>523.200012</ele>
        <time>2013-05-25T08:12:00Z</time>
      </trkpt>
      <trkpt lat="43.76041" lon="3.53541">
        <ele>522.799988</ele>
        <time>2013-05-25T08:12:04Z</time>
      </trkpt>
      <trkpt lat="43.76049" lon="3.53536">
        <ele>528.400024</ele>
        <time>2013-05-25T08:12:55Z</time>
      </trkpt>
      <trkpt lat="43.7605" lon="3.53536">
        <ele>528.200012</ele>
        <time>2013-05-25T08:12:56Z</time>
      </trkpt>
      <trkpt lat="43.76041" lon="3.53533">
        <ele>527.599976</ele>
        <time>2013-05-25T08:16:34Z</time>
      </trkpt>
      <trkpt lat="43.76026" lon="3.53542">
        <ele>527.700012</ele>
        <time>2013-05-25T08:16:44Z</time>
      </trkpt>
      <trkpt lat="43.76018" lon="3.53547">
        <ele>526.900024</ele>
        <time>2013-05-25T08:16:47Z</time>
      </trkpt>
      <trkpt lat="43.76014" lon="3.53554">
        <ele>525.700012</ele>
        <time>2013-05-25T08:16:49Z</time>
      </trkpt>
      <trkpt lat="43.7601" lon="3.53564">
        <ele>524.799988</ele>
        <time>2013-05-25T08:16:51Z</time>
      </trkpt>
      <trkpt lat="43.76008" lon="3.53569">
        <ele>524.299988</ele>
        <time>2013-05-25T08:16:52Z</time>
      </trkpt>
      <trkpt lat="43.76006" lon="3.53575">
        <ele>524</ele>
        <time>2013-05-25T08:16:53Z</time>
      </trkpt>
      <trkpt lat="43.76001" lon="3.53586">
        <ele>523</ele>
        <time>2013-05-25T08:16:55Z</time>
      </trkpt>
      <trkpt lat="43.75996" lon="3.53593">
        <ele>522.200012</ele>
        <time>2013-05-25T08:16:57Z</time>
      </trkpt>
      <trkpt lat="43.76005" lon="3.53596">
        <ele>525</ele>
        <time>2013-05-25T08:17:32Z</time>
      </trkpt>
      <trkpt lat="43.76012" lon="3.5359">
        <ele>526.400024</ele>
        <time>2013-05-25T08:17:44Z</time>
      </trkpt>
      <trkpt lat="43.76013" lon="3.53589">
        <ele>526.5</ele>
        <time>2013-05-25T08:17:45Z</time>
      </trkpt>
      <trkpt lat="43.76028" lon="3.5359">
        <ele>526.799988</ele>
        <time>2013-05-25T08:18:30Z</time>
      </trkpt>
      <trkpt lat="43.76035" lon="3.53598">
        <ele>529.900024</ele>
        <time>2013-05-25T08:18:45Z</time>
      </trkpt>
      <trkpt lat="43.76036" lon="3.53599">
        <ele>529.900024</ele>
        <time>2013-05-25T08:18:46Z</time>
      </trkpt>
      <trkpt lat="43.76048" lon="3.53611">
        <ele>529.299988</ele>
        <time>2013-05-25T08:18:55Z</time>
      </trkpt>
      <trkpt lat="43.76054" lon="3.53617">
        <ele>531.799988</ele>
        <time>2013-05-25T08:19:00Z</time>
      </trkpt>
      <trkpt lat="43.76061" lon="3.53623">
        <ele>534.099976</ele>
        <time>2013-05-25T08:19:06Z</time>
      </trkpt>
      <trkpt lat="43.76068" lon="3.53628">
        <ele>535.799988</ele>
        <time>2013-05-25T08:19:10Z</time>
      </trkpt>
      <trkpt lat="43.76076" lon="3.53634">
        <ele>537.5</ele>
        <time>2013-05-25T08:19:15Z</time>
      </trkpt>
      <trkpt lat="43.76081" lon="3.53643">
        <ele>539.099976</ele>
        <time>2013-05-25T08:19:20Z</time>
      </trkpt>
      <trkpt lat="43.76083" lon="3.53653">
        <ele>540.900024</ele>
        <time>2013-05-25T08:19:24Z</time>
      </trkpt>
      <trkpt lat="43.7608" lon="3.53663">
        <ele>541.799988</ele>
        <time>2013-05-25T08:19:28Z</time>
      </trkpt>
      <trkpt lat="43.76076" lon="3.53672">
        <ele>542.599976</ele>
        <time>2013-05-25T08:19:32Z</time>
      </trkpt>
      <trkpt lat="43.76071" lon="3.53682">
        <ele>543.099976</ele>
        <time>2013-05-25T08:19:36Z</time>
      </trkpt>
      <trkpt lat="43.76068" lon="3.53693">
        <ele>544.400024</ele>
        <time>2013-05-25T08:19:40Z</time>
      </trkpt>
      <trkpt lat="43.76064" lon="3.53702">
        <ele>545.5</ele>
        <time>2013-05-25T08:19:44Z</time>
      </trkpt>
      <trkpt lat="43.76059" lon="3.53711">
        <ele>546.200012</ele>
        <time>2013-05-25T08:19:49Z</time>
      </trkpt>
      <trkpt lat="43.76058" lon="3.53713">
        <ele>546.099976</ele>
        <time>2013-05-25T08:19:50Z</time>
      </trkpt>
      <trkpt lat="43.76051" lon="3.53729">
        <ele>545.900024</ele>
        <time>2013-05-25T08:19:57Z</time>
      </trkpt>
      <trkpt lat="43.76048" lon="3.53741">
        <ele>545.799988</ele>
        <time>2013-05-25T08:20:02Z</time>
      </trkpt>
      <trkpt lat="43.76047" lon="3.53751">
        <ele>545.799988</ele>
        <time>2013-05-25T08:20:06Z</time>
      </trkpt>
      <trkpt lat="43.76044" lon="3.53763">
        <ele>544.700012</ele>
        <time>2013-05-25T08:20:11Z</time>
      </trkpt>
      <trkpt lat="43.76041" lon="3.53773">
        <ele>545.099976</ele>
        <time>2013-05-25T08:20:16Z</time>
      </trkpt>
      <trkpt lat="43.76038" lon="3.53785">
        <ele>545.799988</ele>
        <time>2013-05-25T08:20:22Z</time>
      </trkpt>
      <trkpt lat="43.76038" lon="3.53797">
        <ele>547</ele>
        <time>2013-05-25T08:20:27Z</time>
      </trkpt>
      <trkpt lat="43.76038" lon="3.53808">
        <ele>546.799988</ele>
        <time>2013-05-25T08:20:32Z</time>
      </trkpt>
      <trkpt lat="43.7604" lon="3.5382">
        <ele>548.400024</ele>
        <time>2013-05-25T08:20:37Z</time>
      </trkpt>
      <trkpt lat="43.76039" lon="3.53832">
        <ele>550.400024</ele>
        <time>2013-05-25T08:20:42Z</time>
      </trkpt>
      <trkpt lat="43.76043" lon="3.53842">
        <ele>552.099976</ele>
        <time>2013-05-25T08:20:51Z</time>
      </trkpt>
      <trkpt lat="43.76045" lon="3.53842">
        <ele>552.5</ele>
        <time>2013-05-25T08:20:52Z</time>
      </trkpt>
      <trkpt lat="43.76056" lon="3.5383">
        <ele>554.099976</ele>
        <time>2013-05-25T08:21:01Z</time>
      </trkpt>
      <trkpt lat="43.76063" lon="3.53821">
        <ele>553.799988</ele>
        <time>2013-05-25T08:21:06Z</time>
      </trkpt>
      <trkpt lat="43.7607" lon="3.53814">
        <ele>556.400024</ele>
        <time>2013-05-25T08:21:11Z</time>
      </trkpt>
      <trkpt lat="43.76077" lon="3.53811">
        <ele>556.099976</ele>
        <time>2013-05-25T08:21:15Z</time>
      </trkpt>
      <trkpt lat="43.76084" lon="3.53809">
        <ele>557.299988</ele>
        <time>2013-05-25T08:21:19Z</time>
      </trkpt>
      <trkpt lat="43.76091" lon="3.53809">
        <ele>558.799988</ele>
        <time>2013-05-25T08:21:23Z</time>
      </trkpt>
      <trkpt lat="43.76099" lon="3.5381">
        <ele>559</ele>
        <time>2013-05-25T08:21:28Z</time>
      </trkpt>
      <trkpt lat="43.76107" lon="3.5381">
        <ele>559.299988</ele>
        <time>2013-05-25T08:21:33Z</time>
      </trkpt>
      <trkpt lat="43.76114" lon="3.53806">
        <ele>560.299988</ele>
        <time>2013-05-25T08:21:37Z</time>
      </trkpt>
      <trkpt lat="43.76121" lon="3.53803">
        <ele>560.799988</ele>
        <time>2013-05-25T08:21:41Z</time>
      </trkpt>
      <trkpt lat="43.7613" lon="3.538">
        <ele>563.099976</ele>
        <time>2013-05-25T08:21:46Z</time>
      </trkpt>
      <trkpt lat="43.76137" lon="3.53804">
        <ele>563.900024</ele>
        <time>2013-05-25T08:21:50Z</time>
      </trkpt>
      <trkpt lat="43.76143" lon="3.53811">
        <ele>564</ele>
        <time>2013-05-25T08:21:55Z</time>
      </trkpt>
      <trkpt lat="43.76144" lon="3.53813">
        <ele>564.299988</ele>
        <time>2013-05-25T08:21:56Z</time>
      </trkpt>
      <trkpt lat="43.76155" lon="3.5383">
        <ele>565.700012</ele>
        <time>2013-05-25T08:22:05Z</time>
      </trkpt>
      <trkpt lat="43.76158" lon="3.53841">
        <ele>565.099976</ele>
        <time>2013-05-25T08:22:10Z</time>
      </trkpt>
      <trkpt lat="43.76162" lon="3.53851">
        <ele>562.5</ele>
        <time>2013-05-25T08:22:15Z</time>
      </trkpt>
      <trkpt lat="43.76166" lon="3.53861">
        <ele>562.299988</ele>
        <time>2013-05-25T08:22:20Z</time>
      </trkpt>
      <trkpt lat="43.7617" lon="3.53872">
        <ele>567.599976</ele>
        <time>2013-05-25T08:22:25Z</time>
      </trkpt>
      <trkpt lat="43.76174" lon="3.53882">
        <ele>568.5</ele>
        <time>2013-05-25T08:22:29Z</time>
      </trkpt>
      <trkpt lat="43.76177" lon="3.53891">
        <ele>568.700012</ele>
        <time>2013-05-25T08:22:33Z</time>
      </trkpt>
      <trkpt lat="43.7618" lon="3.53901">
        <ele>570.599976</ele>
        <time>2013-05-25T08:22:37Z</time>
      </trkpt>
      <trkpt lat="43.76181" lon="3.53913">
        <ele>570.900024</ele>
        <time>2013-05-25T08:22:42Z</time>
      </trkpt>
      <trkpt lat="43.76183" lon="3.53924">
        <ele>570.900024</ele>
        <time>2013-05-25T08:22:47Z</time>
      </trkpt>
      <trkpt lat="43.76182" lon="3.53934">
        <ele>570.599976</ele>
        <time>2013-05-25T08:22:51Z</time>
      </trkpt>
      <trkpt lat="43.76179" lon="3.53944">
        <ele>571.599976</ele>
        <time>2013-05-25T08:22:55Z</time>
      </trkpt>
      <trkpt lat="43.76175" lon="3.53953">
        <ele>572.599976</ele>
        <time>2013-05-25T08:22:59Z</time>
      </trkpt>
      <trkpt lat="43.76174" lon="3.53955">
        <ele>572.700012</ele>
        <time>2013-05-25T08:23:00Z</time>
      </trkpt>
      <trkpt lat="43.76165" lon="3.5397">
        <ele>572.799988</ele>
        <time>2013-05-25T08:23:09Z</time>
      </trkpt>
      <trkpt lat="43.76158" lon="3.53978">
        <ele>574.299988</ele>
        <time>2013-05-25T08:23:14Z</time>
      </trkpt>
      <trkpt lat="43.76151" lon="3.53984">
        <ele>574.799988</ele>
        <time>2013-05-25T08:23:18Z</time>
      </trkpt>
      <trkpt lat="43.76145" lon="3.53991">
        <ele>575.200012</ele>
        <time>2013-05-25T08:23:22Z</time>
      </trkpt>
      <trkpt lat="43.76139" lon="3.53997">
        <ele>575.099976</ele>
        <time>2013-05-25T08:23:26Z</time>
      </trkpt>
      <trkpt lat="43.76133" lon="3.54003">
        <ele>577.900024</ele>
        <time>2013-05-25T08:23:30Z</time>
      </trkpt>
      <trkpt lat="43.76127" lon="3.5401">
        <ele>579.200012</ele>
        <time>2013-05-25T08:23:34Z</time>
      </trkpt>
      <trkpt lat="43.7612" lon="3.54017">
        <ele>578.099976</ele>
        <time>2013-05-25T08:23:39Z</time>
      </trkpt>
      <trkpt lat="43.76118" lon="3.54027">
        <ele>577.400024</ele>
        <time>2013-05-25T08:23:43Z</time>
      </trkpt>
      <trkpt lat="43.76116" lon="3.54038">
        <ele>577.299988</ele>
        <time>2013-05-25T08:23:47Z</time>
      </trkpt>
      <trkpt lat="43.76121" lon="3.54048">
        <ele>577.099976</ele>
        <time>2013-05-25T08:23:52Z</time>
      </trkpt>
      <trkpt lat="43.76127" lon="3.54056">
        <ele>579.900024</ele>
        <time>2013-05-25T08:23:57Z</time>
      </trkpt>
      <trkpt lat="43.76132" lon="3.54063">
        <ele>580.5</ele>
        <time>2013-05-25T08:24:01Z</time>
      </trkpt>
      <trkpt lat="43.76134" lon="3.54064">
        <ele>579.700012</ele>
        <time>2013-05-25T08:24:02Z</time>
      </trkpt>
      <trkpt lat="43.76143" lon="3.54077">
        <ele>577.5</ele>
        <time>2013-05-25T08:24:10Z</time>
      </trkpt>
      <trkpt lat="43.7614" lon="3.54086">
        <ele>579.799988</ele>
        <time>2013-05-25T08:24:15Z</time>
      </trkpt>
      <trkpt lat="43.76136" lon="3.54096">
        <ele>582.400024</ele>
        <time>2013-05-25T08:24:20Z</time>
      </trkpt>
      <trkpt lat="43.76132" lon="3.54106">
        <ele>585.200012</ele>
        <time>2013-05-25T08:24:25Z</time>
      </trkpt>
      <trkpt lat="43.76128" lon="3.54117">
        <ele>586.599976</ele>
        <time>2013-05-25T08:24:30Z</time>
      </trkpt>
      <trkpt lat="43.76125" lon="3.54128">
        <ele>588.299988</ele>
        <time>2013-05-25T08:24:35Z</time>
      </trkpt>
      <trkpt lat="43.76125" lon="3.54139">
        <ele>586</ele>
        <time>2013-05-25T08:24:39Z</time>
      </trkpt>
      <trkpt lat="43.76124" lon="3.5415">
        <ele>586</ele>
        <time>2013-05-25T08:24:43Z</time>
      </trkpt>
      <trkpt lat="43.76124" lon="3.54161">
        <ele>586.200012</ele>
        <time>2013-05-25T08:24:47Z</time>
      </trkpt>
      <trkpt lat="43.76126" lon="3.54172">
        <ele>586.900024</ele>
        <time>2013-05-25T08:24:51Z</time>
      </trkpt>
      <trkpt lat="43.76131" lon="3.54181">
        <ele>587.5</ele>
        <time>2013-05-25T08:24:55Z</time>
      </trkpt>
      <trkpt lat="43.76139" lon="3.54189">
        <ele>587.200012</ele>
        <time>2013-05-25T08:24:59Z</time>
      </trkpt>
      <trkpt lat="43.76145" lon="3.54195">
        <ele>587.5</ele>
        <time>2013-05-25T08:25:03Z</time>
      </trkpt>
      <trkpt lat="43.76147" lon="3.54196">
        <ele>587.5</ele>
        <time>2013-05-25T08:25:04Z</time>
      </trkpt>
      <trkpt lat="43.76159" lon="3.54203">
        <ele>588.599976</ele>
        <time>2013-05-25T08:25:10Z</time>
      </trkpt>
      <trkpt lat="43.76167" lon="3.54202">
        <ele>588.900024</ele>
        <time>2013-05-25T08:25:13Z</time>
      </trkpt>
      <trkpt lat="43.76175" lon="3.54202">
        <ele>590.200012</ele>
        <time>2013-05-25T08:25:16Z</time>
      </trkpt>
      <trkpt lat="43.76182" lon="3.54202">
        <ele>591.299988</ele>
        <time>2013-05-25T08:25:19Z</time>
      </trkpt>
      <trkpt lat="43.76189" lon="3.54209">
        <ele>593.299988</ele>
        <time>2013-05-25T08:25:23Z</time>
      </trkpt>
      <trkpt lat="43.76192" lon="3.5422">
        <ele>594.599976</ele>
        <time>2013-05-25T08:25:27Z</time>
      </trkpt>
      <trkpt lat="43.76193" lon="3.54231">
        <ele>595.099976</ele>
        <time>2013-05-25T08:25:31Z</time>
      </trkpt>
      <trkpt lat="43.76193" lon="3.54242">
        <ele>595.099976</ele>
        <time>2013-05-25T08:25:36Z</time>
      </trkpt>
      <trkpt lat="43.76191" lon="3.54252">
        <ele>595.5</ele>
        <time>2013-05-25T08:25:40Z</time>
      </trkpt>
      <trkpt lat="43.7619" lon="3.54264">
        <ele>595.299988</ele>
        <time>2013-05-25T08:25:45Z</time>
      </trkpt>
      <trkpt lat="43.76192" lon="3.54275">
        <ele>595.799988</ele>
        <time>2013-05-25T08:25:49Z</time>
      </trkpt>
      <trkpt lat="43.76194" lon="3.54286">
        <ele>595.200012</ele>
        <time>2013-05-25T08:25:53Z</time>
      </trkpt>
      <trkpt lat="43.76197" lon="3.54295">
        <ele>597.900024</ele>
        <time>2013-05-25T08:25:57Z</time>
      </trkpt>
      <trkpt lat="43.76198" lon="3.54305">
        <ele>600.200012</ele>
        <time>2013-05-25T08:26:01Z</time>
      </trkpt>
      <trkpt lat="43.76199" lon="3.54316">
        <ele>601.099976</ele>
        <time>2013-05-25T08:26:05Z</time>
      </trkpt>
      <trkpt lat="43.76199" lon="3.54319">
        <ele>601.099976</ele>
        <time>2013-05-25T08:26:06Z</time>
      </trkpt>
      <trkpt lat="43.76207" lon="3.54336">
        <ele>602.5</ele>
        <time>2013-05-25T08:26:13Z</time>
      </trkpt>
      <trkpt lat="43.76216" lon="3.54339">
        <ele>602.099976</ele>
        <time>2013-05-25T08:26:17Z</time>
      </trkpt>
      <trkpt lat="43.76225" lon="3.54341">
        <ele>601.299988</ele>
        <time>2013-05-25T08:26:21Z</time>
      </trkpt>
      <trkpt lat="43.76233" lon="3.54344">
        <ele>600.299988</ele>
        <time>2013-05-25T08:26:25Z</time>
      </trkpt>
      <trkpt lat="43.76236" lon="3.54354">
        <ele>600.799988</ele>
        <time>2013-05-25T08:26:29Z</time>
      </trkpt>
      <trkpt lat="43.76236" lon="3.54366">
        <ele>603.5</ele>
        <time>2013-05-25T08:26:33Z</time>
      </trkpt>
      <trkpt lat="43.76236" lon="3.54378">
        <ele>605.200012</ele>
        <time>2013-05-25T08:26:38Z</time>
      </trkpt>
      <trkpt lat="43.7624" lon="3.54388">
        <ele>603.400024</ele>
        <time>2013-05-25T08:26:42Z</time>
      </trkpt>
      <trkpt lat="43.76244" lon="3.54399">
        <ele>603.5</ele>
        <time>2013-05-25T08:26:46Z</time>
      </trkpt>
      <trkpt lat="43.76251" lon="3.544">
        <ele>603.900024</ele>
        <time>2013-05-25T08:26:49Z</time>
      </trkpt>
      <trkpt lat="43.76258" lon="3.544">
        <ele>603.700012</ele>
        <time>2013-05-25T08:26:52Z</time>
      </trkpt>
      <trkpt lat="43.76267" lon="3.544">
        <ele>603.5</ele>
        <time>2013-05-25T08:26:55Z</time>
      </trkpt>
      <trkpt lat="43.76272" lon="3.54406">
        <ele>604.299988</ele>
        <time>2013-05-25T08:26:58Z</time>
      </trkpt>
      <trkpt lat="43.76276" lon="3.54415">
        <ele>604.799988</ele>
        <time>2013-05-25T08:27:01Z</time>
      </trkpt>
      <trkpt lat="43.7628" lon="3.54423">
        <ele>605.299988</ele>
        <time>2013-05-25T08:27:04Z</time>
      </trkpt>
      <trkpt lat="43.76283" lon="3.54434">
        <ele>605.5</ele>
        <time>2013-05-25T08:27:08Z</time>
      </trkpt>
      <trkpt lat="43.76283" lon="3.54438">
        <ele>605.400024</ele>
        <time>2013-05-25T08:27:09Z</time>
      </trkpt>
      <trkpt lat="43.76283" lon="3.54453">
        <ele>605.700012</ele>
        <time>2013-05-25T08:27:12Z</time>
      </trkpt>
      <trkpt lat="43.76284" lon="3.54463">
        <ele>606</ele>
        <time>2013-05-25T08:27:14Z</time>
      </trkpt>
      <trkpt lat="43.76282" lon="3.54471">
        <ele>606.299988</ele>
        <time>2013-05-25T08:27:16Z</time>
      </trkpt>
      <trkpt lat="43.7628" lon="3.5448">
        <ele>606.299988</ele>
        <time>2013-05-25T08:27:18Z</time>
      </trkpt>
      <trkpt lat="43.76279" lon="3.54489">
        <ele>606.799988</ele>
        <time>2013-05-25T08:27:20Z</time>
      </trkpt>
      <trkpt lat="43.76279" lon="3.54498">
        <ele>607.5</ele>
        <time>2013-05-25T08:27:22Z</time>
      </trkpt>
      <trkpt lat="43.76281" lon="3.54507">
        <ele>608.599976</ele>
        <time>2013-05-25T08:27:24Z</time>
      </trkpt>
      <trkpt lat="43.76282" lon="3.54517">
        <ele>609.200012</ele>
        <time>2013-05-25T08:27:26Z</time>
      </trkpt>
      <trkpt lat="43.7628" lon="3.54528">
        <ele>609.5</ele>
        <time>2013-05-25T08:27:28Z</time>
      </trkpt>
      <trkpt lat="43.76276" lon="3.54536">
        <ele>609.5</ele>
        <time>2013-05-25T08:27:30Z</time>
      </trkpt>
      <trkpt lat="43.76273" lon="3.54544">
        <ele>609.5</ele>
        <time>2013-05-25T08:27:32Z</time>
      </trkpt>
      <trkpt lat="43.76275" lon="3.54553">
        <ele>608.700012</ele>
        <time>2013-05-25T08:27:34Z</time>
      </trkpt>
      <trkpt lat="43.7628" lon="3.5456">
        <ele>608.700012</ele>
        <time>2013-05-25T08:27:36Z</time>
      </trkpt>
      <trkpt lat="43.76284" lon="3.54569">
        <ele>609</ele>
        <time>2013-05-25T08:27:38Z</time>
      </trkpt>
      <trkpt lat="43.76284" lon="3.54579">
        <ele>609</ele>
        <time>2013-05-25T08:27:40Z</time>
      </trkpt>
      <trkpt lat="43.76284" lon="3.54589">
        <ele>609</ele>
        <time>2013-05-25T08:27:42Z</time>
      </trkpt>
      <trkpt lat="43.76284" lon="3.546">
        <ele>607.200012</ele>
        <time>2013-05-25T08:27:45Z</time>
      </trkpt>
      <trkpt lat="43.7629" lon="3.54607">
        <ele>606.599976</ele>
        <time>2013-05-25T08:27:48Z</time>
      </trkpt>
      <trkpt lat="43.76296" lon="3.54606">
        <ele>607.799988</ele>
        <time>2013-05-25T08:27:50Z</time>
      </trkpt>
      <trkpt lat="43.76305" lon="3.54604">
        <ele>608.599976</ele>
        <time>2013-05-25T08:27:53Z</time>
      </trkpt>
      <trkpt lat="43.76311" lon="3.54603">
        <ele>609.099976</ele>
        <time>2013-05-25T08:27:55Z</time>
      </trkpt>
      <trkpt lat="43.7632" lon="3.54601">
        <ele>609.700012</ele>
        <time>2013-05-25T08:27:58Z</time>
      </trkpt>
      <trkpt lat="43.76327" lon="3.54609">
        <ele>609.099976</ele>
        <time>2013-05-25T08:28:01Z</time>
      </trkpt>
      <trkpt lat="43.76324" lon="3.5462">
        <ele>607.200012</ele>
        <time>2013-05-25T08:28:04Z</time>
      </trkpt>
      <trkpt lat="43.76321" lon="3.54631">
        <ele>610.299988</ele>
        <time>2013-05-25T08:28:07Z</time>
      </trkpt>
      <trkpt lat="43.7632" lon="3.54642">
        <ele>608.599976</ele>
        <time>2013-05-25T08:28:10Z</time>
      </trkpt>
      <trkpt lat="43.7632" lon="3.54647">
        <ele>609.400024</ele>
        <time>2013-05-25T08:28:11Z</time>
      </trkpt>
      <trkpt lat="43.76323" lon="3.54658">
        <ele>610.900024</ele>
        <time>2013-05-25T08:28:14Z</time>
      </trkpt>
      <trkpt lat="43.76326" lon="3.54667">
        <ele>611.5</ele>
        <time>2013-05-25T08:28:16Z</time>
      </trkpt>
      <trkpt lat="43.76331" lon="3.54677">
        <ele>612.099976</ele>
        <time>2013-05-25T08:28:18Z</time>
      </trkpt>
      <trkpt lat="43.76335" lon="3.54684">
        <ele>612.5</ele>
        <time>2013-05-25T08:28:20Z</time>
      </trkpt>
      <trkpt lat="43.76334" lon="3.54695">
        <ele>613.599976</ele>
        <time>2013-05-25T08:28:23Z</time>
      </trkpt>
      <trkpt lat="43.76331" lon="3.54703">
        <ele>614.700012</ele>
        <time>2013-05-25T08:28:25Z</time>
      </trkpt>
      <trkpt lat="43.76328" lon="3.54713">
        <ele>615.599976</ele>
        <time>2013-05-25T08:28:27Z</time>
      </trkpt>
      <trkpt lat="43.76329" lon="3.54722">
        <ele>616.200012</ele>
        <time>2013-05-25T08:28:29Z</time>
      </trkpt>
      <trkpt lat="43.76335" lon="3.54728">
        <ele>616.799988</ele>
        <time>2013-05-25T08:28:31Z</time>
      </trkpt>
      <trkpt lat="43.76341" lon="3.54734">
        <ele>616.900024</ele>
        <time>2013-05-25T08:28:34Z</time>
      </trkpt>
      <trkpt lat="43.76347" lon="3.54741">
        <ele>616.200012</ele>
        <time>2013-05-25T08:28:36Z</time>
      </trkpt>
      <trkpt lat="43.76353" lon="3.54746">
        <ele>616</ele>
        <time>2013-05-25T08:28:38Z</time>
      </trkpt>
      <trkpt lat="43.76357" lon="3.54753">
        <ele>616.400024</ele>
        <time>2013-05-25T08:28:40Z</time>
      </trkpt>
      <trkpt lat="43.7636" lon="3.54761">
        <ele>617</ele>
        <time>2013-05-25T08:28:42Z</time>
      </trkpt>
      <trkpt lat="43.76361" lon="3.54773">
        <ele>617.599976</ele>
        <time>2013-05-25T08:28:45Z</time>
      </trkpt>
      <trkpt lat="43.76358" lon="3.54783">
        <ele>618.5</ele>
        <time>2013-05-25T08:28:47Z</time>
      </trkpt>
      <trkpt lat="43.76355" lon="3.54794">
        <ele>619.099976</ele>
        <time>2013-05-25T08:28:49Z</time>
      </trkpt>
      <trkpt lat="43.76353" lon="3.548">
        <ele>618.900024</ele>
        <time>2013-05-25T08:28:50Z</time>
      </trkpt>
      <trkpt lat="43.76351" lon="3.54807">
        <ele>618.799988</ele>
        <time>2013-05-25T08:28:51Z</time>
      </trkpt>
      <trkpt lat="43.76349" lon="3.54813">
        <ele>618.700012</ele>
        <time>2013-05-25T08:28:52Z</time>
      </trkpt>
      <trkpt lat="43.76347" lon="3.54819">
        <ele>618.700012</ele>
        <time>2013-05-25T08:28:53Z</time>
      </trkpt>
      <trkpt lat="43.76346" lon="3.54826">
        <ele>618.700012</ele>
        <time>2013-05-25T08:28:54Z</time>
      </trkpt>
      <trkpt lat="43.76345" lon="3.54833">
        <ele>618.799988</ele>
        <time>2013-05-25T08:28:55Z</time>
      </trkpt>
      <trkpt lat="43.76343" lon="3.54839">
        <ele>617.799988</ele>
        <time>2013-05-25T08:28:56Z</time>
      </trkpt>
      <trkpt lat="43.76339" lon="3.54848">
        <ele>616.5</ele>
        <time>2013-05-25T08:28:58Z</time>
      </trkpt>
      <trkpt lat="43.76339" lon="3.54858">
        <ele>615.799988</ele>
        <time>2013-05-25T08:29:00Z</time>
      </trkpt>
      <trkpt lat="43.76337" lon="3.5487">
        <ele>614.700012</ele>
        <time>2013-05-25T08:29:03Z</time>
      </trkpt>
      <trkpt lat="43.76334" lon="3.54877">
        <ele>614.200012</ele>
        <time>2013-05-25T08:29:05Z</time>
      </trkpt>
      <trkpt lat="43.76331" lon="3.54886">
        <ele>613.400024</ele>
        <time>2013-05-25T08:29:07Z</time>
      </trkpt>
      <trkpt lat="43.76326" lon="3.54896">
        <ele>613.200012</ele>
        <time>2013-05-25T08:29:09Z</time>
      </trkpt>
      <trkpt lat="43.7632" lon="3.54905">
        <ele>613.200012</ele>
        <time>2013-05-25T08:29:11Z</time>
      </trkpt>
      <trkpt lat="43.76317" lon="3.54909">
        <ele>612.400024</ele>
        <time>2013-05-25T08:29:12Z</time>
      </trkpt>
      <trkpt lat="43.7631" lon="3.54921">
        <ele>610.799988</ele>
        <time>2013-05-25T08:29:15Z</time>
      </trkpt>
      <trkpt lat="43.76305" lon="3.54927">
        <ele>609.900024</ele>
        <time>2013-05-25T08:29:17Z</time>
      </trkpt>
      <trkpt lat="43.763" lon="3.54933">
        <ele>609.900024</ele>
        <time>2013-05-25T08:29:19Z</time>
      </trkpt>
      <trkpt lat="43.76293" lon="3.54937">
        <ele>610</ele>
        <time>2013-05-25T08:29:21Z</time>
      </trkpt>
      <trkpt lat="43.76286" lon="3.54943">
        <ele>608.700012</ele>
        <time>2013-05-25T08:29:23Z</time>
      </trkpt>
      <trkpt lat="43.76279" lon="3.54949">
        <ele>608.200012</ele>
        <time>2013-05-25T08:29:25Z</time>
      </trkpt>
      <trkpt lat="43.76272" lon="3.54954">
        <ele>608</ele>
        <time>2013-05-25T08:29:27Z</time>
      </trkpt>
      <trkpt lat="43.76266" lon="3.54961">
        <ele>607.900024</ele>
        <time>2013-05-25T08:29:29Z</time>
      </trkpt>
      <trkpt lat="43.7626" lon="3.54969">
        <ele>607.200012</ele>
        <time>2013-05-25T08:29:31Z</time>
      </trkpt>
      <trkpt lat="43.76255" lon="3.54977">
        <ele>606.200012</ele>
        <time>2013-05-25T08:29:33Z</time>
      </trkpt>
      <trkpt lat="43.7625" lon="3.54986">
        <ele>606</ele>
        <time>2013-05-25T08:29:35Z</time>
      </trkpt>
      <trkpt lat="43.76245" lon="3.54995">
        <ele>606.5</ele>
        <time>2013-05-25T08:29:37Z</time>
      </trkpt>
      <trkpt lat="43.7624" lon="3.55004">
        <ele>607.200012</ele>
        <time>2013-05-25T08:29:39Z</time>
      </trkpt>
      <trkpt lat="43.76236" lon="3.55012">
        <ele>607.900024</ele>
        <time>2013-05-25T08:29:41Z</time>
      </trkpt>
      <trkpt lat="43.76232" lon="3.55021">
        <ele>608.599976</ele>
        <time>2013-05-25T08:29:43Z</time>
      </trkpt>
      <trkpt lat="43.76228" lon="3.55028">
        <ele>608.900024</ele>
        <time>2013-05-25T08:29:45Z</time>
      </trkpt>
      <trkpt lat="43.76222" lon="3.55037">
        <ele>609.099976</ele>
        <time>2013-05-25T08:29:48Z</time>
      </trkpt>
      <trkpt lat="43.76218" lon="3.55046">
        <ele>609</ele>
        <time>2013-05-25T08:29:51Z</time>
      </trkpt>
      <trkpt lat="43.76214" lon="3.55055">
        <ele>609.099976</ele>
        <time>2013-05-25T08:29:54Z</time>
      </trkpt>
      <trkpt lat="43.76207" lon="3.55061">
        <ele>610.5</ele>
        <time>2013-05-25T08:29:58Z</time>
      </trkpt>
      <trkpt lat="43.762" lon="3.55065">
        <ele>610.799988</ele>
        <time>2013-05-25T08:30:01Z</time>
      </trkpt>
      <trkpt lat="43.76191" lon="3.55066">
        <ele>611.599976</ele>
        <time>2013-05-25T08:30:05Z</time>
      </trkpt>
      <trkpt lat="43.76183" lon="3.5507">
        <ele>612.5</ele>
        <time>2013-05-25T08:30:09Z</time>
      </trkpt>
      <trkpt lat="43.76181" lon="3.55079">
        <ele>612.200012</ele>
        <time>2013-05-25T08:30:12Z</time>
      </trkpt>
      <trkpt lat="43.76181" lon="3.55082">
        <ele>613.200012</ele>
        <time>2013-05-25T08:30:13Z</time>
      </trkpt>
      <trkpt lat="43.76183" lon="3.55103">
        <ele>616</ele>
        <time>2013-05-25T08:30:20Z</time>
      </trkpt>
      <trkpt lat="43.76184" lon="3.55115">
        <ele>617.599976</ele>
        <time>2013-05-25T08:30:25Z</time>
      </trkpt>
      <trkpt lat="43.76189" lon="3.55124">
        <ele>618.700012</ele>
        <time>2013-05-25T08:30:29Z</time>
      </trkpt>
      <trkpt lat="43.76193" lon="3.55135">
        <ele>619.900024</ele>
        <time>2013-05-25T08:30:33Z</time>
      </trkpt>
      <trkpt lat="43.76197" lon="3.55145">
        <ele>619.700012</ele>
        <time>2013-05-25T08:30:37Z</time>
      </trkpt>
      <trkpt lat="43.76201" lon="3.55154">
        <ele>620.700012</ele>
        <time>2013-05-25T08:30:40Z</time>
      </trkpt>
      <trkpt lat="43.76204" lon="3.55165">
        <ele>620.799988</ele>
        <time>2013-05-25T08:30:43Z</time>
      </trkpt>
      <trkpt lat="43.76206" lon="3.55176">
        <ele>619.299988</ele>
        <time>2013-05-25T08:30:46Z</time>
      </trkpt>
      <trkpt lat="43.76209" lon="3.55186">
        <ele>619.799988</ele>
        <time>2013-05-25T08:30:49Z</time>
      </trkpt>
      <trkpt lat="43.76215" lon="3.55194">
        <ele>620.200012</ele>
        <time>2013-05-25T08:30:52Z</time>
      </trkpt>
      <trkpt lat="43.76222" lon="3.55198">
        <ele>619.799988</ele>
        <time>2013-05-25T08:30:56Z</time>
      </trkpt>
      <trkpt lat="43.7623" lon="3.55196">
        <ele>619.700012</ele>
        <time>2013-05-25T08:30:59Z</time>
      </trkpt>
      <trkpt lat="43.76237" lon="3.55195">
        <ele>619.799988</ele>
        <time>2013-05-25T08:31:02Z</time>
      </trkpt>
      <trkpt lat="43.76243" lon="3.55191">
        <ele>620.400024</ele>
        <time>2013-05-25T08:31:04Z</time>
      </trkpt>
      <trkpt lat="43.76248" lon="3.55185">
        <ele>621</ele>
        <time>2013-05-25T08:31:06Z</time>
      </trkpt>
      <trkpt lat="43.76253" lon="3.5518">
        <ele>620.700012</ele>
        <time>2013-05-25T08:31:08Z</time>
      </trkpt>
      <trkpt lat="43.76258" lon="3.55174">
        <ele>620.900024</ele>
        <time>2013-05-25T08:31:10Z</time>
      </trkpt>
      <trkpt lat="43.76264" lon="3.55168">
        <ele>621.200012</ele>
        <time>2013-05-25T08:31:12Z</time>
      </trkpt>
      <trkpt lat="43.7627" lon="3.55162">
        <ele>620.200012</ele>
        <time>2013-05-25T08:31:14Z</time>
      </trkpt>
      <trkpt lat="43.76273" lon="3.55158">
        <ele>619.900024</ele>
        <time>2013-05-25T08:31:15Z</time>
      </trkpt>
      <trkpt lat="43.76281" lon="3.55151">
        <ele>618.799988</ele>
        <time>2013-05-25T08:31:18Z</time>
      </trkpt>
      <trkpt lat="43.76287" lon="3.55146">
        <ele>618.799988</ele>
        <time>2013-05-25T08:31:20Z</time>
      </trkpt>
      <trkpt lat="43.76292" lon="3.55141">
        <ele>619.200012</ele>
        <time>2013-05-25T08:31:22Z</time>
      </trkpt>
      <trkpt lat="43.76298" lon="3.55137">
        <ele>618.599976</ele>
        <time>2013-05-25T08:31:24Z</time>
      </trkpt>
      <trkpt lat="43.76306" lon="3.55133">
        <ele>618.900024</ele>
        <time>2013-05-25T08:31:26Z</time>
      </trkpt>
      <trkpt lat="43.76313" lon="3.55129">
        <ele>619.400024</ele>
        <time>2013-05-25T08:31:28Z</time>
      </trkpt>
      <trkpt lat="43.7632" lon="3.55125">
        <ele>618.400024</ele>
        <time>2013-05-25T08:31:30Z</time>
      </trkpt>
      <trkpt lat="43.76328" lon="3.55121">
        <ele>618.200012</ele>
        <time>2013-05-25T08:31:32Z</time>
      </trkpt>
      <trkpt lat="43.76336" lon="3.55116">
        <ele>618.400024</ele>
        <time>2013-05-25T08:31:34Z</time>
      </trkpt>
      <trkpt lat="43.76343" lon="3.55113">
        <ele>619.099976</ele>
        <time>2013-05-25T08:31:36Z</time>
      </trkpt>
      <trkpt lat="43.76351" lon="3.55109">
        <ele>619.900024</ele>
        <time>2013-05-25T08:31:38Z</time>
      </trkpt>
      <trkpt lat="43.76358" lon="3.55107">
        <ele>621</ele>
        <time>2013-05-25T08:31:40Z</time>
      </trkpt>
      <trkpt lat="43.76365" lon="3.55109">
        <ele>621.5</ele>
        <time>2013-05-25T08:31:42Z</time>
      </trkpt>
      <trkpt lat="43.76372" lon="3.55113">
        <ele>621.700012</ele>
        <time>2013-05-25T08:31:44Z</time>
      </trkpt>
      <trkpt lat="43.76377" lon="3.55119">
        <ele>621.599976</ele>
        <time>2013-05-25T08:31:46Z</time>
      </trkpt>
      <trkpt lat="43.76384" lon="3.55122">
        <ele>621.900024</ele>
        <time>2013-05-25T08:31:48Z</time>
      </trkpt>
      <trkpt lat="43.76391" lon="3.55122">
        <ele>622.299988</ele>
        <time>2013-05-25T08:31:50Z</time>
      </trkpt>
      <trkpt lat="43.76398" lon="3.55121">
        <ele>622.099976</ele>
        <time>2013-05-25T08:31:52Z</time>
      </trkpt>
      <trkpt lat="43.76404" lon="3.55129">
        <ele>621.799988</ele>
        <time>2013-05-25T08:31:55Z</time>
      </trkpt>
      <trkpt lat="43.76402" lon="3.55139">
        <ele>621</ele>
        <time>2013-05-25T08:31:58Z</time>
      </trkpt>
      <trkpt lat="43.76402" lon="3.55148">
        <ele>620</ele>
        <time>2013-05-25T08:32:00Z</time>
      </trkpt>
      <trkpt lat="43.76406" lon="3.55155">
        <ele>618.200012</ele>
        <time>2013-05-25T08:32:02Z</time>
      </trkpt>
      <trkpt lat="43.76411" lon="3.55164">
        <ele>616.599976</ele>
        <time>2013-05-25T08:32:04Z</time>
      </trkpt>
      <trkpt lat="43.76416" lon="3.55171">
        <ele>615.200012</ele>
        <time>2013-05-25T08:32:06Z</time>
      </trkpt>
      <trkpt lat="43.76423" lon="3.55176">
        <ele>614.099976</ele>
        <time>2013-05-25T08:32:09Z</time>
      </trkpt>
      <trkpt lat="43.76429" lon="3.5518">
        <ele>613.700012</ele>
        <time>2013-05-25T08:32:11Z</time>
      </trkpt>
      <trkpt lat="43.76434" lon="3.55187">
        <ele>613.400024</ele>
        <time>2013-05-25T08:32:13Z</time>
      </trkpt>
      <trkpt lat="43.76438" lon="3.55196">
        <ele>613.799988</ele>
        <time>2013-05-25T08:32:15Z</time>
      </trkpt>
      <trkpt lat="43.76441" lon="3.552">
        <ele>613.900024</ele>
        <time>2013-05-25T08:32:16Z</time>
      </trkpt>
      <trkpt lat="43.76454" lon="3.552">
        <ele>612.099976</ele>
        <time>2013-05-25T08:32:21Z</time>
      </trkpt>
      <trkpt lat="43.76462" lon="3.55196">
        <ele>611.599976</ele>
        <time>2013-05-25T08:32:24Z</time>
      </trkpt>
      <trkpt lat="43.7647" lon="3.55203">
        <ele>611.099976</ele>
        <time>2013-05-25T08:32:28Z</time>
      </trkpt>
      <trkpt lat="43.76471" lon="3.55214">
        <ele>612.599976</ele>
        <time>2013-05-25T08:32:31Z</time>
      </trkpt>
      <trkpt lat="43.76473" lon="3.55222">
        <ele>613.200012</ele>
        <time>2013-05-25T08:32:33Z</time>
      </trkpt>
      <trkpt lat="43.76475" lon="3.5523">
        <ele>613.200012</ele>
        <time>2013-05-25T08:32:35Z</time>
      </trkpt>
      <trkpt lat="43.76475" lon="3.55238">
        <ele>614</ele>
        <time>2013-05-25T08:32:37Z</time>
      </trkpt>
      <trkpt lat="43.76479" lon="3.55248">
        <ele>613.299988</ele>
        <time>2013-05-25T08:32:40Z</time>
      </trkpt>
      <trkpt lat="43.76484" lon="3.55253">
        <ele>612.700012</ele>
        <time>2013-05-25T08:32:42Z</time>
      </trkpt>
      <trkpt lat="43.76491" lon="3.55257">
        <ele>612.799988</ele>
        <time>2013-05-25T08:32:44Z</time>
      </trkpt>
      <trkpt lat="43.76496" lon="3.55262">
        <ele>613.299988</ele>
        <time>2013-05-25T08:32:46Z</time>
      </trkpt>
      <trkpt lat="43.76502" lon="3.55268">
        <ele>614</ele>
        <time>2013-05-25T08:32:48Z</time>
      </trkpt>
      <trkpt lat="43.76507" lon="3.55274">
        <ele>614.599976</ele>
        <time>2013-05-25T08:32:50Z</time>
      </trkpt>
      <trkpt lat="43.76512" lon="3.5528">
        <ele>615.099976</ele>
        <time>2013-05-25T08:32:52Z</time>
      </trkpt>
      <trkpt lat="43.76517" lon="3.55286">
        <ele>615.400024</ele>
        <time>2013-05-25T08:32:54Z</time>
      </trkpt>
      <trkpt lat="43.76523" lon="3.55293">
        <ele>616</ele>
        <time>2013-05-25T08:32:57Z</time>
      </trkpt>
      <trkpt lat="43.76531" lon="3.55299">
        <ele>617.299988</ele>
        <time>2013-05-25T08:33:00Z</time>
      </trkpt>
      <trkpt lat="43.76536" lon="3.55303">
        <ele>618.700012</ele>
        <time>2013-05-25T08:33:02Z</time>
      </trkpt>
      <trkpt lat="43.76544" lon="3.55308">
        <ele>620.099976</ele>
        <time>2013-05-25T08:33:05Z</time>
      </trkpt>
      <trkpt lat="43.7655" lon="3.55311">
        <ele>620.200012</ele>
        <time>2013-05-25T08:33:07Z</time>
      </trkpt>
      <trkpt lat="43.76556" lon="3.55315">
        <ele>620.900024</ele>
        <time>2013-05-25T08:33:09Z</time>
      </trkpt>
      <trkpt lat="43.76563" lon="3.5532">
        <ele>621.400024</ele>
        <time>2013-05-25T08:33:11Z</time>
      </trkpt>
      <trkpt lat="43.7657" lon="3.55326">
        <ele>621.700012</ele>
        <time>2013-05-25T08:33:13Z</time>
      </trkpt>
      <trkpt lat="43.76576" lon="3.55335">
        <ele>622</ele>
        <time>2013-05-25T08:33:16Z</time>
      </trkpt>
      <trkpt lat="43.76579" lon="3.55338">
        <ele>622</ele>
        <time>2013-05-25T08:33:17Z</time>
      </trkpt>
      <trkpt lat="43.76589" lon="3.55347">
        <ele>619</ele>
        <time>2013-05-25T08:33:21Z</time>
      </trkpt>
      <trkpt lat="43.76595" lon="3.55352">
        <ele>618.799988</ele>
        <time>2013-05-25T08:33:23Z</time>
      </trkpt>
      <trkpt lat="43.76601" lon="3.55357">
        <ele>621</ele>
        <time>2013-05-25T08:33:25Z</time>
      </trkpt>
      <trkpt lat="43.76607" lon="3.55363">
        <ele>622.200012</ele>
        <time>2013-05-25T08:33:27Z</time>
      </trkpt>
      <trkpt lat="43.76615" lon="3.55367">
        <ele>623</ele>
        <time>2013-05-25T08:33:29Z</time>
      </trkpt>
      <trkpt lat="43.76622" lon="3.5537">
        <ele>622.900024</ele>
        <time>2013-05-25T08:33:31Z</time>
      </trkpt>
      <trkpt lat="43.7663" lon="3.55374">
        <ele>622.5</ele>
        <time>2013-05-25T08:33:33Z</time>
      </trkpt>
      <trkpt lat="43.76637" lon="3.55379">
        <ele>621.200012</ele>
        <time>2013-05-25T08:33:35Z</time>
      </trkpt>
      <trkpt lat="43.76645" lon="3.55382">
        <ele>620.400024</ele>
        <time>2013-05-25T08:33:37Z</time>
      </trkpt>
      <trkpt lat="43.76652" lon="3.55387">
        <ele>619.900024</ele>
        <time>2013-05-25T08:33:39Z</time>
      </trkpt>
      <trkpt lat="43.76658" lon="3.55393">
        <ele>619.099976</ele>
        <time>2013-05-25T08:33:41Z</time>
      </trkpt>
      <trkpt lat="43.76663" lon="3.55401">
        <ele>618.900024</ele>
        <time>2013-05-25T08:33:43Z</time>
      </trkpt>
      <trkpt lat="43.76669" lon="3.55406">
        <ele>619</ele>
        <time>2013-05-25T08:33:45Z</time>
      </trkpt>
      <trkpt lat="43.76676" lon="3.5541">
        <ele>619.599976</ele>
        <time>2013-05-25T08:33:47Z</time>
      </trkpt>
      <trkpt lat="43.76683" lon="3.55417">
        <ele>620.5</ele>
        <time>2013-05-25T08:33:50Z</time>
      </trkpt>
      <trkpt lat="43.76686" lon="3.55428">
        <ele>620.5</ele>
        <time>2013-05-25T08:33:53Z</time>
      </trkpt>
      <trkpt lat="43.76687" lon="3.55438">
        <ele>620.299988</ele>
        <time>2013-05-25T08:33:55Z</time>
      </trkpt>
      <trkpt lat="43.76689" lon="3.55447">
        <ele>620.599976</ele>
        <time>2013-05-25T08:33:57Z</time>
      </trkpt>
      <trkpt lat="43.76691" lon="3.55455">
        <ele>621.200012</ele>
        <time>2013-05-25T08:33:59Z</time>
      </trkpt>
      <trkpt lat="43.76695" lon="3.55463">
        <ele>621.799988</ele>
        <time>2013-05-25T08:34:01Z</time>
      </trkpt>
      <trkpt lat="43.767" lon="3.5547">
        <ele>622.799988</ele>
        <time>2013-05-25T08:34:03Z</time>
      </trkpt>
      <trkpt lat="43.76702" lon="3.55481">
        <ele>623.400024</ele>
        <time>2013-05-25T08:34:06Z</time>
      </trkpt>
      <trkpt lat="43.767" lon="3.5549">
        <ele>623.5</ele>
        <time>2013-05-25T08:34:08Z</time>
      </trkpt>
      <trkpt lat="43.76702" lon="3.55501">
        <ele>622.900024</ele>
        <time>2013-05-25T08:34:19Z</time>
      </trkpt>
      <trkpt lat="43.76702" lon="3.55503">
        <ele>622.700012</ele>
        <time>2013-05-25T08:34:20Z</time>
      </trkpt>
      <trkpt lat="43.76703" lon="3.55523">
        <ele>621</ele>
        <time>2013-05-25T08:34:35Z</time>
      </trkpt>
      <trkpt lat="43.76699" lon="3.55533">
        <ele>620.400024</ele>
        <time>2013-05-25T08:35:33Z</time>
      </trkpt>
      <trkpt lat="43.76699" lon="3.55534">
        <ele>620.599976</ele>
        <time>2013-05-25T08:35:34Z</time>
      </trkpt>
      <trkpt lat="43.76691" lon="3.5555">
        <ele>621</ele>
        <time>2013-05-25T08:35:53Z</time>
      </trkpt>
      <trkpt lat="43.76687" lon="3.55559">
        <ele>621.099976</ele>
        <time>2013-05-25T08:35:56Z</time>
      </trkpt>
      <trkpt lat="43.76683" lon="3.55569">
        <ele>619.900024</ele>
        <time>2013-05-25T08:35:59Z</time>
      </trkpt>
      <trkpt lat="43.76681" lon="3.55581">
        <ele>618.5</ele>
        <time>2013-05-25T08:36:17Z</time>
      </trkpt>
      <trkpt lat="43.76679" lon="3.55593">
        <ele>617</ele>
        <time>2013-05-25T08:36:54Z</time>
      </trkpt>
      <trkpt lat="43.76679" lon="3.55595">
        <ele>615.5</ele>
        <time>2013-05-25T08:36:55Z</time>
      </trkpt>
      <trkpt lat="43.76676" lon="3.55612">
        <ele>613</ele>
        <time>2013-05-25T08:37:00Z</time>
      </trkpt>
      <trkpt lat="43.76676" lon="3.55622">
        <ele>615.700012</ele>
        <time>2013-05-25T08:37:03Z</time>
      </trkpt>
      <trkpt lat="43.76677" lon="3.55632">
        <ele>619</ele>
        <time>2013-05-25T08:37:06Z</time>
      </trkpt>
      <trkpt lat="43.7668" lon="3.55642">
        <ele>620.599976</ele>
        <time>2013-05-25T08:37:09Z</time>
      </trkpt>
      <trkpt lat="43.76682" lon="3.55651">
        <ele>620.599976</ele>
        <time>2013-05-25T08:37:12Z</time>
      </trkpt>
      <trkpt lat="43.76686" lon="3.55662">
        <ele>620.700012</ele>
        <time>2013-05-25T08:37:16Z</time>
      </trkpt>
      <trkpt lat="43.7669" lon="3.55673">
        <ele>620.200012</ele>
        <time>2013-05-25T08:37:20Z</time>
      </trkpt>
      <trkpt lat="43.76698" lon="3.55679">
        <ele>620.599976</ele>
        <time>2013-05-25T08:37:24Z</time>
      </trkpt>
      <trkpt lat="43.76705" lon="3.55682">
        <ele>623.700012</ele>
        <time>2013-05-25T08:37:28Z</time>
      </trkpt>
      <trkpt lat="43.76713" lon="3.55683">
        <ele>625.299988</ele>
        <time>2013-05-25T08:37:32Z</time>
      </trkpt>
      <trkpt lat="43.7672" lon="3.55687">
        <ele>625.700012</ele>
        <time>2013-05-25T08:37:36Z</time>
      </trkpt>
      <trkpt lat="43.76727" lon="3.55693">
        <ele>627.200012</ele>
        <time>2013-05-25T08:37:40Z</time>
      </trkpt>
      <trkpt lat="43.76735" lon="3.5569">
        <ele>629.299988</ele>
        <time>2013-05-25T08:37:46Z</time>
      </trkpt>
      <trkpt lat="43.76742" lon="3.55696">
        <ele>630.599976</ele>
        <time>2013-05-25T08:37:51Z</time>
      </trkpt>
      <trkpt lat="43.7675" lon="3.55701">
        <ele>631.599976</ele>
        <time>2013-05-25T08:37:56Z</time>
      </trkpt>
      <trkpt lat="43.76752" lon="3.55702">
        <ele>631.700012</ele>
        <time>2013-05-25T08:37:57Z</time>
      </trkpt>
      <trkpt lat="43.76766" lon="3.55711">
        <ele>634.799988</ele>
        <time>2013-05-25T08:38:06Z</time>
      </trkpt>
      <trkpt lat="43.76773" lon="3.55717">
        <ele>636</ele>
        <time>2013-05-25T08:38:11Z</time>
      </trkpt>
      <trkpt lat="43.76777" lon="3.55727">
        <ele>636.900024</ele>
        <time>2013-05-25T08:38:16Z</time>
      </trkpt>
      <trkpt lat="43.76777" lon="3.55739">
        <ele>637.099976</ele>
        <time>2013-05-25T08:38:21Z</time>
      </trkpt>
      <trkpt lat="43.76776" lon="3.5575">
        <ele>637.799988</ele>
        <time>2013-05-25T08:38:26Z</time>
      </trkpt>
      <trkpt lat="43.76774" lon="3.5576">
        <ele>638.5</ele>
        <time>2013-05-25T08:38:31Z</time>
      </trkpt>
      <trkpt lat="43.76772" lon="3.55772">
        <ele>637.599976</ele>
        <time>2013-05-25T08:38:36Z</time>
      </trkpt>
      <trkpt lat="43.76773" lon="3.55784">
        <ele>638.099976</ele>
        <time>2013-05-25T08:38:42Z</time>
      </trkpt>
      <trkpt lat="43.7677" lon="3.55796">
        <ele>637</ele>
        <time>2013-05-25T08:38:48Z</time>
      </trkpt>
      <trkpt lat="43.76766" lon="3.55804">
        <ele>637.700012</ele>
        <time>2013-05-25T08:38:53Z</time>
      </trkpt>
      <trkpt lat="43.76761" lon="3.55813">
        <ele>639.400024</ele>
        <time>2013-05-25T08:38:58Z</time>
      </trkpt>
      <trkpt lat="43.7676" lon="3.55814">
        <ele>638.799988</ele>
        <time>2013-05-25T08:38:59Z</time>
      </trkpt>
      <trkpt lat="43.76753" lon="3.55833">
        <ele>637.400024</ele>
        <time>2013-05-25T08:39:09Z</time>
      </trkpt>
      <trkpt lat="43.76749" lon="3.55841">
        <ele>636.099976</ele>
        <time>2013-05-25T08:39:14Z</time>
      </trkpt>
      <trkpt lat="43.76743" lon="3.5585">
        <ele>635.900024</ele>
        <time>2013-05-25T08:39:20Z</time>
      </trkpt>
      <trkpt lat="43.76736" lon="3.55857">
        <ele>637.5</ele>
        <time>2013-05-25T08:39:26Z</time>
      </trkpt>
      <trkpt lat="43.7673" lon="3.55863">
        <ele>638.5</ele>
        <time>2013-05-25T08:39:31Z</time>
      </trkpt>
      <trkpt lat="43.76723" lon="3.5587">
        <ele>639.400024</ele>
        <time>2013-05-25T08:39:36Z</time>
      </trkpt>
      <trkpt lat="43.76716" lon="3.55877">
        <ele>638.799988</ele>
        <time>2013-05-25T08:39:42Z</time>
      </trkpt>
      <trkpt lat="43.76708" lon="3.55883">
        <ele>639.299988</ele>
        <time>2013-05-25T08:39:48Z</time>
      </trkpt>
      <trkpt lat="43.76703" lon="3.55892">
        <ele>640</ele>
        <time>2013-05-25T08:39:54Z</time>
      </trkpt>
      <trkpt lat="43.76701" lon="3.55904">
        <ele>640.900024</ele>
        <time>2013-05-25T08:40:00Z</time>
      </trkpt>
      <trkpt lat="43.76702" lon="3.55906">
        <ele>641</ele>
        <time>2013-05-25T08:40:01Z</time>
      </trkpt>
      <trkpt lat="43.76689" lon="3.55919">
        <ele>642.099976</ele>
        <time>2013-05-25T08:40:11Z</time>
      </trkpt>
      <trkpt lat="43.76682" lon="3.55925">
        <ele>642.700012</ele>
        <time>2013-05-25T08:40:16Z</time>
      </trkpt>
      <trkpt lat="43.76675" lon="3.55931">
        <ele>645.400024</ele>
        <time>2013-05-25T08:40:21Z</time>
      </trkpt>
      <trkpt lat="43.76668" lon="3.55937">
        <ele>647.700012</ele>
        <time>2013-05-25T08:40:25Z</time>
      </trkpt>
      <trkpt lat="43.76661" lon="3.55942">
        <ele>650.299988</ele>
        <time>2013-05-25T08:40:29Z</time>
      </trkpt>
      <trkpt lat="43.76667" lon="3.55951">
        <ele>652.900024</ele>
        <time>2013-05-25T08:40:52Z</time>
      </trkpt>
      <trkpt lat="43.76675" lon="3.55951">
        <ele>653.200012</ele>
        <time>2013-05-25T08:40:59Z</time>
      </trkpt>
      <trkpt lat="43.76684" lon="3.55951">
        <ele>653</ele>
        <time>2013-05-25T08:41:11Z</time>
      </trkpt>
      <trkpt lat="43.76685" lon="3.55951">
        <ele>653</ele>
        <time>2013-05-25T08:41:12Z</time>
      </trkpt>
      <trkpt lat="43.76701" lon="3.55955">
        <ele>650.700012</ele>
        <time>2013-05-25T08:41:31Z</time>
      </trkpt>
      <trkpt lat="43.76709" lon="3.55953">
        <ele>651.5</ele>
        <time>2013-05-25T08:41:36Z</time>
      </trkpt>
      <trkpt lat="43.76716" lon="3.55947">
        <ele>652</ele>
        <time>2013-05-25T08:41:40Z</time>
      </trkpt>
      <trkpt lat="43.7672" lon="3.55938">
        <ele>652.299988</ele>
        <time>2013-05-25T08:41:44Z</time>
      </trkpt>
      <trkpt lat="43.76725" lon="3.55929">
        <ele>652.599976</ele>
        <time>2013-05-25T08:41:48Z</time>
      </trkpt>
      <trkpt lat="43.7673" lon="3.55922">
        <ele>654.400024</ele>
        <time>2013-05-25T08:41:52Z</time>
      </trkpt>
      <trkpt lat="43.76737" lon="3.55916">
        <ele>655.400024</ele>
        <time>2013-05-25T08:41:56Z</time>
      </trkpt>
      <trkpt lat="43.76745" lon="3.55913">
        <ele>655.200012</ele>
        <time>2013-05-25T08:42:00Z</time>
      </trkpt>
      <trkpt lat="43.76752" lon="3.5591">
        <ele>655.200012</ele>
        <time>2013-05-25T08:42:04Z</time>
      </trkpt>
      <trkpt lat="43.76759" lon="3.55906">
        <ele>656.200012</ele>
        <time>2013-05-25T08:42:08Z</time>
      </trkpt>
      <trkpt lat="43.76766" lon="3.559">
        <ele>656.400024</ele>
        <time>2013-05-25T08:42:12Z</time>
      </trkpt>
      <trkpt lat="43.76768" lon="3.55899">
        <ele>656.299988</ele>
        <time>2013-05-25T08:42:13Z</time>
      </trkpt>
      <trkpt lat="43.7678" lon="3.55889">
        <ele>657.400024</ele>
        <time>2013-05-25T08:42:20Z</time>
      </trkpt>
      <trkpt lat="43.76786" lon="3.55883">
        <ele>657.799988</ele>
        <time>2013-05-25T08:42:24Z</time>
      </trkpt>
      <trkpt lat="43.76793" lon="3.55878">
        <ele>658.099976</ele>
        <time>2013-05-25T08:42:28Z</time>
      </trkpt>
      <trkpt lat="43.76801" lon="3.55874">
        <ele>659.299988</ele>
        <time>2013-05-25T08:42:32Z</time>
      </trkpt>
      <trkpt lat="43.76807" lon="3.55867">
        <ele>660.700012</ele>
        <time>2013-05-25T08:42:36Z</time>
      </trkpt>
      <trkpt lat="43.76812" lon="3.55859">
        <ele>662.099976</ele>
        <time>2013-05-25T08:42:40Z</time>
      </trkpt>
      <trkpt lat="43.76817" lon="3.55851">
        <ele>663.799988</ele>
        <time>2013-05-25T08:42:44Z</time>
      </trkpt>
      <trkpt lat="43.76822" lon="3.55842">
        <ele>666.099976</ele>
        <time>2013-05-25T08:42:48Z</time>
      </trkpt>
      <trkpt lat="43.76826" lon="3.55833">
        <ele>667.200012</ele>
        <time>2013-05-25T08:42:52Z</time>
      </trkpt>
      <trkpt lat="43.7683" lon="3.55825">
        <ele>667.200012</ele>
        <time>2013-05-25T08:42:56Z</time>
      </trkpt>
      <trkpt lat="43.76833" lon="3.55815">
        <ele>668</ele>
        <time>2013-05-25T08:43:00Z</time>
      </trkpt>
      <trkpt lat="43.76838" lon="3.55806">
        <ele>669</ele>
        <time>2013-05-25T08:43:05Z</time>
      </trkpt>
      <trkpt lat="43.76846" lon="3.55809">
        <ele>669</ele>
        <time>2013-05-25T08:43:10Z</time>
      </trkpt>
      <trkpt lat="43.76853" lon="3.55812">
        <ele>669</ele>
        <time>2013-05-25T08:43:15Z</time>
      </trkpt>
      <trkpt lat="43.76855" lon="3.55813">
        <ele>669.400024</ele>
        <time>2013-05-25T08:43:16Z</time>
      </trkpt>
      <trkpt lat="43.76866" lon="3.55824">
        <ele>670.700012</ele>
        <time>2013-05-25T08:43:25Z</time>
      </trkpt>
      <trkpt lat="43.76869" lon="3.55834">
        <ele>669</ele>
        <time>2013-05-25T08:43:31Z</time>
      </trkpt>
      <trkpt lat="43.7687" lon="3.55845">
        <ele>668.5</ele>
        <time>2013-05-25T08:43:36Z</time>
      </trkpt>
      <trkpt lat="43.76874" lon="3.55856">
        <ele>667.700012</ele>
        <time>2013-05-25T08:47:36Z</time>
      </trkpt>
      <trkpt lat="43.76874" lon="3.55858">
        <ele>667.5</ele>
        <time>2013-05-25T08:47:37Z</time>
      </trkpt>
      <trkpt lat="43.76869" lon="3.55875">
        <ele>666.599976</ele>
        <time>2013-05-25T08:47:44Z</time>
      </trkpt>
      <trkpt lat="43.76866" lon="3.55884">
        <ele>666.299988</ele>
        <time>2013-05-25T08:47:47Z</time>
      </trkpt>
      <trkpt lat="43.76862" lon="3.55892">
        <ele>666.599976</ele>
        <time>2013-05-25T08:47:50Z</time>
      </trkpt>
      <trkpt lat="43.76856" lon="3.559">
        <ele>667.400024</ele>
        <time>2013-05-25T08:47:53Z</time>
      </trkpt>
      <trkpt lat="43.7685" lon="3.55909">
        <ele>668</ele>
        <time>2013-05-25T08:47:57Z</time>
      </trkpt>
      <trkpt lat="43.76845" lon="3.55918">
        <ele>668.099976</ele>
        <time>2013-05-25T08:48:00Z</time>
      </trkpt>
      <trkpt lat="43.76841" lon="3.55925">
        <ele>667.900024</ele>
        <time>2013-05-25T08:48:02Z</time>
      </trkpt>
      <trkpt lat="43.76836" lon="3.55933">
        <ele>667.599976</ele>
        <time>2013-05-25T08:48:04Z</time>
      </trkpt>
      <trkpt lat="43.76832" lon="3.55941">
        <ele>667.900024</ele>
        <time>2013-05-25T08:48:06Z</time>
      </trkpt>
      <trkpt lat="43.76831" lon="3.55948">
        <ele>667.700012</ele>
        <time>2013-05-25T08:48:08Z</time>
      </trkpt>
      <trkpt lat="43.7683" lon="3.55958">
        <ele>667.200012</ele>
        <time>2013-05-25T08:48:10Z</time>
      </trkpt>
      <trkpt lat="43.7683" lon="3.55968">
        <ele>666.900024</ele>
        <time>2013-05-25T08:48:12Z</time>
      </trkpt>
      <trkpt lat="43.76831" lon="3.55977">
        <ele>666.599976</ele>
        <time>2013-05-25T08:48:14Z</time>
      </trkpt>
      <trkpt lat="43.76833" lon="3.55989">
        <ele>666.299988</ele>
        <time>2013-05-25T08:48:17Z</time>
      </trkpt>
      <trkpt lat="43.76836" lon="3.56">
        <ele>666.200012</ele>
        <time>2013-05-25T08:48:20Z</time>
      </trkpt>
      <trkpt lat="43.7684" lon="3.56011">
        <ele>663.200012</ele>
        <time>2013-05-25T08:48:23Z</time>
      </trkpt>
      <trkpt lat="43.76846" lon="3.56019">
        <ele>663</ele>
        <time>2013-05-25T08:48:26Z</time>
      </trkpt>
      <trkpt lat="43.76853" lon="3.56024">
        <ele>662.900024</ele>
        <time>2013-05-25T08:48:29Z</time>
      </trkpt>
      <trkpt lat="43.76858" lon="3.56029">
        <ele>663</ele>
        <time>2013-05-25T08:48:31Z</time>
      </trkpt>
      <trkpt lat="43.76863" lon="3.56035">
        <ele>663.099976</ele>
        <time>2013-05-25T08:48:33Z</time>
      </trkpt>
      <trkpt lat="43.76867" lon="3.56041">
        <ele>663.900024</ele>
        <time>2013-05-25T08:48:35Z</time>
      </trkpt>
      <trkpt lat="43.76871" lon="3.56048">
        <ele>663.700012</ele>
        <time>2013-05-25T08:48:37Z</time>
      </trkpt>
      <trkpt lat="43.76872" lon="3.56052">
        <ele>663.400024</ele>
        <time>2013-05-25T08:48:38Z</time>
      </trkpt>
      <trkpt lat="43.76875" lon="3.56067">
        <ele>662.799988</ele>
        <time>2013-05-25T08:48:42Z</time>
      </trkpt>
      <trkpt lat="43.76875" lon="3.56079">
        <ele>663.099976</ele>
        <time>2013-05-25T08:48:46Z</time>
      </trkpt>
      <trkpt lat="43.76874" lon="3.56091">
        <ele>663.5</ele>
        <time>2013-05-25T08:48:49Z</time>
      </trkpt>
      <trkpt lat="43.76877" lon="3.56101">
        <ele>662.299988</ele>
        <time>2013-05-25T08:48:52Z</time>
      </trkpt>
      <trkpt lat="43.7688" lon="3.56108">
        <ele>661.400024</ele>
        <time>2013-05-25T08:48:54Z</time>
      </trkpt>
      <trkpt lat="43.76885" lon="3.56115">
        <ele>661</ele>
        <time>2013-05-25T08:48:56Z</time>
      </trkpt>
      <trkpt lat="43.7689" lon="3.56121">
        <ele>660.799988</ele>
        <time>2013-05-25T08:48:58Z</time>
      </trkpt>
      <trkpt lat="43.76896" lon="3.56125">
        <ele>661.200012</ele>
        <time>2013-05-25T08:49:00Z</time>
      </trkpt>
      <trkpt lat="43.76903" lon="3.56126">
        <ele>661.400024</ele>
        <time>2013-05-25T08:49:02Z</time>
      </trkpt>
      <trkpt lat="43.76909" lon="3.56128">
        <ele>662.299988</ele>
        <time>2013-05-25T08:49:04Z</time>
      </trkpt>
      <trkpt lat="43.76915" lon="3.56134">
        <ele>663.099976</ele>
        <time>2013-05-25T08:49:06Z</time>
      </trkpt>
      <trkpt lat="43.7692" lon="3.56144">
        <ele>663.400024</ele>
        <time>2013-05-25T08:49:09Z</time>
      </trkpt>
      <trkpt lat="43.76921" lon="3.56152">
        <ele>662.700012</ele>
        <time>2013-05-25T08:49:11Z</time>
      </trkpt>
      <trkpt lat="43.76919" lon="3.5616">
        <ele>661.400024</ele>
        <time>2013-05-25T08:49:13Z</time>
      </trkpt>
      <trkpt lat="43.76918" lon="3.5617">
        <ele>659.799988</ele>
        <time>2013-05-25T08:49:15Z</time>
      </trkpt>
      <trkpt lat="43.76921" lon="3.56181">
        <ele>658.200012</ele>
        <time>2013-05-25T08:49:17Z</time>
      </trkpt>
      <trkpt lat="43.76922" lon="3.56187">
        <ele>657.599976</ele>
        <time>2013-05-25T08:49:18Z</time>
      </trkpt>
      <trkpt lat="43.76924" lon="3.56193">
        <ele>657.799988</ele>
        <time>2013-05-25T08:49:19Z</time>
      </trkpt>
      <trkpt lat="43.76923" lon="3.56205">
        <ele>658</ele>
        <time>2013-05-25T08:49:21Z</time>
      </trkpt>
      <trkpt lat="43.76923" lon="3.56212">
        <ele>658.400024</ele>
        <time>2013-05-25T08:49:22Z</time>
      </trkpt>
      <trkpt lat="43.76923" lon="3.56218">
        <ele>658.700012</ele>
        <time>2013-05-25T08:49:23Z</time>
      </trkpt>
      <trkpt lat="43.76923" lon="3.56229">
        <ele>659.400024</ele>
        <time>2013-05-25T08:49:25Z</time>
      </trkpt>
      <trkpt lat="43.76922" lon="3.56239">
        <ele>660</ele>
        <time>2013-05-25T08:49:27Z</time>
      </trkpt>
      <trkpt lat="43.76922" lon="3.56245">
        <ele>659.599976</ele>
        <time>2013-05-25T08:49:28Z</time>
      </trkpt>
      <trkpt lat="43.76923" lon="3.56252">
        <ele>659.299988</ele>
        <time>2013-05-25T08:49:29Z</time>
      </trkpt>
      <trkpt lat="43.76926" lon="3.56263">
        <ele>659</ele>
        <time>2013-05-25T08:49:31Z</time>
      </trkpt>
      <trkpt lat="43.76929" lon="3.56273">
        <ele>658.799988</ele>
        <time>2013-05-25T08:49:33Z</time>
      </trkpt>
      <trkpt lat="43.76932" lon="3.56283">
        <ele>659</ele>
        <time>2013-05-25T08:49:35Z</time>
      </trkpt>
      <trkpt lat="43.76936" lon="3.56293">
        <ele>659.200012</ele>
        <time>2013-05-25T08:49:37Z</time>
      </trkpt>
      <trkpt lat="43.76941" lon="3.56301">
        <ele>658.299988</ele>
        <time>2013-05-25T08:49:39Z</time>
      </trkpt>
      <trkpt lat="43.76944" lon="3.56305">
        <ele>658</ele>
        <time>2013-05-25T08:49:40Z</time>
      </trkpt>
      <trkpt lat="43.7695" lon="3.56316">
        <ele>656.799988</ele>
        <time>2013-05-25T08:49:43Z</time>
      </trkpt>
      <trkpt lat="43.76956" lon="3.56324">
        <ele>658</ele>
        <time>2013-05-25T08:49:45Z</time>
      </trkpt>
      <trkpt lat="43.7696" lon="3.56332">
        <ele>658.400024</ele>
        <time>2013-05-25T08:49:47Z</time>
      </trkpt>
      <trkpt lat="43.76966" lon="3.5634">
        <ele>658.5</ele>
        <time>2013-05-25T08:49:49Z</time>
      </trkpt>
      <trkpt lat="43.76971" lon="3.56347">
        <ele>658.400024</ele>
        <time>2013-05-25T08:49:51Z</time>
      </trkpt>
      <trkpt lat="43.76977" lon="3.56355">
        <ele>658.200012</ele>
        <time>2013-05-25T08:49:53Z</time>
      </trkpt>
      <trkpt lat="43.76982" lon="3.56363">
        <ele>659.200012</ele>
        <time>2013-05-25T08:49:55Z</time>
      </trkpt>
      <trkpt lat="43.76983" lon="3.56374">
        <ele>661.599976</ele>
        <time>2013-05-25T08:49:59Z</time>
      </trkpt>
      <trkpt lat="43.76983" lon="3.56385">
        <ele>660.599976</ele>
        <time>2013-05-25T08:50:02Z</time>
      </trkpt>
      <trkpt lat="43.76986" lon="3.56395">
        <ele>660.700012</ele>
        <time>2013-05-25T08:50:04Z</time>
      </trkpt>
      <trkpt lat="43.76988" lon="3.564">
        <ele>660.700012</ele>
        <time>2013-05-25T08:50:05Z</time>
      </trkpt>
      <trkpt lat="43.7699" lon="3.56406">
        <ele>660.299988</ele>
        <time>2013-05-25T08:50:06Z</time>
      </trkpt>
      <trkpt lat="43.76993" lon="3.56413">
        <ele>660</ele>
        <time>2013-05-25T08:50:07Z</time>
      </trkpt>
      <trkpt lat="43.76996" lon="3.5642">
        <ele>659.799988</ele>
        <time>2013-05-25T08:50:08Z</time>
      </trkpt>
      <trkpt lat="43.76999" lon="3.56427">
        <ele>659.599976</ele>
        <time>2013-05-25T08:50:09Z</time>
      </trkpt>
      <trkpt lat="43.77001" lon="3.56434">
        <ele>659.299988</ele>
        <time>2013-05-25T08:50:10Z</time>
      </trkpt>
      <trkpt lat="43.77003" lon="3.5644">
        <ele>659.099976</ele>
        <time>2013-05-25T08:50:11Z</time>
      </trkpt>
      <trkpt lat="43.77005" lon="3.56446">
        <ele>658.900024</ele>
        <time>2013-05-25T08:50:12Z</time>
      </trkpt>
      <trkpt lat="43.77007" lon="3.56453">
        <ele>657.900024</ele>
        <time>2013-05-25T08:50:13Z</time>
      </trkpt>
      <trkpt lat="43.77008" lon="3.56459">
        <ele>657.099976</ele>
        <time>2013-05-25T08:50:14Z</time>
      </trkpt>
      <trkpt lat="43.77011" lon="3.56466">
        <ele>656.599976</ele>
        <time>2013-05-25T08:50:15Z</time>
      </trkpt>
      <trkpt lat="43.77013" lon="3.56473">
        <ele>656.200012</ele>
        <time>2013-05-25T08:50:16Z</time>
      </trkpt>
      <trkpt lat="43.77016" lon="3.56479">
        <ele>655.900024</ele>
        <time>2013-05-25T08:50:17Z</time>
      </trkpt>
      <trkpt lat="43.77018" lon="3.56486">
        <ele>655.700012</ele>
        <time>2013-05-25T08:50:18Z</time>
      </trkpt>
      <trkpt lat="43.7702" lon="3.56492">
        <ele>655.200012</ele>
        <time>2013-05-25T08:50:19Z</time>
      </trkpt>
      <trkpt lat="43.77021" lon="3.56499">
        <ele>654.799988</ele>
        <time>2013-05-25T08:50:20Z</time>
      </trkpt>
      <trkpt lat="43.77023" lon="3.56507">
        <ele>654.5</ele>
        <time>2013-05-25T08:50:21Z</time>
      </trkpt>
      <trkpt lat="43.77025" lon="3.56514">
        <ele>653.900024</ele>
        <time>2013-05-25T08:50:22Z</time>
      </trkpt>
      <trkpt lat="43.77027" lon="3.56522">
        <ele>653.400024</ele>
        <time>2013-05-25T08:50:23Z</time>
      </trkpt>
      <trkpt lat="43.7703" lon="3.5653">
        <ele>653</ele>
        <time>2013-05-25T08:50:24Z</time>
      </trkpt>
      <trkpt lat="43.77033" lon="3.56538">
        <ele>652.700012</ele>
        <time>2013-05-25T08:50:25Z</time>
      </trkpt>
      <trkpt lat="43.77036" lon="3.56544">
        <ele>652.200012</ele>
        <time>2013-05-25T08:50:26Z</time>
      </trkpt>
      <trkpt lat="43.7704" lon="3.56554">
        <ele>651.5</ele>
        <time>2013-05-25T08:50:28Z</time>
      </trkpt>
      <trkpt lat="43.77044" lon="3.56564">
        <ele>651.099976</ele>
        <time>2013-05-25T08:50:30Z</time>
      </trkpt>
      <trkpt lat="43.77045" lon="3.5657">
        <ele>650.900024</ele>
        <time>2013-05-25T08:50:31Z</time>
      </trkpt>
      <trkpt lat="43.77047" lon="3.56576">
        <ele>650.700012</ele>
        <time>2013-05-25T08:50:32Z</time>
      </trkpt>
      <trkpt lat="43.77049" lon="3.56582">
        <ele>650.400024</ele>
        <time>2013-05-25T08:50:33Z</time>
      </trkpt>
      <trkpt lat="43.77051" lon="3.56589">
        <ele>650.299988</ele>
        <time>2013-05-25T08:50:34Z</time>
      </trkpt>
      <trkpt lat="43.77053" lon="3.56595">
        <ele>648.599976</ele>
        <time>2013-05-25T08:50:35Z</time>
      </trkpt>
      <trkpt lat="43.77055" lon="3.56602">
        <ele>647.299988</ele>
        <time>2013-05-25T08:50:36Z</time>
      </trkpt>
      <trkpt lat="43.77057" lon="3.56608">
        <ele>646.299988</ele>
        <time>2013-05-25T08:50:37Z</time>
      </trkpt>
      <trkpt lat="43.77059" lon="3.56614">
        <ele>643.700012</ele>
        <time>2013-05-25T08:50:38Z</time>
      </trkpt>
      <trkpt lat="43.7706" lon="3.5662">
        <ele>641.700012</ele>
        <time>2013-05-25T08:50:39Z</time>
      </trkpt>
      <trkpt lat="43.77062" lon="3.56626">
        <ele>640.200012</ele>
        <time>2013-05-25T08:50:40Z</time>
      </trkpt>
      <trkpt lat="43.77064" lon="3.56632">
        <ele>639.099976</ele>
        <time>2013-05-25T08:50:41Z</time>
      </trkpt>
      <trkpt lat="43.77067" lon="3.5664">
        <ele>638.299988</ele>
        <time>2013-05-25T08:50:42Z</time>
      </trkpt>
      <trkpt lat="43.77068" lon="3.56647">
        <ele>637.700012</ele>
        <time>2013-05-25T08:50:43Z</time>
      </trkpt>
      <trkpt lat="43.77071" lon="3.56654">
        <ele>637.200012</ele>
        <time>2013-05-25T08:50:44Z</time>
      </trkpt>
      <trkpt lat="43.77073" lon="3.56662">
        <ele>635.5</ele>
        <time>2013-05-25T08:50:45Z</time>
      </trkpt>
      <trkpt lat="43.77076" lon="3.56668">
        <ele>634.200012</ele>
        <time>2013-05-25T08:50:46Z</time>
      </trkpt>
      <trkpt lat="43.77078" lon="3.56674">
        <ele>633.200012</ele>
        <time>2013-05-25T08:50:47Z</time>
      </trkpt>
      <trkpt lat="43.7708" lon="3.56681">
        <ele>632.200012</ele>
        <time>2013-05-25T08:50:48Z</time>
      </trkpt>
      <trkpt lat="43.77083" lon="3.56687">
        <ele>631.400024</ele>
        <time>2013-05-25T08:50:49Z</time>
      </trkpt>
      <trkpt lat="43.77086" lon="3.56693">
        <ele>630.900024</ele>
        <time>2013-05-25T08:50:50Z</time>
      </trkpt>
      <trkpt lat="43.77089" lon="3.567">
        <ele>629.599976</ele>
        <time>2013-05-25T08:50:51Z</time>
      </trkpt>
      <trkpt lat="43.77093" lon="3.56711">
        <ele>627.900024</ele>
        <time>2013-05-25T08:50:53Z</time>
      </trkpt>
      <trkpt lat="43.77095" lon="3.56716">
        <ele>626.5</ele>
        <time>2013-05-25T08:50:54Z</time>
      </trkpt>
      <trkpt lat="43.77097" lon="3.56723">
        <ele>625.5</ele>
        <time>2013-05-25T08:50:55Z</time>
      </trkpt>
      <trkpt lat="43.771" lon="3.56728">
        <ele>624.700012</ele>
        <time>2013-05-25T08:50:56Z</time>
      </trkpt>
      <trkpt lat="43.77102" lon="3.56734">
        <ele>624.099976</ele>
        <time>2013-05-25T08:50:57Z</time>
      </trkpt>
      <trkpt lat="43.77105" lon="3.5674">
        <ele>624</ele>
        <time>2013-05-25T08:50:58Z</time>
      </trkpt>
      <trkpt lat="43.77108" lon="3.56745">
        <ele>623.900024</ele>
        <time>2013-05-25T08:50:59Z</time>
      </trkpt>
      <trkpt lat="43.77111" lon="3.5675">
        <ele>623.900024</ele>
        <time>2013-05-25T08:51:00Z</time>
      </trkpt>
      <trkpt lat="43.77114" lon="3.56755">
        <ele>622.599976</ele>
        <time>2013-05-25T08:51:01Z</time>
      </trkpt>
      <trkpt lat="43.77116" lon="3.56761">
        <ele>621.599976</ele>
        <time>2013-05-25T08:51:02Z</time>
      </trkpt>
      <trkpt lat="43.77119" lon="3.56766">
        <ele>620.900024</ele>
        <time>2013-05-25T08:51:03Z</time>
      </trkpt>
      <trkpt lat="43.77123" lon="3.5677">
        <ele>620.599976</ele>
        <time>2013-05-25T08:51:04Z</time>
      </trkpt>
      <trkpt lat="43.77127" lon="3.56773">
        <ele>620.299988</ele>
        <time>2013-05-25T08:51:05Z</time>
      </trkpt>
      <trkpt lat="43.77134" lon="3.56778">
        <ele>619.299988</ele>
        <time>2013-05-25T08:51:07Z</time>
      </trkpt>
      <trkpt lat="43.77141" lon="3.5678">
        <ele>618.099976</ele>
        <time>2013-05-25T08:51:09Z</time>
      </trkpt>
      <trkpt lat="43.77149" lon="3.56776">
        <ele>616.099976</ele>
        <time>2013-05-25T08:51:12Z</time>
      </trkpt>
      <trkpt lat="43.77156" lon="3.56772">
        <ele>614.900024</ele>
        <time>2013-05-25T08:51:14Z</time>
      </trkpt>
      <trkpt lat="43.77163" lon="3.56768">
        <ele>613.700012</ele>
        <time>2013-05-25T08:51:16Z</time>
      </trkpt>
      <trkpt lat="43.7717" lon="3.56767">
        <ele>612.5</ele>
        <time>2013-05-25T08:51:18Z</time>
      </trkpt>
      <trkpt lat="43.77178" lon="3.56767">
        <ele>611.700012</ele>
        <time>2013-05-25T08:51:20Z</time>
      </trkpt>
      <trkpt lat="43.77185" lon="3.56768">
        <ele>611.099976</ele>
        <time>2013-05-25T08:51:22Z</time>
      </trkpt>
      <trkpt lat="43.77193" lon="3.5677">
        <ele>609.799988</ele>
        <time>2013-05-25T08:51:24Z</time>
      </trkpt>
      <trkpt lat="43.772" lon="3.56773">
        <ele>608.5</ele>
        <time>2013-05-25T08:51:26Z</time>
      </trkpt>
      <trkpt lat="43.77206" lon="3.56776">
        <ele>607.200012</ele>
        <time>2013-05-25T08:51:28Z</time>
      </trkpt>
      <trkpt lat="43.77213" lon="3.5678">
        <ele>606.299988</ele>
        <time>2013-05-25T08:51:30Z</time>
      </trkpt>
      <trkpt lat="43.77219" lon="3.56785">
        <ele>605.799988</ele>
        <time>2013-05-25T08:51:32Z</time>
      </trkpt>
      <trkpt lat="43.77225" lon="3.56791">
        <ele>604.200012</ele>
        <time>2013-05-25T08:51:34Z</time>
      </trkpt>
      <trkpt lat="43.77232" lon="3.56797">
        <ele>602.299988</ele>
        <time>2013-05-25T08:51:36Z</time>
      </trkpt>
      <trkpt lat="43.77238" lon="3.56804">
        <ele>600.599976</ele>
        <time>2013-05-25T08:51:38Z</time>
      </trkpt>
      <trkpt lat="43.77244" lon="3.56811">
        <ele>597.900024</ele>
        <time>2013-05-25T08:51:40Z</time>
      </trkpt>
      <trkpt lat="43.7725" lon="3.56819">
        <ele>595.799988</ele>
        <time>2013-05-25T08:51:42Z</time>
      </trkpt>
      <trkpt lat="43.77253" lon="3.56824">
        <ele>595</ele>
        <time>2013-05-25T08:51:43Z</time>
      </trkpt>
      <trkpt lat="43.77261" lon="3.56836">
        <ele>590</ele>
        <time>2013-05-25T08:51:46Z</time>
      </trkpt>
      <trkpt lat="43.77267" lon="3.56844">
        <ele>587.599976</ele>
        <time>2013-05-25T08:51:48Z</time>
      </trkpt>
      <trkpt lat="43.77272" lon="3.56851">
        <ele>585.900024</ele>
        <time>2013-05-25T08:51:50Z</time>
      </trkpt>
      <trkpt lat="43.77276" lon="3.56858">
        <ele>584.700012</ele>
        <time>2013-05-25T08:51:52Z</time>
      </trkpt>
      <trkpt lat="43.77279" lon="3.56866">
        <ele>584</ele>
        <time>2013-05-25T08:51:54Z</time>
      </trkpt>
      <trkpt lat="43.77283" lon="3.56874">
        <ele>583.200012</ele>
        <time>2013-05-25T08:51:56Z</time>
      </trkpt>
      <trkpt lat="43.77286" lon="3.56883">
        <ele>583.299988</ele>
        <time>2013-05-25T08:51:58Z</time>
      </trkpt>
      <trkpt lat="43.77289" lon="3.56891">
        <ele>583.700012</ele>
        <time>2013-05-25T08:52:00Z</time>
      </trkpt>
      <trkpt lat="43.77292" lon="3.569">
        <ele>583.799988</ele>
        <time>2013-05-25T08:52:02Z</time>
      </trkpt>
      <trkpt lat="43.77295" lon="3.5691">
        <ele>583.799988</ele>
        <time>2013-05-25T08:52:04Z</time>
      </trkpt>
      <trkpt lat="43.77297" lon="3.56916">
        <ele>583.599976</ele>
        <time>2013-05-25T08:52:05Z</time>
      </trkpt>
      <trkpt lat="43.77299" lon="3.56923">
        <ele>583.5</ele>
        <time>2013-05-25T08:52:06Z</time>
      </trkpt>
      <trkpt lat="43.773" lon="3.56929">
        <ele>583.400024</ele>
        <time>2013-05-25T08:52:07Z</time>
      </trkpt>
      <trkpt lat="43.77302" lon="3.56936">
        <ele>583</ele>
        <time>2013-05-25T08:52:08Z</time>
      </trkpt>
      <trkpt lat="43.77304" lon="3.56944">
        <ele>582.700012</ele>
        <time>2013-05-25T08:52:09Z</time>
      </trkpt>
      <trkpt lat="43.77307" lon="3.56951">
        <ele>582.5</ele>
        <time>2013-05-25T08:52:10Z</time>
      </trkpt>
      <trkpt lat="43.77309" lon="3.56959">
        <ele>581.900024</ele>
        <time>2013-05-25T08:52:11Z</time>
      </trkpt>
      <trkpt lat="43.77311" lon="3.56966">
        <ele>581.5</ele>
        <time>2013-05-25T08:52:12Z</time>
      </trkpt>
      <trkpt lat="43.77313" lon="3.56975">
        <ele>581.099976</ele>
        <time>2013-05-25T08:52:13Z</time>
      </trkpt>
      <trkpt lat="43.77315" lon="3.56984">
        <ele>579.5</ele>
        <time>2013-05-25T08:52:14Z</time>
      </trkpt>
      <trkpt lat="43.77318" lon="3.56993">
        <ele>578.299988</ele>
        <time>2013-05-25T08:52:15Z</time>
      </trkpt>
      <trkpt lat="43.77319" lon="3.57001">
        <ele>577.400024</ele>
        <time>2013-05-25T08:52:16Z</time>
      </trkpt>
      <trkpt lat="43.77321" lon="3.57009">
        <ele>576.099976</ele>
        <time>2013-05-25T08:52:17Z</time>
      </trkpt>
      <trkpt lat="43.77323" lon="3.57015">
        <ele>575.099976</ele>
        <time>2013-05-25T08:52:18Z</time>
      </trkpt>
      <trkpt lat="43.77325" lon="3.57022">
        <ele>574.400024</ele>
        <time>2013-05-25T08:52:19Z</time>
      </trkpt>
      <trkpt lat="43.77327" lon="3.57029">
        <ele>573.799988</ele>
        <time>2013-05-25T08:52:20Z</time>
      </trkpt>
      <trkpt lat="43.7733" lon="3.57036">
        <ele>572.5</ele>
        <time>2013-05-25T08:52:21Z</time>
      </trkpt>
      <trkpt lat="43.77333" lon="3.57041">
        <ele>571.5</ele>
        <time>2013-05-25T08:52:22Z</time>
      </trkpt>
      <trkpt lat="43.77338" lon="3.57046">
        <ele>570.799988</ele>
        <time>2013-05-25T08:52:23Z</time>
      </trkpt>
      <trkpt lat="43.77342" lon="3.57049">
        <ele>569.799988</ele>
        <time>2013-05-25T08:52:24Z</time>
      </trkpt>
      <trkpt lat="43.7735" lon="3.57056">
        <ele>568.400024</ele>
        <time>2013-05-25T08:52:26Z</time>
      </trkpt>
      <trkpt lat="43.77356" lon="3.57064">
        <ele>566.599976</ele>
        <time>2013-05-25T08:52:28Z</time>
      </trkpt>
      <trkpt lat="43.7736" lon="3.57068">
        <ele>566.099976</ele>
        <time>2013-05-25T08:52:29Z</time>
      </trkpt>
      <trkpt lat="43.77364" lon="3.57072">
        <ele>564.799988</ele>
        <time>2013-05-25T08:52:30Z</time>
      </trkpt>
      <trkpt lat="43.77368" lon="3.57076">
        <ele>563.900024</ele>
        <time>2013-05-25T08:52:31Z</time>
      </trkpt>
      <trkpt lat="43.77372" lon="3.5708">
        <ele>563.200012</ele>
        <time>2013-05-25T08:52:32Z</time>
      </trkpt>
      <trkpt lat="43.77377" lon="3.57083">
        <ele>562.299988</ele>
        <time>2013-05-25T08:52:33Z</time>
      </trkpt>
      <trkpt lat="43.77382" lon="3.57086">
        <ele>561.599976</ele>
        <time>2013-05-25T08:52:34Z</time>
      </trkpt>
      <trkpt lat="43.77387" lon="3.57088">
        <ele>561.099976</ele>
        <time>2013-05-25T08:52:35Z</time>
      </trkpt>
      <trkpt lat="43.77392" lon="3.57091">
        <ele>560.900024</ele>
        <time>2013-05-25T08:52:36Z</time>
      </trkpt>
      <trkpt lat="43.77397" lon="3.57094">
        <ele>560.799988</ele>
        <time>2013-05-25T08:52:37Z</time>
      </trkpt>
      <trkpt lat="43.77404" lon="3.57097">
        <ele>560.599976</ele>
        <time>2013-05-25T08:52:39Z</time>
      </trkpt>
      <trkpt lat="43.77408" lon="3.57099">
        <ele>560.299988</ele>
        <time>2013-05-25T08:52:40Z</time>
      </trkpt>
      <trkpt lat="43.77412" lon="3.57101">
        <ele>560</ele>
        <time>2013-05-25T08:52:41Z</time>
      </trkpt>
      <trkpt lat="43.77417" lon="3.57105">
        <ele>559.799988</ele>
        <time>2013-05-25T08:52:42Z</time>
      </trkpt>
      <trkpt lat="43.77421" lon="3.57109">
        <ele>558.900024</ele>
        <time>2013-05-25T08:52:43Z</time>
      </trkpt>
      <trkpt lat="43.77425" lon="3.57114">
        <ele>558.299988</ele>
        <time>2013-05-25T08:52:44Z</time>
      </trkpt>
      <trkpt lat="43.77429" lon="3.5712">
        <ele>557.799988</ele>
        <time>2013-05-25T08:52:45Z</time>
      </trkpt>
      <trkpt lat="43.77434" lon="3.57126">
        <ele>557.5</ele>
        <time>2013-05-25T08:52:46Z</time>
      </trkpt>
      <trkpt lat="43.77439" lon="3.57132">
        <ele>557.200012</ele>
        <time>2013-05-25T08:52:47Z</time>
      </trkpt>
      <trkpt lat="43.77444" lon="3.57138">
        <ele>557.099976</ele>
        <time>2013-05-25T08:52:48Z</time>
      </trkpt>
      <trkpt lat="43.77449" lon="3.57145">
        <ele>556.099976</ele>
        <time>2013-05-25T08:52:50Z</time>
      </trkpt>
      <trkpt lat="43.77458" lon="3.57146">
        <ele>553.799988</ele>
        <time>2013-05-25T08:53:01Z</time>
      </trkpt>
      <trkpt lat="43.77466" lon="3.57142">
        <ele>551.099976</ele>
        <time>2013-05-25T08:54:04Z</time>
      </trkpt>
      <trkpt lat="43.77466" lon="3.57142">
        <ele>551.599976</ele>
        <time>2013-05-25T08:54:05Z</time>
      </trkpt>
      <trkpt lat="43.7746" lon="3.57123">
        <ele>553.200012</ele>
        <time>2013-05-25T08:54:34Z</time>
      </trkpt>
      <trkpt lat="43.77457" lon="3.57113">
        <ele>552.5</ele>
        <time>2013-05-25T08:54:38Z</time>
      </trkpt>
      <trkpt lat="43.77455" lon="3.57103">
        <ele>552.900024</ele>
        <time>2013-05-25T08:54:41Z</time>
      </trkpt>
      <trkpt lat="43.77454" lon="3.57095">
        <ele>552.799988</ele>
        <time>2013-05-25T08:54:44Z</time>
      </trkpt>
      <trkpt lat="43.7745" lon="3.57086">
        <ele>551.5</ele>
        <time>2013-05-25T08:54:47Z</time>
      </trkpt>
      <trkpt lat="43.77447" lon="3.57075">
        <ele>550.799988</ele>
        <time>2013-05-25T08:54:50Z</time>
      </trkpt>
      <trkpt lat="43.77447" lon="3.57063">
        <ele>550.5</ele>
        <time>2013-05-25T08:54:53Z</time>
      </trkpt>
      <trkpt lat="43.77448" lon="3.57053">
        <ele>549.299988</ele>
        <time>2013-05-25T08:54:55Z</time>
      </trkpt>
      <trkpt lat="43.77451" lon="3.57042">
        <ele>548.900024</ele>
        <time>2013-05-25T08:54:59Z</time>
      </trkpt>
      <trkpt lat="43.77454" lon="3.57031">
        <ele>549.700012</ele>
        <time>2013-05-25T08:55:38Z</time>
      </trkpt>
      <trkpt lat="43.77455" lon="3.5703">
        <ele>549.700012</ele>
        <time>2013-05-25T08:55:39Z</time>
      </trkpt>
      <trkpt lat="43.77471" lon="3.57033">
        <ele>550.599976</ele>
        <time>2013-05-25T08:55:54Z</time>
      </trkpt>
      <trkpt lat="43.77479" lon="3.57035">
        <ele>552.400024</ele>
        <time>2013-05-25T08:56:02Z</time>
      </trkpt>
      <trkpt lat="43.77488" lon="3.57037">
        <ele>552.700012</ele>
        <time>2013-05-25T08:56:07Z</time>
      </trkpt>
      <trkpt lat="43.77495" lon="3.57039">
        <ele>554.099976</ele>
        <time>2013-05-25T08:56:22Z</time>
      </trkpt>
      <trkpt lat="43.77501" lon="3.57046">
        <ele>554.299988</ele>
        <time>2013-05-25T08:56:26Z</time>
      </trkpt>
      <trkpt lat="43.77507" lon="3.57052">
        <ele>555.099976</ele>
        <time>2013-05-25T08:56:29Z</time>
      </trkpt>
      <trkpt lat="43.77514" lon="3.57059">
        <ele>555.599976</ele>
        <time>2013-05-25T08:56:32Z</time>
      </trkpt>
      <trkpt lat="43.7752" lon="3.57065">
        <ele>555.299988</ele>
        <time>2013-05-25T08:56:34Z</time>
      </trkpt>
      <trkpt lat="43.77527" lon="3.5707">
        <ele>555.099976</ele>
        <time>2013-05-25T08:56:37Z</time>
      </trkpt>
      <trkpt lat="43.77532" lon="3.57076">
        <ele>555.200012</ele>
        <time>2013-05-25T08:56:39Z</time>
      </trkpt>
      <trkpt lat="43.77535" lon="3.57079">
        <ele>555.200012</ele>
        <time>2013-05-25T08:56:40Z</time>
      </trkpt>
      <trkpt lat="43.77544" lon="3.57087">
        <ele>555.599976</ele>
        <time>2013-05-25T08:56:43Z</time>
      </trkpt>
      <trkpt lat="43.77551" lon="3.5709">
        <ele>556.299988</ele>
        <time>2013-05-25T08:56:46Z</time>
      </trkpt>
      <trkpt lat="43.77559" lon="3.5709">
        <ele>532</ele>
        <time>2013-05-25T08:57:22Z</time>
      </trkpt>
      <trkpt lat="43.77563" lon="3.57101">
        <ele>532.200012</ele>
        <time>2013-05-25T09:03:14Z</time>
      </trkpt>
      <trkpt lat="43.77563" lon="3.57102">
        <ele>532.200012</ele>
        <time>2013-05-25T09:03:15Z</time>
      </trkpt>
      <trkpt lat="43.77556" lon="3.57108">
        <ele>531.799988</ele>
        <time>2013-05-25T09:09:54Z</time>
      </trkpt>
      <trkpt lat="43.77562" lon="3.57098">
        <ele>533.200012</ele>
        <time>2013-05-25T09:12:28Z</time>
      </trkpt>
      <trkpt lat="43.77571" lon="3.57102">
        <ele>534.700012</ele>
        <time>2013-05-25T09:20:37Z</time>
      </trkpt>
      <trkpt lat="43.77584" lon="3.57111">
        <ele>532.900024</ele>
        <time>2013-05-25T09:20:44Z</time>
      </trkpt>
      <trkpt lat="43.7759" lon="3.57103">
        <ele>523.200012</ele>
        <time>2013-05-25T09:21:08Z</time>
      </trkpt>
      <trkpt lat="43.77598" lon="3.57107">
        <ele>523.900024</ele>
        <time>2013-05-25T09:21:19Z</time>
      </trkpt>
      <trkpt lat="43.77604" lon="3.57114">
        <ele>515.700012</ele>
        <time>2013-05-25T09:21:25Z</time>
      </trkpt>
      <trkpt lat="43.77611" lon="3.57119">
        <ele>516.900024</ele>
        <time>2013-05-25T09:21:30Z</time>
      </trkpt>
      <trkpt lat="43.77619" lon="3.57119">
        <ele>514.299988</ele>
        <time>2013-05-25T09:21:33Z</time>
      </trkpt>
      <trkpt lat="43.77627" lon="3.57121">
        <ele>511.100006</ele>
        <time>2013-05-25T09:21:37Z</time>
      </trkpt>
      <trkpt lat="43.77628" lon="3.57122">
        <ele>510.600006</ele>
        <time>2013-05-25T09:21:38Z</time>
      </trkpt>
      <trkpt lat="43.77641" lon="3.57127">
        <ele>510.399994</ele>
        <time>2013-05-25T09:21:44Z</time>
      </trkpt>
      <trkpt lat="43.77649" lon="3.5713">
        <ele>509.799988</ele>
        <time>2013-05-25T09:21:49Z</time>
      </trkpt>
      <trkpt lat="43.77657" lon="3.57133">
        <ele>508.799988</ele>
        <time>2013-05-25T09:21:56Z</time>
      </trkpt>
      <trkpt lat="43.77665" lon="3.57137">
        <ele>507.700012</ele>
        <time>2013-05-25T09:22:08Z</time>
      </trkpt>
      <trkpt lat="43.77672" lon="3.57145">
        <ele>506.200012</ele>
        <time>2013-05-25T09:22:16Z</time>
      </trkpt>
      <trkpt lat="43.77679" lon="3.57153">
        <ele>502.899994</ele>
        <time>2013-05-25T09:22:32Z</time>
      </trkpt>
      <trkpt lat="43.77685" lon="3.57159">
        <ele>498.600006</ele>
        <time>2013-05-25T09:22:44Z</time>
      </trkpt>
      <trkpt lat="43.77686" lon="3.57161">
        <ele>498.299988</ele>
        <time>2013-05-25T09:22:45Z</time>
      </trkpt>
      <trkpt lat="43.77694" lon="3.57174">
        <ele>498.200012</ele>
        <time>2013-05-25T09:22:50Z</time>
      </trkpt>
      <trkpt lat="43.77701" lon="3.57181">
        <ele>498.799988</ele>
        <time>2013-05-25T09:22:54Z</time>
      </trkpt>
      <trkpt lat="43.77706" lon="3.57188">
        <ele>497</ele>
        <time>2013-05-25T09:22:57Z</time>
      </trkpt>
      <trkpt lat="43.77713" lon="3.57192">
        <ele>494</ele>
        <time>2013-05-25T09:23:00Z</time>
      </trkpt>
      <trkpt lat="43.77721" lon="3.57196">
        <ele>491.600006</ele>
        <time>2013-05-25T09:23:04Z</time>
      </trkpt>
      <trkpt lat="43.77728" lon="3.57198">
        <ele>491.5</ele>
        <time>2013-05-25T09:23:07Z</time>
      </trkpt>
      <trkpt lat="43.77737" lon="3.57196">
        <ele>490.799988</ele>
        <time>2013-05-25T09:23:11Z</time>
      </trkpt>
      <trkpt lat="43.77745" lon="3.57194">
        <ele>489.799988</ele>
        <time>2013-05-25T09:23:14Z</time>
      </trkpt>
      <trkpt lat="43.77752" lon="3.57191">
        <ele>489</ele>
        <time>2013-05-25T09:23:16Z</time>
      </trkpt>
      <trkpt lat="43.77759" lon="3.5719">
        <ele>487.899994</ele>
        <time>2013-05-25T09:23:18Z</time>
      </trkpt>
      <trkpt lat="43.77766" lon="3.57188">
        <ele>486.899994</ele>
        <time>2013-05-25T09:23:20Z</time>
      </trkpt>
      <trkpt lat="43.77775" lon="3.57186">
        <ele>486.399994</ele>
        <time>2013-05-25T09:23:23Z</time>
      </trkpt>
      <trkpt lat="43.77783" lon="3.57184">
        <ele>485.299988</ele>
        <time>2013-05-25T09:23:27Z</time>
      </trkpt>
      <trkpt lat="43.77792" lon="3.5718">
        <ele>487.700012</ele>
        <time>2013-05-25T09:23:36Z</time>
      </trkpt>
      <trkpt lat="43.77799" lon="3.57181">
        <ele>487</ele>
        <time>2013-05-25T09:23:39Z</time>
      </trkpt>
      <trkpt lat="43.77808" lon="3.5718">
        <ele>487.399994</ele>
        <time>2013-05-25T09:23:43Z</time>
      </trkpt>
      <trkpt lat="43.77814" lon="3.57181">
        <ele>486.200012</ele>
        <time>2013-05-25T09:23:46Z</time>
      </trkpt>
      <trkpt lat="43.77817" lon="3.57181">
        <ele>485.5</ele>
        <time>2013-05-25T09:23:47Z</time>
      </trkpt>
      <trkpt lat="43.77831" lon="3.57179">
        <ele>485.399994</ele>
        <time>2013-05-25T09:24:16Z</time>
      </trkpt>
      <trkpt lat="43.7784" lon="3.57177">
        <ele>483.899994</ele>
        <time>2013-05-25T09:24:22Z</time>
      </trkpt>
      <trkpt lat="43.77839" lon="3.57166">
        <ele>481.200012</ele>
        <time>2013-05-25T09:24:26Z</time>
      </trkpt>
      <trkpt lat="43.77839" lon="3.57154">
        <ele>481</ele>
        <time>2013-05-25T09:24:30Z</time>
      </trkpt>
      <trkpt lat="43.77847" lon="3.57155">
        <ele>477.600006</ele>
        <time>2013-05-25T09:24:41Z</time>
      </trkpt>
      <trkpt lat="43.77852" lon="3.57163">
        <ele>476.100006</ele>
        <time>2013-05-25T09:24:44Z</time>
      </trkpt>
      <trkpt lat="43.77857" lon="3.57169">
        <ele>476.100006</ele>
        <time>2013-05-25T09:24:46Z</time>
      </trkpt>
      <trkpt lat="43.77862" lon="3.57174">
        <ele>476</ele>
        <time>2013-05-25T09:24:48Z</time>
      </trkpt>
      <trkpt lat="43.77865" lon="3.57176">
        <ele>475.799988</ele>
        <time>2013-05-25T09:24:49Z</time>
      </trkpt>
      <trkpt lat="43.77874" lon="3.57184">
        <ele>474.899994</ele>
        <time>2013-05-25T09:24:53Z</time>
      </trkpt>
      <trkpt lat="43.7788" lon="3.5719">
        <ele>473.200012</ele>
        <time>2013-05-25T09:24:56Z</time>
      </trkpt>
      <trkpt lat="43.77887" lon="3.57197">
        <ele>472.299988</ele>
        <time>2013-05-25T09:24:59Z</time>
      </trkpt>
      <trkpt lat="43.77894" lon="3.57202">
        <ele>469.200012</ele>
        <time>2013-05-25T09:25:02Z</time>
      </trkpt>
      <trkpt lat="43.779" lon="3.5721">
        <ele>468.100006</ele>
        <time>2013-05-25T09:25:05Z</time>
      </trkpt>
      <trkpt lat="43.77906" lon="3.57203">
        <ele>464.5</ele>
        <time>2013-05-25T09:25:11Z</time>
      </trkpt>
      <trkpt lat="43.77912" lon="3.57208">
        <ele>461.299988</ele>
        <time>2013-05-25T09:25:18Z</time>
      </trkpt>
      <trkpt lat="43.77919" lon="3.57217">
        <ele>459.299988</ele>
        <time>2013-05-25T09:25:23Z</time>
      </trkpt>
      <trkpt lat="43.77927" lon="3.57219">
        <ele>456.700012</ele>
        <time>2013-05-25T09:25:28Z</time>
      </trkpt>
      <trkpt lat="43.77932" lon="3.57221">
        <ele>454.899994</ele>
        <time>2013-05-25T09:25:30Z</time>
      </trkpt>
      <trkpt lat="43.77939" lon="3.57221">
        <ele>453.899994</ele>
        <time>2013-05-25T09:25:32Z</time>
      </trkpt>
      <trkpt lat="43.77947" lon="3.57218">
        <ele>453.399994</ele>
        <time>2013-05-25T09:25:34Z</time>
      </trkpt>
      <trkpt lat="43.77955" lon="3.57213">
        <ele>450.299988</ele>
        <time>2013-05-25T09:25:41Z</time>
      </trkpt>
      <trkpt lat="43.77954" lon="3.57202">
        <ele>451.299988</ele>
        <time>2013-05-25T09:26:39Z</time>
      </trkpt>
      <trkpt lat="43.77953" lon="3.57201">
        <ele>451</ele>
        <time>2013-05-25T09:26:40Z</time>
      </trkpt>
      <trkpt lat="43.77943" lon="3.57184">
        <ele>450.700012</ele>
        <time>2013-05-25T09:27:10Z</time>
      </trkpt>
      <trkpt lat="43.77934" lon="3.57183">
        <ele>450.700012</ele>
        <time>2013-05-25T09:27:33Z</time>
      </trkpt>
      <trkpt lat="43.77934" lon="3.57171">
        <ele>451.299988</ele>
        <time>2013-05-25T09:27:48Z</time>
      </trkpt>
      <trkpt lat="43.77933" lon="3.57169">
        <ele>451.100006</ele>
        <time>2013-05-25T09:27:49Z</time>
      </trkpt>
      <trkpt lat="43.77928" lon="3.57151">
        <ele>450.600006</ele>
        <time>2013-05-25T09:27:56Z</time>
      </trkpt>
      <trkpt lat="43.77926" lon="3.5714">
        <ele>450.600006</ele>
        <time>2013-05-25T09:28:00Z</time>
      </trkpt>
      <trkpt lat="43.77924" lon="3.57128">
        <ele>451.600006</ele>
        <time>2013-05-25T09:28:04Z</time>
      </trkpt>
      <trkpt lat="43.7792" lon="3.5712">
        <ele>451.899994</ele>
        <time>2013-05-25T09:28:07Z</time>
      </trkpt>
      <trkpt lat="43.77916" lon="3.57112">
        <ele>452.299988</ele>
        <time>2013-05-25T09:28:10Z</time>
      </trkpt>
      <trkpt lat="43.77912" lon="3.57104">
        <ele>452</ele>
        <time>2013-05-25T09:28:13Z</time>
      </trkpt>
      <trkpt lat="43.77906" lon="3.57096">
        <ele>452</ele>
        <time>2013-05-25T09:28:16Z</time>
      </trkpt>
      <trkpt lat="43.779" lon="3.57089">
        <ele>451.899994</ele>
        <time>2013-05-25T09:28:19Z</time>
      </trkpt>
      <trkpt lat="43.77895" lon="3.57081">
        <ele>451.899994</ele>
        <time>2013-05-25T09:28:22Z</time>
      </trkpt>
      <trkpt lat="43.7789" lon="3.57074">
        <ele>452.200012</ele>
        <time>2013-05-25T09:28:25Z</time>
      </trkpt>
      <trkpt lat="43.77885" lon="3.57065">
        <ele>453.899994</ele>
        <time>2013-05-25T09:28:30Z</time>
      </trkpt>
      <trkpt lat="43.7788" lon="3.57058">
        <ele>454.600006</ele>
        <time>2013-05-25T09:28:33Z</time>
      </trkpt>
      <trkpt lat="43.77875" lon="3.57052">
        <ele>454.899994</ele>
        <time>2013-05-25T09:28:36Z</time>
      </trkpt>
      <trkpt lat="43.77867" lon="3.57048">
        <ele>455.200012</ele>
        <time>2013-05-25T09:28:40Z</time>
      </trkpt>
      <trkpt lat="43.7786" lon="3.57044">
        <ele>454.200012</ele>
        <time>2013-05-25T09:28:44Z</time>
      </trkpt>
      <trkpt lat="43.77854" lon="3.57036">
        <ele>454.399994</ele>
        <time>2013-05-25T09:28:49Z</time>
      </trkpt>
      <trkpt lat="43.77853" lon="3.57034">
        <ele>454.399994</ele>
        <time>2013-05-25T09:28:50Z</time>
      </trkpt>
      <trkpt lat="43.77846" lon="3.57016">
        <ele>455.399994</ele>
        <time>2013-05-25T09:29:04Z</time>
      </trkpt>
      <trkpt lat="43.77841" lon="3.57006">
        <ele>456.799988</ele>
        <time>2013-05-25T09:29:11Z</time>
      </trkpt>
      <trkpt lat="43.7784" lon="3.56994">
        <ele>456.700012</ele>
        <time>2013-05-25T09:29:28Z</time>
      </trkpt>
      <trkpt lat="43.77838" lon="3.56982">
        <ele>457.100006</ele>
        <time>2013-05-25T09:29:41Z</time>
      </trkpt>
      <trkpt lat="43.77834" lon="3.56972">
        <ele>456.899994</ele>
        <time>2013-05-25T09:29:52Z</time>
      </trkpt>
      <trkpt lat="43.77833" lon="3.56971">
        <ele>456.799988</ele>
        <time>2013-05-25T09:29:53Z</time>
      </trkpt>
      <trkpt lat="43.77822" lon="3.56957">
        <ele>458</ele>
        <time>2013-05-25T09:30:01Z</time>
      </trkpt>
      <trkpt lat="43.77816" lon="3.56952">
        <ele>459.299988</ele>
        <time>2013-05-25T09:30:05Z</time>
      </trkpt>
      <trkpt lat="43.77808" lon="3.56947">
        <ele>459.799988</ele>
        <time>2013-05-25T09:30:09Z</time>
      </trkpt>
      <trkpt lat="43.77802" lon="3.56944">
        <ele>459.100006</ele>
        <time>2013-05-25T09:30:12Z</time>
      </trkpt>
      <trkpt lat="43.77795" lon="3.56938">
        <ele>459.299988</ele>
        <time>2013-05-25T09:30:16Z</time>
      </trkpt>
      <trkpt lat="43.77788" lon="3.5693">
        <ele>457.899994</ele>
        <time>2013-05-25T09:30:25Z</time>
      </trkpt>
      <trkpt lat="43.77781" lon="3.56924">
        <ele>458</ele>
        <time>2013-05-25T09:30:35Z</time>
      </trkpt>
      <trkpt lat="43.77773" lon="3.56922">
        <ele>457.700012</ele>
        <time>2013-05-25T09:30:41Z</time>
      </trkpt>
      <trkpt lat="43.77765" lon="3.5692">
        <ele>457.399994</ele>
        <time>2013-05-25T09:30:48Z</time>
      </trkpt>
      <trkpt lat="43.77757" lon="3.56918">
        <ele>458.5</ele>
        <time>2013-05-25T09:30:54Z</time>
      </trkpt>
      <trkpt lat="43.77755" lon="3.56918">
        <ele>458.700012</ele>
        <time>2013-05-25T09:30:55Z</time>
      </trkpt>
      <trkpt lat="43.77743" lon="3.56908">
        <ele>458.5</ele>
        <time>2013-05-25T09:31:02Z</time>
      </trkpt>
      <trkpt lat="43.77738" lon="3.56902">
        <ele>458.200012</ele>
        <time>2013-05-25T09:31:05Z</time>
      </trkpt>
      <trkpt lat="43.77733" lon="3.56895">
        <ele>458.700012</ele>
        <time>2013-05-25T09:31:08Z</time>
      </trkpt>
      <trkpt lat="43.77726" lon="3.5689">
        <ele>458.600006</ele>
        <time>2013-05-25T09:31:12Z</time>
      </trkpt>
      <trkpt lat="43.77718" lon="3.56886">
        <ele>458.899994</ele>
        <time>2013-05-25T09:31:16Z</time>
      </trkpt>
      <trkpt lat="43.7771" lon="3.56882">
        <ele>460.5</ele>
        <time>2013-05-25T09:31:29Z</time>
      </trkpt>
      <trkpt lat="43.77704" lon="3.56873">
        <ele>460.899994</ele>
        <time>2013-05-25T09:31:48Z</time>
      </trkpt>
      <trkpt lat="43.77699" lon="3.56864">
        <ele>457.600006</ele>
        <time>2013-05-25T09:32:03Z</time>
      </trkpt>
      <trkpt lat="43.77698" lon="3.56864">
        <ele>457.700012</ele>
        <time>2013-05-25T09:32:04Z</time>
      </trkpt>
      <trkpt lat="43.77689" lon="3.56847">
        <ele>460.299988</ele>
        <time>2013-05-25T09:32:21Z</time>
      </trkpt>
      <trkpt lat="43.77683" lon="3.56838">
        <ele>461.399994</ele>
        <time>2013-05-25T09:32:25Z</time>
      </trkpt>
      <trkpt lat="43.77678" lon="3.56831">
        <ele>461.200012</ele>
        <time>2013-05-25T09:32:28Z</time>
      </trkpt>
      <trkpt lat="43.77672" lon="3.56826">
        <ele>461.299988</ele>
        <time>2013-05-25T09:32:31Z</time>
      </trkpt>
      <trkpt lat="43.77665" lon="3.5682">
        <ele>462.200012</ele>
        <time>2013-05-25T09:32:36Z</time>
      </trkpt>
      <trkpt lat="43.77656" lon="3.56823">
        <ele>462.700012</ele>
        <time>2013-05-25T09:32:41Z</time>
      </trkpt>
      <trkpt lat="43.77649" lon="3.56819">
        <ele>462.5</ele>
        <time>2013-05-25T09:32:46Z</time>
      </trkpt>
      <trkpt lat="43.77644" lon="3.5681">
        <ele>461.700012</ele>
        <time>2013-05-25T09:32:52Z</time>
      </trkpt>
      <trkpt lat="43.7764" lon="3.56801">
        <ele>463.600006</ele>
        <time>2013-05-25T09:32:57Z</time>
      </trkpt>
      <trkpt lat="43.77636" lon="3.56791">
        <ele>465.5</ele>
        <time>2013-05-25T09:33:02Z</time>
      </trkpt>
      <trkpt lat="43.77636" lon="3.5678">
        <ele>466.700012</ele>
        <time>2013-05-25T09:33:07Z</time>
      </trkpt>
      <trkpt lat="43.77637" lon="3.56778">
        <ele>466.600006</ele>
        <time>2013-05-25T09:33:08Z</time>
      </trkpt>
      <trkpt lat="43.7764" lon="3.56759">
        <ele>468.299988</ele>
        <time>2013-05-25T09:34:06Z</time>
      </trkpt>
      <trkpt lat="43.7764" lon="3.56749">
        <ele>468.100006</ele>
        <time>2013-05-25T09:34:09Z</time>
      </trkpt>
      <trkpt lat="43.77641" lon="3.56743">
        <ele>467.899994</ele>
        <time>2013-05-25T09:34:10Z</time>
      </trkpt>
      <trkpt lat="43.77648" lon="3.56727">
        <ele>466.700012</ele>
        <time>2013-05-25T09:34:13Z</time>
      </trkpt>
      <trkpt lat="43.77651" lon="3.56717">
        <ele>465.5</ele>
        <time>2013-05-25T09:34:15Z</time>
      </trkpt>
      <trkpt lat="43.77652" lon="3.56708">
        <ele>464.399994</ele>
        <time>2013-05-25T09:34:17Z</time>
      </trkpt>
      <trkpt lat="43.77652" lon="3.56696">
        <ele>464.200012</ele>
        <time>2013-05-25T09:34:20Z</time>
      </trkpt>
      <trkpt lat="43.77652" lon="3.56684">
        <ele>465.200012</ele>
        <time>2013-05-25T09:34:23Z</time>
      </trkpt>
      <trkpt lat="43.77653" lon="3.56676">
        <ele>466</ele>
        <time>2013-05-25T09:34:25Z</time>
      </trkpt>
      <trkpt lat="43.77654" lon="3.56667">
        <ele>466.600006</ele>
        <time>2013-05-25T09:34:27Z</time>
      </trkpt>
      <trkpt lat="43.77655" lon="3.56655">
        <ele>467.700012</ele>
        <time>2013-05-25T09:34:30Z</time>
      </trkpt>
      <trkpt lat="43.77656" lon="3.56644">
        <ele>468.600006</ele>
        <time>2013-05-25T09:34:33Z</time>
      </trkpt>
      <trkpt lat="43.77656" lon="3.56632">
        <ele>468.600006</ele>
        <time>2013-05-25T09:34:36Z</time>
      </trkpt>
      <trkpt lat="43.77658" lon="3.56623">
        <ele>468.799988</ele>
        <time>2013-05-25T09:34:39Z</time>
      </trkpt>
      <trkpt lat="43.77664" lon="3.56613">
        <ele>470.100006</ele>
        <time>2013-05-25T09:34:43Z</time>
      </trkpt>
      <trkpt lat="43.7767" lon="3.56607">
        <ele>470</ele>
        <time>2013-05-25T09:34:46Z</time>
      </trkpt>
      <trkpt lat="43.77676" lon="3.566">
        <ele>469.600006</ele>
        <time>2013-05-25T09:34:49Z</time>
      </trkpt>
      <trkpt lat="43.7768" lon="3.56593">
        <ele>470.200012</ele>
        <time>2013-05-25T09:34:52Z</time>
      </trkpt>
      <trkpt lat="43.77683" lon="3.56585">
        <ele>471</ele>
        <time>2013-05-25T09:34:55Z</time>
      </trkpt>
      <trkpt lat="43.77686" lon="3.56573">
        <ele>471.799988</ele>
        <time>2013-05-25T09:34:59Z</time>
      </trkpt>
      <trkpt lat="43.77685" lon="3.56561">
        <ele>472.700012</ele>
        <time>2013-05-25T09:35:03Z</time>
      </trkpt>
      <trkpt lat="43.77682" lon="3.5655">
        <ele>472.600006</ele>
        <time>2013-05-25T09:35:06Z</time>
      </trkpt>
      <trkpt lat="43.7768" lon="3.56541">
        <ele>472.600006</ele>
        <time>2013-05-25T09:35:09Z</time>
      </trkpt>
      <trkpt lat="43.77678" lon="3.56529">
        <ele>472.5</ele>
        <time>2013-05-25T09:35:13Z</time>
      </trkpt>
      <trkpt lat="43.77678" lon="3.56525">
        <ele>472.600006</ele>
        <time>2013-05-25T09:35:14Z</time>
      </trkpt>
      <trkpt lat="43.77674" lon="3.56509">
        <ele>472.899994</ele>
        <time>2013-05-25T09:35:19Z</time>
      </trkpt>
      <trkpt lat="43.77671" lon="3.56502">
        <ele>471.600006</ele>
        <time>2013-05-25T09:35:21Z</time>
      </trkpt>
      <trkpt lat="43.77668" lon="3.56495">
        <ele>471.100006</ele>
        <time>2013-05-25T09:35:23Z</time>
      </trkpt>
      <trkpt lat="43.77662" lon="3.56485">
        <ele>470.700012</ele>
        <time>2013-05-25T09:35:26Z</time>
      </trkpt>
      <trkpt lat="43.77658" lon="3.56479">
        <ele>470.299988</ele>
        <time>2013-05-25T09:35:28Z</time>
      </trkpt>
      <trkpt lat="43.77652" lon="3.56474">
        <ele>470.799988</ele>
        <time>2013-05-25T09:35:30Z</time>
      </trkpt>
      <trkpt lat="43.77647" lon="3.56469">
        <ele>470.600006</ele>
        <time>2013-05-25T09:35:32Z</time>
      </trkpt>
      <trkpt lat="43.77642" lon="3.56464">
        <ele>470.200012</ele>
        <time>2013-05-25T09:35:34Z</time>
      </trkpt>
      <trkpt lat="43.77636" lon="3.56455">
        <ele>469.100006</ele>
        <time>2013-05-25T09:35:37Z</time>
      </trkpt>
      <trkpt lat="43.77631" lon="3.56446">
        <ele>468.399994</ele>
        <time>2013-05-25T09:35:40Z</time>
      </trkpt>
      <trkpt lat="43.77627" lon="3.56436">
        <ele>468.700012</ele>
        <time>2013-05-25T09:35:43Z</time>
      </trkpt>
      <trkpt lat="43.77622" lon="3.56428">
        <ele>469.5</ele>
        <time>2013-05-25T09:35:46Z</time>
      </trkpt>
      <trkpt lat="43.77617" lon="3.5642">
        <ele>470.600006</ele>
        <time>2013-05-25T09:35:49Z</time>
      </trkpt>
      <trkpt lat="43.7761" lon="3.56414">
        <ele>472.600006</ele>
        <time>2013-05-25T09:35:53Z</time>
      </trkpt>
      <trkpt lat="43.77601" lon="3.5641">
        <ele>473.799988</ele>
        <time>2013-05-25T09:35:57Z</time>
      </trkpt>
      <trkpt lat="43.77593" lon="3.56407">
        <ele>473.399994</ele>
        <time>2013-05-25T09:36:01Z</time>
      </trkpt>
      <trkpt lat="43.77584" lon="3.56405">
        <ele>472.200012</ele>
        <time>2013-05-25T09:36:05Z</time>
      </trkpt>
      <trkpt lat="43.77576" lon="3.56405">
        <ele>471.299988</ele>
        <time>2013-05-25T09:36:09Z</time>
      </trkpt>
      <trkpt lat="43.77567" lon="3.56406">
        <ele>473.299988</ele>
        <time>2013-05-25T09:36:14Z</time>
      </trkpt>
      <trkpt lat="43.77566" lon="3.56406">
        <ele>474.100006</ele>
        <time>2013-05-25T09:36:15Z</time>
      </trkpt>
      <trkpt lat="43.77551" lon="3.56412">
        <ele>478</ele>
        <time>2013-05-25T09:36:23Z</time>
      </trkpt>
      <trkpt lat="43.77543" lon="3.56415">
        <ele>477.899994</ele>
        <time>2013-05-25T09:36:27Z</time>
      </trkpt>
      <trkpt lat="43.77536" lon="3.56416">
        <ele>477.600006</ele>
        <time>2013-05-25T09:36:30Z</time>
      </trkpt>
      <trkpt lat="43.77527" lon="3.56414">
        <ele>478</ele>
        <time>2013-05-25T09:36:34Z</time>
      </trkpt>
      <trkpt lat="43.77519" lon="3.56409">
        <ele>479.100006</ele>
        <time>2013-05-25T09:36:38Z</time>
      </trkpt>
      <trkpt lat="43.77511" lon="3.56404">
        <ele>477.5</ele>
        <time>2013-05-25T09:36:42Z</time>
      </trkpt>
      <trkpt lat="43.77505" lon="3.56401">
        <ele>476.799988</ele>
        <time>2013-05-25T09:36:45Z</time>
      </trkpt>
      <trkpt lat="43.77498" lon="3.56396">
        <ele>477.299988</ele>
        <time>2013-05-25T09:36:48Z</time>
      </trkpt>
      <trkpt lat="43.77494" lon="3.56389">
        <ele>478.299988</ele>
        <time>2013-05-25T09:36:51Z</time>
      </trkpt>
      <trkpt lat="43.77491" lon="3.56377">
        <ele>479.399994</ele>
        <time>2013-05-25T09:36:55Z</time>
      </trkpt>
      <trkpt lat="43.77493" lon="3.56368">
        <ele>479.299988</ele>
        <time>2013-05-25T09:36:58Z</time>
      </trkpt>
      <trkpt lat="43.77496" lon="3.56359">
        <ele>479.600006</ele>
        <time>2013-05-25T09:37:01Z</time>
      </trkpt>
      <trkpt lat="43.77499" lon="3.56347">
        <ele>478.899994</ele>
        <time>2013-05-25T09:37:05Z</time>
      </trkpt>
      <trkpt lat="43.775" lon="3.56338">
        <ele>480</ele>
        <time>2013-05-25T09:37:08Z</time>
      </trkpt>
      <trkpt lat="43.77502" lon="3.56329">
        <ele>482.200012</ele>
        <time>2013-05-25T09:37:11Z</time>
      </trkpt>
      <trkpt lat="43.77505" lon="3.56319">
        <ele>484.100006</ele>
        <time>2013-05-25T09:37:14Z</time>
      </trkpt>
      <trkpt lat="43.77507" lon="3.5631">
        <ele>482.600006</ele>
        <time>2013-05-25T09:37:17Z</time>
      </trkpt>
      <trkpt lat="43.77508" lon="3.56307">
        <ele>482.5</ele>
        <time>2013-05-25T09:37:18Z</time>
      </trkpt>
      <trkpt lat="43.77514" lon="3.5629">
        <ele>482.299988</ele>
        <time>2013-05-25T09:37:24Z</time>
      </trkpt>
      <trkpt lat="43.77517" lon="3.56281">
        <ele>482.899994</ele>
        <time>2013-05-25T09:37:27Z</time>
      </trkpt>
      <trkpt lat="43.7752" lon="3.56272">
        <ele>484.200012</ele>
        <time>2013-05-25T09:37:30Z</time>
      </trkpt>
      <trkpt lat="43.77522" lon="3.56261">
        <ele>485.600006</ele>
        <time>2013-05-25T09:37:33Z</time>
      </trkpt>
      <trkpt lat="43.77522" lon="3.56249">
        <ele>486.5</ele>
        <time>2013-05-25T09:37:37Z</time>
      </trkpt>
      <trkpt lat="43.77521" lon="3.56238">
        <ele>486.200012</ele>
        <time>2013-05-25T09:37:41Z</time>
      </trkpt>
      <trkpt lat="43.77518" lon="3.56228">
        <ele>486</ele>
        <time>2013-05-25T09:37:46Z</time>
      </trkpt>
      <trkpt lat="43.77516" lon="3.56216">
        <ele>487.899994</ele>
        <time>2013-05-25T09:37:51Z</time>
      </trkpt>
      <trkpt lat="43.77514" lon="3.56206">
        <ele>488.399994</ele>
        <time>2013-05-25T09:37:54Z</time>
      </trkpt>
      <trkpt lat="43.77511" lon="3.56195">
        <ele>489</ele>
        <time>2013-05-25T09:37:59Z</time>
      </trkpt>
      <trkpt lat="43.77507" lon="3.56185">
        <ele>488.700012</ele>
        <time>2013-05-25T09:38:02Z</time>
      </trkpt>
      <trkpt lat="43.77504" lon="3.56177">
        <ele>488.200012</ele>
        <time>2013-05-25T09:38:04Z</time>
      </trkpt>
      <trkpt lat="43.775" lon="3.5617">
        <ele>487.799988</ele>
        <time>2013-05-25T09:38:06Z</time>
      </trkpt>
      <trkpt lat="43.77497" lon="3.56162">
        <ele>487.600006</ele>
        <time>2013-05-25T09:38:08Z</time>
      </trkpt>
      <trkpt lat="43.77494" lon="3.56153">
        <ele>488</ele>
        <time>2013-05-25T09:38:10Z</time>
      </trkpt>
      <trkpt lat="43.77492" lon="3.56144">
        <ele>488.600006</ele>
        <time>2013-05-25T09:38:12Z</time>
      </trkpt>
      <trkpt lat="43.7749" lon="3.56136">
        <ele>489.200012</ele>
        <time>2013-05-25T09:38:14Z</time>
      </trkpt>
      <trkpt lat="43.77489" lon="3.56127">
        <ele>490</ele>
        <time>2013-05-25T09:38:16Z</time>
      </trkpt>
      <trkpt lat="43.77487" lon="3.56118">
        <ele>490.299988</ele>
        <time>2013-05-25T09:38:18Z</time>
      </trkpt>
      <trkpt lat="43.77486" lon="3.56114">
        <ele>490.299988</ele>
        <time>2013-05-25T09:38:19Z</time>
      </trkpt>
      <trkpt lat="43.77482" lon="3.56098">
        <ele>490.399994</ele>
        <time>2013-05-25T09:38:22Z</time>
      </trkpt>
      <trkpt lat="43.7748" lon="3.56089">
        <ele>490.399994</ele>
        <time>2013-05-25T09:38:24Z</time>
      </trkpt>
      <trkpt lat="43.77477" lon="3.56081">
        <ele>490.5</ele>
        <time>2013-05-25T09:38:26Z</time>
      </trkpt>
      <trkpt lat="43.77474" lon="3.56074">
        <ele>490.700012</ele>
        <time>2013-05-25T09:38:28Z</time>
      </trkpt>
      <trkpt lat="43.7747" lon="3.56067">
        <ele>490.799988</ele>
        <time>2013-05-25T09:38:30Z</time>
      </trkpt>
      <trkpt lat="43.77466" lon="3.5606">
        <ele>491</ele>
        <time>2013-05-25T09:38:32Z</time>
      </trkpt>
      <trkpt lat="43.77462" lon="3.56054">
        <ele>491.200012</ele>
        <time>2013-05-25T09:38:34Z</time>
      </trkpt>
      <trkpt lat="43.77457" lon="3.56048">
        <ele>491.399994</ele>
        <time>2013-05-25T09:38:36Z</time>
      </trkpt>
      <trkpt lat="43.77452" lon="3.56041">
        <ele>491.600006</ele>
        <time>2013-05-25T09:38:38Z</time>
      </trkpt>
      <trkpt lat="43.77448" lon="3.56035">
        <ele>491.799988</ele>
        <time>2013-05-25T09:38:40Z</time>
      </trkpt>
      <trkpt lat="43.77442" lon="3.56027">
        <ele>491.899994</ele>
        <time>2013-05-25T09:38:43Z</time>
      </trkpt>
      <trkpt lat="43.77437" lon="3.56018">
        <ele>493.5</ele>
        <time>2013-05-25T09:38:47Z</time>
      </trkpt>
      <trkpt lat="43.77431" lon="3.56009">
        <ele>493.799988</ele>
        <time>2013-05-25T09:38:51Z</time>
      </trkpt>
      <trkpt lat="43.77425" lon="3.56001">
        <ele>494</ele>
        <time>2013-05-25T09:38:54Z</time>
      </trkpt>
      <trkpt lat="43.77418" lon="3.55994">
        <ele>493.899994</ele>
        <time>2013-05-25T09:38:57Z</time>
      </trkpt>
      <trkpt lat="43.77411" lon="3.55987">
        <ele>493.600006</ele>
        <time>2013-05-25T09:39:00Z</time>
      </trkpt>
      <trkpt lat="43.77403" lon="3.5598">
        <ele>494.100006</ele>
        <time>2013-05-25T09:39:03Z</time>
      </trkpt>
      <trkpt lat="43.77399" lon="3.55974">
        <ele>494.700012</ele>
        <time>2013-05-25T09:39:05Z</time>
      </trkpt>
      <trkpt lat="43.77392" lon="3.55967">
        <ele>493.799988</ele>
        <time>2013-05-25T09:39:08Z</time>
      </trkpt>
      <trkpt lat="43.77386" lon="3.55959">
        <ele>493.299988</ele>
        <time>2013-05-25T09:39:11Z</time>
      </trkpt>
      <trkpt lat="43.77379" lon="3.55951">
        <ele>492.899994</ele>
        <time>2013-05-25T09:39:14Z</time>
      </trkpt>
      <trkpt lat="43.77374" lon="3.55943">
        <ele>494</ele>
        <time>2013-05-25T09:39:17Z</time>
      </trkpt>
      <trkpt lat="43.77368" lon="3.55934">
        <ele>494.399994</ele>
        <time>2013-05-25T09:39:20Z</time>
      </trkpt>
      <trkpt lat="43.77366" lon="3.55931">
        <ele>494.399994</ele>
        <time>2013-05-25T09:39:21Z</time>
      </trkpt>
      <trkpt lat="43.77358" lon="3.55918">
        <ele>495.5</ele>
        <time>2013-05-25T09:39:25Z</time>
      </trkpt>
      <trkpt lat="43.77353" lon="3.55909">
        <ele>495.799988</ele>
        <time>2013-05-25T09:39:28Z</time>
      </trkpt>
      <trkpt lat="43.77347" lon="3.559">
        <ele>495.799988</ele>
        <time>2013-05-25T09:39:31Z</time>
      </trkpt>
      <trkpt lat="43.77342" lon="3.55892">
        <ele>496.600006</ele>
        <time>2013-05-25T09:39:34Z</time>
      </trkpt>
      <trkpt lat="43.77346" lon="3.55882">
        <ele>500.200012</ele>
        <time>2013-05-25T09:39:54Z</time>
      </trkpt>
      <trkpt lat="43.77353" lon="3.55882">
        <ele>499.299988</ele>
        <time>2013-05-25T09:39:58Z</time>
      </trkpt>
      <trkpt lat="43.77361" lon="3.55884">
        <ele>500</ele>
        <time>2013-05-25T09:40:02Z</time>
      </trkpt>
      <trkpt lat="43.77369" lon="3.55884">
        <ele>499.799988</ele>
        <time>2013-05-25T09:40:06Z</time>
      </trkpt>
      <trkpt lat="43.77377" lon="3.55881">
        <ele>500.600006</ele>
        <time>2013-05-25T09:40:10Z</time>
      </trkpt>
      <trkpt lat="43.77384" lon="3.55877">
        <ele>501.600006</ele>
        <time>2013-05-25T09:40:14Z</time>
      </trkpt>
      <trkpt lat="43.7739" lon="3.55871">
        <ele>501.799988</ele>
        <time>2013-05-25T09:40:18Z</time>
      </trkpt>
      <trkpt lat="43.77397" lon="3.55865">
        <ele>501.799988</ele>
        <time>2013-05-25T09:40:22Z</time>
      </trkpt>
      <trkpt lat="43.77399" lon="3.55863">
        <ele>501.899994</ele>
        <time>2013-05-25T09:40:23Z</time>
      </trkpt>
      <trkpt lat="43.77411" lon="3.55852">
        <ele>502.299988</ele>
        <time>2013-05-25T09:40:30Z</time>
      </trkpt>
      <trkpt lat="43.77419" lon="3.55853">
        <ele>502.899994</ele>
        <time>2013-05-25T09:40:34Z</time>
      </trkpt>
      <trkpt lat="43.77423" lon="3.55862">
        <ele>502.700012</ele>
        <time>2013-05-25T09:40:38Z</time>
      </trkpt>
      <trkpt lat="43.77423" lon="3.55874">
        <ele>503.799988</ele>
        <time>2013-05-25T09:40:42Z</time>
      </trkpt>
      <trkpt lat="43.77423" lon="3.55885">
        <ele>505.200012</ele>
        <time>2013-05-25T09:40:45Z</time>
      </trkpt>
      <trkpt lat="43.77427" lon="3.55896">
        <ele>505.899994</ele>
        <time>2013-05-25T09:40:48Z</time>
      </trkpt>
      <trkpt lat="43.77432" lon="3.55904">
        <ele>506.299988</ele>
        <time>2013-05-25T09:40:51Z</time>
      </trkpt>
      <trkpt lat="43.77439" lon="3.5591">
        <ele>507</ele>
        <time>2013-05-25T09:40:54Z</time>
      </trkpt>
      <trkpt lat="43.77446" lon="3.55914">
        <ele>508.100006</ele>
        <time>2013-05-25T09:40:57Z</time>
      </trkpt>
      <trkpt lat="43.77454" lon="3.55915">
        <ele>507.899994</ele>
        <time>2013-05-25T09:41:00Z</time>
      </trkpt>
      <trkpt lat="43.77461" lon="3.5592">
        <ele>508.600006</ele>
        <time>2013-05-25T09:41:03Z</time>
      </trkpt>
      <trkpt lat="43.77467" lon="3.55926">
        <ele>509.299988</ele>
        <time>2013-05-25T09:41:06Z</time>
      </trkpt>
      <trkpt lat="43.77473" lon="3.55934">
        <ele>509.799988</ele>
        <time>2013-05-25T09:41:09Z</time>
      </trkpt>
      <trkpt lat="43.77477" lon="3.55943">
        <ele>510</ele>
        <time>2013-05-25T09:41:12Z</time>
      </trkpt>
      <trkpt lat="43.77482" lon="3.55953">
        <ele>510.600006</ele>
        <time>2013-05-25T09:41:15Z</time>
      </trkpt>
      <trkpt lat="43.77487" lon="3.55962">
        <ele>511.100006</ele>
        <time>2013-05-25T09:41:18Z</time>
      </trkpt>
      <trkpt lat="43.77494" lon="3.5597">
        <ele>511.700012</ele>
        <time>2013-05-25T09:41:21Z</time>
      </trkpt>
      <trkpt lat="43.77501" lon="3.55978">
        <ele>512</ele>
        <time>2013-05-25T09:41:24Z</time>
      </trkpt>
      <trkpt lat="43.77503" lon="3.5598">
        <ele>512.099976</ele>
        <time>2013-05-25T09:41:25Z</time>
      </trkpt>
      <trkpt lat="43.77516" lon="3.55989">
        <ele>511.700012</ele>
        <time>2013-05-25T09:41:30Z</time>
      </trkpt>
      <trkpt lat="43.77524" lon="3.55993">
        <ele>512.400024</ele>
        <time>2013-05-25T09:41:33Z</time>
      </trkpt>
      <trkpt lat="43.77532" lon="3.55996">
        <ele>512.299988</ele>
        <time>2013-05-25T09:41:36Z</time>
      </trkpt>
      <trkpt lat="43.7754" lon="3.56">
        <ele>512.599976</ele>
        <time>2013-05-25T09:41:39Z</time>
      </trkpt>
      <trkpt lat="43.77547" lon="3.56003">
        <ele>512.799988</ele>
        <time>2013-05-25T09:41:42Z</time>
      </trkpt>
      <trkpt lat="43.77555" lon="3.56005">
        <ele>513.099976</ele>
        <time>2013-05-25T09:41:45Z</time>
      </trkpt>
      <trkpt lat="43.77561" lon="3.56007">
        <ele>513.599976</ele>
        <time>2013-05-25T09:41:48Z</time>
      </trkpt>
      <trkpt lat="43.77567" lon="3.56013">
        <ele>514.200012</ele>
        <time>2013-05-25T09:41:51Z</time>
      </trkpt>
      <trkpt lat="43.7757" lon="3.56025">
        <ele>516.700012</ele>
        <time>2013-05-25T09:41:56Z</time>
      </trkpt>
      <trkpt lat="43.77572" lon="3.56035">
        <ele>517.5</ele>
        <time>2013-05-25T09:42:00Z</time>
      </trkpt>
      <trkpt lat="43.77575" lon="3.56045">
        <ele>518.299988</ele>
        <time>2013-05-25T09:42:04Z</time>
      </trkpt>
      <trkpt lat="43.77577" lon="3.56056">
        <ele>518.599976</ele>
        <time>2013-05-25T09:42:08Z</time>
      </trkpt>
      <trkpt lat="43.77579" lon="3.56067">
        <ele>518.200012</ele>
        <time>2013-05-25T09:42:12Z</time>
      </trkpt>
      <trkpt lat="43.77587" lon="3.56073">
        <ele>518.599976</ele>
        <time>2013-05-25T09:42:16Z</time>
      </trkpt>
      <trkpt lat="43.77594" lon="3.56074">
        <ele>518.900024</ele>
        <time>2013-05-25T09:42:19Z</time>
      </trkpt>
      <trkpt lat="43.77601" lon="3.56074">
        <ele>520.200012</ele>
        <time>2013-05-25T09:42:22Z</time>
      </trkpt>
      <trkpt lat="43.77609" lon="3.56076">
        <ele>521.200012</ele>
        <time>2013-05-25T09:42:25Z</time>
      </trkpt>
      <trkpt lat="43.77611" lon="3.56077">
        <ele>521.400024</ele>
        <time>2013-05-25T09:42:26Z</time>
      </trkpt>
      <trkpt lat="43.77623" lon="3.56083">
        <ele>522.799988</ele>
        <time>2013-05-25T09:42:31Z</time>
      </trkpt>
      <trkpt lat="43.77629" lon="3.56088">
        <ele>522.700012</ele>
        <time>2013-05-25T09:42:34Z</time>
      </trkpt>
      <trkpt lat="43.77633" lon="3.56097">
        <ele>522.5</ele>
        <time>2013-05-25T09:42:37Z</time>
      </trkpt>
      <trkpt lat="43.77635" lon="3.56108">
        <ele>522.599976</ele>
        <time>2013-05-25T09:42:40Z</time>
      </trkpt>
      <trkpt lat="43.77634" lon="3.56121">
        <ele>523.5</ele>
        <time>2013-05-25T09:42:43Z</time>
      </trkpt>
      <trkpt lat="43.77633" lon="3.56129">
        <ele>523.799988</ele>
        <time>2013-05-25T09:42:45Z</time>
      </trkpt>
      <trkpt lat="43.77635" lon="3.56138">
        <ele>523.799988</ele>
        <time>2013-05-25T09:42:47Z</time>
      </trkpt>
      <trkpt lat="43.77637" lon="3.56147">
        <ele>523.799988</ele>
        <time>2013-05-25T09:42:49Z</time>
      </trkpt>
      <trkpt lat="43.7764" lon="3.56154">
        <ele>523.799988</ele>
        <time>2013-05-25T09:42:51Z</time>
      </trkpt>
      <trkpt lat="43.77643" lon="3.56164">
        <ele>523.900024</ele>
        <time>2013-05-25T09:42:54Z</time>
      </trkpt>
      <trkpt lat="43.77647" lon="3.56172">
        <ele>524.799988</ele>
        <time>2013-05-25T09:42:57Z</time>
      </trkpt>
      <trkpt lat="43.77656" lon="3.56174">
        <ele>526.700012</ele>
        <time>2013-05-25T09:43:01Z</time>
      </trkpt>
      <trkpt lat="43.77664" lon="3.56172">
        <ele>527.700012</ele>
        <time>2013-05-25T09:43:05Z</time>
      </trkpt>
      <trkpt lat="43.77671" lon="3.5617">
        <ele>529.900024</ele>
        <time>2013-05-25T09:43:09Z</time>
      </trkpt>
      <trkpt lat="43.77679" lon="3.56167">
        <ele>531.599976</ele>
        <time>2013-05-25T09:43:13Z</time>
      </trkpt>
      <trkpt lat="43.77686" lon="3.56162">
        <ele>531.900024</ele>
        <time>2013-05-25T09:43:17Z</time>
      </trkpt>
      <trkpt lat="43.77693" lon="3.56155">
        <ele>532.799988</ele>
        <time>2013-05-25T09:43:21Z</time>
      </trkpt>
      <trkpt lat="43.777" lon="3.56149">
        <ele>534.5</ele>
        <time>2013-05-25T09:43:25Z</time>
      </trkpt>
      <trkpt lat="43.77708" lon="3.56147">
        <ele>535.799988</ele>
        <time>2013-05-25T09:43:29Z</time>
      </trkpt>
      <trkpt lat="43.7771" lon="3.56147">
        <ele>536.200012</ele>
        <time>2013-05-25T09:43:30Z</time>
      </trkpt>
      <trkpt lat="43.77724" lon="3.56152">
        <ele>536.799988</ele>
        <time>2013-05-25T09:43:37Z</time>
      </trkpt>
      <trkpt lat="43.7773" lon="3.56156">
        <ele>537.900024</ele>
        <time>2013-05-25T09:43:40Z</time>
      </trkpt>
      <trkpt lat="43.77736" lon="3.56163">
        <ele>538</ele>
        <time>2013-05-25T09:43:43Z</time>
      </trkpt>
      <trkpt lat="43.7774" lon="3.5617">
        <ele>538.099976</ele>
        <time>2013-05-25T09:43:46Z</time>
      </trkpt>
      <trkpt lat="43.77744" lon="3.5618">
        <ele>539.400024</ele>
        <time>2013-05-25T09:43:50Z</time>
      </trkpt>
      <trkpt lat="43.77748" lon="3.56189">
        <ele>539.599976</ele>
        <time>2013-05-25T09:43:54Z</time>
      </trkpt>
      <trkpt lat="43.77752" lon="3.56198">
        <ele>540.200012</ele>
        <time>2013-05-25T09:43:58Z</time>
      </trkpt>
      <trkpt lat="43.77756" lon="3.56207">
        <ele>541.200012</ele>
        <time>2013-05-25T09:44:02Z</time>
      </trkpt>
      <trkpt lat="43.77761" lon="3.56215">
        <ele>542.200012</ele>
        <time>2013-05-25T09:44:06Z</time>
      </trkpt>
      <trkpt lat="43.77767" lon="3.56223">
        <ele>542</ele>
        <time>2013-05-25T09:44:10Z</time>
      </trkpt>
      <trkpt lat="43.77774" lon="3.5623">
        <ele>542.099976</ele>
        <time>2013-05-25T09:44:14Z</time>
      </trkpt>
      <trkpt lat="43.7778" lon="3.56238">
        <ele>542.299988</ele>
        <time>2013-05-25T09:44:18Z</time>
      </trkpt>
      <trkpt lat="43.77786" lon="3.56245">
        <ele>542.799988</ele>
        <time>2013-05-25T09:44:22Z</time>
      </trkpt>
      <trkpt lat="43.77791" lon="3.56252">
        <ele>544</ele>
        <time>2013-05-25T09:44:26Z</time>
      </trkpt>
      <trkpt lat="43.77796" lon="3.56261">
        <ele>545</ele>
        <time>2013-05-25T09:44:30Z</time>
      </trkpt>
      <trkpt lat="43.77798" lon="3.56263">
        <ele>545.200012</ele>
        <time>2013-05-25T09:44:31Z</time>
      </trkpt>
      <trkpt lat="43.77807" lon="3.5628">
        <ele>547.900024</ele>
        <time>2013-05-25T09:44:38Z</time>
      </trkpt>
      <trkpt lat="43.77811" lon="3.5629">
        <ele>547.700012</ele>
        <time>2013-05-25T09:44:43Z</time>
      </trkpt>
      <trkpt lat="43.77814" lon="3.56299">
        <ele>548.400024</ele>
        <time>2013-05-25T09:44:47Z</time>
      </trkpt>
      <trkpt lat="43.77817" lon="3.56309">
        <ele>551.299988</ele>
        <time>2013-05-25T09:44:51Z</time>
      </trkpt>
      <trkpt lat="43.7782" lon="3.56318">
        <ele>551.799988</ele>
        <time>2013-05-25T09:44:55Z</time>
      </trkpt>
      <trkpt lat="43.77828" lon="3.56315">
        <ele>552.700012</ele>
        <time>2013-05-25T09:45:00Z</time>
      </trkpt>
      <trkpt lat="43.77828" lon="3.56305">
        <ele>552.400024</ele>
        <time>2013-05-25T09:45:04Z</time>
      </trkpt>
      <trkpt lat="43.77825" lon="3.56295">
        <ele>552.299988</ele>
        <time>2013-05-25T09:45:08Z</time>
      </trkpt>
      <trkpt lat="43.77822" lon="3.56285">
        <ele>553.799988</ele>
        <time>2013-05-25T09:45:12Z</time>
      </trkpt>
      <trkpt lat="43.7782" lon="3.56274">
        <ele>553.299988</ele>
        <time>2013-05-25T09:45:16Z</time>
      </trkpt>
      <trkpt lat="43.77818" lon="3.56263">
        <ele>553.599976</ele>
        <time>2013-05-25T09:45:20Z</time>
      </trkpt>
      <trkpt lat="43.77815" lon="3.56253">
        <ele>554.299988</ele>
        <time>2013-05-25T09:45:24Z</time>
      </trkpt>
      <trkpt lat="43.77812" lon="3.56243">
        <ele>554.099976</ele>
        <time>2013-05-25T09:45:28Z</time>
      </trkpt>
      <trkpt lat="43.77809" lon="3.56233">
        <ele>554.599976</ele>
        <time>2013-05-25T09:45:31Z</time>
      </trkpt>
      <trkpt lat="43.77809" lon="3.5623">
        <ele>554.700012</ele>
        <time>2013-05-25T09:45:32Z</time>
      </trkpt>
      <trkpt lat="43.77803" lon="3.56213">
        <ele>554.599976</ele>
        <time>2013-05-25T09:45:37Z</time>
      </trkpt>
      <trkpt lat="43.77799" lon="3.56202">
        <ele>556.099976</ele>
        <time>2013-05-25T09:45:40Z</time>
      </trkpt>
      <trkpt lat="43.77795" lon="3.56191">
        <ele>557</ele>
        <time>2013-05-25T09:45:43Z</time>
      </trkpt>
      <trkpt lat="43.77792" lon="3.5618">
        <ele>557.400024</ele>
        <time>2013-05-25T09:45:46Z</time>
      </trkpt>
      <trkpt lat="43.77788" lon="3.56169">
        <ele>558.299988</ele>
        <time>2013-05-25T09:45:49Z</time>
      </trkpt>
      <trkpt lat="43.77784" lon="3.56158">
        <ele>558.299988</ele>
        <time>2013-05-25T09:45:52Z</time>
      </trkpt>
      <trkpt lat="43.77781" lon="3.56147">
        <ele>558</ele>
        <time>2013-05-25T09:45:55Z</time>
      </trkpt>
      <trkpt lat="43.77778" lon="3.56135">
        <ele>558.5</ele>
        <time>2013-05-25T09:45:58Z</time>
      </trkpt>
      <trkpt lat="43.77774" lon="3.56124">
        <ele>558.700012</ele>
        <time>2013-05-25T09:46:01Z</time>
      </trkpt>
      <trkpt lat="43.7777" lon="3.56113">
        <ele>559.5</ele>
        <time>2013-05-25T09:46:04Z</time>
      </trkpt>
      <trkpt lat="43.77765" lon="3.56102">
        <ele>560.799988</ele>
        <time>2013-05-25T09:46:07Z</time>
      </trkpt>
      <trkpt lat="43.77762" lon="3.56095">
        <ele>560.200012</ele>
        <time>2013-05-25T09:46:09Z</time>
      </trkpt>
      <trkpt lat="43.77758" lon="3.56084">
        <ele>560.099976</ele>
        <time>2013-05-25T09:46:12Z</time>
      </trkpt>
      <trkpt lat="43.77755" lon="3.56074">
        <ele>560.400024</ele>
        <time>2013-05-25T09:46:15Z</time>
      </trkpt>
      <trkpt lat="43.77751" lon="3.56063">
        <ele>560.700012</ele>
        <time>2013-05-25T09:46:18Z</time>
      </trkpt>
      <trkpt lat="43.77748" lon="3.56054">
        <ele>560.900024</ele>
        <time>2013-05-25T09:46:21Z</time>
      </trkpt>
      <trkpt lat="43.77745" lon="3.56045">
        <ele>561.299988</ele>
        <time>2013-05-25T09:46:24Z</time>
      </trkpt>
      <trkpt lat="43.77742" lon="3.56035">
        <ele>561.799988</ele>
        <time>2013-05-25T09:46:27Z</time>
      </trkpt>
      <trkpt lat="43.77739" lon="3.56025">
        <ele>561.299988</ele>
        <time>2013-05-25T09:46:30Z</time>
      </trkpt>
      <trkpt lat="43.77736" lon="3.56014">
        <ele>560.5</ele>
        <time>2013-05-25T09:46:33Z</time>
      </trkpt>
      <trkpt lat="43.77735" lon="3.56011">
        <ele>560.5</ele>
        <time>2013-05-25T09:46:34Z</time>
      </trkpt>
      <trkpt lat="43.7773" lon="3.55995">
        <ele>561.099976</ele>
        <time>2013-05-25T09:46:39Z</time>
      </trkpt>
      <trkpt lat="43.77726" lon="3.55985">
        <ele>561.5</ele>
        <time>2013-05-25T09:46:42Z</time>
      </trkpt>
      <trkpt lat="43.77724" lon="3.55974">
        <ele>562</ele>
        <time>2013-05-25T09:46:45Z</time>
      </trkpt>
      <trkpt lat="43.77721" lon="3.55963">
        <ele>563</ele>
        <time>2013-05-25T09:46:48Z</time>
      </trkpt>
      <trkpt lat="43.77719" lon="3.55955">
        <ele>562.299988</ele>
        <time>2013-05-25T09:46:50Z</time>
      </trkpt>
      <trkpt lat="43.77716" lon="3.55947">
        <ele>562.400024</ele>
        <time>2013-05-25T09:46:52Z</time>
      </trkpt>
      <trkpt lat="43.77711" lon="3.55937">
        <ele>563.299988</ele>
        <time>2013-05-25T09:46:55Z</time>
      </trkpt>
      <trkpt lat="43.77706" lon="3.55928">
        <ele>563.799988</ele>
        <time>2013-05-25T09:46:58Z</time>
      </trkpt>
      <trkpt lat="43.77701" lon="3.5592">
        <ele>564.5</ele>
        <time>2013-05-25T09:47:01Z</time>
      </trkpt>
      <trkpt lat="43.77695" lon="3.55911">
        <ele>563.900024</ele>
        <time>2013-05-25T09:47:04Z</time>
      </trkpt>
      <trkpt lat="43.7769" lon="3.55901">
        <ele>565.400024</ele>
        <time>2013-05-25T09:47:07Z</time>
      </trkpt>
      <trkpt lat="43.77686" lon="3.55891">
        <ele>564.799988</ele>
        <time>2013-05-25T09:47:10Z</time>
      </trkpt>
      <trkpt lat="43.77682" lon="3.55882">
        <ele>564.299988</ele>
        <time>2013-05-25T09:47:13Z</time>
      </trkpt>
      <trkpt lat="43.77678" lon="3.55871">
        <ele>565.299988</ele>
        <time>2013-05-25T09:47:16Z</time>
      </trkpt>
      <trkpt lat="43.77675" lon="3.55862">
        <ele>565.700012</ele>
        <time>2013-05-25T09:47:19Z</time>
      </trkpt>
      <trkpt lat="43.77672" lon="3.55851">
        <ele>565.5</ele>
        <time>2013-05-25T09:47:22Z</time>
      </trkpt>
      <trkpt lat="43.77668" lon="3.55841">
        <ele>565.700012</ele>
        <time>2013-05-25T09:47:25Z</time>
      </trkpt>
      <trkpt lat="43.77664" lon="3.5583">
        <ele>565.900024</ele>
        <time>2013-05-25T09:47:28Z</time>
      </trkpt>
      <trkpt lat="43.7766" lon="3.5582">
        <ele>566</ele>
        <time>2013-05-25T09:47:31Z</time>
      </trkpt>
      <trkpt lat="43.77655" lon="3.5581">
        <ele>566.299988</ele>
        <time>2013-05-25T09:47:34Z</time>
      </trkpt>
      <trkpt lat="43.77653" lon="3.55807">
        <ele>566.5</ele>
        <time>2013-05-25T09:47:35Z</time>
      </trkpt>
      <trkpt lat="43.77646" lon="3.5579">
        <ele>567.400024</ele>
        <time>2013-05-25T09:47:40Z</time>
      </trkpt>
      <trkpt lat="43.77642" lon="3.5578">
        <ele>568</ele>
        <time>2013-05-25T09:47:43Z</time>
      </trkpt>
      <trkpt lat="43.77637" lon="3.55771">
        <ele>568.799988</ele>
        <time>2013-05-25T09:47:46Z</time>
      </trkpt>
      <trkpt lat="43.77631" lon="3.55762">
        <ele>568.700012</ele>
        <time>2013-05-25T09:47:49Z</time>
      </trkpt>
      <trkpt lat="43.77626" lon="3.55753">
        <ele>569</ele>
        <time>2013-05-25T09:47:52Z</time>
      </trkpt>
      <trkpt lat="43.7762" lon="3.55744">
        <ele>570.299988</ele>
        <time>2013-05-25T09:47:55Z</time>
      </trkpt>
      <trkpt lat="43.77615" lon="3.55735">
        <ele>570.599976</ele>
        <time>2013-05-25T09:47:58Z</time>
      </trkpt>
      <trkpt lat="43.7761" lon="3.55727">
        <ele>571.299988</ele>
        <time>2013-05-25T09:48:01Z</time>
      </trkpt>
      <trkpt lat="43.77605" lon="3.55719">
        <ele>571.5</ele>
        <time>2013-05-25T09:48:04Z</time>
      </trkpt>
      <trkpt lat="43.77599" lon="3.55711">
        <ele>571.599976</ele>
        <time>2013-05-25T09:48:07Z</time>
      </trkpt>
      <trkpt lat="43.77595" lon="3.55702">
        <ele>577.400024</ele>
        <time>2013-05-25T09:48:10Z</time>
      </trkpt>
      <trkpt lat="43.77589" lon="3.55694">
        <ele>587.5</ele>
        <time>2013-05-25T09:48:13Z</time>
      </trkpt>
      <trkpt lat="43.77585" lon="3.55685">
        <ele>592.5</ele>
        <time>2013-05-25T09:48:16Z</time>
      </trkpt>
      <trkpt lat="43.77579" lon="3.55675">
        <ele>594.099976</ele>
        <time>2013-05-25T09:48:19Z</time>
      </trkpt>
      <trkpt lat="43.77575" lon="3.55666">
        <ele>595.400024</ele>
        <time>2013-05-25T09:48:22Z</time>
      </trkpt>
      <trkpt lat="43.7757" lon="3.55657">
        <ele>597.299988</ele>
        <time>2013-05-25T09:48:25Z</time>
      </trkpt>
      <trkpt lat="43.77566" lon="3.55648">
        <ele>598</ele>
        <time>2013-05-25T09:48:28Z</time>
      </trkpt>
      <trkpt lat="43.77561" lon="3.55638">
        <ele>598.599976</ele>
        <time>2013-05-25T09:48:31Z</time>
      </trkpt>
      <trkpt lat="43.77556" lon="3.55628">
        <ele>599.099976</ele>
        <time>2013-05-25T09:48:34Z</time>
      </trkpt>
      <trkpt lat="43.77552" lon="3.55618">
        <ele>599.200012</ele>
        <time>2013-05-25T09:48:37Z</time>
      </trkpt>
      <trkpt lat="43.7755" lon="3.55614">
        <ele>599.400024</ele>
        <time>2013-05-25T09:48:38Z</time>
      </trkpt>
      <trkpt lat="43.77546" lon="3.55597">
        <ele>599.799988</ele>
        <time>2013-05-25T09:48:43Z</time>
      </trkpt>
      <trkpt lat="43.77545" lon="3.55586">
        <ele>600.599976</ele>
        <time>2013-05-25T09:48:46Z</time>
      </trkpt>
      <trkpt lat="43.77545" lon="3.55575">
        <ele>602.5</ele>
        <time>2013-05-25T09:48:49Z</time>
      </trkpt>
      <trkpt lat="43.77545" lon="3.55564">
        <ele>602.099976</ele>
        <time>2013-05-25T09:48:52Z</time>
      </trkpt>
      <trkpt lat="43.77546" lon="3.55553">
        <ele>602.799988</ele>
        <time>2013-05-25T09:48:56Z</time>
      </trkpt>
      <trkpt lat="43.77547" lon="3.55542">
        <ele>604.5</ele>
        <time>2013-05-25T09:49:00Z</time>
      </trkpt>
      <trkpt lat="43.7755" lon="3.55531">
        <ele>605.5</ele>
        <time>2013-05-25T09:49:05Z</time>
      </trkpt>
      <trkpt lat="43.77557" lon="3.55526">
        <ele>603.700012</ele>
        <time>2013-05-25T09:50:08Z</time>
      </trkpt>
      <trkpt lat="43.77558" lon="3.55525">
        <ele>603.599976</ele>
        <time>2013-05-25T09:50:09Z</time>
      </trkpt>
      <trkpt lat="43.77572" lon="3.55514">
        <ele>604.900024</ele>
        <time>2013-05-25T09:50:17Z</time>
      </trkpt>
      <trkpt lat="43.7758" lon="3.55508">
        <ele>607</ele>
        <time>2013-05-25T09:50:21Z</time>
      </trkpt>
      <trkpt lat="43.77586" lon="3.55504">
        <ele>607.700012</ele>
        <time>2013-05-25T09:50:24Z</time>
      </trkpt>
      <trkpt lat="43.77593" lon="3.55501">
        <ele>608.400024</ele>
        <time>2013-05-25T09:50:27Z</time>
      </trkpt>
      <trkpt lat="43.77601" lon="3.55496">
        <ele>608.400024</ele>
        <time>2013-05-25T09:50:30Z</time>
      </trkpt>
      <trkpt lat="43.77609" lon="3.55492">
        <ele>607.599976</ele>
        <time>2013-05-25T09:50:33Z</time>
      </trkpt>
      <trkpt lat="43.77617" lon="3.55485">
        <ele>606.700012</ele>
        <time>2013-05-25T09:50:36Z</time>
      </trkpt>
      <trkpt lat="43.77623" lon="3.55478">
        <ele>607.200012</ele>
        <time>2013-05-25T09:50:39Z</time>
      </trkpt>
      <trkpt lat="43.77628" lon="3.55469">
        <ele>608</ele>
        <time>2013-05-25T09:50:42Z</time>
      </trkpt>
      <trkpt lat="43.77632" lon="3.55461">
        <ele>608.700012</ele>
        <time>2013-05-25T09:50:45Z</time>
      </trkpt>
      <trkpt lat="43.77637" lon="3.55454">
        <ele>609.5</ele>
        <time>2013-05-25T09:50:48Z</time>
      </trkpt>
      <trkpt lat="43.77642" lon="3.55446">
        <ele>609.799988</ele>
        <time>2013-05-25T09:50:51Z</time>
      </trkpt>
      <trkpt lat="43.77647" lon="3.55437">
        <ele>608.799988</ele>
        <time>2013-05-25T09:50:54Z</time>
      </trkpt>
      <trkpt lat="43.77653" lon="3.55429">
        <ele>607.5</ele>
        <time>2013-05-25T09:50:57Z</time>
      </trkpt>
      <trkpt lat="43.7766" lon="3.5542">
        <ele>607</ele>
        <time>2013-05-25T09:51:00Z</time>
      </trkpt>
      <trkpt lat="43.77666" lon="3.55414">
        <ele>606.799988</ele>
        <time>2013-05-25T09:51:03Z</time>
      </trkpt>
      <trkpt lat="43.77673" lon="3.55407">
        <ele>605.900024</ele>
        <time>2013-05-25T09:51:06Z</time>
      </trkpt>
      <trkpt lat="43.7768" lon="3.55402">
        <ele>605.200012</ele>
        <time>2013-05-25T09:51:09Z</time>
      </trkpt>
      <trkpt lat="43.77683" lon="3.55401">
        <ele>605</ele>
        <time>2013-05-25T09:51:10Z</time>
      </trkpt>
      <trkpt lat="43.77692" lon="3.55396">
        <ele>604.900024</ele>
        <time>2013-05-25T09:51:13Z</time>
      </trkpt>
      <trkpt lat="43.77698" lon="3.55394">
        <ele>604.400024</ele>
        <time>2013-05-25T09:51:15Z</time>
      </trkpt>
      <trkpt lat="43.77704" lon="3.55393">
        <ele>604.700012</ele>
        <time>2013-05-25T09:51:17Z</time>
      </trkpt>
      <trkpt lat="43.77711" lon="3.55392">
        <ele>605.200012</ele>
        <time>2013-05-25T09:51:19Z</time>
      </trkpt>
      <trkpt lat="43.77717" lon="3.55392">
        <ele>605.400024</ele>
        <time>2013-05-25T09:51:21Z</time>
      </trkpt>
      <trkpt lat="43.77724" lon="3.55392">
        <ele>605.5</ele>
        <time>2013-05-25T09:51:23Z</time>
      </trkpt>
      <trkpt lat="43.77731" lon="3.55391">
        <ele>605</ele>
        <time>2013-05-25T09:51:25Z</time>
      </trkpt>
      <trkpt lat="43.77738" lon="3.5539">
        <ele>604.200012</ele>
        <time>2013-05-25T09:51:27Z</time>
      </trkpt>
      <trkpt lat="43.77745" lon="3.55387">
        <ele>603.200012</ele>
        <time>2013-05-25T09:51:29Z</time>
      </trkpt>
      <trkpt lat="43.77753" lon="3.55384">
        <ele>603.299988</ele>
        <time>2013-05-25T09:51:31Z</time>
      </trkpt>
      <trkpt lat="43.7776" lon="3.55381">
        <ele>603</ele>
        <time>2013-05-25T09:51:33Z</time>
      </trkpt>
      <trkpt lat="43.77768" lon="3.55377">
        <ele>602.5</ele>
        <time>2013-05-25T09:51:35Z</time>
      </trkpt>
      <trkpt lat="43.77776" lon="3.55374">
        <ele>602.700012</ele>
        <time>2013-05-25T09:51:37Z</time>
      </trkpt>
      <trkpt lat="43.77784" lon="3.5537">
        <ele>602.5</ele>
        <time>2013-05-25T09:51:39Z</time>
      </trkpt>
      <trkpt lat="43.77793" lon="3.55366">
        <ele>602.099976</ele>
        <time>2013-05-25T09:51:41Z</time>
      </trkpt>
      <trkpt lat="43.77801" lon="3.55361">
        <ele>602.200012</ele>
        <time>2013-05-25T09:51:43Z</time>
      </trkpt>
      <trkpt lat="43.77807" lon="3.55354">
        <ele>602.400024</ele>
        <time>2013-05-25T09:51:45Z</time>
      </trkpt>
      <trkpt lat="43.77812" lon="3.55344">
        <ele>602.400024</ele>
        <time>2013-05-25T09:51:47Z</time>
      </trkpt>
      <trkpt lat="43.77814" lon="3.55338">
        <ele>602.5</ele>
        <time>2013-05-25T09:51:48Z</time>
      </trkpt>
      <trkpt lat="43.77816" lon="3.55332">
        <ele>602.900024</ele>
        <time>2013-05-25T09:51:49Z</time>
      </trkpt>
      <trkpt lat="43.77818" lon="3.55326">
        <ele>603.200012</ele>
        <time>2013-05-25T09:51:50Z</time>
      </trkpt>
      <trkpt lat="43.77819" lon="3.5532">
        <ele>603.400024</ele>
        <time>2013-05-25T09:51:51Z</time>
      </trkpt>
      <trkpt lat="43.7782" lon="3.55314">
        <ele>603.5</ele>
        <time>2013-05-25T09:51:52Z</time>
      </trkpt>
      <trkpt lat="43.77821" lon="3.55307">
        <ele>603.599976</ele>
        <time>2013-05-25T09:51:53Z</time>
      </trkpt>
      <trkpt lat="43.77822" lon="3.553">
        <ele>603.599976</ele>
        <time>2013-05-25T09:51:54Z</time>
      </trkpt>
      <trkpt lat="43.77824" lon="3.55293">
        <ele>604.099976</ele>
        <time>2013-05-25T09:51:55Z</time>
      </trkpt>
      <trkpt lat="43.7783" lon="3.55285">
        <ele>604.799988</ele>
        <time>2013-05-25T09:51:57Z</time>
      </trkpt>
      <trkpt lat="43.77839" lon="3.55285">
        <ele>603.599976</ele>
        <time>2013-05-25T09:51:59Z</time>
      </trkpt>
      <trkpt lat="43.77843" lon="3.55288">
        <ele>602.5</ele>
        <time>2013-05-25T09:52:00Z</time>
      </trkpt>
      <trkpt lat="43.77847" lon="3.55291">
        <ele>601.700012</ele>
        <time>2013-05-25T09:52:01Z</time>
      </trkpt>
      <trkpt lat="43.7785" lon="3.55296">
        <ele>600.599976</ele>
        <time>2013-05-25T09:52:02Z</time>
      </trkpt>
      <trkpt lat="43.77852" lon="3.55301">
        <ele>599.700012</ele>
        <time>2013-05-25T09:52:03Z</time>
      </trkpt>
      <trkpt lat="43.77855" lon="3.55307">
        <ele>599</ele>
        <time>2013-05-25T09:52:04Z</time>
      </trkpt>
      <trkpt lat="43.77858" lon="3.55312">
        <ele>598</ele>
        <time>2013-05-25T09:52:05Z</time>
      </trkpt>
      <trkpt lat="43.77862" lon="3.55317">
        <ele>597.299988</ele>
        <time>2013-05-25T09:52:06Z</time>
      </trkpt>
      <trkpt lat="43.77867" lon="3.5532">
        <ele>596.700012</ele>
        <time>2013-05-25T09:52:07Z</time>
      </trkpt>
      <trkpt lat="43.77871" lon="3.55324">
        <ele>595.799988</ele>
        <time>2013-05-25T09:52:08Z</time>
      </trkpt>
      <trkpt lat="43.77876" lon="3.55327">
        <ele>595.200012</ele>
        <time>2013-05-25T09:52:09Z</time>
      </trkpt>
      <trkpt lat="43.77882" lon="3.5533">
        <ele>594.700012</ele>
        <time>2013-05-25T09:52:10Z</time>
      </trkpt>
      <trkpt lat="43.77887" lon="3.55335">
        <ele>594</ele>
        <time>2013-05-25T09:52:11Z</time>
      </trkpt>
      <trkpt lat="43.77892" lon="3.5534">
        <ele>593.5</ele>
        <time>2013-05-25T09:52:12Z</time>
      </trkpt>
      <trkpt lat="43.77897" lon="3.55346">
        <ele>593.099976</ele>
        <time>2013-05-25T09:52:13Z</time>
      </trkpt>
      <trkpt lat="43.77902" lon="3.55352">
        <ele>592.799988</ele>
        <time>2013-05-25T09:52:14Z</time>
      </trkpt>
      <trkpt lat="43.77906" lon="3.55359">
        <ele>592.400024</ele>
        <time>2013-05-25T09:52:15Z</time>
      </trkpt>
      <trkpt lat="43.7791" lon="3.55367">
        <ele>592</ele>
        <time>2013-05-25T09:52:16Z</time>
      </trkpt>
      <trkpt lat="43.77915" lon="3.55374">
        <ele>591.700012</ele>
        <time>2013-05-25T09:52:17Z</time>
      </trkpt>
      <trkpt lat="43.77919" lon="3.55383">
        <ele>590.900024</ele>
        <time>2013-05-25T09:52:18Z</time>
      </trkpt>
      <trkpt lat="43.77923" lon="3.55391">
        <ele>590.200012</ele>
        <time>2013-05-25T09:52:19Z</time>
      </trkpt>
      <trkpt lat="43.77927" lon="3.554">
        <ele>589.700012</ele>
        <time>2013-05-25T09:52:20Z</time>
      </trkpt>
      <trkpt lat="43.77932" lon="3.55409">
        <ele>588.400024</ele>
        <time>2013-05-25T09:52:21Z</time>
      </trkpt>
      <trkpt lat="43.77936" lon="3.55419">
        <ele>587.400024</ele>
        <time>2013-05-25T09:52:22Z</time>
      </trkpt>
      <trkpt lat="43.77941" lon="3.55428">
        <ele>586.700012</ele>
        <time>2013-05-25T09:52:23Z</time>
      </trkpt>
      <trkpt lat="43.77945" lon="3.55438">
        <ele>586.200012</ele>
        <time>2013-05-25T09:52:24Z</time>
      </trkpt>
      <trkpt lat="43.7795" lon="3.55449">
        <ele>585.900024</ele>
        <time>2013-05-25T09:52:25Z</time>
      </trkpt>
      <trkpt lat="43.77954" lon="3.55459">
        <ele>585.599976</ele>
        <time>2013-05-25T09:52:26Z</time>
      </trkpt>
      <trkpt lat="43.77959" lon="3.5547">
        <ele>584.799988</ele>
        <time>2013-05-25T09:52:27Z</time>
      </trkpt>
      <trkpt lat="43.77963" lon="3.5548">
        <ele>584.200012</ele>
        <time>2013-05-25T09:52:28Z</time>
      </trkpt>
      <trkpt lat="43.77967" lon="3.55489">
        <ele>583.700012</ele>
        <time>2013-05-25T09:52:29Z</time>
      </trkpt>
      <trkpt lat="43.77971" lon="3.55496">
        <ele>583.400024</ele>
        <time>2013-05-25T09:52:30Z</time>
      </trkpt>
      <trkpt lat="43.77979" lon="3.55502">
        <ele>582</ele>
        <time>2013-05-25T09:52:32Z</time>
      </trkpt>
      <trkpt lat="43.77986" lon="3.55497">
        <ele>581.099976</ele>
        <time>2013-05-25T09:52:34Z</time>
      </trkpt>
      <trkpt lat="43.7799" lon="3.55487">
        <ele>580.5</ele>
        <time>2013-05-25T09:52:36Z</time>
      </trkpt>
      <trkpt lat="43.77992" lon="3.55481">
        <ele>580.599976</ele>
        <time>2013-05-25T09:52:37Z</time>
      </trkpt>
      <trkpt lat="43.77994" lon="3.55475">
        <ele>580.700012</ele>
        <time>2013-05-25T09:52:38Z</time>
      </trkpt>
      <trkpt lat="43.77996" lon="3.5547">
        <ele>580.799988</ele>
        <time>2013-05-25T09:52:39Z</time>
      </trkpt>
      <trkpt lat="43.77998" lon="3.55464">
        <ele>580.900024</ele>
        <time>2013-05-25T09:52:40Z</time>
      </trkpt>
      <trkpt lat="43.78" lon="3.55457">
        <ele>580.900024</ele>
        <time>2013-05-25T09:52:41Z</time>
      </trkpt>
      <trkpt lat="43.78002" lon="3.55451">
        <ele>580.900024</ele>
        <time>2013-05-25T09:52:42Z</time>
      </trkpt>
      <trkpt lat="43.78004" lon="3.55445">
        <ele>581.299988</ele>
        <time>2013-05-25T09:52:43Z</time>
      </trkpt>
      <trkpt lat="43.78007" lon="3.55439">
        <ele>581.599976</ele>
        <time>2013-05-25T09:52:44Z</time>
      </trkpt>
      <trkpt lat="43.78009" lon="3.55433">
        <ele>581.900024</ele>
        <time>2013-05-25T09:52:45Z</time>
      </trkpt>
      <trkpt lat="43.78011" lon="3.55427">
        <ele>582</ele>
        <time>2013-05-25T09:52:46Z</time>
      </trkpt>
      <trkpt lat="43.78013" lon="3.55421">
        <ele>581.700012</ele>
        <time>2013-05-25T09:52:47Z</time>
      </trkpt>
      <trkpt lat="43.78015" lon="3.55415">
        <ele>581.400024</ele>
        <time>2013-05-25T09:52:48Z</time>
      </trkpt>
      <trkpt lat="43.78017" lon="3.55408">
        <ele>581.200012</ele>
        <time>2013-05-25T09:52:49Z</time>
      </trkpt>
      <trkpt lat="43.78019" lon="3.55402">
        <ele>581.099976</ele>
        <time>2013-05-25T09:52:50Z</time>
      </trkpt>
      <trkpt lat="43.78022" lon="3.55396">
        <ele>581.099976</ele>
        <time>2013-05-25T09:52:51Z</time>
      </trkpt>
      <trkpt lat="43.78024" lon="3.5539">
        <ele>581</ele>
        <time>2013-05-25T09:52:52Z</time>
      </trkpt>
      <trkpt lat="43.78026" lon="3.55384">
        <ele>581.200012</ele>
        <time>2013-05-25T09:52:53Z</time>
      </trkpt>
      <trkpt lat="43.78029" lon="3.55378">
        <ele>581.299988</ele>
        <time>2013-05-25T09:52:54Z</time>
      </trkpt>
      <trkpt lat="43.78031" lon="3.55372">
        <ele>581.299988</ele>
        <time>2013-05-25T09:52:55Z</time>
      </trkpt>
      <trkpt lat="43.78034" lon="3.55365">
        <ele>580.900024</ele>
        <time>2013-05-25T09:52:56Z</time>
      </trkpt>
      <trkpt lat="43.78036" lon="3.55359">
        <ele>580.599976</ele>
        <time>2013-05-25T09:52:57Z</time>
      </trkpt>
      <trkpt lat="43.78038" lon="3.55353">
        <ele>580.400024</ele>
        <time>2013-05-25T09:52:58Z</time>
      </trkpt>
      <trkpt lat="43.7804" lon="3.55346">
        <ele>580</ele>
        <time>2013-05-25T09:52:59Z</time>
      </trkpt>
      <trkpt lat="43.78041" lon="3.5534">
        <ele>579.700012</ele>
        <time>2013-05-25T09:53:00Z</time>
      </trkpt>
      <trkpt lat="43.78043" lon="3.55333">
        <ele>579.5</ele>
        <time>2013-05-25T09:53:01Z</time>
      </trkpt>
      <trkpt lat="43.78045" lon="3.55327">
        <ele>579</ele>
        <time>2013-05-25T09:53:02Z</time>
      </trkpt>
      <trkpt lat="43.78047" lon="3.55321">
        <ele>578.700012</ele>
        <time>2013-05-25T09:53:03Z</time>
      </trkpt>
      <trkpt lat="43.78048" lon="3.55315">
        <ele>578.400024</ele>
        <time>2013-05-25T09:53:04Z</time>
      </trkpt>
      <trkpt lat="43.78049" lon="3.55303">
        <ele>578.200012</ele>
        <time>2013-05-25T09:53:06Z</time>
      </trkpt>
      <trkpt lat="43.78052" lon="3.55293">
        <ele>578.200012</ele>
        <time>2013-05-25T09:53:08Z</time>
      </trkpt>
      <trkpt lat="43.78055" lon="3.55285">
        <ele>577.700012</ele>
        <time>2013-05-25T09:53:10Z</time>
      </trkpt>
      <trkpt lat="43.7806" lon="3.55278">
        <ele>577.5</ele>
        <time>2013-05-25T09:53:12Z</time>
      </trkpt>
      <trkpt lat="43.78062" lon="3.55275">
        <ele>577.5</ele>
        <time>2013-05-25T09:53:13Z</time>
      </trkpt>
      <trkpt lat="43.78068" lon="3.55266">
        <ele>577.5</ele>
        <time>2013-05-25T09:53:16Z</time>
      </trkpt>
      <trkpt lat="43.78073" lon="3.5526">
        <ele>577.400024</ele>
        <time>2013-05-25T09:53:18Z</time>
      </trkpt>
      <trkpt lat="43.78077" lon="3.55254">
        <ele>577.299988</ele>
        <time>2013-05-25T09:53:20Z</time>
      </trkpt>
      <trkpt lat="43.78081" lon="3.55248">
        <ele>577.5</ele>
        <time>2013-05-25T09:53:22Z</time>
      </trkpt>
      <trkpt lat="43.78089" lon="3.55241">
        <ele>577.900024</ele>
        <time>2013-05-25T09:53:25Z</time>
      </trkpt>
      <trkpt lat="43.78096" lon="3.55234">
        <ele>577.799988</ele>
        <time>2013-05-25T09:53:28Z</time>
      </trkpt>
      <trkpt lat="43.78102" lon="3.55227">
        <ele>578.099976</ele>
        <time>2013-05-25T09:53:31Z</time>
      </trkpt>
      <trkpt lat="43.78107" lon="3.55219">
        <ele>579</ele>
        <time>2013-05-25T09:53:35Z</time>
      </trkpt>
      <trkpt lat="43.78111" lon="3.55208">
        <ele>579.5</ele>
        <time>2013-05-25T09:53:39Z</time>
      </trkpt>
      <trkpt lat="43.78113" lon="3.55197">
        <ele>580.400024</ele>
        <time>2013-05-25T09:53:43Z</time>
      </trkpt>
      <trkpt lat="43.78113" lon="3.55187">
        <ele>580.700012</ele>
        <time>2013-05-25T09:53:46Z</time>
      </trkpt>
      <trkpt lat="43.78112" lon="3.55177">
        <ele>581.900024</ele>
        <time>2013-05-25T09:53:49Z</time>
      </trkpt>
      <trkpt lat="43.78112" lon="3.55167">
        <ele>581.299988</ele>
        <time>2013-05-25T09:53:52Z</time>
      </trkpt>
      <trkpt lat="43.78111" lon="3.55155">
        <ele>581.599976</ele>
        <time>2013-05-25T09:53:55Z</time>
      </trkpt>
      <trkpt lat="43.7811" lon="3.55147">
        <ele>581.700012</ele>
        <time>2013-05-25T09:53:57Z</time>
      </trkpt>
      <trkpt lat="43.78109" lon="3.55138">
        <ele>581.599976</ele>
        <time>2013-05-25T09:53:59Z</time>
      </trkpt>
      <trkpt lat="43.78108" lon="3.55129">
        <ele>581.400024</ele>
        <time>2013-05-25T09:54:01Z</time>
      </trkpt>
      <trkpt lat="43.78107" lon="3.55119">
        <ele>581.599976</ele>
        <time>2013-05-25T09:54:03Z</time>
      </trkpt>
      <trkpt lat="43.78104" lon="3.55108">
        <ele>581.900024</ele>
        <time>2013-05-25T09:54:05Z</time>
      </trkpt>
      <trkpt lat="43.78101" lon="3.55098">
        <ele>581.799988</ele>
        <time>2013-05-25T09:54:07Z</time>
      </trkpt>
      <trkpt lat="43.78098" lon="3.55089">
        <ele>581.799988</ele>
        <time>2013-05-25T09:54:09Z</time>
      </trkpt>
      <trkpt lat="43.78093" lon="3.55081">
        <ele>581.400024</ele>
        <time>2013-05-25T09:54:11Z</time>
      </trkpt>
      <trkpt lat="43.78088" lon="3.55073">
        <ele>581.599976</ele>
        <time>2013-05-25T09:54:13Z</time>
      </trkpt>
      <trkpt lat="43.78085" lon="3.5507">
        <ele>581.900024</ele>
        <time>2013-05-25T09:54:14Z</time>
      </trkpt>
      <trkpt lat="43.78075" lon="3.55061">
        <ele>582</ele>
        <time>2013-05-25T09:54:17Z</time>
      </trkpt>
      <trkpt lat="43.7807" lon="3.55057">
        <ele>582</ele>
        <time>2013-05-25T09:54:18Z</time>
      </trkpt>
      <trkpt lat="43.78066" lon="3.55054">
        <ele>581.799988</ele>
        <time>2013-05-25T09:54:19Z</time>
      </trkpt>
      <trkpt lat="43.78062" lon="3.5505">
        <ele>581.700012</ele>
        <time>2013-05-25T09:54:20Z</time>
      </trkpt>
      <trkpt lat="43.78058" lon="3.55045">
        <ele>581.599976</ele>
        <time>2013-05-25T09:54:21Z</time>
      </trkpt>
      <trkpt lat="43.78054" lon="3.5504">
        <ele>581.299988</ele>
        <time>2013-05-25T09:54:22Z</time>
      </trkpt>
      <trkpt lat="43.78051" lon="3.55036">
        <ele>581.099976</ele>
        <time>2013-05-25T09:54:23Z</time>
      </trkpt>
      <trkpt lat="43.78047" lon="3.55031">
        <ele>581</ele>
        <time>2013-05-25T09:54:24Z</time>
      </trkpt>
      <trkpt lat="43.78043" lon="3.55026">
        <ele>581</ele>
        <time>2013-05-25T09:54:25Z</time>
      </trkpt>
      <trkpt lat="43.78039" lon="3.55022">
        <ele>580.900024</ele>
        <time>2013-05-25T09:54:26Z</time>
      </trkpt>
      <trkpt lat="43.78036" lon="3.55017">
        <ele>580.900024</ele>
        <time>2013-05-25T09:54:27Z</time>
      </trkpt>
      <trkpt lat="43.78032" lon="3.55012">
        <ele>580.900024</ele>
        <time>2013-05-25T09:54:28Z</time>
      </trkpt>
      <trkpt lat="43.78028" lon="3.55006">
        <ele>580.400024</ele>
        <time>2013-05-25T09:54:29Z</time>
      </trkpt>
      <trkpt lat="43.78025" lon="3.55001">
        <ele>580</ele>
        <time>2013-05-25T09:54:30Z</time>
      </trkpt>
      <trkpt lat="43.78021" lon="3.54994">
        <ele>579.700012</ele>
        <time>2013-05-25T09:54:31Z</time>
      </trkpt>
      <trkpt lat="43.78017" lon="3.54988">
        <ele>579</ele>
        <time>2013-05-25T09:54:32Z</time>
      </trkpt>
      <trkpt lat="43.78013" lon="3.5498">
        <ele>578.400024</ele>
        <time>2013-05-25T09:54:33Z</time>
      </trkpt>
      <trkpt lat="43.78009" lon="3.54973">
        <ele>578</ele>
        <time>2013-05-25T09:54:34Z</time>
      </trkpt>
      <trkpt lat="43.78005" lon="3.54964">
        <ele>577.5</ele>
        <time>2013-05-25T09:54:35Z</time>
      </trkpt>
      <trkpt lat="43.78001" lon="3.54956">
        <ele>577.099976</ele>
        <time>2013-05-25T09:54:36Z</time>
      </trkpt>
      <trkpt lat="43.77997" lon="3.54947">
        <ele>576.700012</ele>
        <time>2013-05-25T09:54:37Z</time>
      </trkpt>
      <trkpt lat="43.77993" lon="3.54938">
        <ele>576.799988</ele>
        <time>2013-05-25T09:54:38Z</time>
      </trkpt>
      <trkpt lat="43.77989" lon="3.54929">
        <ele>576.900024</ele>
        <time>2013-05-25T09:54:39Z</time>
      </trkpt>
      <trkpt lat="43.77985" lon="3.54921">
        <ele>577</ele>
        <time>2013-05-25T09:54:40Z</time>
      </trkpt>
      <trkpt lat="43.7798" lon="3.54913">
        <ele>577</ele>
        <time>2013-05-25T09:54:41Z</time>
      </trkpt>
      <trkpt lat="43.77976" lon="3.54905">
        <ele>577.099976</ele>
        <time>2013-05-25T09:54:42Z</time>
      </trkpt>
      <trkpt lat="43.77972" lon="3.54898">
        <ele>577.099976</ele>
        <time>2013-05-25T09:54:43Z</time>
      </trkpt>
      <trkpt lat="43.77968" lon="3.5489">
        <ele>577.099976</ele>
        <time>2013-05-25T09:54:44Z</time>
      </trkpt>
      <trkpt lat="43.77964" lon="3.54883">
        <ele>577</ele>
        <time>2013-05-25T09:54:45Z</time>
      </trkpt>
      <trkpt lat="43.7796" lon="3.54875">
        <ele>577</ele>
        <time>2013-05-25T09:54:46Z</time>
      </trkpt>
      <trkpt lat="43.77958" lon="3.54868">
        <ele>576.900024</ele>
        <time>2013-05-25T09:54:47Z</time>
      </trkpt>
      <trkpt lat="43.77955" lon="3.5486">
        <ele>576.400024</ele>
        <time>2013-05-25T09:54:48Z</time>
      </trkpt>
      <trkpt lat="43.77953" lon="3.54853">
        <ele>576.099976</ele>
        <time>2013-05-25T09:54:49Z</time>
      </trkpt>
      <trkpt lat="43.77951" lon="3.54846">
        <ele>575.799988</ele>
        <time>2013-05-25T09:54:50Z</time>
      </trkpt>
      <trkpt lat="43.77948" lon="3.54839">
        <ele>575.599976</ele>
        <time>2013-05-25T09:54:51Z</time>
      </trkpt>
      <trkpt lat="43.77946" lon="3.54831">
        <ele>575.5</ele>
        <time>2013-05-25T09:54:52Z</time>
      </trkpt>
      <trkpt lat="43.77942" lon="3.54824">
        <ele>575.400024</ele>
        <time>2013-05-25T09:54:53Z</time>
      </trkpt>
      <trkpt lat="43.77939" lon="3.54817">
        <ele>574.900024</ele>
        <time>2013-05-25T09:54:54Z</time>
      </trkpt>
      <trkpt lat="43.77935" lon="3.54809">
        <ele>574.5</ele>
        <time>2013-05-25T09:54:55Z</time>
      </trkpt>
      <trkpt lat="43.77931" lon="3.54801">
        <ele>574.200012</ele>
        <time>2013-05-25T09:54:56Z</time>
      </trkpt>
      <trkpt lat="43.77926" lon="3.54793">
        <ele>573.700012</ele>
        <time>2013-05-25T09:54:57Z</time>
      </trkpt>
      <trkpt lat="43.77922" lon="3.54785">
        <ele>573.299988</ele>
        <time>2013-05-25T09:54:58Z</time>
      </trkpt>
      <trkpt lat="43.77917" lon="3.54778">
        <ele>573</ele>
        <time>2013-05-25T09:54:59Z</time>
      </trkpt>
      <trkpt lat="43.77913" lon="3.54771">
        <ele>572.799988</ele>
        <time>2013-05-25T09:55:00Z</time>
      </trkpt>
      <trkpt lat="43.77909" lon="3.54765">
        <ele>572.799988</ele>
        <time>2013-05-25T09:55:01Z</time>
      </trkpt>
      <trkpt lat="43.77906" lon="3.54759">
        <ele>572.700012</ele>
        <time>2013-05-25T09:55:02Z</time>
      </trkpt>
      <trkpt lat="43.77904" lon="3.54752">
        <ele>572.700012</ele>
        <time>2013-05-25T09:55:03Z</time>
      </trkpt>
      <trkpt lat="43.77902" lon="3.5474">
        <ele>573.5</ele>
        <time>2013-05-25T09:55:05Z</time>
      </trkpt>
      <trkpt lat="43.77902" lon="3.54729">
        <ele>574.099976</ele>
        <time>2013-05-25T09:55:07Z</time>
      </trkpt>
      <trkpt lat="43.77903" lon="3.54718">
        <ele>574.5</ele>
        <time>2013-05-25T09:55:09Z</time>
      </trkpt>
      <trkpt lat="43.77905" lon="3.54708">
        <ele>574.599976</ele>
        <time>2013-05-25T09:55:11Z</time>
      </trkpt>
      <trkpt lat="43.77908" lon="3.54697">
        <ele>574.599976</ele>
        <time>2013-05-25T09:55:13Z</time>
      </trkpt>
      <trkpt lat="43.77911" lon="3.54688">
        <ele>574.599976</ele>
        <time>2013-05-25T09:55:15Z</time>
      </trkpt>
      <trkpt lat="43.77913" lon="3.54683">
        <ele>574.599976</ele>
        <time>2013-05-25T09:55:16Z</time>
      </trkpt>
      <trkpt lat="43.77918" lon="3.5467">
        <ele>575.200012</ele>
        <time>2013-05-25T09:55:19Z</time>
      </trkpt>
      <trkpt lat="43.77921" lon="3.54661">
        <ele>575.400024</ele>
        <time>2013-05-25T09:55:21Z</time>
      </trkpt>
      <trkpt lat="43.77925" lon="3.54652">
        <ele>575.5</ele>
        <time>2013-05-25T09:55:23Z</time>
      </trkpt>
      <trkpt lat="43.77928" lon="3.54643">
        <ele>575.5</ele>
        <time>2013-05-25T09:55:25Z</time>
      </trkpt>
      <trkpt lat="43.7793" lon="3.54632">
        <ele>575.700012</ele>
        <time>2013-05-25T09:55:27Z</time>
      </trkpt>
      <trkpt lat="43.7793" lon="3.54622">
        <ele>575.5</ele>
        <time>2013-05-25T09:55:29Z</time>
      </trkpt>
      <trkpt lat="43.77928" lon="3.54612">
        <ele>575.099976</ele>
        <time>2013-05-25T09:55:31Z</time>
      </trkpt>
      <trkpt lat="43.77926" lon="3.54602">
        <ele>575.200012</ele>
        <time>2013-05-25T09:55:33Z</time>
      </trkpt>
      <trkpt lat="43.77923" lon="3.54593">
        <ele>575.5</ele>
        <time>2013-05-25T09:55:35Z</time>
      </trkpt>
      <trkpt lat="43.77919" lon="3.54584">
        <ele>576.099976</ele>
        <time>2013-05-25T09:55:37Z</time>
      </trkpt>
      <trkpt lat="43.77914" lon="3.54575">
        <ele>576.700012</ele>
        <time>2013-05-25T09:55:39Z</time>
      </trkpt>
      <trkpt lat="43.7791" lon="3.54566">
        <ele>577.200012</ele>
        <time>2013-05-25T09:55:41Z</time>
      </trkpt>
      <trkpt lat="43.77905" lon="3.54558">
        <ele>576.700012</ele>
        <time>2013-05-25T09:55:43Z</time>
      </trkpt>
      <trkpt lat="43.77901" lon="3.54549">
        <ele>576.599976</ele>
        <time>2013-05-25T09:55:45Z</time>
      </trkpt>
      <trkpt lat="43.77896" lon="3.54542">
        <ele>576.700012</ele>
        <time>2013-05-25T09:55:47Z</time>
      </trkpt>
      <trkpt lat="43.7789" lon="3.54535">
        <ele>576.400024</ele>
        <time>2013-05-25T09:55:49Z</time>
      </trkpt>
      <trkpt lat="43.77886" lon="3.54526">
        <ele>575.900024</ele>
        <time>2013-05-25T09:55:51Z</time>
      </trkpt>
      <trkpt lat="43.77884" lon="3.54515">
        <ele>576.799988</ele>
        <time>2013-05-25T09:55:53Z</time>
      </trkpt>
      <trkpt lat="43.77885" lon="3.54504">
        <ele>576.400024</ele>
        <time>2013-05-25T09:55:55Z</time>
      </trkpt>
      <trkpt lat="43.77887" lon="3.54493">
        <ele>575.5</ele>
        <time>2013-05-25T09:55:57Z</time>
      </trkpt>
      <trkpt lat="43.77889" lon="3.54482">
        <ele>575.700012</ele>
        <time>2013-05-25T09:55:59Z</time>
      </trkpt>
      <trkpt lat="43.77892" lon="3.5447">
        <ele>575.5</ele>
        <time>2013-05-25T09:56:01Z</time>
      </trkpt>
      <trkpt lat="43.77894" lon="3.54464">
        <ele>575.299988</ele>
        <time>2013-05-25T09:56:02Z</time>
      </trkpt>
      <trkpt lat="43.77896" lon="3.54458">
        <ele>575.099976</ele>
        <time>2013-05-25T09:56:03Z</time>
      </trkpt>
      <trkpt lat="43.77898" lon="3.54451">
        <ele>574.599976</ele>
        <time>2013-05-25T09:56:04Z</time>
      </trkpt>
      <trkpt lat="43.77899" lon="3.54444">
        <ele>574.200012</ele>
        <time>2013-05-25T09:56:05Z</time>
      </trkpt>
      <trkpt lat="43.77898" lon="3.54436">
        <ele>573.900024</ele>
        <time>2013-05-25T09:56:06Z</time>
      </trkpt>
      <trkpt lat="43.77896" lon="3.54429">
        <ele>573.599976</ele>
        <time>2013-05-25T09:56:07Z</time>
      </trkpt>
      <trkpt lat="43.77893" lon="3.54421">
        <ele>573.299988</ele>
        <time>2013-05-25T09:56:08Z</time>
      </trkpt>
      <trkpt lat="43.77891" lon="3.54414">
        <ele>573</ele>
        <time>2013-05-25T09:56:09Z</time>
      </trkpt>
      <trkpt lat="43.77889" lon="3.54408">
        <ele>572.799988</ele>
        <time>2013-05-25T09:56:10Z</time>
      </trkpt>
      <trkpt lat="43.77887" lon="3.54402">
        <ele>572.799988</ele>
        <time>2013-05-25T09:56:11Z</time>
      </trkpt>
      <trkpt lat="43.77885" lon="3.54396">
        <ele>572.799988</ele>
        <time>2013-05-25T09:56:12Z</time>
      </trkpt>
      <trkpt lat="43.77884" lon="3.54389">
        <ele>572.700012</ele>
        <time>2013-05-25T09:56:13Z</time>
      </trkpt>
      <trkpt lat="43.77882" lon="3.54383">
        <ele>572.700012</ele>
        <time>2013-05-25T09:56:14Z</time>
      </trkpt>
      <trkpt lat="43.7788" lon="3.54376">
        <ele>572.700012</ele>
        <time>2013-05-25T09:56:15Z</time>
      </trkpt>
      <trkpt lat="43.77879" lon="3.5437">
        <ele>572.700012</ele>
        <time>2013-05-25T09:56:16Z</time>
      </trkpt>
      <trkpt lat="43.77878" lon="3.54363">
        <ele>572.400024</ele>
        <time>2013-05-25T09:56:17Z</time>
      </trkpt>
      <trkpt lat="43.77877" lon="3.54355">
        <ele>572.099976</ele>
        <time>2013-05-25T09:56:18Z</time>
      </trkpt>
      <trkpt lat="43.77876" lon="3.54348">
        <ele>571.900024</ele>
        <time>2013-05-25T09:56:19Z</time>
      </trkpt>
      <trkpt lat="43.77874" lon="3.54341">
        <ele>571.299988</ele>
        <time>2013-05-25T09:56:20Z</time>
      </trkpt>
      <trkpt lat="43.77871" lon="3.54334">
        <ele>570.900024</ele>
        <time>2013-05-25T09:56:21Z</time>
      </trkpt>
      <trkpt lat="43.77868" lon="3.54327">
        <ele>570.599976</ele>
        <time>2013-05-25T09:56:22Z</time>
      </trkpt>
      <trkpt lat="43.77865" lon="3.54319">
        <ele>570.299988</ele>
        <time>2013-05-25T09:56:23Z</time>
      </trkpt>
      <trkpt lat="43.77863" lon="3.54312">
        <ele>570.200012</ele>
        <time>2013-05-25T09:56:24Z</time>
      </trkpt>
      <trkpt lat="43.7786" lon="3.54305">
        <ele>570.099976</ele>
        <time>2013-05-25T09:56:25Z</time>
      </trkpt>
      <trkpt lat="43.77856" lon="3.54294">
        <ele>569.700012</ele>
        <time>2013-05-25T09:56:27Z</time>
      </trkpt>
      <trkpt lat="43.77854" lon="3.54284">
        <ele>568.700012</ele>
        <time>2013-05-25T09:56:30Z</time>
      </trkpt>
      <trkpt lat="43.77852" lon="3.54272">
        <ele>567.299988</ele>
        <time>2013-05-25T09:56:34Z</time>
      </trkpt>
      <trkpt lat="43.77849" lon="3.54265">
        <ele>566.900024</ele>
        <time>2013-05-25T09:56:36Z</time>
      </trkpt>
      <trkpt lat="43.77847" lon="3.54256">
        <ele>566.599976</ele>
        <time>2013-05-25T09:56:38Z</time>
      </trkpt>
      <trkpt lat="43.77847" lon="3.54245">
        <ele>566.700012</ele>
        <time>2013-05-25T09:56:40Z</time>
      </trkpt>
      <trkpt lat="43.77847" lon="3.54233">
        <ele>566.900024</ele>
        <time>2013-05-25T09:56:42Z</time>
      </trkpt>
      <trkpt lat="43.77847" lon="3.54227">
        <ele>566.299988</ele>
        <time>2013-05-25T09:56:43Z</time>
      </trkpt>
      <trkpt lat="43.77847" lon="3.54221">
        <ele>565.799988</ele>
        <time>2013-05-25T09:56:44Z</time>
      </trkpt>
      <trkpt lat="43.77847" lon="3.54209">
        <ele>565.400024</ele>
        <time>2013-05-25T09:56:46Z</time>
      </trkpt>
      <trkpt lat="43.77848" lon="3.54197">
        <ele>565.400024</ele>
        <time>2013-05-25T09:56:48Z</time>
      </trkpt>
      <trkpt lat="43.77849" lon="3.54186">
        <ele>565.200012</ele>
        <time>2013-05-25T09:56:50Z</time>
      </trkpt>
      <trkpt lat="43.77848" lon="3.54175">
        <ele>564.5</ele>
        <time>2013-05-25T09:56:52Z</time>
      </trkpt>
      <trkpt lat="43.77847" lon="3.54169">
        <ele>564.099976</ele>
        <time>2013-05-25T09:56:53Z</time>
      </trkpt>
      <trkpt lat="43.77846" lon="3.54162">
        <ele>563.799988</ele>
        <time>2013-05-25T09:56:54Z</time>
      </trkpt>
      <trkpt lat="43.77844" lon="3.54156">
        <ele>563.5</ele>
        <time>2013-05-25T09:56:55Z</time>
      </trkpt>
      <trkpt lat="43.77843" lon="3.54149">
        <ele>562.900024</ele>
        <time>2013-05-25T09:56:56Z</time>
      </trkpt>
      <trkpt lat="43.77841" lon="3.54142">
        <ele>562.400024</ele>
        <time>2013-05-25T09:56:57Z</time>
      </trkpt>
      <trkpt lat="43.77839" lon="3.54135">
        <ele>562</ele>
        <time>2013-05-25T09:56:58Z</time>
      </trkpt>
      <trkpt lat="43.77836" lon="3.54128">
        <ele>561.900024</ele>
        <time>2013-05-25T09:56:59Z</time>
      </trkpt>
      <trkpt lat="43.77832" lon="3.54122">
        <ele>561.799988</ele>
        <time>2013-05-25T09:57:00Z</time>
      </trkpt>
      <trkpt lat="43.77829" lon="3.54117">
        <ele>561.799988</ele>
        <time>2013-05-25T09:57:01Z</time>
      </trkpt>
      <trkpt lat="43.77825" lon="3.54111">
        <ele>561.5</ele>
        <time>2013-05-25T09:57:02Z</time>
      </trkpt>
      <trkpt lat="43.77823" lon="3.54104">
        <ele>561.299988</ele>
        <time>2013-05-25T09:57:03Z</time>
      </trkpt>
      <trkpt lat="43.7782" lon="3.54097">
        <ele>561.200012</ele>
        <time>2013-05-25T09:57:04Z</time>
      </trkpt>
      <trkpt lat="43.77818" lon="3.5409">
        <ele>560.799988</ele>
        <time>2013-05-25T09:57:05Z</time>
      </trkpt>
      <trkpt lat="43.77815" lon="3.54082">
        <ele>560.599976</ele>
        <time>2013-05-25T09:57:06Z</time>
      </trkpt>
      <trkpt lat="43.77812" lon="3.54075">
        <ele>560.299988</ele>
        <time>2013-05-25T09:57:07Z</time>
      </trkpt>
      <trkpt lat="43.77809" lon="3.54067">
        <ele>559.799988</ele>
        <time>2013-05-25T09:57:08Z</time>
      </trkpt>
      <trkpt lat="43.77806" lon="3.54059">
        <ele>559.299988</ele>
        <time>2013-05-25T09:57:09Z</time>
      </trkpt>
      <trkpt lat="43.77803" lon="3.5405">
        <ele>559</ele>
        <time>2013-05-25T09:57:10Z</time>
      </trkpt>
      <trkpt lat="43.778" lon="3.54041">
        <ele>558.5</ele>
        <time>2013-05-25T09:57:11Z</time>
      </trkpt>
      <trkpt lat="43.77797" lon="3.54031">
        <ele>558.099976</ele>
        <time>2013-05-25T09:57:12Z</time>
      </trkpt>
      <trkpt lat="43.77794" lon="3.54021">
        <ele>557.799988</ele>
        <time>2013-05-25T09:57:13Z</time>
      </trkpt>
      <trkpt lat="43.77791" lon="3.54012">
        <ele>557.599976</ele>
        <time>2013-05-25T09:57:14Z</time>
      </trkpt>
      <trkpt lat="43.77788" lon="3.54003">
        <ele>557.099976</ele>
        <time>2013-05-25T09:57:15Z</time>
      </trkpt>
      <trkpt lat="43.77784" lon="3.53996">
        <ele>556.700012</ele>
        <time>2013-05-25T09:57:16Z</time>
      </trkpt>
      <trkpt lat="43.7778" lon="3.53989">
        <ele>556.400024</ele>
        <time>2013-05-25T09:57:17Z</time>
      </trkpt>
      <trkpt lat="43.77776" lon="3.53982">
        <ele>555.5</ele>
        <time>2013-05-25T09:57:18Z</time>
      </trkpt>
      <trkpt lat="43.77773" lon="3.53976">
        <ele>554.900024</ele>
        <time>2013-05-25T09:57:19Z</time>
      </trkpt>
      <trkpt lat="43.7777" lon="3.53971">
        <ele>554.400024</ele>
        <time>2013-05-25T09:57:20Z</time>
      </trkpt>
      <trkpt lat="43.77765" lon="3.53961">
        <ele>552.599976</ele>
        <time>2013-05-25T09:57:23Z</time>
      </trkpt>
      <trkpt lat="43.77758" lon="3.53953">
        <ele>548.099976</ele>
        <time>2013-05-25T10:00:18Z</time>
      </trkpt>
      <trkpt lat="43.77757" lon="3.53952">
        <ele>548.200012</ele>
        <time>2013-05-25T10:00:19Z</time>
      </trkpt>
      <trkpt lat="43.77745" lon="3.53947">
        <ele>548.299988</ele>
        <time>2013-05-25T10:00:29Z</time>
      </trkpt>
      <trkpt lat="43.77742" lon="3.53942">
        <ele>548</ele>
        <time>2013-05-25T10:00:30Z</time>
      </trkpt>
      <trkpt lat="43.77739" lon="3.53935">
        <ele>547.900024</ele>
        <time>2013-05-25T10:00:31Z</time>
      </trkpt>
      <trkpt lat="43.77736" lon="3.53926">
        <ele>547.700012</ele>
        <time>2013-05-25T10:00:32Z</time>
      </trkpt>
      <trkpt lat="43.77732" lon="3.53917">
        <ele>547.200012</ele>
        <time>2013-05-25T10:00:33Z</time>
      </trkpt>
      <trkpt lat="43.77728" lon="3.53907">
        <ele>546.799988</ele>
        <time>2013-05-25T10:00:34Z</time>
      </trkpt>
      <trkpt lat="43.77722" lon="3.53897">
        <ele>546.5</ele>
        <time>2013-05-25T10:00:35Z</time>
      </trkpt>
      <trkpt lat="43.77716" lon="3.53887">
        <ele>545.400024</ele>
        <time>2013-05-25T10:00:36Z</time>
      </trkpt>
      <trkpt lat="43.77711" lon="3.53877">
        <ele>544.700012</ele>
        <time>2013-05-25T10:00:37Z</time>
      </trkpt>
      <trkpt lat="43.77706" lon="3.53865">
        <ele>544.099976</ele>
        <time>2013-05-25T10:00:38Z</time>
      </trkpt>
      <trkpt lat="43.77701" lon="3.53853">
        <ele>543.5</ele>
        <time>2013-05-25T10:00:39Z</time>
      </trkpt>
      <trkpt lat="43.77694" lon="3.53843">
        <ele>543</ele>
        <time>2013-05-25T10:00:40Z</time>
      </trkpt>
      <trkpt lat="43.77687" lon="3.53832">
        <ele>542.599976</ele>
        <time>2013-05-25T10:00:41Z</time>
      </trkpt>
      <trkpt lat="43.77681" lon="3.53821">
        <ele>541.599976</ele>
        <time>2013-05-25T10:00:42Z</time>
      </trkpt>
      <trkpt lat="43.77674" lon="3.53809">
        <ele>540.799988</ele>
        <time>2013-05-25T10:00:43Z</time>
      </trkpt>
      <trkpt lat="43.77668" lon="3.53798">
        <ele>540.200012</ele>
        <time>2013-05-25T10:00:44Z</time>
      </trkpt>
      <trkpt lat="43.77661" lon="3.53791">
        <ele>539.200012</ele>
        <time>2013-05-25T10:00:45Z</time>
      </trkpt>
      <trkpt lat="43.77652" lon="3.53787">
        <ele>538.400024</ele>
        <time>2013-05-25T10:00:46Z</time>
      </trkpt>
      <trkpt lat="43.77642" lon="3.53786">
        <ele>537.900024</ele>
        <time>2013-05-25T10:00:47Z</time>
      </trkpt>
      <trkpt lat="43.77632" lon="3.53784">
        <ele>537.5</ele>
        <time>2013-05-25T10:00:48Z</time>
      </trkpt>
      <trkpt lat="43.77622" lon="3.53781">
        <ele>536.400024</ele>
        <time>2013-05-25T10:00:49Z</time>
      </trkpt>
      <trkpt lat="43.77611" lon="3.53779">
        <ele>535.700012</ele>
        <time>2013-05-25T10:00:50Z</time>
      </trkpt>
      <trkpt lat="43.776" lon="3.53777">
        <ele>535.099976</ele>
        <time>2013-05-25T10:00:51Z</time>
      </trkpt>
      <trkpt lat="43.7759" lon="3.53774">
        <ele>533.200012</ele>
        <time>2013-05-25T10:00:52Z</time>
      </trkpt>
      <trkpt lat="43.77579" lon="3.53768">
        <ele>531.799988</ele>
        <time>2013-05-25T10:00:53Z</time>
      </trkpt>
      <trkpt lat="43.77569" lon="3.5376">
        <ele>530.700012</ele>
        <time>2013-05-25T10:00:54Z</time>
      </trkpt>
      <trkpt lat="43.77559" lon="3.53752">
        <ele>529.099976</ele>
        <time>2013-05-25T10:00:55Z</time>
      </trkpt>
      <trkpt lat="43.77548" lon="3.53745">
        <ele>527.900024</ele>
        <time>2013-05-25T10:00:56Z</time>
      </trkpt>
      <trkpt lat="43.77537" lon="3.53741">
        <ele>527</ele>
        <time>2013-05-25T10:00:57Z</time>
      </trkpt>
      <trkpt lat="43.77525" lon="3.5374">
        <ele>525.5</ele>
        <time>2013-05-25T10:00:58Z</time>
      </trkpt>
      <trkpt lat="43.77513" lon="3.53738">
        <ele>524.5</ele>
        <time>2013-05-25T10:00:59Z</time>
      </trkpt>
      <trkpt lat="43.77502" lon="3.53735">
        <ele>523.700012</ele>
        <time>2013-05-25T10:01:00Z</time>
      </trkpt>
      <trkpt lat="43.7749" lon="3.5373">
        <ele>522.5</ele>
        <time>2013-05-25T10:01:01Z</time>
      </trkpt>
      <trkpt lat="43.77479" lon="3.53726">
        <ele>521.599976</ele>
        <time>2013-05-25T10:01:02Z</time>
      </trkpt>
      <trkpt lat="43.77468" lon="3.53723">
        <ele>520.900024</ele>
        <time>2013-05-25T10:01:03Z</time>
      </trkpt>
      <trkpt lat="43.77457" lon="3.53722">
        <ele>520.400024</ele>
        <time>2013-05-25T10:01:04Z</time>
      </trkpt>
      <trkpt lat="43.77448" lon="3.53726">
        <ele>519.5</ele>
        <time>2013-05-25T10:01:05Z</time>
      </trkpt>
      <trkpt lat="43.7744" lon="3.53734">
        <ele>518.799988</ele>
        <time>2013-05-25T10:01:06Z</time>
      </trkpt>
      <trkpt lat="43.77432" lon="3.53742">
        <ele>518.299988</ele>
        <time>2013-05-25T10:01:07Z</time>
      </trkpt>
      <trkpt lat="43.77424" lon="3.53749">
        <ele>517.5</ele>
        <time>2013-05-25T10:01:08Z</time>
      </trkpt>
      <trkpt lat="43.77414" lon="3.53755">
        <ele>516.799988</ele>
        <time>2013-05-25T10:01:09Z</time>
      </trkpt>
      <trkpt lat="43.77404" lon="3.5376">
        <ele>516.400024</ele>
        <time>2013-05-25T10:01:10Z</time>
      </trkpt>
      <trkpt lat="43.77394" lon="3.53765">
        <ele>515.099976</ele>
        <time>2013-05-25T10:01:11Z</time>
      </trkpt>
      <trkpt lat="43.77384" lon="3.53769">
        <ele>514.099976</ele>
        <time>2013-05-25T10:01:12Z</time>
      </trkpt>
      <trkpt lat="43.77374" lon="3.53773">
        <ele>513.400024</ele>
        <time>2013-05-25T10:01:13Z</time>
      </trkpt>
      <trkpt lat="43.77365" lon="3.53774">
        <ele>512.799988</ele>
        <time>2013-05-25T10:01:14Z</time>
      </trkpt>
      <trkpt lat="43.77356" lon="3.53771">
        <ele>512.400024</ele>
        <time>2013-05-25T10:01:15Z</time>
      </trkpt>
      <trkpt lat="43.7735" lon="3.53766">
        <ele>512.099976</ele>
        <time>2013-05-25T10:01:16Z</time>
      </trkpt>
      <trkpt lat="43.77345" lon="3.53759">
        <ele>512</ele>
        <time>2013-05-25T10:01:17Z</time>
      </trkpt>
      <trkpt lat="43.77341" lon="3.53752">
        <ele>511.899994</ele>
        <time>2013-05-25T10:01:18Z</time>
      </trkpt>
      <trkpt lat="43.77337" lon="3.53745">
        <ele>511.799988</ele>
        <time>2013-05-25T10:01:19Z</time>
      </trkpt>
      <trkpt lat="43.77333" lon="3.53738">
        <ele>511.700012</ele>
        <time>2013-05-25T10:01:20Z</time>
      </trkpt>
      <trkpt lat="43.77328" lon="3.53731">
        <ele>511.600006</ele>
        <time>2013-05-25T10:01:21Z</time>
      </trkpt>
      <trkpt lat="43.77323" lon="3.53724">
        <ele>511.5</ele>
        <time>2013-05-25T10:01:22Z</time>
      </trkpt>
      <trkpt lat="43.77318" lon="3.53717">
        <ele>511.399994</ele>
        <time>2013-05-25T10:01:23Z</time>
      </trkpt>
      <trkpt lat="43.77313" lon="3.53709">
        <ele>511.200012</ele>
        <time>2013-05-25T10:01:24Z</time>
      </trkpt>
      <trkpt lat="43.7731" lon="3.537">
        <ele>511</ele>
        <time>2013-05-25T10:01:25Z</time>
      </trkpt>
      <trkpt lat="43.77311" lon="3.53689">
        <ele>510.799988</ele>
        <time>2013-05-25T10:01:26Z</time>
      </trkpt>
      <trkpt lat="43.77311" lon="3.53679">
        <ele>510.399994</ele>
        <time>2013-05-25T10:01:27Z</time>
      </trkpt>
      <trkpt lat="43.77311" lon="3.53669">
        <ele>510.100006</ele>
        <time>2013-05-25T10:01:28Z</time>
      </trkpt>
      <trkpt lat="43.77311" lon="3.5366">
        <ele>509.799988</ele>
        <time>2013-05-25T10:01:29Z</time>
      </trkpt>
      <trkpt lat="43.77311" lon="3.53652">
        <ele>509.899994</ele>
        <time>2013-05-25T10:01:30Z</time>
      </trkpt>
      <trkpt lat="43.7731" lon="3.53645">
        <ele>509.899994</ele>
        <time>2013-05-25T10:01:31Z</time>
      </trkpt>
      <trkpt lat="43.7731" lon="3.53637">
        <ele>510</ele>
        <time>2013-05-25T10:01:32Z</time>
      </trkpt>
      <trkpt lat="43.7731" lon="3.5363">
        <ele>509.799988</ele>
        <time>2013-05-25T10:01:33Z</time>
      </trkpt>
      <trkpt lat="43.7731" lon="3.53623">
        <ele>509.600006</ele>
        <time>2013-05-25T10:01:34Z</time>
      </trkpt>
      <trkpt lat="43.7731" lon="3.53616">
        <ele>509.5</ele>
        <time>2013-05-25T10:01:35Z</time>
      </trkpt>
      <trkpt lat="43.77311" lon="3.53609">
        <ele>509.899994</ele>
        <time>2013-05-25T10:01:36Z</time>
      </trkpt>
      <trkpt lat="43.77311" lon="3.53602">
        <ele>510.100006</ele>
        <time>2013-05-25T10:01:37Z</time>
      </trkpt>
      <trkpt lat="43.77311" lon="3.53595">
        <ele>510.299988</ele>
        <time>2013-05-25T10:01:38Z</time>
      </trkpt>
      <trkpt lat="43.7731" lon="3.53588">
        <ele>510.5</ele>
        <time>2013-05-25T10:01:39Z</time>
      </trkpt>
      <trkpt lat="43.77308" lon="3.53581">
        <ele>510.200012</ele>
        <time>2013-05-25T10:01:40Z</time>
      </trkpt>
      <trkpt lat="43.77306" lon="3.53575">
        <ele>510</ele>
        <time>2013-05-25T10:01:41Z</time>
      </trkpt>
      <trkpt lat="43.77304" lon="3.53568">
        <ele>509.799988</ele>
        <time>2013-05-25T10:01:42Z</time>
      </trkpt>
      <trkpt lat="43.77302" lon="3.53562">
        <ele>510</ele>
        <time>2013-05-25T10:01:43Z</time>
      </trkpt>
      <trkpt lat="43.773" lon="3.53555">
        <ele>510.200012</ele>
        <time>2013-05-25T10:01:44Z</time>
      </trkpt>
      <trkpt lat="43.77298" lon="3.53549">
        <ele>510.299988</ele>
        <time>2013-05-25T10:01:45Z</time>
      </trkpt>
      <trkpt lat="43.77296" lon="3.53542">
        <ele>510.5</ele>
        <time>2013-05-25T10:01:46Z</time>
      </trkpt>
      <trkpt lat="43.77295" lon="3.53535">
        <ele>510.700012</ele>
        <time>2013-05-25T10:01:47Z</time>
      </trkpt>
      <trkpt lat="43.77293" lon="3.53528">
        <ele>510.799988</ele>
        <time>2013-05-25T10:01:48Z</time>
      </trkpt>
      <trkpt lat="43.77292" lon="3.53522">
        <ele>511.100006</ele>
        <time>2013-05-25T10:01:49Z</time>
      </trkpt>
      <trkpt lat="43.77291" lon="3.53515">
        <ele>511.299988</ele>
        <time>2013-05-25T10:01:50Z</time>
      </trkpt>
      <trkpt lat="43.77289" lon="3.53508">
        <ele>511.5</ele>
        <time>2013-05-25T10:01:51Z</time>
      </trkpt>
      <trkpt lat="43.77288" lon="3.53502">
        <ele>511.799988</ele>
        <time>2013-05-25T10:01:52Z</time>
      </trkpt>
      <trkpt lat="43.77286" lon="3.53495">
        <ele>512</ele>
        <time>2013-05-25T10:01:53Z</time>
      </trkpt>
      <trkpt lat="43.77285" lon="3.53488">
        <ele>512.200012</ele>
        <time>2013-05-25T10:01:54Z</time>
      </trkpt>
      <trkpt lat="43.77284" lon="3.53482">
        <ele>512.400024</ele>
        <time>2013-05-25T10:01:55Z</time>
      </trkpt>
      <trkpt lat="43.77282" lon="3.53475">
        <ele>512.299988</ele>
        <time>2013-05-25T10:01:56Z</time>
      </trkpt>
      <trkpt lat="43.77281" lon="3.53468">
        <ele>512.299988</ele>
        <time>2013-05-25T10:01:57Z</time>
      </trkpt>
      <trkpt lat="43.7728" lon="3.53462">
        <ele>512.299988</ele>
        <time>2013-05-25T10:01:58Z</time>
      </trkpt>
      <trkpt lat="43.77278" lon="3.53455">
        <ele>512.599976</ele>
        <time>2013-05-25T10:01:59Z</time>
      </trkpt>
      <trkpt lat="43.77277" lon="3.53449">
        <ele>512.900024</ele>
        <time>2013-05-25T10:02:00Z</time>
      </trkpt>
      <trkpt lat="43.77275" lon="3.53443">
        <ele>513</ele>
        <time>2013-05-25T10:02:01Z</time>
      </trkpt>
      <trkpt lat="43.77274" lon="3.53437">
        <ele>513.099976</ele>
        <time>2013-05-25T10:02:02Z</time>
      </trkpt>
      <trkpt lat="43.77273" lon="3.5343">
        <ele>513.099976</ele>
        <time>2013-05-25T10:02:03Z</time>
      </trkpt>
      <trkpt lat="43.77272" lon="3.53424">
        <ele>513.099976</ele>
        <time>2013-05-25T10:02:04Z</time>
      </trkpt>
      <trkpt lat="43.77271" lon="3.53418">
        <ele>513.400024</ele>
        <time>2013-05-25T10:02:05Z</time>
      </trkpt>
      <trkpt lat="43.7727" lon="3.53411">
        <ele>513.599976</ele>
        <time>2013-05-25T10:02:06Z</time>
      </trkpt>
      <trkpt lat="43.7727" lon="3.53405">
        <ele>513.799988</ele>
        <time>2013-05-25T10:02:07Z</time>
      </trkpt>
      <trkpt lat="43.77269" lon="3.53399">
        <ele>514.200012</ele>
        <time>2013-05-25T10:02:08Z</time>
      </trkpt>
      <trkpt lat="43.77268" lon="3.53393">
        <ele>514.599976</ele>
        <time>2013-05-25T10:02:09Z</time>
      </trkpt>
      <trkpt lat="43.77267" lon="3.5338">
        <ele>515</ele>
        <time>2013-05-25T10:02:11Z</time>
      </trkpt>
      <trkpt lat="43.77265" lon="3.53369">
        <ele>515.400024</ele>
        <time>2013-05-25T10:02:13Z</time>
      </trkpt>
      <trkpt lat="43.77262" lon="3.53358">
        <ele>516</ele>
        <time>2013-05-25T10:02:15Z</time>
      </trkpt>
      <trkpt lat="43.77258" lon="3.53348">
        <ele>516.700012</ele>
        <time>2013-05-25T10:02:17Z</time>
      </trkpt>
      <trkpt lat="43.77255" lon="3.53338">
        <ele>517.200012</ele>
        <time>2013-05-25T10:02:19Z</time>
      </trkpt>
      <trkpt lat="43.77251" lon="3.53329">
        <ele>517.700012</ele>
        <time>2013-05-25T10:02:21Z</time>
      </trkpt>
      <trkpt lat="43.77249" lon="3.53323">
        <ele>517.900024</ele>
        <time>2013-05-25T10:02:22Z</time>
      </trkpt>
      <trkpt lat="43.77247" lon="3.53306">
        <ele>517.700012</ele>
        <time>2013-05-25T10:02:25Z</time>
      </trkpt>
      <trkpt lat="43.77247" lon="3.533">
        <ele>517.599976</ele>
        <time>2013-05-25T10:02:26Z</time>
      </trkpt>
      <trkpt lat="43.77247" lon="3.53293">
        <ele>517.5</ele>
        <time>2013-05-25T10:02:27Z</time>
      </trkpt>
      <trkpt lat="43.77247" lon="3.53287">
        <ele>517.799988</ele>
        <time>2013-05-25T10:02:28Z</time>
      </trkpt>
      <trkpt lat="43.77248" lon="3.5328">
        <ele>518</ele>
        <time>2013-05-25T10:02:29Z</time>
      </trkpt>
      <trkpt lat="43.77249" lon="3.53273">
        <ele>518.099976</ele>
        <time>2013-05-25T10:02:30Z</time>
      </trkpt>
      <trkpt lat="43.77249" lon="3.53267">
        <ele>518.200012</ele>
        <time>2013-05-25T10:02:31Z</time>
      </trkpt>
      <trkpt lat="43.7725" lon="3.53254">
        <ele>518.200012</ele>
        <time>2013-05-25T10:02:33Z</time>
      </trkpt>
      <trkpt lat="43.7725" lon="3.53243">
        <ele>517.900024</ele>
        <time>2013-05-25T10:02:35Z</time>
      </trkpt>
      <trkpt lat="43.77248" lon="3.53231">
        <ele>518.299988</ele>
        <time>2013-05-25T10:02:37Z</time>
      </trkpt>
      <trkpt lat="43.77247" lon="3.53225">
        <ele>518.799988</ele>
        <time>2013-05-25T10:02:38Z</time>
      </trkpt>
      <trkpt lat="43.77246" lon="3.53218">
        <ele>519.099976</ele>
        <time>2013-05-25T10:02:39Z</time>
      </trkpt>
      <trkpt lat="43.77244" lon="3.53211">
        <ele>518.200012</ele>
        <time>2013-05-25T10:02:40Z</time>
      </trkpt>
      <trkpt lat="43.77242" lon="3.53204">
        <ele>517.599976</ele>
        <time>2013-05-25T10:02:41Z</time>
      </trkpt>
      <trkpt lat="43.7724" lon="3.53198">
        <ele>517.099976</ele>
        <time>2013-05-25T10:02:42Z</time>
      </trkpt>
      <trkpt lat="43.77237" lon="3.53193">
        <ele>517.099976</ele>
        <time>2013-05-25T10:02:43Z</time>
      </trkpt>
      <trkpt lat="43.77232" lon="3.53189">
        <ele>517.099976</ele>
        <time>2013-05-25T10:02:44Z</time>
      </trkpt>
      <trkpt lat="43.77228" lon="3.53186">
        <ele>517.099976</ele>
        <time>2013-05-25T10:02:45Z</time>
      </trkpt>
      <trkpt lat="43.77223" lon="3.53185">
        <ele>517.099976</ele>
        <time>2013-05-25T10:02:46Z</time>
      </trkpt>
      <trkpt lat="43.77218" lon="3.53186">
        <ele>516.400024</ele>
        <time>2013-05-25T10:02:47Z</time>
      </trkpt>
      <trkpt lat="43.77214" lon="3.53188">
        <ele>515.799988</ele>
        <time>2013-05-25T10:02:48Z</time>
      </trkpt>
      <trkpt lat="43.77205" lon="3.53189">
        <ele>514.5</ele>
        <time>2013-05-25T10:02:51Z</time>
      </trkpt>
      <trkpt lat="43.77197" lon="3.53185">
        <ele>508.899994</ele>
        <time>2013-05-25T10:03:14Z</time>
      </trkpt>
      <trkpt lat="43.77192" lon="3.53184">
        <ele>508.100006</ele>
        <time>2013-05-25T10:03:16Z</time>
      </trkpt>
      <trkpt lat="43.77185" lon="3.53186">
        <ele>507.700012</ele>
        <time>2013-05-25T10:03:18Z</time>
      </trkpt>
      <trkpt lat="43.77178" lon="3.5319">
        <ele>506.799988</ele>
        <time>2013-05-25T10:03:20Z</time>
      </trkpt>
      <trkpt lat="43.77172" lon="3.53188">
        <ele>506</ele>
        <time>2013-05-25T10:03:22Z</time>
      </trkpt>
      <trkpt lat="43.77168" lon="3.53185">
        <ele>505.600006</ele>
        <time>2013-05-25T10:03:23Z</time>
      </trkpt>
      <trkpt lat="43.7716" lon="3.53173">
        <ele>504.399994</ele>
        <time>2013-05-25T10:03:26Z</time>
      </trkpt>
      <trkpt lat="43.77155" lon="3.53163">
        <ele>503.5</ele>
        <time>2013-05-25T10:03:28Z</time>
      </trkpt>
      <trkpt lat="43.77152" lon="3.53158">
        <ele>503.100006</ele>
        <time>2013-05-25T10:03:29Z</time>
      </trkpt>
      <trkpt lat="43.77149" lon="3.53154">
        <ele>502.799988</ele>
        <time>2013-05-25T10:03:30Z</time>
      </trkpt>
      <trkpt lat="43.77144" lon="3.53151">
        <ele>502.100006</ele>
        <time>2013-05-25T10:03:31Z</time>
      </trkpt>
      <trkpt lat="43.77139" lon="3.5315">
        <ele>501.5</ele>
        <time>2013-05-25T10:03:32Z</time>
      </trkpt>
      <trkpt lat="43.77133" lon="3.53148">
        <ele>501.100006</ele>
        <time>2013-05-25T10:03:33Z</time>
      </trkpt>
      <trkpt lat="43.77127" lon="3.53146">
        <ele>500.799988</ele>
        <time>2013-05-25T10:03:34Z</time>
      </trkpt>
      <trkpt lat="43.77121" lon="3.53145">
        <ele>500.399994</ele>
        <time>2013-05-25T10:03:35Z</time>
      </trkpt>
      <trkpt lat="43.77115" lon="3.53144">
        <ele>500.100006</ele>
        <time>2013-05-25T10:03:36Z</time>
      </trkpt>
      <trkpt lat="43.7711" lon="3.53142">
        <ele>499.899994</ele>
        <time>2013-05-25T10:03:37Z</time>
      </trkpt>
      <trkpt lat="43.77104" lon="3.53141">
        <ele>499</ele>
        <time>2013-05-25T10:03:38Z</time>
      </trkpt>
      <trkpt lat="43.77099" lon="3.53139">
        <ele>498.299988</ele>
        <time>2013-05-25T10:03:39Z</time>
      </trkpt>
      <trkpt lat="43.77094" lon="3.53137">
        <ele>497.799988</ele>
        <time>2013-05-25T10:03:40Z</time>
      </trkpt>
      <trkpt lat="43.77089" lon="3.53138">
        <ele>497.399994</ele>
        <time>2013-05-25T10:03:41Z</time>
      </trkpt>
      <trkpt lat="43.77084" lon="3.53139">
        <ele>497.100006</ele>
        <time>2013-05-25T10:03:42Z</time>
      </trkpt>
      <trkpt lat="43.7708" lon="3.53142">
        <ele>496.799988</ele>
        <time>2013-05-25T10:03:43Z</time>
      </trkpt>
      <trkpt lat="43.77075" lon="3.53143">
        <ele>496.299988</ele>
        <time>2013-05-25T10:03:44Z</time>
      </trkpt>
      <trkpt lat="43.7707" lon="3.53143">
        <ele>495.899994</ele>
        <time>2013-05-25T10:03:45Z</time>
      </trkpt>
      <trkpt lat="43.77065" lon="3.53143">
        <ele>495.600006</ele>
        <time>2013-05-25T10:03:46Z</time>
      </trkpt>
      <trkpt lat="43.77061" lon="3.53144">
        <ele>495.5</ele>
        <time>2013-05-25T10:03:47Z</time>
      </trkpt>
      <trkpt lat="43.77056" lon="3.53146">
        <ele>495.5</ele>
        <time>2013-05-25T10:03:48Z</time>
      </trkpt>
      <trkpt lat="43.77052" lon="3.53148">
        <ele>495.399994</ele>
        <time>2013-05-25T10:03:49Z</time>
      </trkpt>
      <trkpt lat="43.77047" lon="3.5315">
        <ele>495.399994</ele>
        <time>2013-05-25T10:03:50Z</time>
      </trkpt>
      <trkpt lat="43.77039" lon="3.5315">
        <ele>494.799988</ele>
        <time>2013-05-25T10:03:52Z</time>
      </trkpt>
      <trkpt lat="43.77035" lon="3.53143">
        <ele>494.200012</ele>
        <time>2013-05-25T10:03:54Z</time>
      </trkpt>
      <trkpt lat="43.77032" lon="3.53134">
        <ele>493.700012</ele>
        <time>2013-05-25T10:03:56Z</time>
      </trkpt>
      <trkpt lat="43.77027" lon="3.53123">
        <ele>493.899994</ele>
        <time>2013-05-25T10:03:58Z</time>
      </trkpt>
      <trkpt lat="43.77022" lon="3.53114">
        <ele>493.799988</ele>
        <time>2013-05-25T10:04:00Z</time>
      </trkpt>
      <trkpt lat="43.77015" lon="3.53107">
        <ele>493.600006</ele>
        <time>2013-05-25T10:04:02Z</time>
      </trkpt>
      <trkpt lat="43.77008" lon="3.53101">
        <ele>493.799988</ele>
        <time>2013-05-25T10:04:04Z</time>
      </trkpt>
      <trkpt lat="43.77001" lon="3.53097">
        <ele>493.700012</ele>
        <time>2013-05-25T10:04:06Z</time>
      </trkpt>
      <trkpt lat="43.76994" lon="3.53091">
        <ele>493.399994</ele>
        <time>2013-05-25T10:04:08Z</time>
      </trkpt>
      <trkpt lat="43.76987" lon="3.53085">
        <ele>493.600006</ele>
        <time>2013-05-25T10:04:10Z</time>
      </trkpt>
      <trkpt lat="43.76979" lon="3.53079">
        <ele>494</ele>
        <time>2013-05-25T10:04:12Z</time>
      </trkpt>
      <trkpt lat="43.76974" lon="3.53072">
        <ele>494.200012</ele>
        <time>2013-05-25T10:04:14Z</time>
      </trkpt>
      <trkpt lat="43.76966" lon="3.53072">
        <ele>494.399994</ele>
        <time>2013-05-25T10:04:27Z</time>
      </trkpt>
      <trkpt lat="43.76964" lon="3.53075">
        <ele>494.399994</ele>
        <time>2013-05-25T10:04:28Z</time>
      </trkpt>
      <trkpt lat="43.76961" lon="3.53092">
        <ele>494.100006</ele>
        <time>2013-05-25T10:04:33Z</time>
      </trkpt>
      <trkpt lat="43.76958" lon="3.531">
        <ele>494</ele>
        <time>2013-05-25T10:04:35Z</time>
      </trkpt>
      <trkpt lat="43.76956" lon="3.53109">
        <ele>494.200012</ele>
        <time>2013-05-25T10:04:37Z</time>
      </trkpt>
      <trkpt lat="43.76949" lon="3.53114">
        <ele>492.899994</ele>
        <time>2013-05-25T10:04:40Z</time>
      </trkpt>
      <trkpt lat="43.76943" lon="3.53114">
        <ele>492.200012</ele>
        <time>2013-05-25T10:04:42Z</time>
      </trkpt>
      <trkpt lat="43.76935" lon="3.53116">
        <ele>491.5</ele>
        <time>2013-05-25T10:04:44Z</time>
      </trkpt>
      <trkpt lat="43.76927" lon="3.53117">
        <ele>490.5</ele>
        <time>2013-05-25T10:04:46Z</time>
      </trkpt>
      <trkpt lat="43.76919" lon="3.53118">
        <ele>489.700012</ele>
        <time>2013-05-25T10:04:48Z</time>
      </trkpt>
      <trkpt lat="43.76912" lon="3.53118">
        <ele>489.100006</ele>
        <time>2013-05-25T10:04:50Z</time>
      </trkpt>
      <trkpt lat="43.76904" lon="3.53122">
        <ele>488.5</ele>
        <time>2013-05-25T10:04:52Z</time>
      </trkpt>
      <trkpt lat="43.76898" lon="3.53129">
        <ele>488.200012</ele>
        <time>2013-05-25T10:04:54Z</time>
      </trkpt>
      <trkpt lat="43.76891" lon="3.53135">
        <ele>488.100006</ele>
        <time>2013-05-25T10:04:56Z</time>
      </trkpt>
      <trkpt lat="43.76883" lon="3.53139">
        <ele>487.899994</ele>
        <time>2013-05-25T10:04:58Z</time>
      </trkpt>
      <trkpt lat="43.76877" lon="3.53144">
        <ele>487.700012</ele>
        <time>2013-05-25T10:05:00Z</time>
      </trkpt>
      <trkpt lat="43.7687" lon="3.53148">
        <ele>486.700012</ele>
        <time>2013-05-25T10:05:02Z</time>
      </trkpt>
      <trkpt lat="43.76863" lon="3.53154">
        <ele>485.799988</ele>
        <time>2013-05-25T10:05:04Z</time>
      </trkpt>
      <trkpt lat="43.76856" lon="3.53159">
        <ele>485.200012</ele>
        <time>2013-05-25T10:05:06Z</time>
      </trkpt>
      <trkpt lat="43.76849" lon="3.53161">
        <ele>484.799988</ele>
        <time>2013-05-25T10:05:08Z</time>
      </trkpt>
      <trkpt lat="43.76842" lon="3.5316">
        <ele>484.200012</ele>
        <time>2013-05-25T10:05:10Z</time>
      </trkpt>
      <trkpt lat="43.76834" lon="3.53161">
        <ele>483.600006</ele>
        <time>2013-05-25T10:05:12Z</time>
      </trkpt>
      <trkpt lat="43.76827" lon="3.53165">
        <ele>483.399994</ele>
        <time>2013-05-25T10:05:14Z</time>
      </trkpt>
      <trkpt lat="43.76821" lon="3.53171">
        <ele>483.200012</ele>
        <time>2013-05-25T10:05:16Z</time>
      </trkpt>
      <trkpt lat="43.76815" lon="3.53177">
        <ele>482.700012</ele>
        <time>2013-05-25T10:05:18Z</time>
      </trkpt>
      <trkpt lat="43.76812" lon="3.53187">
        <ele>482.200012</ele>
        <time>2013-05-25T10:05:21Z</time>
      </trkpt>
      <trkpt lat="43.76812" lon="3.53197">
        <ele>481.5</ele>
        <time>2013-05-25T10:05:23Z</time>
      </trkpt>
      <trkpt lat="43.7681" lon="3.53207">
        <ele>480.799988</ele>
        <time>2013-05-25T10:05:25Z</time>
      </trkpt>
      <trkpt lat="43.76804" lon="3.53212">
        <ele>479.600006</ele>
        <time>2013-05-25T10:05:27Z</time>
      </trkpt>
      <trkpt lat="43.76795" lon="3.53214">
        <ele>480</ele>
        <time>2013-05-25T10:05:33Z</time>
      </trkpt>
      <trkpt lat="43.76793" lon="3.53214">
        <ele>480</ele>
        <time>2013-05-25T10:05:34Z</time>
      </trkpt>
      <trkpt lat="43.7678" lon="3.53213">
        <ele>480.299988</ele>
        <time>2013-05-25T10:05:38Z</time>
      </trkpt>
      <trkpt lat="43.76772" lon="3.53213">
        <ele>479.600006</ele>
        <time>2013-05-25T10:05:40Z</time>
      </trkpt>
      <trkpt lat="43.76766" lon="3.53207">
        <ele>480</ele>
        <time>2013-05-25T10:05:42Z</time>
      </trkpt>
      <trkpt lat="43.7676" lon="3.53201">
        <ele>480.899994</ele>
        <time>2013-05-25T10:05:44Z</time>
      </trkpt>
      <trkpt lat="43.76755" lon="3.53199">
        <ele>481</ele>
        <time>2013-05-25T10:05:46Z</time>
      </trkpt>
      <trkpt lat="43.76748" lon="3.53198">
        <ele>481</ele>
        <time>2013-05-25T10:05:48Z</time>
      </trkpt>
      <trkpt lat="43.76741" lon="3.53198">
        <ele>480.700012</ele>
        <time>2013-05-25T10:05:50Z</time>
      </trkpt>
      <trkpt lat="43.76733" lon="3.53198">
        <ele>480.700012</ele>
        <time>2013-05-25T10:05:52Z</time>
      </trkpt>
      <trkpt lat="43.76725" lon="3.532">
        <ele>480.799988</ele>
        <time>2013-05-25T10:05:54Z</time>
      </trkpt>
      <trkpt lat="43.76716" lon="3.53203">
        <ele>480.299988</ele>
        <time>2013-05-25T10:05:56Z</time>
      </trkpt>
      <trkpt lat="43.76709" lon="3.5321">
        <ele>480</ele>
        <time>2013-05-25T10:05:58Z</time>
      </trkpt>
      <trkpt lat="43.76705" lon="3.53217">
        <ele>479.799988</ele>
        <time>2013-05-25T10:06:00Z</time>
      </trkpt>
      <trkpt lat="43.76699" lon="3.53223">
        <ele>479.700012</ele>
        <time>2013-05-25T10:06:02Z</time>
      </trkpt>
      <trkpt lat="43.76693" lon="3.5323">
        <ele>479.5</ele>
        <time>2013-05-25T10:06:04Z</time>
      </trkpt>
      <trkpt lat="43.76687" lon="3.53236">
        <ele>479.5</ele>
        <time>2013-05-25T10:06:06Z</time>
      </trkpt>
      <trkpt lat="43.76681" lon="3.53242">
        <ele>479</ele>
        <time>2013-05-25T10:06:08Z</time>
      </trkpt>
      <trkpt lat="43.76674" lon="3.53249">
        <ele>477.899994</ele>
        <time>2013-05-25T10:06:11Z</time>
      </trkpt>
      <trkpt lat="43.76668" lon="3.53254">
        <ele>477.5</ele>
        <time>2013-05-25T10:06:13Z</time>
      </trkpt>
      <trkpt lat="43.76663" lon="3.53258">
        <ele>477.299988</ele>
        <time>2013-05-25T10:06:15Z</time>
      </trkpt>
      <trkpt lat="43.76655" lon="3.53264">
        <ele>476.299988</ele>
        <time>2013-05-25T10:06:18Z</time>
      </trkpt>
      <trkpt lat="43.7665" lon="3.5327">
        <ele>475.399994</ele>
        <time>2013-05-25T10:06:20Z</time>
      </trkpt>
      <trkpt lat="43.76643" lon="3.53275">
        <ele>474.799988</ele>
        <time>2013-05-25T10:06:22Z</time>
      </trkpt>
      <trkpt lat="43.76638" lon="3.53281">
        <ele>474.200012</ele>
        <time>2013-05-25T10:06:24Z</time>
      </trkpt>
      <trkpt lat="43.76632" lon="3.53286">
        <ele>473.700012</ele>
        <time>2013-05-25T10:06:26Z</time>
      </trkpt>
      <trkpt lat="43.76626" lon="3.53291">
        <ele>473.799988</ele>
        <time>2013-05-25T10:06:28Z</time>
      </trkpt>
      <trkpt lat="43.7662" lon="3.53296">
        <ele>474</ele>
        <time>2013-05-25T10:06:30Z</time>
      </trkpt>
      <trkpt lat="43.76615" lon="3.53303">
        <ele>474.200012</ele>
        <time>2013-05-25T10:06:32Z</time>
      </trkpt>
      <trkpt lat="43.76608" lon="3.53309">
        <ele>474</ele>
        <time>2013-05-25T10:06:34Z</time>
      </trkpt>
      <trkpt lat="43.76605" lon="3.53313">
        <ele>473.899994</ele>
        <time>2013-05-25T10:06:35Z</time>
      </trkpt>
      <trkpt lat="43.76598" lon="3.5332">
        <ele>473.799988</ele>
        <time>2013-05-25T10:06:37Z</time>
      </trkpt>
      <trkpt lat="43.7659" lon="3.53325">
        <ele>473.700012</ele>
        <time>2013-05-25T10:06:39Z</time>
      </trkpt>
      <trkpt lat="43.76582" lon="3.53331">
        <ele>474</ele>
        <time>2013-05-25T10:06:42Z</time>
      </trkpt>
      <trkpt lat="43.76577" lon="3.53336">
        <ele>473.200012</ele>
        <time>2013-05-25T10:06:44Z</time>
      </trkpt>
      <trkpt lat="43.76571" lon="3.5334">
        <ele>473.600006</ele>
        <time>2013-05-25T10:06:46Z</time>
      </trkpt>
      <trkpt lat="43.76564" lon="3.53343">
        <ele>474.299988</ele>
        <time>2013-05-25T10:06:48Z</time>
      </trkpt>
      <trkpt lat="43.76557" lon="3.53345">
        <ele>473.600006</ele>
        <time>2013-05-25T10:06:50Z</time>
      </trkpt>
      <trkpt lat="43.7655" lon="3.53348">
        <ele>473.200012</ele>
        <time>2013-05-25T10:06:52Z</time>
      </trkpt>
      <trkpt lat="43.76543" lon="3.53351">
        <ele>473</ele>
        <time>2013-05-25T10:06:54Z</time>
      </trkpt>
      <trkpt lat="43.76537" lon="3.53356">
        <ele>472.5</ele>
        <time>2013-05-25T10:06:56Z</time>
      </trkpt>
      <trkpt lat="43.76532" lon="3.5336">
        <ele>471.799988</ele>
        <time>2013-05-25T10:06:58Z</time>
      </trkpt>
      <trkpt lat="43.76526" lon="3.53364">
        <ele>472.100006</ele>
        <time>2013-05-25T10:07:00Z</time>
      </trkpt>
      <trkpt lat="43.76519" lon="3.53369">
        <ele>472.299988</ele>
        <time>2013-05-25T10:07:02Z</time>
      </trkpt>
      <trkpt lat="43.76512" lon="3.53376">
        <ele>472.299988</ele>
        <time>2013-05-25T10:07:04Z</time>
      </trkpt>
      <trkpt lat="43.76504" lon="3.53377">
        <ele>472.200012</ele>
        <time>2013-05-25T10:07:06Z</time>
      </trkpt>
      <trkpt lat="43.76496" lon="3.53377">
        <ele>471.899994</ele>
        <time>2013-05-25T10:07:08Z</time>
      </trkpt>
      <trkpt lat="43.76489" lon="3.53378">
        <ele>471.600006</ele>
        <time>2013-05-25T10:07:10Z</time>
      </trkpt>
      <trkpt lat="43.76483" lon="3.53381">
        <ele>471.600006</ele>
        <time>2013-05-25T10:07:12Z</time>
      </trkpt>
      <trkpt lat="43.76477" lon="3.53386">
        <ele>471.700012</ele>
        <time>2013-05-25T10:07:14Z</time>
      </trkpt>
      <trkpt lat="43.76471" lon="3.53392">
        <ele>471.200012</ele>
        <time>2013-05-25T10:07:16Z</time>
      </trkpt>
      <trkpt lat="43.76466" lon="3.53401">
        <ele>470.399994</ele>
        <time>2013-05-25T10:07:19Z</time>
      </trkpt>
      <trkpt lat="43.76464" lon="3.53413">
        <ele>470.399994</ele>
        <time>2013-05-25T10:08:09Z</time>
      </trkpt>
      <trkpt lat="43.76464" lon="3.53413">
        <ele>470.200012</ele>
        <time>2013-05-25T10:08:10Z</time>
      </trkpt>
      <trkpt lat="43.7646" lon="3.53433">
        <ele>469.299988</ele>
        <time>2013-05-25T10:08:37Z</time>
      </trkpt>
      <trkpt lat="43.76457" lon="3.5344">
        <ele>468.799988</ele>
        <time>2013-05-25T10:08:39Z</time>
      </trkpt>
      <trkpt lat="43.76453" lon="3.53448">
        <ele>468.600006</ele>
        <time>2013-05-25T10:08:41Z</time>
      </trkpt>
      <trkpt lat="43.76449" lon="3.53457">
        <ele>468.600006</ele>
        <time>2013-05-25T10:08:43Z</time>
      </trkpt>
      <trkpt lat="43.76446" lon="3.53466">
        <ele>468.5</ele>
        <time>2013-05-25T10:08:45Z</time>
      </trkpt>
      <trkpt lat="43.76441" lon="3.53477">
        <ele>468.200012</ele>
        <time>2013-05-25T10:08:47Z</time>
      </trkpt>
      <trkpt lat="43.76436" lon="3.53485">
        <ele>467.799988</ele>
        <time>2013-05-25T10:08:49Z</time>
      </trkpt>
      <trkpt lat="43.76429" lon="3.53492">
        <ele>467.700012</ele>
        <time>2013-05-25T10:08:51Z</time>
      </trkpt>
      <trkpt lat="43.76422" lon="3.53498">
        <ele>467.700012</ele>
        <time>2013-05-25T10:08:53Z</time>
      </trkpt>
      <trkpt lat="43.76414" lon="3.53504">
        <ele>467.700012</ele>
        <time>2013-05-25T10:08:55Z</time>
      </trkpt>
      <trkpt lat="43.76406" lon="3.53507">
        <ele>467.700012</ele>
        <time>2013-05-25T10:08:57Z</time>
      </trkpt>
      <trkpt lat="43.76398" lon="3.53509">
        <ele>467.799988</ele>
        <time>2013-05-25T10:08:59Z</time>
      </trkpt>
      <trkpt lat="43.7639" lon="3.53509">
        <ele>467.600006</ele>
        <time>2013-05-25T10:09:01Z</time>
      </trkpt>
      <trkpt lat="43.76382" lon="3.5351">
        <ele>467.5</ele>
        <time>2013-05-25T10:09:03Z</time>
      </trkpt>
      <trkpt lat="43.76374" lon="3.53511">
        <ele>467.399994</ele>
        <time>2013-05-25T10:09:05Z</time>
      </trkpt>
      <trkpt lat="43.76366" lon="3.53513">
        <ele>468</ele>
        <time>2013-05-25T10:09:07Z</time>
      </trkpt>
      <trkpt lat="43.76359" lon="3.53514">
        <ele>468.700012</ele>
        <time>2013-05-25T10:09:09Z</time>
      </trkpt>
      <trkpt lat="43.76351" lon="3.53515">
        <ele>468.299988</ele>
        <time>2013-05-25T10:09:11Z</time>
      </trkpt>
      <trkpt lat="43.76348" lon="3.53516">
        <ele>468.200012</ele>
        <time>2013-05-25T10:09:12Z</time>
      </trkpt>
      <trkpt lat="43.76337" lon="3.5352">
        <ele>468</ele>
        <time>2013-05-25T10:09:15Z</time>
      </trkpt>
      <trkpt lat="43.76331" lon="3.53522">
        <ele>468.5</ele>
        <time>2013-05-25T10:09:17Z</time>
      </trkpt>
      <trkpt lat="43.76324" lon="3.53524">
        <ele>468.899994</ele>
        <time>2013-05-25T10:09:19Z</time>
      </trkpt>
      <trkpt lat="43.76316" lon="3.53528">
        <ele>469.399994</ele>
        <time>2013-05-25T10:09:22Z</time>
      </trkpt>
      <trkpt lat="43.76309" lon="3.53535">
        <ele>469.799988</ele>
        <time>2013-05-25T10:09:25Z</time>
      </trkpt>
      <trkpt lat="43.76303" lon="3.53542">
        <ele>470.200012</ele>
        <time>2013-05-25T10:09:29Z</time>
      </trkpt>
      <trkpt lat="43.76296" lon="3.53549">
        <ele>472.100006</ele>
        <time>2013-05-25T10:09:33Z</time>
      </trkpt>
      <trkpt lat="43.7629" lon="3.53556">
        <ele>473.899994</ele>
        <time>2013-05-25T10:09:38Z</time>
      </trkpt>
      <trkpt lat="43.76283" lon="3.5356">
        <ele>474.5</ele>
        <time>2013-05-25T10:09:43Z</time>
      </trkpt>
      <trkpt lat="43.76276" lon="3.53565">
        <ele>475.5</ele>
        <time>2013-05-25T10:09:47Z</time>
      </trkpt>
      <trkpt lat="43.76268" lon="3.53566">
        <ele>477</ele>
        <time>2013-05-25T10:09:51Z</time>
      </trkpt>
      <trkpt lat="43.76263" lon="3.53557">
        <ele>478.299988</ele>
        <time>2013-05-25T10:09:56Z</time>
      </trkpt>
      <trkpt lat="43.76269" lon="3.5355">
        <ele>480.299988</ele>
        <time>2013-05-25T10:10:01Z</time>
      </trkpt>
      <trkpt lat="43.76274" lon="3.53544">
        <ele>480.200012</ele>
        <time>2013-05-25T10:10:05Z</time>
      </trkpt>
      <trkpt lat="43.76279" lon="3.53535">
        <ele>481.5</ele>
        <time>2013-05-25T10:10:09Z</time>
      </trkpt>
      <trkpt lat="43.7628" lon="3.53525">
        <ele>481.899994</ele>
        <time>2013-05-25T10:10:13Z</time>
      </trkpt>
      <trkpt lat="43.7628" lon="3.53522">
        <ele>482.299988</ele>
        <time>2013-05-25T10:10:14Z</time>
      </trkpt>
      <trkpt lat="43.76276" lon="3.53503">
        <ele>483.600006</ele>
        <time>2013-05-25T10:10:21Z</time>
      </trkpt>
      <trkpt lat="43.76274" lon="3.53491">
        <ele>484.899994</ele>
        <time>2013-05-25T10:10:25Z</time>
      </trkpt>
      <trkpt lat="43.76271" lon="3.5348">
        <ele>484.799988</ele>
        <time>2013-05-25T10:10:29Z</time>
      </trkpt>
      <trkpt lat="43.76269" lon="3.53469">
        <ele>485.899994</ele>
        <time>2013-05-25T10:10:33Z</time>
      </trkpt>
      <trkpt lat="43.76266" lon="3.53458">
        <ele>486.200012</ele>
        <time>2013-05-25T10:10:37Z</time>
      </trkpt>
      <trkpt lat="43.76263" lon="3.53447">
        <ele>486.799988</ele>
        <time>2013-05-25T10:10:42Z</time>
      </trkpt>
      <trkpt lat="43.76259" lon="3.53437">
        <ele>487.700012</ele>
        <time>2013-05-25T10:10:47Z</time>
      </trkpt>
      <trkpt lat="43.76253" lon="3.53429">
        <ele>489.399994</ele>
        <time>2013-05-25T10:10:52Z</time>
      </trkpt>
      <trkpt lat="43.76244" lon="3.53424">
        <ele>490.100006</ele>
        <time>2013-05-25T10:10:57Z</time>
      </trkpt>
      <trkpt lat="43.76236" lon="3.53422">
        <ele>490.899994</ele>
        <time>2013-05-25T10:11:02Z</time>
      </trkpt>
      <trkpt lat="43.76228" lon="3.53422">
        <ele>491.600006</ele>
        <time>2013-05-25T10:11:07Z</time>
      </trkpt>
      <trkpt lat="43.76219" lon="3.53423">
        <ele>492.299988</ele>
        <time>2013-05-25T10:11:12Z</time>
      </trkpt>
      <trkpt lat="43.76211" lon="3.53424">
        <ele>494.100006</ele>
        <time>2013-05-25T10:11:16Z</time>
      </trkpt>
      <trkpt lat="43.7621" lon="3.53424">
        <ele>494.5</ele>
        <time>2013-05-25T10:11:17Z</time>
      </trkpt>
      <trkpt lat="43.76195" lon="3.53425">
        <ele>497</ele>
        <time>2013-05-25T10:11:25Z</time>
      </trkpt>
      <trkpt lat="43.76186" lon="3.53424">
        <ele>497.600006</ele>
        <time>2013-05-25T10:11:30Z</time>
      </trkpt>
      <trkpt lat="43.76179" lon="3.53424">
        <ele>497.700012</ele>
        <time>2013-05-25T10:11:34Z</time>
      </trkpt>
      <trkpt lat="43.76172" lon="3.53424">
        <ele>497.899994</ele>
        <time>2013-05-25T10:11:38Z</time>
      </trkpt>
      <trkpt lat="43.76164" lon="3.53425">
        <ele>498.600006</ele>
        <time>2013-05-25T10:11:42Z</time>
      </trkpt>
      <trkpt lat="43.76157" lon="3.53427">
        <ele>499.899994</ele>
        <time>2013-05-25T10:11:46Z</time>
      </trkpt>
      <trkpt lat="43.76149" lon="3.53429">
        <ele>501.700012</ele>
        <time>2013-05-25T10:11:51Z</time>
      </trkpt>
      <trkpt lat="43.76142" lon="3.53433">
        <ele>501.799988</ele>
        <time>2013-05-25T10:11:55Z</time>
      </trkpt>
      <trkpt lat="43.76134" lon="3.53438">
        <ele>502.600006</ele>
        <time>2013-05-25T10:11:59Z</time>
      </trkpt>
      <trkpt lat="43.76127" lon="3.53443">
        <ele>503.799988</ele>
        <time>2013-05-25T10:12:03Z</time>
      </trkpt>
      <trkpt lat="43.7612" lon="3.53447">
        <ele>504.399994</ele>
        <time>2013-05-25T10:12:07Z</time>
      </trkpt>
      <trkpt lat="43.76113" lon="3.53452">
        <ele>504.5</ele>
        <time>2013-05-25T10:12:11Z</time>
      </trkpt>
      <trkpt lat="43.76106" lon="3.53458">
        <ele>506</ele>
        <time>2013-05-25T10:12:15Z</time>
      </trkpt>
      <trkpt lat="43.76099" lon="3.53463">
        <ele>507.299988</ele>
        <time>2013-05-25T10:12:19Z</time>
      </trkpt>
      <trkpt lat="43.76098" lon="3.53465">
        <ele>507.700012</ele>
        <time>2013-05-25T10:12:20Z</time>
      </trkpt>
      <trkpt lat="43.76087" lon="3.53475">
        <ele>509.600006</ele>
        <time>2013-05-25T10:12:27Z</time>
      </trkpt>
      <trkpt lat="43.76081" lon="3.53481">
        <ele>509.200012</ele>
        <time>2013-05-25T10:12:31Z</time>
      </trkpt>
      <trkpt lat="43.76075" lon="3.53488">
        <ele>509.600006</ele>
        <time>2013-05-25T10:12:35Z</time>
      </trkpt>
      <trkpt lat="43.76069" lon="3.53495">
        <ele>510.399994</ele>
        <time>2013-05-25T10:12:39Z</time>
      </trkpt>
      <trkpt lat="43.76064" lon="3.53502">
        <ele>510.799988</ele>
        <time>2013-05-25T10:12:43Z</time>
      </trkpt>
      <trkpt lat="43.76058" lon="3.53509">
        <ele>511.799988</ele>
        <time>2013-05-25T10:12:47Z</time>
      </trkpt>
      <trkpt lat="43.76053" lon="3.53517">
        <ele>513.400024</ele>
        <time>2013-05-25T10:12:51Z</time>
      </trkpt>
      <trkpt lat="43.76048" lon="3.53524">
        <ele>516.299988</ele>
        <time>2013-05-25T10:12:55Z</time>
      </trkpt>
      <trkpt lat="43.76041" lon="3.53531">
        <ele>517.200012</ele>
        <time>2013-05-25T10:12:59Z</time>
      </trkpt>
      <trkpt lat="43.76034" lon="3.53537">
        <ele>517.599976</ele>
        <time>2013-05-25T10:13:03Z</time>
      </trkpt>
      <trkpt lat="43.76027" lon="3.53541">
        <ele>517.700012</ele>
        <time>2013-05-25T10:13:06Z</time>
      </trkpt>
      <trkpt lat="43.76019" lon="3.53545">
        <ele>517.799988</ele>
        <time>2013-05-25T10:13:09Z</time>
      </trkpt>
      <trkpt lat="43.76013" lon="3.53551">
        <ele>517.799988</ele>
        <time>2013-05-25T10:13:12Z</time>
      </trkpt>
      <trkpt lat="43.76009" lon="3.5356">
        <ele>518.299988</ele>
        <time>2013-05-25T10:13:14Z</time>
      </trkpt>
      <trkpt lat="43.76006" lon="3.5357">
        <ele>518.700012</ele>
        <time>2013-05-25T10:13:16Z</time>
      </trkpt>
      <trkpt lat="43.76004" lon="3.53576">
        <ele>518.799988</ele>
        <time>2013-05-25T10:13:17Z</time>
      </trkpt>
      <trkpt lat="43.76001" lon="3.53583">
        <ele>518.900024</ele>
        <time>2013-05-25T10:13:18Z</time>
      </trkpt>
      <trkpt lat="43.75998" lon="3.5359">
        <ele>518.099976</ele>
        <time>2013-05-25T10:13:19Z</time>
      </trkpt>
      <trkpt lat="43.75994" lon="3.53596">
        <ele>517.5</ele>
        <time>2013-05-25T10:13:20Z</time>
      </trkpt>
      <trkpt lat="43.7599" lon="3.53602">
        <ele>517.099976</ele>
        <time>2013-05-25T10:13:21Z</time>
      </trkpt>
      <trkpt lat="43.75985" lon="3.53609">
        <ele>516.299988</ele>
        <time>2013-05-25T10:13:22Z</time>
      </trkpt>
      <trkpt lat="43.7598" lon="3.53616">
        <ele>515.799988</ele>
        <time>2013-05-25T10:13:23Z</time>
      </trkpt>
      <trkpt lat="43.75975" lon="3.53623">
        <ele>515.299988</ele>
        <time>2013-05-25T10:13:24Z</time>
      </trkpt>
      <trkpt lat="43.75969" lon="3.5363">
        <ele>514.700012</ele>
        <time>2013-05-25T10:13:25Z</time>
      </trkpt>
      <trkpt lat="43.75963" lon="3.53636">
        <ele>514.299988</ele>
        <time>2013-05-25T10:13:26Z</time>
      </trkpt>
      <trkpt lat="43.75957" lon="3.53643">
        <ele>513.900024</ele>
        <time>2013-05-25T10:13:27Z</time>
      </trkpt>
      <trkpt lat="43.7595" lon="3.53648">
        <ele>513</ele>
        <time>2013-05-25T10:13:28Z</time>
      </trkpt>
      <trkpt lat="43.75943" lon="3.53653">
        <ele>512.400024</ele>
        <time>2013-05-25T10:13:29Z</time>
      </trkpt>
      <trkpt lat="43.75936" lon="3.5366">
        <ele>511.899994</ele>
        <time>2013-05-25T10:13:30Z</time>
      </trkpt>
      <trkpt lat="43.75929" lon="3.53667">
        <ele>510.899994</ele>
        <time>2013-05-25T10:13:31Z</time>
      </trkpt>
      <trkpt lat="43.75922" lon="3.53674">
        <ele>510.299988</ele>
        <time>2013-05-25T10:13:32Z</time>
      </trkpt>
      <trkpt lat="43.75914" lon="3.53681">
        <ele>509.799988</ele>
        <time>2013-05-25T10:13:33Z</time>
      </trkpt>
      <trkpt lat="43.75906" lon="3.53686">
        <ele>509.399994</ele>
        <time>2013-05-25T10:13:34Z</time>
      </trkpt>
      <trkpt lat="43.75898" lon="3.53689">
        <ele>508.5</ele>
        <time>2013-05-25T10:13:35Z</time>
      </trkpt>
      <trkpt lat="43.75891" lon="3.53692">
        <ele>507.799988</ele>
        <time>2013-05-25T10:13:36Z</time>
      </trkpt>
      <trkpt lat="43.75883" lon="3.53692">
        <ele>507.200012</ele>
        <time>2013-05-25T10:13:37Z</time>
      </trkpt>
      <trkpt lat="43.75876" lon="3.53689">
        <ele>506.700012</ele>
        <time>2013-05-25T10:13:38Z</time>
      </trkpt>
      <trkpt lat="43.7587" lon="3.53684">
        <ele>506.399994</ele>
        <time>2013-05-25T10:13:39Z</time>
      </trkpt>
      <trkpt lat="43.75865" lon="3.53678">
        <ele>506.100006</ele>
        <time>2013-05-25T10:13:40Z</time>
      </trkpt>
      <trkpt lat="43.75861" lon="3.53671">
        <ele>505.799988</ele>
        <time>2013-05-25T10:13:41Z</time>
      </trkpt>
      <trkpt lat="43.75859" lon="3.53664">
        <ele>505.600006</ele>
        <time>2013-05-25T10:13:42Z</time>
      </trkpt>
      <trkpt lat="43.75858" lon="3.53657">
        <ele>505.399994</ele>
        <time>2013-05-25T10:13:43Z</time>
      </trkpt>
      <trkpt lat="43.75859" lon="3.53647">
        <ele>504.799988</ele>
        <time>2013-05-25T10:13:45Z</time>
      </trkpt>
      <trkpt lat="43.75862" lon="3.53639">
        <ele>505</ele>
        <time>2013-05-25T10:13:47Z</time>
      </trkpt>
      <trkpt lat="43.75865" lon="3.53627">
        <ele>505.600006</ele>
        <time>2013-05-25T10:13:50Z</time>
      </trkpt>
      <trkpt lat="43.75866" lon="3.53617">
        <ele>506</ele>
        <time>2013-05-25T10:13:53Z</time>
      </trkpt>
      <trkpt lat="43.75867" lon="3.53607">
        <ele>507</ele>
        <time>2013-05-25T10:13:56Z</time>
      </trkpt>
      <trkpt lat="43.75869" lon="3.53597">
        <ele>506.600006</ele>
        <time>2013-05-25T10:13:59Z</time>
      </trkpt>
      <trkpt lat="43.75873" lon="3.53588">
        <ele>506.100006</ele>
        <time>2013-05-25T10:14:02Z</time>
      </trkpt>
      <trkpt lat="43.75878" lon="3.5358">
        <ele>507.700012</ele>
        <time>2013-05-25T10:14:05Z</time>
      </trkpt>
      <trkpt lat="43.75883" lon="3.53572">
        <ele>508.799988</ele>
        <time>2013-05-25T10:14:08Z</time>
      </trkpt>
      <trkpt lat="43.75887" lon="3.53565">
        <ele>508.700012</ele>
        <time>2013-05-25T10:14:11Z</time>
      </trkpt>
      <trkpt lat="43.75893" lon="3.53558">
        <ele>508.299988</ele>
        <time>2013-05-25T10:14:15Z</time>
      </trkpt>
      <trkpt lat="43.75897" lon="3.5355">
        <ele>509.899994</ele>
        <time>2013-05-25T10:14:19Z</time>
      </trkpt>
      <trkpt lat="43.759" lon="3.5354">
        <ele>511</ele>
        <time>2013-05-25T10:14:23Z</time>
      </trkpt>
      <trkpt lat="43.75901" lon="3.53538">
        <ele>511.399994</ele>
        <time>2013-05-25T10:14:24Z</time>
      </trkpt>
      <trkpt lat="43.75898" lon="3.53519">
        <ele>512.299988</ele>
        <time>2013-05-25T10:14:32Z</time>
      </trkpt>
      <trkpt lat="43.75892" lon="3.53514">
        <ele>513.099976</ele>
        <time>2013-05-25T10:14:36Z</time>
      </trkpt>
      <trkpt lat="43.75885" lon="3.53512">
        <ele>512.5</ele>
        <time>2013-05-25T10:14:39Z</time>
      </trkpt>
      <trkpt lat="43.75876" lon="3.53512">
        <ele>511.399994</ele>
        <time>2013-05-25T10:14:42Z</time>
      </trkpt>
      <trkpt lat="43.7587" lon="3.53513">
        <ele>511</ele>
        <time>2013-05-25T10:14:44Z</time>
      </trkpt>
      <trkpt lat="43.75862" lon="3.53514">
        <ele>511.100006</ele>
        <time>2013-05-25T10:14:46Z</time>
      </trkpt>
      <trkpt lat="43.75857" lon="3.53515">
        <ele>511.200012</ele>
        <time>2013-05-25T10:14:47Z</time>
      </trkpt>
      <trkpt lat="43.75852" lon="3.53514">
        <ele>511.399994</ele>
        <time>2013-05-25T10:14:48Z</time>
      </trkpt>
      <trkpt lat="43.75847" lon="3.5351">
        <ele>511.600006</ele>
        <time>2013-05-25T10:14:49Z</time>
      </trkpt>
      <trkpt lat="43.75844" lon="3.53504">
        <ele>511.799988</ele>
        <time>2013-05-25T10:14:50Z</time>
      </trkpt>
      <trkpt lat="43.75842" lon="3.53498">
        <ele>511.600006</ele>
        <time>2013-05-25T10:14:51Z</time>
      </trkpt>
      <trkpt lat="43.7584" lon="3.53492">
        <ele>511.5</ele>
        <time>2013-05-25T10:14:52Z</time>
      </trkpt>
      <trkpt lat="43.75839" lon="3.53479">
        <ele>511.100006</ele>
        <time>2013-05-25T10:14:54Z</time>
      </trkpt>
      <trkpt lat="43.75838" lon="3.53473">
        <ele>510.799988</ele>
        <time>2013-05-25T10:14:55Z</time>
      </trkpt>
      <trkpt lat="43.75836" lon="3.53467">
        <ele>510.5</ele>
        <time>2013-05-25T10:14:56Z</time>
      </trkpt>
      <trkpt lat="43.75835" lon="3.53461">
        <ele>510.399994</ele>
        <time>2013-05-25T10:14:57Z</time>
      </trkpt>
      <trkpt lat="43.75832" lon="3.53456">
        <ele>510.799988</ele>
        <time>2013-05-25T10:14:58Z</time>
      </trkpt>
      <trkpt lat="43.7583" lon="3.5345">
        <ele>511.200012</ele>
        <time>2013-05-25T10:14:59Z</time>
      </trkpt>
      <trkpt lat="43.75827" lon="3.53445">
        <ele>511.399994</ele>
        <time>2013-05-25T10:15:00Z</time>
      </trkpt>
      <trkpt lat="43.75824" lon="3.5344">
        <ele>511.5</ele>
        <time>2013-05-25T10:15:01Z</time>
      </trkpt>
      <trkpt lat="43.7582" lon="3.53435">
        <ele>511.600006</ele>
        <time>2013-05-25T10:15:02Z</time>
      </trkpt>
      <trkpt lat="43.75817" lon="3.5343">
        <ele>511.600006</ele>
        <time>2013-05-25T10:15:03Z</time>
      </trkpt>
      <trkpt lat="43.75812" lon="3.53425">
        <ele>511.399994</ele>
        <time>2013-05-25T10:15:04Z</time>
      </trkpt>
      <trkpt lat="43.75808" lon="3.5342">
        <ele>511.200012</ele>
        <time>2013-05-25T10:15:05Z</time>
      </trkpt>
      <trkpt lat="43.75804" lon="3.53414">
        <ele>511.100006</ele>
        <time>2013-05-25T10:15:06Z</time>
      </trkpt>
      <trkpt lat="43.758" lon="3.53408">
        <ele>511.5</ele>
        <time>2013-05-25T10:15:07Z</time>
      </trkpt>
      <trkpt lat="43.75797" lon="3.53402">
        <ele>511.700012</ele>
        <time>2013-05-25T10:15:08Z</time>
      </trkpt>
      <trkpt lat="43.75794" lon="3.53396">
        <ele>511.899994</ele>
        <time>2013-05-25T10:15:09Z</time>
      </trkpt>
      <trkpt lat="43.75792" lon="3.5339">
        <ele>511.5</ele>
        <time>2013-05-25T10:15:10Z</time>
      </trkpt>
      <trkpt lat="43.7579" lon="3.53383">
        <ele>511.200012</ele>
        <time>2013-05-25T10:15:11Z</time>
      </trkpt>
      <trkpt lat="43.75789" lon="3.53377">
        <ele>510.899994</ele>
        <time>2013-05-25T10:15:12Z</time>
      </trkpt>
      <trkpt lat="43.75788" lon="3.5337">
        <ele>510.700012</ele>
        <time>2013-05-25T10:15:13Z</time>
      </trkpt>
      <trkpt lat="43.75787" lon="3.53363">
        <ele>510.5</ele>
        <time>2013-05-25T10:15:14Z</time>
      </trkpt>
      <trkpt lat="43.75785" lon="3.53357">
        <ele>510.399994</ele>
        <time>2013-05-25T10:15:15Z</time>
      </trkpt>
      <trkpt lat="43.75783" lon="3.53351">
        <ele>510.299988</ele>
        <time>2013-05-25T10:15:16Z</time>
      </trkpt>
      <trkpt lat="43.75779" lon="3.53345">
        <ele>510</ele>
        <time>2013-05-25T10:15:17Z</time>
      </trkpt>
      <trkpt lat="43.75775" lon="3.5334">
        <ele>509.799988</ele>
        <time>2013-05-25T10:15:18Z</time>
      </trkpt>
      <trkpt lat="43.75769" lon="3.53338">
        <ele>509.700012</ele>
        <time>2013-05-25T10:15:19Z</time>
      </trkpt>
      <trkpt lat="43.75763" lon="3.53338">
        <ele>509</ele>
        <time>2013-05-25T10:15:20Z</time>
      </trkpt>
      <trkpt lat="43.75758" lon="3.5334">
        <ele>508.5</ele>
        <time>2013-05-25T10:15:21Z</time>
      </trkpt>
      <trkpt lat="43.75752" lon="3.53344">
        <ele>508.200012</ele>
        <time>2013-05-25T10:15:22Z</time>
      </trkpt>
      <trkpt lat="43.75747" lon="3.53349">
        <ele>507.5</ele>
        <time>2013-05-25T10:15:23Z</time>
      </trkpt>
      <trkpt lat="43.75742" lon="3.53355">
        <ele>507</ele>
        <time>2013-05-25T10:15:24Z</time>
      </trkpt>
      <trkpt lat="43.75737" lon="3.53362">
        <ele>506.600006</ele>
        <time>2013-05-25T10:15:25Z</time>
      </trkpt>
      <trkpt lat="43.75734" lon="3.53369">
        <ele>506.200012</ele>
        <time>2013-05-25T10:15:26Z</time>
      </trkpt>
      <trkpt lat="43.7573" lon="3.53378">
        <ele>505.899994</ele>
        <time>2013-05-25T10:15:27Z</time>
      </trkpt>
      <trkpt lat="43.75727" lon="3.53386">
        <ele>505.600006</ele>
        <time>2013-05-25T10:15:28Z</time>
      </trkpt>
      <trkpt lat="43.75725" lon="3.53395">
        <ele>505.5</ele>
        <time>2013-05-25T10:15:29Z</time>
      </trkpt>
      <trkpt lat="43.75722" lon="3.53403">
        <ele>505.5</ele>
        <time>2013-05-25T10:15:30Z</time>
      </trkpt>
      <trkpt lat="43.75718" lon="3.53411">
        <ele>505.600006</ele>
        <time>2013-05-25T10:15:31Z</time>
      </trkpt>
      <trkpt lat="43.75713" lon="3.53419">
        <ele>505.600006</ele>
        <time>2013-05-25T10:15:32Z</time>
      </trkpt>
      <trkpt lat="43.75707" lon="3.53425">
        <ele>505.100006</ele>
        <time>2013-05-25T10:15:33Z</time>
      </trkpt>
      <trkpt lat="43.75701" lon="3.53427">
        <ele>504.799988</ele>
        <time>2013-05-25T10:15:34Z</time>
      </trkpt>
      <trkpt lat="43.75694" lon="3.53426">
        <ele>504.5</ele>
        <time>2013-05-25T10:15:35Z</time>
      </trkpt>
      <trkpt lat="43.75688" lon="3.53422">
        <ele>503.799988</ele>
        <time>2013-05-25T10:15:36Z</time>
      </trkpt>
      <trkpt lat="43.75682" lon="3.53418">
        <ele>503.299988</ele>
        <time>2013-05-25T10:15:37Z</time>
      </trkpt>
      <trkpt lat="43.75678" lon="3.53414">
        <ele>503</ele>
        <time>2013-05-25T10:15:38Z</time>
      </trkpt>
      <trkpt lat="43.75673" lon="3.53411">
        <ele>502.799988</ele>
        <time>2013-05-25T10:15:39Z</time>
      </trkpt>
      <trkpt lat="43.75669" lon="3.53409">
        <ele>502.700012</ele>
        <time>2013-05-25T10:15:40Z</time>
      </trkpt>
      <trkpt lat="43.75661" lon="3.53404">
        <ele>502.700012</ele>
        <time>2013-05-25T10:15:42Z</time>
      </trkpt>
      <trkpt lat="43.75658" lon="3.534">
        <ele>502.700012</ele>
        <time>2013-05-25T10:15:43Z</time>
      </trkpt>
      <trkpt lat="43.75654" lon="3.53389">
        <ele>502.799988</ele>
        <time>2013-05-25T10:15:45Z</time>
      </trkpt>
      <trkpt lat="43.75655" lon="3.53377">
        <ele>503.100006</ele>
        <time>2013-05-25T10:15:47Z</time>
      </trkpt>
      <trkpt lat="43.75658" lon="3.53367">
        <ele>503.700012</ele>
        <time>2013-05-25T10:15:49Z</time>
      </trkpt>
      <trkpt lat="43.7566" lon="3.53357">
        <ele>504.399994</ele>
        <time>2013-05-25T10:15:51Z</time>
      </trkpt>
      <trkpt lat="43.75661" lon="3.53347">
        <ele>504.399994</ele>
        <time>2013-05-25T10:15:53Z</time>
      </trkpt>
      <trkpt lat="43.75662" lon="3.53337">
        <ele>505</ele>
        <time>2013-05-25T10:15:55Z</time>
      </trkpt>
      <trkpt lat="43.75662" lon="3.53328">
        <ele>505.899994</ele>
        <time>2013-05-25T10:15:57Z</time>
      </trkpt>
      <trkpt lat="43.7566" lon="3.5332">
        <ele>506</ele>
        <time>2013-05-25T10:15:59Z</time>
      </trkpt>
      <trkpt lat="43.75656" lon="3.53313">
        <ele>506.299988</ele>
        <time>2013-05-25T10:16:01Z</time>
      </trkpt>
      <trkpt lat="43.7565" lon="3.53311">
        <ele>506.600006</ele>
        <time>2013-05-25T10:16:03Z</time>
      </trkpt>
      <trkpt lat="43.75643" lon="3.53313">
        <ele>506.899994</ele>
        <time>2013-05-25T10:16:05Z</time>
      </trkpt>
      <trkpt lat="43.75637" lon="3.53317">
        <ele>507.100006</ele>
        <time>2013-05-25T10:16:07Z</time>
      </trkpt>
      <trkpt lat="43.75633" lon="3.53321">
        <ele>506.600006</ele>
        <time>2013-05-25T10:16:08Z</time>
      </trkpt>
      <trkpt lat="43.75629" lon="3.53324">
        <ele>506.200012</ele>
        <time>2013-05-25T10:16:09Z</time>
      </trkpt>
      <trkpt lat="43.75625" lon="3.53328">
        <ele>505.899994</ele>
        <time>2013-05-25T10:16:10Z</time>
      </trkpt>
      <trkpt lat="43.7562" lon="3.53332">
        <ele>505.899994</ele>
        <time>2013-05-25T10:16:11Z</time>
      </trkpt>
      <trkpt lat="43.75616" lon="3.53336">
        <ele>506</ele>
        <time>2013-05-25T10:16:12Z</time>
      </trkpt>
      <trkpt lat="43.7561" lon="3.53339">
        <ele>506</ele>
        <time>2013-05-25T10:16:13Z</time>
      </trkpt>
      <trkpt lat="43.75605" lon="3.53342">
        <ele>506</ele>
        <time>2013-05-25T10:16:14Z</time>
      </trkpt>
      <trkpt lat="43.75599" lon="3.53344">
        <ele>506</ele>
        <time>2013-05-25T10:16:15Z</time>
      </trkpt>
      <trkpt lat="43.75594" lon="3.53348">
        <ele>506.100006</ele>
        <time>2013-05-25T10:16:16Z</time>
      </trkpt>
      <trkpt lat="43.75588" lon="3.53352">
        <ele>505.399994</ele>
        <time>2013-05-25T10:16:17Z</time>
      </trkpt>
      <trkpt lat="43.75582" lon="3.53358">
        <ele>505</ele>
        <time>2013-05-25T10:16:18Z</time>
      </trkpt>
      <trkpt lat="43.75576" lon="3.53364">
        <ele>504.600006</ele>
        <time>2013-05-25T10:16:19Z</time>
      </trkpt>
      <trkpt lat="43.75571" lon="3.53372">
        <ele>504.399994</ele>
        <time>2013-05-25T10:16:20Z</time>
      </trkpt>
      <trkpt lat="43.75566" lon="3.53381">
        <ele>503.399994</ele>
        <time>2013-05-25T10:16:21Z</time>
      </trkpt>
      <trkpt lat="43.75563" lon="3.53391">
        <ele>502.700012</ele>
        <time>2013-05-25T10:16:22Z</time>
      </trkpt>
      <trkpt lat="43.7556" lon="3.53401">
        <ele>502.100006</ele>
        <time>2013-05-25T10:16:23Z</time>
      </trkpt>
      <trkpt lat="43.75557" lon="3.53411">
        <ele>501.700012</ele>
        <time>2013-05-25T10:16:24Z</time>
      </trkpt>
      <trkpt lat="43.75556" lon="3.5342">
        <ele>501.399994</ele>
        <time>2013-05-25T10:16:25Z</time>
      </trkpt>
      <trkpt lat="43.75555" lon="3.5343">
        <ele>501.200012</ele>
        <time>2013-05-25T10:16:26Z</time>
      </trkpt>
      <trkpt lat="43.75555" lon="3.5344">
        <ele>500.600006</ele>
        <time>2013-05-25T10:16:27Z</time>
      </trkpt>
      <trkpt lat="43.75555" lon="3.5345">
        <ele>500.200012</ele>
        <time>2013-05-25T10:16:28Z</time>
      </trkpt>
      <trkpt lat="43.75554" lon="3.5346">
        <ele>499.899994</ele>
        <time>2013-05-25T10:16:29Z</time>
      </trkpt>
      <trkpt lat="43.75551" lon="3.53468">
        <ele>499.899994</ele>
        <time>2013-05-25T10:16:30Z</time>
      </trkpt>
      <trkpt lat="43.75546" lon="3.53476">
        <ele>499.899994</ele>
        <time>2013-05-25T10:16:31Z</time>
      </trkpt>
      <trkpt lat="43.75541" lon="3.53482">
        <ele>499.899994</ele>
        <time>2013-05-25T10:16:32Z</time>
      </trkpt>
      <trkpt lat="43.75535" lon="3.53485">
        <ele>498.700012</ele>
        <time>2013-05-25T10:16:33Z</time>
      </trkpt>
      <trkpt lat="43.7553" lon="3.53486">
        <ele>497.799988</ele>
        <time>2013-05-25T10:16:34Z</time>
      </trkpt>
      <trkpt lat="43.75525" lon="3.53483">
        <ele>497.200012</ele>
        <time>2013-05-25T10:16:35Z</time>
      </trkpt>
      <trkpt lat="43.7552" lon="3.53477">
        <ele>496.700012</ele>
        <time>2013-05-25T10:16:36Z</time>
      </trkpt>
      <trkpt lat="43.75517" lon="3.5347">
        <ele>496.100006</ele>
        <time>2013-05-25T10:16:37Z</time>
      </trkpt>
      <trkpt lat="43.75514" lon="3.53464">
        <ele>495.700012</ele>
        <time>2013-05-25T10:16:38Z</time>
      </trkpt>
      <trkpt lat="43.7551" lon="3.53458">
        <ele>495.299988</ele>
        <time>2013-05-25T10:16:39Z</time>
      </trkpt>
      <trkpt lat="43.75506" lon="3.53453">
        <ele>494.700012</ele>
        <time>2013-05-25T10:16:40Z</time>
      </trkpt>
      <trkpt lat="43.75502" lon="3.53449">
        <ele>494.200012</ele>
        <time>2013-05-25T10:16:41Z</time>
      </trkpt>
      <trkpt lat="43.75497" lon="3.53439">
        <ele>493.899994</ele>
        <time>2013-05-25T10:16:43Z</time>
      </trkpt>
      <trkpt lat="43.75494" lon="3.5343">
        <ele>493.899994</ele>
        <time>2013-05-25T10:16:45Z</time>
      </trkpt>
      <trkpt lat="43.75492" lon="3.53421">
        <ele>495.200012</ele>
        <time>2013-05-25T10:16:47Z</time>
      </trkpt>
      <trkpt lat="43.75489" lon="3.53411">
        <ele>495.600006</ele>
        <time>2013-05-25T10:16:49Z</time>
      </trkpt>
      <trkpt lat="43.75487" lon="3.53402">
        <ele>495.600006</ele>
        <time>2013-05-25T10:16:51Z</time>
      </trkpt>
      <trkpt lat="43.75484" lon="3.53394">
        <ele>495.700012</ele>
        <time>2013-05-25T10:16:53Z</time>
      </trkpt>
      <trkpt lat="43.75482" lon="3.53384">
        <ele>495.899994</ele>
        <time>2013-05-25T10:16:55Z</time>
      </trkpt>
      <trkpt lat="43.75479" lon="3.53375">
        <ele>496.100006</ele>
        <time>2013-05-25T10:16:57Z</time>
      </trkpt>
      <trkpt lat="43.75477" lon="3.53365">
        <ele>496.299988</ele>
        <time>2013-05-25T10:16:59Z</time>
      </trkpt>
      <trkpt lat="43.75474" lon="3.5336">
        <ele>496.399994</ele>
        <time>2013-05-25T10:17:00Z</time>
      </trkpt>
      <trkpt lat="43.75471" lon="3.53355">
        <ele>496.5</ele>
        <time>2013-05-25T10:17:01Z</time>
      </trkpt>
      <trkpt lat="43.75467" lon="3.53351">
        <ele>495.799988</ele>
        <time>2013-05-25T10:17:02Z</time>
      </trkpt>
      <trkpt lat="43.75463" lon="3.53347">
        <ele>495.399994</ele>
        <time>2013-05-25T10:17:03Z</time>
      </trkpt>
      <trkpt lat="43.7546" lon="3.53343">
        <ele>495</ele>
        <time>2013-05-25T10:17:04Z</time>
      </trkpt>
      <trkpt lat="43.75456" lon="3.5334">
        <ele>494.5</ele>
        <time>2013-05-25T10:17:05Z</time>
      </trkpt>
      <trkpt lat="43.75449" lon="3.53332">
        <ele>493.799988</ele>
        <time>2013-05-25T10:17:07Z</time>
      </trkpt>
      <trkpt lat="43.75447" lon="3.53326">
        <ele>493.600006</ele>
        <time>2013-05-25T10:17:08Z</time>
      </trkpt>
      <trkpt lat="43.75447" lon="3.5332">
        <ele>493.5</ele>
        <time>2013-05-25T10:17:09Z</time>
      </trkpt>
      <trkpt lat="43.75446" lon="3.53312">
        <ele>493.399994</ele>
        <time>2013-05-25T10:17:10Z</time>
      </trkpt>
      <trkpt lat="43.75445" lon="3.53304">
        <ele>493.399994</ele>
        <time>2013-05-25T10:17:11Z</time>
      </trkpt>
      <trkpt lat="43.75443" lon="3.53295">
        <ele>492.700012</ele>
        <time>2013-05-25T10:17:12Z</time>
      </trkpt>
      <trkpt lat="43.7544" lon="3.53285">
        <ele>492.100006</ele>
        <time>2013-05-25T10:17:13Z</time>
      </trkpt>
      <trkpt lat="43.75437" lon="3.53275">
        <ele>491.700012</ele>
        <time>2013-05-25T10:17:14Z</time>
      </trkpt>
      <trkpt lat="43.75434" lon="3.53267">
        <ele>490.399994</ele>
        <time>2013-05-25T10:17:15Z</time>
      </trkpt>
      <trkpt lat="43.7543" lon="3.5326">
        <ele>489.399994</ele>
        <time>2013-05-25T10:17:16Z</time>
      </trkpt>
      <trkpt lat="43.75425" lon="3.53257">
        <ele>488.600006</ele>
        <time>2013-05-25T10:17:17Z</time>
      </trkpt>
      <trkpt lat="43.75419" lon="3.53257">
        <ele>488</ele>
        <time>2013-05-25T10:17:18Z</time>
      </trkpt>
      <trkpt lat="43.75414" lon="3.53259">
        <ele>487.5</ele>
        <time>2013-05-25T10:17:19Z</time>
      </trkpt>
      <trkpt lat="43.7541" lon="3.53264">
        <ele>487.200012</ele>
        <time>2013-05-25T10:17:20Z</time>
      </trkpt>
      <trkpt lat="43.75407" lon="3.53271">
        <ele>486.700012</ele>
        <time>2013-05-25T10:17:21Z</time>
      </trkpt>
      <trkpt lat="43.75405" lon="3.53277">
        <ele>486.299988</ele>
        <time>2013-05-25T10:17:22Z</time>
      </trkpt>
      <trkpt lat="43.75404" lon="3.53284">
        <ele>486</ele>
        <time>2013-05-25T10:17:23Z</time>
      </trkpt>
      <trkpt lat="43.75402" lon="3.53292">
        <ele>485.799988</ele>
        <time>2013-05-25T10:17:24Z</time>
      </trkpt>
      <trkpt lat="43.754" lon="3.53299">
        <ele>485.600006</ele>
        <time>2013-05-25T10:17:25Z</time>
      </trkpt>
      <trkpt lat="43.75397" lon="3.53306">
        <ele>485.399994</ele>
        <time>2013-05-25T10:17:26Z</time>
      </trkpt>
      <trkpt lat="43.75393" lon="3.53313">
        <ele>485.299988</ele>
        <time>2013-05-25T10:17:27Z</time>
      </trkpt>
      <trkpt lat="43.75389" lon="3.53319">
        <ele>484.700012</ele>
        <time>2013-05-25T10:17:28Z</time>
      </trkpt>
      <trkpt lat="43.75384" lon="3.53324">
        <ele>484.200012</ele>
        <time>2013-05-25T10:17:29Z</time>
      </trkpt>
      <trkpt lat="43.75378" lon="3.53326">
        <ele>483.899994</ele>
        <time>2013-05-25T10:17:30Z</time>
      </trkpt>
      <trkpt lat="43.75373" lon="3.53325">
        <ele>484</ele>
        <time>2013-05-25T10:17:31Z</time>
      </trkpt>
      <trkpt lat="43.75369" lon="3.53322">
        <ele>484.100006</ele>
        <time>2013-05-25T10:17:32Z</time>
      </trkpt>
      <trkpt lat="43.75365" lon="3.53318">
        <ele>484.100006</ele>
        <time>2013-05-25T10:17:33Z</time>
      </trkpt>
      <trkpt lat="43.75361" lon="3.53313">
        <ele>483.899994</ele>
        <time>2013-05-25T10:17:34Z</time>
      </trkpt>
      <trkpt lat="43.75357" lon="3.53311">
        <ele>483.600006</ele>
        <time>2013-05-25T10:17:35Z</time>
      </trkpt>
      <trkpt lat="43.75352" lon="3.53311">
        <ele>483.5</ele>
        <time>2013-05-25T10:17:36Z</time>
      </trkpt>
      <trkpt lat="43.75347" lon="3.53313">
        <ele>483.200012</ele>
        <time>2013-05-25T10:17:37Z</time>
      </trkpt>
      <trkpt lat="43.75342" lon="3.53316">
        <ele>482.899994</ele>
        <time>2013-05-25T10:17:38Z</time>
      </trkpt>
      <trkpt lat="43.75337" lon="3.53322">
        <ele>482.700012</ele>
        <time>2013-05-25T10:17:39Z</time>
      </trkpt>
      <trkpt lat="43.75334" lon="3.53328">
        <ele>482.399994</ele>
        <time>2013-05-25T10:17:40Z</time>
      </trkpt>
      <trkpt lat="43.7533" lon="3.53335">
        <ele>482.200012</ele>
        <time>2013-05-25T10:17:41Z</time>
      </trkpt>
      <trkpt lat="43.75327" lon="3.53342">
        <ele>482</ele>
        <time>2013-05-25T10:17:42Z</time>
      </trkpt>
      <trkpt lat="43.75323" lon="3.53349">
        <ele>481.899994</ele>
        <time>2013-05-25T10:17:43Z</time>
      </trkpt>
      <trkpt lat="43.75319" lon="3.53355">
        <ele>482</ele>
        <time>2013-05-25T10:17:44Z</time>
      </trkpt>
      <trkpt lat="43.75316" lon="3.53362">
        <ele>482.200012</ele>
        <time>2013-05-25T10:17:45Z</time>
      </trkpt>
      <trkpt lat="43.75312" lon="3.53368">
        <ele>482.200012</ele>
        <time>2013-05-25T10:17:46Z</time>
      </trkpt>
      <trkpt lat="43.75307" lon="3.53374">
        <ele>481.899994</ele>
        <time>2013-05-25T10:17:47Z</time>
      </trkpt>
      <trkpt lat="43.75301" lon="3.53377">
        <ele>481.700012</ele>
        <time>2013-05-25T10:17:48Z</time>
      </trkpt>
      <trkpt lat="43.75296" lon="3.5338">
        <ele>481.5</ele>
        <time>2013-05-25T10:17:49Z</time>
      </trkpt>
      <trkpt lat="43.7529" lon="3.53382">
        <ele>481.100006</ele>
        <time>2013-05-25T10:17:50Z</time>
      </trkpt>
      <trkpt lat="43.75285" lon="3.53384">
        <ele>480.799988</ele>
        <time>2013-05-25T10:17:51Z</time>
      </trkpt>
      <trkpt lat="43.7528" lon="3.53385">
        <ele>480.600006</ele>
        <time>2013-05-25T10:17:52Z</time>
      </trkpt>
      <trkpt lat="43.75275" lon="3.53386">
        <ele>480.700012</ele>
        <time>2013-05-25T10:17:53Z</time>
      </trkpt>
      <trkpt lat="43.7527" lon="3.53387">
        <ele>480.799988</ele>
        <time>2013-05-25T10:17:54Z</time>
      </trkpt>
      <trkpt lat="43.75266" lon="3.5339">
        <ele>480.899994</ele>
        <time>2013-05-25T10:17:55Z</time>
      </trkpt>
      <trkpt lat="43.75261" lon="3.53393">
        <ele>480.700012</ele>
        <time>2013-05-25T10:17:56Z</time>
      </trkpt>
      <trkpt lat="43.75257" lon="3.53398">
        <ele>480.5</ele>
        <time>2013-05-25T10:17:57Z</time>
      </trkpt>
      <trkpt lat="43.75254" lon="3.53404">
        <ele>480.399994</ele>
        <time>2013-05-25T10:17:58Z</time>
      </trkpt>
      <trkpt lat="43.75251" lon="3.5341">
        <ele>480.299988</ele>
        <time>2013-05-25T10:17:59Z</time>
      </trkpt>
      <trkpt lat="43.75248" lon="3.53417">
        <ele>480</ele>
        <time>2013-05-25T10:18:00Z</time>
      </trkpt>
      <trkpt lat="43.75245" lon="3.53422">
        <ele>479.899994</ele>
        <time>2013-05-25T10:18:01Z</time>
      </trkpt>
      <trkpt lat="43.7524" lon="3.53427">
        <ele>479.700012</ele>
        <time>2013-05-25T10:18:02Z</time>
      </trkpt>
      <trkpt lat="43.75234" lon="3.53431">
        <ele>479.5</ele>
        <time>2013-05-25T10:18:03Z</time>
      </trkpt>
      <trkpt lat="43.75228" lon="3.53433">
        <ele>479.399994</ele>
        <time>2013-05-25T10:18:04Z</time>
      </trkpt>
      <trkpt lat="43.75222" lon="3.53432">
        <ele>479.299988</ele>
        <time>2013-05-25T10:18:05Z</time>
      </trkpt>
      <trkpt lat="43.75217" lon="3.53429">
        <ele>479</ele>
        <time>2013-05-25T10:18:06Z</time>
      </trkpt>
      <trkpt lat="43.75213" lon="3.53425">
        <ele>478.799988</ele>
        <time>2013-05-25T10:18:07Z</time>
      </trkpt>
      <trkpt lat="43.7521" lon="3.5342">
        <ele>478.600006</ele>
        <time>2013-05-25T10:18:08Z</time>
      </trkpt>
      <trkpt lat="43.75204" lon="3.53412">
        <ele>479.5</ele>
        <time>2013-05-25T10:18:10Z</time>
      </trkpt>
      <trkpt lat="43.75198" lon="3.53403">
        <ele>479.299988</ele>
        <time>2013-05-25T10:18:12Z</time>
      </trkpt>
      <trkpt lat="43.75195" lon="3.53398">
        <ele>479</ele>
        <time>2013-05-25T10:18:13Z</time>
      </trkpt>
      <trkpt lat="43.75192" lon="3.53393">
        <ele>478.700012</ele>
        <time>2013-05-25T10:18:14Z</time>
      </trkpt>
      <trkpt lat="43.7519" lon="3.53387">
        <ele>478.600006</ele>
        <time>2013-05-25T10:18:15Z</time>
      </trkpt>
      <trkpt lat="43.75188" lon="3.53381">
        <ele>478.5</ele>
        <time>2013-05-25T10:18:16Z</time>
      </trkpt>
      <trkpt lat="43.75187" lon="3.53375">
        <ele>478.5</ele>
        <time>2013-05-25T10:18:17Z</time>
      </trkpt>
      <trkpt lat="43.75186" lon="3.53369">
        <ele>478.399994</ele>
        <time>2013-05-25T10:18:18Z</time>
      </trkpt>
      <trkpt lat="43.75185" lon="3.53357">
        <ele>478.899994</ele>
        <time>2013-05-25T10:18:20Z</time>
      </trkpt>
      <trkpt lat="43.75185" lon="3.53346">
        <ele>479.200012</ele>
        <time>2013-05-25T10:18:22Z</time>
      </trkpt>
      <trkpt lat="43.75185" lon="3.53336">
        <ele>479.200012</ele>
        <time>2013-05-25T10:18:24Z</time>
      </trkpt>
      <trkpt lat="43.75186" lon="3.53327">
        <ele>480</ele>
        <time>2013-05-25T10:18:26Z</time>
      </trkpt>
      <trkpt lat="43.75186" lon="3.53317">
        <ele>480.899994</ele>
        <time>2013-05-25T10:18:28Z</time>
      </trkpt>
      <trkpt lat="43.75186" lon="3.53308">
        <ele>481.799988</ele>
        <time>2013-05-25T10:18:30Z</time>
      </trkpt>
      <trkpt lat="43.75185" lon="3.53304">
        <ele>482.5</ele>
        <time>2013-05-25T10:18:31Z</time>
      </trkpt>
      <trkpt lat="43.75181" lon="3.53291">
        <ele>483.899994</ele>
        <time>2013-05-25T10:18:34Z</time>
      </trkpt>
      <trkpt lat="43.75176" lon="3.53284">
        <ele>483.899994</ele>
        <time>2013-05-25T10:18:36Z</time>
      </trkpt>
      <trkpt lat="43.75168" lon="3.53282">
        <ele>484.299988</ele>
        <time>2013-05-25T10:18:38Z</time>
      </trkpt>
      <trkpt lat="43.75163" lon="3.53288">
        <ele>484.700012</ele>
        <time>2013-05-25T10:18:40Z</time>
      </trkpt>
      <trkpt lat="43.7516" lon="3.53298">
        <ele>485</ele>
        <time>2013-05-25T10:18:42Z</time>
      </trkpt>
      <trkpt lat="43.75158" lon="3.53304">
        <ele>485.100006</ele>
        <time>2013-05-25T10:18:43Z</time>
      </trkpt>
      <trkpt lat="43.75156" lon="3.5331">
        <ele>485.399994</ele>
        <time>2013-05-25T10:18:44Z</time>
      </trkpt>
      <trkpt lat="43.75151" lon="3.53314">
        <ele>485.600006</ele>
        <time>2013-05-25T10:18:45Z</time>
      </trkpt>
      <trkpt lat="43.75146" lon="3.53315">
        <ele>485.700012</ele>
        <time>2013-05-25T10:18:46Z</time>
      </trkpt>
      <trkpt lat="43.75141" lon="3.53314">
        <ele>485.799988</ele>
        <time>2013-05-25T10:18:47Z</time>
      </trkpt>
      <trkpt lat="43.75136" lon="3.53314">
        <ele>485.200012</ele>
        <time>2013-05-25T10:18:48Z</time>
      </trkpt>
      <trkpt lat="43.75131" lon="3.53314">
        <ele>484.799988</ele>
        <time>2013-05-25T10:18:49Z</time>
      </trkpt>
      <trkpt lat="43.75125" lon="3.53321">
        <ele>484.200012</ele>
        <time>2013-05-25T10:18:51Z</time>
      </trkpt>
      <trkpt lat="43.7512" lon="3.53329">
        <ele>483.899994</ele>
        <time>2013-05-25T10:18:53Z</time>
      </trkpt>
      <trkpt lat="43.75114" lon="3.53336">
        <ele>483.600006</ele>
        <time>2013-05-25T10:18:55Z</time>
      </trkpt>
      <trkpt lat="43.75108" lon="3.5334">
        <ele>482.600006</ele>
        <time>2013-05-25T10:18:57Z</time>
      </trkpt>
      <trkpt lat="43.75101" lon="3.53342">
        <ele>481.399994</ele>
        <time>2013-05-25T10:18:59Z</time>
      </trkpt>
      <trkpt lat="43.75095" lon="3.53342">
        <ele>481.700012</ele>
        <time>2013-05-25T10:19:01Z</time>
      </trkpt>
      <trkpt lat="43.75088" lon="3.5334">
        <ele>482.399994</ele>
        <time>2013-05-25T10:19:03Z</time>
      </trkpt>
      <trkpt lat="43.75082" lon="3.53336">
        <ele>483.100006</ele>
        <time>2013-05-25T10:19:05Z</time>
      </trkpt>
      <trkpt lat="43.75075" lon="3.53334">
        <ele>483.5</ele>
        <time>2013-05-25T10:19:07Z</time>
      </trkpt>
      <trkpt lat="43.75067" lon="3.53332">
        <ele>483.799988</ele>
        <time>2013-05-25T10:19:09Z</time>
      </trkpt>
      <trkpt lat="43.75062" lon="3.53333">
        <ele>483.799988</ele>
        <time>2013-05-25T10:19:10Z</time>
      </trkpt>
      <trkpt lat="43.75057" lon="3.53333">
        <ele>483.799988</ele>
        <time>2013-05-25T10:19:11Z</time>
      </trkpt>
      <trkpt lat="43.75051" lon="3.53334">
        <ele>483.799988</ele>
        <time>2013-05-25T10:19:12Z</time>
      </trkpt>
      <trkpt lat="43.75046" lon="3.53335">
        <ele>483.700012</ele>
        <time>2013-05-25T10:19:13Z</time>
      </trkpt>
      <trkpt lat="43.7504" lon="3.53338">
        <ele>483.700012</ele>
        <time>2013-05-25T10:19:14Z</time>
      </trkpt>
      <trkpt lat="43.75034" lon="3.5334">
        <ele>483.600006</ele>
        <time>2013-05-25T10:19:15Z</time>
      </trkpt>
      <trkpt lat="43.75029" lon="3.53343">
        <ele>483.299988</ele>
        <time>2013-05-25T10:19:16Z</time>
      </trkpt>
      <trkpt lat="43.75023" lon="3.53345">
        <ele>483</ele>
        <time>2013-05-25T10:19:17Z</time>
      </trkpt>
      <trkpt lat="43.75018" lon="3.53344">
        <ele>482.799988</ele>
        <time>2013-05-25T10:19:18Z</time>
      </trkpt>
      <trkpt lat="43.75014" lon="3.53341">
        <ele>482.399994</ele>
        <time>2013-05-25T10:19:19Z</time>
      </trkpt>
      <trkpt lat="43.7501" lon="3.53337">
        <ele>482.100006</ele>
        <time>2013-05-25T10:19:20Z</time>
      </trkpt>
      <trkpt lat="43.75006" lon="3.53332">
        <ele>481.799988</ele>
        <time>2013-05-25T10:19:21Z</time>
      </trkpt>
      <trkpt lat="43.75003" lon="3.53327">
        <ele>481.600006</ele>
        <time>2013-05-25T10:19:22Z</time>
      </trkpt>
      <trkpt lat="43.75001" lon="3.5332">
        <ele>482</ele>
        <time>2013-05-25T10:19:23Z</time>
      </trkpt>
      <trkpt lat="43.74999" lon="3.53314">
        <ele>482.299988</ele>
        <time>2013-05-25T10:19:24Z</time>
      </trkpt>
      <trkpt lat="43.74997" lon="3.53308">
        <ele>482.5</ele>
        <time>2013-05-25T10:19:25Z</time>
      </trkpt>
      <trkpt lat="43.74994" lon="3.53302">
        <ele>483.100006</ele>
        <time>2013-05-25T10:19:26Z</time>
      </trkpt>
      <trkpt lat="43.74991" lon="3.53298">
        <ele>483.5</ele>
        <time>2013-05-25T10:19:27Z</time>
      </trkpt>
      <trkpt lat="43.74986" lon="3.53296">
        <ele>483.799988</ele>
        <time>2013-05-25T10:19:28Z</time>
      </trkpt>
      <trkpt lat="43.74981" lon="3.53295">
        <ele>483.700012</ele>
        <time>2013-05-25T10:19:29Z</time>
      </trkpt>
      <trkpt lat="43.74976" lon="3.53295">
        <ele>483.600006</ele>
        <time>2013-05-25T10:19:30Z</time>
      </trkpt>
      <trkpt lat="43.7497" lon="3.53295">
        <ele>483.600006</ele>
        <time>2013-05-25T10:19:31Z</time>
      </trkpt>
      <trkpt lat="43.74964" lon="3.53293">
        <ele>483.200012</ele>
        <time>2013-05-25T10:19:32Z</time>
      </trkpt>
      <trkpt lat="43.74958" lon="3.5329">
        <ele>482.899994</ele>
        <time>2013-05-25T10:19:33Z</time>
      </trkpt>
      <trkpt lat="43.74952" lon="3.53286">
        <ele>482.799988</ele>
        <time>2013-05-25T10:19:34Z</time>
      </trkpt>
      <trkpt lat="43.74947" lon="3.53282">
        <ele>483.100006</ele>
        <time>2013-05-25T10:19:35Z</time>
      </trkpt>
      <trkpt lat="43.74941" lon="3.53276">
        <ele>483.299988</ele>
        <time>2013-05-25T10:19:36Z</time>
      </trkpt>
      <trkpt lat="43.74936" lon="3.53271">
        <ele>483.5</ele>
        <time>2013-05-25T10:19:37Z</time>
      </trkpt>
      <trkpt lat="43.7493" lon="3.53266">
        <ele>483.700012</ele>
        <time>2013-05-25T10:19:38Z</time>
      </trkpt>
      <trkpt lat="43.74924" lon="3.53261">
        <ele>483.799988</ele>
        <time>2013-05-25T10:19:39Z</time>
      </trkpt>
      <trkpt lat="43.74917" lon="3.53257">
        <ele>483.799988</ele>
        <time>2013-05-25T10:19:40Z</time>
      </trkpt>
      <trkpt lat="43.74911" lon="3.53252">
        <ele>483.899994</ele>
        <time>2013-05-25T10:19:41Z</time>
      </trkpt>
      <trkpt lat="43.74905" lon="3.5325">
        <ele>484.399994</ele>
        <time>2013-05-25T10:19:42Z</time>
      </trkpt>
      <trkpt lat="43.74899" lon="3.5325">
        <ele>484.700012</ele>
        <time>2013-05-25T10:19:43Z</time>
      </trkpt>
      <trkpt lat="43.74894" lon="3.53254">
        <ele>485</ele>
        <time>2013-05-25T10:19:44Z</time>
      </trkpt>
      <trkpt lat="43.7489" lon="3.5326">
        <ele>485.200012</ele>
        <time>2013-05-25T10:19:45Z</time>
      </trkpt>
      <trkpt lat="43.74885" lon="3.53266">
        <ele>485.399994</ele>
        <time>2013-05-25T10:19:46Z</time>
      </trkpt>
      <trkpt lat="43.74881" lon="3.53272">
        <ele>485.600006</ele>
        <time>2013-05-25T10:19:47Z</time>
      </trkpt>
      <trkpt lat="43.74877" lon="3.53278">
        <ele>486</ele>
        <time>2013-05-25T10:19:48Z</time>
      </trkpt>
      <trkpt lat="43.74872" lon="3.53283">
        <ele>486.299988</ele>
        <time>2013-05-25T10:19:49Z</time>
      </trkpt>
      <trkpt lat="43.74867" lon="3.53289">
        <ele>486.5</ele>
        <time>2013-05-25T10:19:50Z</time>
      </trkpt>
      <trkpt lat="43.74862" lon="3.53293">
        <ele>486.399994</ele>
        <time>2013-05-25T10:19:51Z</time>
      </trkpt>
      <trkpt lat="43.74857" lon="3.53295">
        <ele>486.399994</ele>
        <time>2013-05-25T10:19:52Z</time>
      </trkpt>
      <trkpt lat="43.74852" lon="3.53297">
        <ele>486.399994</ele>
        <time>2013-05-25T10:19:53Z</time>
      </trkpt>
      <trkpt lat="43.74848" lon="3.53299">
        <ele>486.299988</ele>
        <time>2013-05-25T10:19:54Z</time>
      </trkpt>
      <trkpt lat="43.7484" lon="3.53303">
        <ele>486.700012</ele>
        <time>2013-05-25T10:19:56Z</time>
      </trkpt>
      <trkpt lat="43.74832" lon="3.53309">
        <ele>486.200012</ele>
        <time>2013-05-25T10:19:58Z</time>
      </trkpt>
      <trkpt lat="43.74825" lon="3.53314">
        <ele>485.299988</ele>
        <time>2013-05-25T10:20:00Z</time>
      </trkpt>
      <trkpt lat="43.74818" lon="3.5332">
        <ele>484.299988</ele>
        <time>2013-05-25T10:20:02Z</time>
      </trkpt>
      <trkpt lat="43.7481" lon="3.53321">
        <ele>483.700012</ele>
        <time>2013-05-25T10:20:04Z</time>
      </trkpt>
      <trkpt lat="43.74802" lon="3.53318">
        <ele>483.399994</ele>
        <time>2013-05-25T10:20:06Z</time>
      </trkpt>
      <trkpt lat="43.74797" lon="3.53315">
        <ele>483.100006</ele>
        <time>2013-05-25T10:20:07Z</time>
      </trkpt>
      <trkpt lat="43.74793" lon="3.53312">
        <ele>482.899994</ele>
        <time>2013-05-25T10:20:08Z</time>
      </trkpt>
      <trkpt lat="43.74788" lon="3.53309">
        <ele>482.799988</ele>
        <time>2013-05-25T10:20:09Z</time>
      </trkpt>
      <trkpt lat="43.74783" lon="3.53305">
        <ele>483.100006</ele>
        <time>2013-05-25T10:20:10Z</time>
      </trkpt>
      <trkpt lat="43.74777" lon="3.53302">
        <ele>483.299988</ele>
        <time>2013-05-25T10:20:11Z</time>
      </trkpt>
      <trkpt lat="43.74772" lon="3.53299">
        <ele>483.399994</ele>
        <time>2013-05-25T10:20:12Z</time>
      </trkpt>
      <trkpt lat="43.74766" lon="3.53297">
        <ele>483.5</ele>
        <time>2013-05-25T10:20:13Z</time>
      </trkpt>
      <trkpt lat="43.7476" lon="3.53294">
        <ele>483.799988</ele>
        <time>2013-05-25T10:20:14Z</time>
      </trkpt>
      <trkpt lat="43.74755" lon="3.53293">
        <ele>483.899994</ele>
        <time>2013-05-25T10:20:15Z</time>
      </trkpt>
      <trkpt lat="43.7475" lon="3.53293">
        <ele>484.100006</ele>
        <time>2013-05-25T10:20:16Z</time>
      </trkpt>
      <trkpt lat="43.74745" lon="3.53293">
        <ele>484.700012</ele>
        <time>2013-05-25T10:20:17Z</time>
      </trkpt>
      <trkpt lat="43.7474" lon="3.53293">
        <ele>485.200012</ele>
        <time>2013-05-25T10:20:18Z</time>
      </trkpt>
      <trkpt lat="43.74734" lon="3.53293">
        <ele>485.5</ele>
        <time>2013-05-25T10:20:19Z</time>
      </trkpt>
      <trkpt lat="43.74728" lon="3.53291">
        <ele>485</ele>
        <time>2013-05-25T10:20:20Z</time>
      </trkpt>
      <trkpt lat="43.74722" lon="3.53289">
        <ele>484.600006</ele>
        <time>2013-05-25T10:20:21Z</time>
      </trkpt>
      <trkpt lat="43.74717" lon="3.53288">
        <ele>484.299988</ele>
        <time>2013-05-25T10:20:22Z</time>
      </trkpt>
      <trkpt lat="43.74711" lon="3.53289">
        <ele>484</ele>
        <time>2013-05-25T10:20:23Z</time>
      </trkpt>
      <trkpt lat="43.74705" lon="3.53292">
        <ele>483.799988</ele>
        <time>2013-05-25T10:20:24Z</time>
      </trkpt>
      <trkpt lat="43.74699" lon="3.53296">
        <ele>483.600006</ele>
        <time>2013-05-25T10:20:25Z</time>
      </trkpt>
      <trkpt lat="43.74694" lon="3.533">
        <ele>483.399994</ele>
        <time>2013-05-25T10:20:26Z</time>
      </trkpt>
      <trkpt lat="43.74689" lon="3.53303">
        <ele>483.399994</ele>
        <time>2013-05-25T10:20:27Z</time>
      </trkpt>
      <trkpt lat="43.74683" lon="3.53305">
        <ele>483.399994</ele>
        <time>2013-05-25T10:20:28Z</time>
      </trkpt>
      <trkpt lat="43.74679" lon="3.53307">
        <ele>483.299988</ele>
        <time>2013-05-25T10:20:29Z</time>
      </trkpt>
      <trkpt lat="43.7467" lon="3.5331">
        <ele>484</ele>
        <time>2013-05-25T10:20:31Z</time>
      </trkpt>
      <trkpt lat="43.74662" lon="3.53309">
        <ele>485</ele>
        <time>2013-05-25T10:20:33Z</time>
      </trkpt>
      <trkpt lat="43.74655" lon="3.53306">
        <ele>485.899994</ele>
        <time>2013-05-25T10:20:35Z</time>
      </trkpt>
      <trkpt lat="43.74652" lon="3.53304">
        <ele>486.700012</ele>
        <time>2013-05-25T10:20:36Z</time>
      </trkpt>
      <trkpt lat="43.74645" lon="3.53296">
        <ele>487.399994</ele>
        <time>2013-05-25T10:20:39Z</time>
      </trkpt>
      <trkpt lat="43.74642" lon="3.53288">
        <ele>486.899994</ele>
        <time>2013-05-25T10:20:41Z</time>
      </trkpt>
      <trkpt lat="43.7464" lon="3.53278">
        <ele>486.799988</ele>
        <time>2013-05-25T10:20:43Z</time>
      </trkpt>
      <trkpt lat="43.7464" lon="3.53267">
        <ele>487</ele>
        <time>2013-05-25T10:20:45Z</time>
      </trkpt>
      <trkpt lat="43.74642" lon="3.53255">
        <ele>486.100006</ele>
        <time>2013-05-25T10:20:47Z</time>
      </trkpt>
      <trkpt lat="43.74643" lon="3.53249">
        <ele>485.799988</ele>
        <time>2013-05-25T10:20:48Z</time>
      </trkpt>
      <trkpt lat="43.74644" lon="3.53242">
        <ele>485.100006</ele>
        <time>2013-05-25T10:20:49Z</time>
      </trkpt>
      <trkpt lat="43.74644" lon="3.53234">
        <ele>484.600006</ele>
        <time>2013-05-25T10:20:50Z</time>
      </trkpt>
      <trkpt lat="43.74644" lon="3.53226">
        <ele>484.200012</ele>
        <time>2013-05-25T10:20:51Z</time>
      </trkpt>
      <trkpt lat="43.74643" lon="3.53218">
        <ele>483</ele>
        <time>2013-05-25T10:20:52Z</time>
      </trkpt>
      <trkpt lat="43.7464" lon="3.53212">
        <ele>482.200012</ele>
        <time>2013-05-25T10:20:53Z</time>
      </trkpt>
      <trkpt lat="43.74637" lon="3.53206">
        <ele>481.5</ele>
        <time>2013-05-25T10:20:54Z</time>
      </trkpt>
      <trkpt lat="43.74634" lon="3.53201">
        <ele>480.600006</ele>
        <time>2013-05-25T10:20:55Z</time>
      </trkpt>
      <trkpt lat="43.7463" lon="3.53196">
        <ele>480</ele>
        <time>2013-05-25T10:20:56Z</time>
      </trkpt>
      <trkpt lat="43.74628" lon="3.5319">
        <ele>479.399994</ele>
        <time>2013-05-25T10:20:57Z</time>
      </trkpt>
      <trkpt lat="43.74628" lon="3.53184">
        <ele>478.399994</ele>
        <time>2013-05-25T10:20:58Z</time>
      </trkpt>
      <trkpt lat="43.74629" lon="3.53178">
        <ele>477.700012</ele>
        <time>2013-05-25T10:20:59Z</time>
      </trkpt>
      <trkpt lat="43.74632" lon="3.53171">
        <ele>477.100006</ele>
        <time>2013-05-25T10:21:00Z</time>
      </trkpt>
      <trkpt lat="43.74634" lon="3.53165">
        <ele>476.700012</ele>
        <time>2013-05-25T10:21:01Z</time>
      </trkpt>
      <trkpt lat="43.74637" lon="3.53157">
        <ele>475.799988</ele>
        <time>2013-05-25T10:21:02Z</time>
      </trkpt>
      <trkpt lat="43.74639" lon="3.53149">
        <ele>475.100006</ele>
        <time>2013-05-25T10:21:03Z</time>
      </trkpt>
      <trkpt lat="43.74641" lon="3.5314">
        <ele>474.600006</ele>
        <time>2013-05-25T10:21:04Z</time>
      </trkpt>
      <trkpt lat="43.74642" lon="3.53132">
        <ele>474.100006</ele>
        <time>2013-05-25T10:21:05Z</time>
      </trkpt>
      <trkpt lat="43.74644" lon="3.53123">
        <ele>473.700012</ele>
        <time>2013-05-25T10:21:06Z</time>
      </trkpt>
      <trkpt lat="43.74644" lon="3.53113">
        <ele>473.399994</ele>
        <time>2013-05-25T10:21:07Z</time>
      </trkpt>
      <trkpt lat="43.74644" lon="3.53104">
        <ele>472.799988</ele>
        <time>2013-05-25T10:21:08Z</time>
      </trkpt>
      <trkpt lat="43.74644" lon="3.53094">
        <ele>472.399994</ele>
        <time>2013-05-25T10:21:09Z</time>
      </trkpt>
      <trkpt lat="43.74644" lon="3.53084">
        <ele>472</ele>
        <time>2013-05-25T10:21:10Z</time>
      </trkpt>
      <trkpt lat="43.74643" lon="3.53073">
        <ele>470.700012</ele>
        <time>2013-05-25T10:21:11Z</time>
      </trkpt>
      <trkpt lat="43.74642" lon="3.53063">
        <ele>469.700012</ele>
        <time>2013-05-25T10:21:12Z</time>
      </trkpt>
      <trkpt lat="43.74641" lon="3.53053">
        <ele>468.899994</ele>
        <time>2013-05-25T10:21:13Z</time>
      </trkpt>
      <trkpt lat="43.7464" lon="3.53043">
        <ele>468.299988</ele>
        <time>2013-05-25T10:21:14Z</time>
      </trkpt>
      <trkpt lat="43.7464" lon="3.53034">
        <ele>467.799988</ele>
        <time>2013-05-25T10:21:15Z</time>
      </trkpt>
      <trkpt lat="43.74639" lon="3.53026">
        <ele>467.399994</ele>
        <time>2013-05-25T10:21:16Z</time>
      </trkpt>
      <trkpt lat="43.74639" lon="3.53018">
        <ele>467.100006</ele>
        <time>2013-05-25T10:21:17Z</time>
      </trkpt>
      <trkpt lat="43.74637" lon="3.53007">
        <ele>466.799988</ele>
        <time>2013-05-25T10:21:19Z</time>
      </trkpt>
      <trkpt lat="43.74636" lon="3.52995">
        <ele>467.200012</ele>
        <time>2013-05-25T10:21:22Z</time>
      </trkpt>
      <trkpt lat="43.74641" lon="3.52986">
        <ele>467.799988</ele>
        <time>2013-05-25T10:21:25Z</time>
      </trkpt>
      <trkpt lat="43.74649" lon="3.5298">
        <ele>468.700012</ele>
        <time>2013-05-25T10:21:28Z</time>
      </trkpt>
      <trkpt lat="43.74657" lon="3.52977">
        <ele>470.100006</ele>
        <time>2013-05-25T10:21:31Z</time>
      </trkpt>
      <trkpt lat="43.74665" lon="3.52975">
        <ele>471.600006</ele>
        <time>2013-05-25T10:21:34Z</time>
      </trkpt>
      <trkpt lat="43.74673" lon="3.52976">
        <ele>472.5</ele>
        <time>2013-05-25T10:21:37Z</time>
      </trkpt>
      <trkpt lat="43.74676" lon="3.52977">
        <ele>472.399994</ele>
        <time>2013-05-25T10:21:38Z</time>
      </trkpt>
      <trkpt lat="43.74689" lon="3.52982">
        <ele>473</ele>
        <time>2013-05-25T10:21:43Z</time>
      </trkpt>
      <trkpt lat="43.74697" lon="3.52985">
        <ele>474.399994</ele>
        <time>2013-05-25T10:21:46Z</time>
      </trkpt>
      <trkpt lat="43.74705" lon="3.52987">
        <ele>475.100006</ele>
        <time>2013-05-25T10:21:49Z</time>
      </trkpt>
      <trkpt lat="43.74712" lon="3.52988">
        <ele>475.100006</ele>
        <time>2013-05-25T10:21:52Z</time>
      </trkpt>
      <trkpt lat="43.7472" lon="3.52987">
        <ele>475.5</ele>
        <time>2013-05-25T10:21:56Z</time>
      </trkpt>
      <trkpt lat="43.74727" lon="3.52983">
        <ele>475.200012</ele>
        <time>2013-05-25T10:22:00Z</time>
      </trkpt>
      <trkpt lat="43.74733" lon="3.52975">
        <ele>476.799988</ele>
        <time>2013-05-25T10:22:04Z</time>
      </trkpt>
      <trkpt lat="43.74738" lon="3.52965">
        <ele>477.899994</ele>
        <time>2013-05-25T10:22:08Z</time>
      </trkpt>
      <trkpt lat="43.74743" lon="3.52958">
        <ele>477.899994</ele>
        <time>2013-05-25T10:22:11Z</time>
      </trkpt>
      <trkpt lat="43.74751" lon="3.52953">
        <ele>477.5</ele>
        <time>2013-05-25T10:22:15Z</time>
      </trkpt>
      <trkpt lat="43.74743" lon="3.52949">
        <ele>478.600006</ele>
        <time>2013-05-25T10:22:58Z</time>
      </trkpt>
      <trkpt lat="43.74742" lon="3.52948">
        <ele>478.799988</ele>
        <time>2013-05-25T10:22:59Z</time>
      </trkpt>
      <trkpt lat="43.74729" lon="3.52944">
        <ele>480</ele>
        <time>2013-05-25T10:23:06Z</time>
      </trkpt>
      <trkpt lat="43.74721" lon="3.52938">
        <ele>481.299988</ele>
        <time>2013-05-25T10:23:10Z</time>
      </trkpt>
      <trkpt lat="43.74714" lon="3.52935">
        <ele>481.399994</ele>
        <time>2013-05-25T10:23:14Z</time>
      </trkpt>
      <trkpt lat="43.74707" lon="3.5293">
        <ele>482.200012</ele>
        <time>2013-05-25T10:23:18Z</time>
      </trkpt>
      <trkpt lat="43.74699" lon="3.52923">
        <ele>483.5</ele>
        <time>2013-05-25T10:23:23Z</time>
      </trkpt>
      <trkpt lat="43.74706" lon="3.52916">
        <ele>485.299988</ele>
        <time>2013-05-25T10:23:30Z</time>
      </trkpt>
      <trkpt lat="43.74713" lon="3.52911">
        <ele>485.799988</ele>
        <time>2013-05-25T10:23:35Z</time>
      </trkpt>
      <trkpt lat="43.7472" lon="3.52905">
        <ele>486.200012</ele>
        <time>2013-05-25T10:23:39Z</time>
      </trkpt>
      <trkpt lat="43.74716" lon="3.52896">
        <ele>488.700012</ele>
        <time>2013-05-25T10:23:46Z</time>
      </trkpt>
      <trkpt lat="43.74708" lon="3.52894">
        <ele>489</ele>
        <time>2013-05-25T10:23:51Z</time>
      </trkpt>
      <trkpt lat="43.747" lon="3.5289">
        <ele>489.700012</ele>
        <time>2013-05-25T10:23:56Z</time>
      </trkpt>
      <trkpt lat="43.74693" lon="3.52885">
        <ele>490.700012</ele>
        <time>2013-05-25T10:24:00Z</time>
      </trkpt>
      <trkpt lat="43.74691" lon="3.52884">
        <ele>490.899994</ele>
        <time>2013-05-25T10:24:01Z</time>
      </trkpt>
      <trkpt lat="43.74678" lon="3.52874">
        <ele>492.799988</ele>
        <time>2013-05-25T10:24:13Z</time>
      </trkpt>
      <trkpt lat="43.74671" lon="3.52868">
        <ele>493.799988</ele>
        <time>2013-05-25T10:24:19Z</time>
      </trkpt>
      <trkpt lat="43.74664" lon="3.52861">
        <ele>495.200012</ele>
        <time>2013-05-25T10:24:25Z</time>
      </trkpt>
      <trkpt lat="43.74657" lon="3.52859">
        <ele>496</ele>
        <time>2013-05-25T10:24:29Z</time>
      </trkpt>
      <trkpt lat="43.74649" lon="3.52855">
        <ele>498.100006</ele>
        <time>2013-05-25T10:24:34Z</time>
      </trkpt>
      <trkpt lat="43.74644" lon="3.52847">
        <ele>497.299988</ele>
        <time>2013-05-25T10:24:38Z</time>
      </trkpt>
      <trkpt lat="43.74638" lon="3.52839">
        <ele>497.899994</ele>
        <time>2013-05-25T10:24:42Z</time>
      </trkpt>
      <trkpt lat="43.7463" lon="3.52834">
        <ele>497.200012</ele>
        <time>2013-05-25T10:24:48Z</time>
      </trkpt>
      <trkpt lat="43.74623" lon="3.5283">
        <ele>495.799988</ele>
        <time>2013-05-25T10:24:52Z</time>
      </trkpt>
      <trkpt lat="43.74616" lon="3.52823">
        <ele>495.100006</ele>
        <time>2013-05-25T10:24:55Z</time>
      </trkpt>
      <trkpt lat="43.74608" lon="3.52818">
        <ele>494.600006</ele>
        <time>2013-05-25T10:24:58Z</time>
      </trkpt>
      <trkpt lat="43.74604" lon="3.52812">
        <ele>494.299988</ele>
        <time>2013-05-25T10:25:00Z</time>
      </trkpt>
      <trkpt lat="43.746" lon="3.52801">
        <ele>492.899994</ele>
        <time>2013-05-25T10:25:03Z</time>
      </trkpt>
      <trkpt lat="43.746" lon="3.52798">
        <ele>492.399994</ele>
        <time>2013-05-25T10:25:04Z</time>
      </trkpt>
      <trkpt lat="43.74598" lon="3.52779">
        <ele>491.5</ele>
        <time>2013-05-25T10:25:10Z</time>
      </trkpt>
      <trkpt lat="43.74596" lon="3.52768">
        <ele>491.600006</ele>
        <time>2013-05-25T10:25:15Z</time>
      </trkpt>
      <trkpt lat="43.74589" lon="3.52761">
        <ele>489.600006</ele>
        <time>2013-05-25T10:25:22Z</time>
      </trkpt>
      <trkpt lat="43.74583" lon="3.52751">
        <ele>486.600006</ele>
        <time>2013-05-25T10:25:30Z</time>
      </trkpt>
      <trkpt lat="43.7458" lon="3.52742">
        <ele>486.600006</ele>
        <time>2013-05-25T10:25:34Z</time>
      </trkpt>
      <trkpt lat="43.74578" lon="3.52732">
        <ele>485.899994</ele>
        <time>2013-05-25T10:25:37Z</time>
      </trkpt>
      <trkpt lat="43.74576" lon="3.52721">
        <ele>483.799988</ele>
        <time>2013-05-25T10:25:40Z</time>
      </trkpt>
      <trkpt lat="43.74574" lon="3.52709">
        <ele>481.799988</ele>
        <time>2013-05-25T10:25:43Z</time>
      </trkpt>
      <trkpt lat="43.74574" lon="3.527">
        <ele>480.700012</ele>
        <time>2013-05-25T10:25:45Z</time>
      </trkpt>
      <trkpt lat="43.74575" lon="3.52691">
        <ele>481</ele>
        <time>2013-05-25T10:25:48Z</time>
      </trkpt>
      <trkpt lat="43.74577" lon="3.52679">
        <ele>479.799988</ele>
        <time>2013-05-25T10:25:51Z</time>
      </trkpt>
      <trkpt lat="43.74577" lon="3.5267">
        <ele>478.700012</ele>
        <time>2013-05-25T10:25:53Z</time>
      </trkpt>
      <trkpt lat="43.74578" lon="3.52662">
        <ele>477.700012</ele>
        <time>2013-05-25T10:25:55Z</time>
      </trkpt>
      <trkpt lat="43.74579" lon="3.52652">
        <ele>476.799988</ele>
        <time>2013-05-25T10:25:57Z</time>
      </trkpt>
      <trkpt lat="43.7458" lon="3.52642">
        <ele>475.899994</ele>
        <time>2013-05-25T10:25:59Z</time>
      </trkpt>
      <trkpt lat="43.74579" lon="3.52631">
        <ele>473.100006</ele>
        <time>2013-05-25T10:26:04Z</time>
      </trkpt>
      <trkpt lat="43.74579" lon="3.52629">
        <ele>472.700012</ele>
        <time>2013-05-25T10:26:05Z</time>
      </trkpt>
      <trkpt lat="43.74574" lon="3.52608">
        <ele>469.299988</ele>
        <time>2013-05-25T10:26:48Z</time>
      </trkpt>
      <trkpt lat="43.74569" lon="3.52597">
        <ele>466.899994</ele>
        <time>2013-05-25T10:28:02Z</time>
      </trkpt>
      <trkpt lat="43.74569" lon="3.52596">
        <ele>467.700012</ele>
        <time>2013-05-25T10:28:03Z</time>
      </trkpt>
      <trkpt lat="43.74572" lon="3.52581">
        <ele>471</ele>
        <time>2013-05-25T10:29:45Z</time>
      </trkpt>
      <trkpt lat="43.74573" lon="3.52561">
        <ele>471</ele>
        <time>2013-05-25T10:29:50Z</time>
      </trkpt>
      <trkpt lat="43.74574" lon="3.52552">
        <ele>470.5</ele>
        <time>2013-05-25T10:29:52Z</time>
      </trkpt>
      <trkpt lat="43.74575" lon="3.52544">
        <ele>470.299988</ele>
        <time>2013-05-25T10:29:54Z</time>
      </trkpt>
      <trkpt lat="43.74577" lon="3.52533">
        <ele>470.899994</ele>
        <time>2013-05-25T10:29:57Z</time>
      </trkpt>
      <trkpt lat="43.74578" lon="3.52522">
        <ele>471.399994</ele>
        <time>2013-05-25T10:30:00Z</time>
      </trkpt>
      <trkpt lat="43.74578" lon="3.5251">
        <ele>472.399994</ele>
        <time>2013-05-25T10:30:03Z</time>
      </trkpt>
      <trkpt lat="43.74578" lon="3.52498">
        <ele>474.200012</ele>
        <time>2013-05-25T10:30:06Z</time>
      </trkpt>
      <trkpt lat="43.7458" lon="3.52488">
        <ele>473.200012</ele>
        <time>2013-05-25T10:30:10Z</time>
      </trkpt>
      <trkpt lat="43.74582" lon="3.52478">
        <ele>475.100006</ele>
        <time>2013-05-25T10:30:15Z</time>
      </trkpt>
      <trkpt lat="43.74586" lon="3.52467">
        <ele>475.200012</ele>
        <time>2013-05-25T10:30:20Z</time>
      </trkpt>
      <trkpt lat="43.74589" lon="3.52458">
        <ele>477.100006</ele>
        <time>2013-05-25T10:30:24Z</time>
      </trkpt>
      <trkpt lat="43.74594" lon="3.5245">
        <ele>478.5</ele>
        <time>2013-05-25T10:30:28Z</time>
      </trkpt>
      <trkpt lat="43.74599" lon="3.5244">
        <ele>479.5</ele>
        <time>2013-05-25T10:30:33Z</time>
      </trkpt>
      <trkpt lat="43.74605" lon="3.52431">
        <ele>479.799988</ele>
        <time>2013-05-25T10:30:37Z</time>
      </trkpt>
      <trkpt lat="43.74607" lon="3.5242">
        <ele>480.100006</ele>
        <time>2013-05-25T10:30:41Z</time>
      </trkpt>
      <trkpt lat="43.74601" lon="3.52412">
        <ele>481.200012</ele>
        <time>2013-05-25T10:30:45Z</time>
      </trkpt>
      <trkpt lat="43.74593" lon="3.52407">
        <ele>481.200012</ele>
        <time>2013-05-25T10:30:49Z</time>
      </trkpt>
      <trkpt lat="43.74591" lon="3.52406">
        <ele>481.299988</ele>
        <time>2013-05-25T10:30:50Z</time>
      </trkpt>
      <trkpt lat="43.74578" lon="3.52397">
        <ele>482.700012</ele>
        <time>2013-05-25T10:30:57Z</time>
      </trkpt>
      <trkpt lat="43.74571" lon="3.52391">
        <ele>482.700012</ele>
        <time>2013-05-25T10:31:01Z</time>
      </trkpt>
      <trkpt lat="43.74564" lon="3.52384">
        <ele>484</ele>
        <time>2013-05-25T10:31:06Z</time>
      </trkpt>
      <trkpt lat="43.74559" lon="3.52375">
        <ele>485.299988</ele>
        <time>2013-05-25T10:31:11Z</time>
      </trkpt>
      <trkpt lat="43.74555" lon="3.52365">
        <ele>485.700012</ele>
        <time>2013-05-25T10:31:15Z</time>
      </trkpt>
      <trkpt lat="43.74555" lon="3.52355">
        <ele>486.5</ele>
        <time>2013-05-25T10:31:19Z</time>
      </trkpt>
      <trkpt lat="43.74556" lon="3.52344">
        <ele>487.899994</ele>
        <time>2013-05-25T10:31:23Z</time>
      </trkpt>
      <trkpt lat="43.74561" lon="3.52335">
        <ele>487.799988</ele>
        <time>2013-05-25T10:31:27Z</time>
      </trkpt>
      <trkpt lat="43.74566" lon="3.52328">
        <ele>488</ele>
        <time>2013-05-25T10:31:30Z</time>
      </trkpt>
      <trkpt lat="43.74569" lon="3.52319">
        <ele>487.600006</ele>
        <time>2013-05-25T10:31:33Z</time>
      </trkpt>
      <trkpt lat="43.74571" lon="3.52309">
        <ele>488.700012</ele>
        <time>2013-05-25T10:31:36Z</time>
      </trkpt>
      <trkpt lat="43.74571" lon="3.52298">
        <ele>488.899994</ele>
        <time>2013-05-25T10:31:39Z</time>
      </trkpt>
      <trkpt lat="43.74571" lon="3.52287">
        <ele>489</ele>
        <time>2013-05-25T10:31:42Z</time>
      </trkpt>
      <trkpt lat="43.74569" lon="3.52275">
        <ele>489.799988</ele>
        <time>2013-05-25T10:31:45Z</time>
      </trkpt>
      <trkpt lat="43.74567" lon="3.52264">
        <ele>490.299988</ele>
        <time>2013-05-25T10:31:48Z</time>
      </trkpt>
      <trkpt lat="43.74566" lon="3.52253">
        <ele>490.200012</ele>
        <time>2013-05-25T10:31:51Z</time>
      </trkpt>
      <trkpt lat="43.74566" lon="3.52249">
        <ele>490.100006</ele>
        <time>2013-05-25T10:31:52Z</time>
      </trkpt>
      <trkpt lat="43.74564" lon="3.52229">
        <ele>490.200012</ele>
        <time>2013-05-25T10:31:57Z</time>
      </trkpt>
      <trkpt lat="43.74562" lon="3.52221">
        <ele>490.200012</ele>
        <time>2013-05-25T10:31:59Z</time>
      </trkpt>
      <trkpt lat="43.7456" lon="3.52213">
        <ele>489.899994</ele>
        <time>2013-05-25T10:32:01Z</time>
      </trkpt>
      <trkpt lat="43.74556" lon="3.52205">
        <ele>489.299988</ele>
        <time>2013-05-25T10:32:03Z</time>
      </trkpt>
      <trkpt lat="43.7455" lon="3.52197">
        <ele>489</ele>
        <time>2013-05-25T10:32:05Z</time>
      </trkpt>
      <trkpt lat="43.74542" lon="3.52193">
        <ele>490.600006</ele>
        <time>2013-05-25T10:32:07Z</time>
      </trkpt>
      <trkpt lat="43.74534" lon="3.52195">
        <ele>491</ele>
        <time>2013-05-25T10:32:09Z</time>
      </trkpt>
      <trkpt lat="43.74526" lon="3.52199">
        <ele>490.799988</ele>
        <time>2013-05-25T10:32:11Z</time>
      </trkpt>
      <trkpt lat="43.74518" lon="3.52203">
        <ele>490.399994</ele>
        <time>2013-05-25T10:32:13Z</time>
      </trkpt>
      <trkpt lat="43.74509" lon="3.52206">
        <ele>490.399994</ele>
        <time>2013-05-25T10:32:15Z</time>
      </trkpt>
      <trkpt lat="43.74501" lon="3.52207">
        <ele>490.5</ele>
        <time>2013-05-25T10:32:17Z</time>
      </trkpt>
      <trkpt lat="43.74492" lon="3.52209">
        <ele>491.200012</ele>
        <time>2013-05-25T10:32:19Z</time>
      </trkpt>
      <trkpt lat="43.74483" lon="3.5221">
        <ele>491.5</ele>
        <time>2013-05-25T10:32:21Z</time>
      </trkpt>
      <trkpt lat="43.74475" lon="3.52211">
        <ele>491.899994</ele>
        <time>2013-05-25T10:32:23Z</time>
      </trkpt>
      <trkpt lat="43.74466" lon="3.52212">
        <ele>492.399994</ele>
        <time>2013-05-25T10:32:25Z</time>
      </trkpt>
      <trkpt lat="43.74458" lon="3.52213">
        <ele>492.799988</ele>
        <time>2013-05-25T10:32:27Z</time>
      </trkpt>
      <trkpt lat="43.7445" lon="3.52215">
        <ele>492.899994</ele>
        <time>2013-05-25T10:32:29Z</time>
      </trkpt>
      <trkpt lat="43.74445" lon="3.52219">
        <ele>493.299988</ele>
        <time>2013-05-25T10:32:31Z</time>
      </trkpt>
      <trkpt lat="43.74437" lon="3.52225">
        <ele>494</ele>
        <time>2013-05-25T10:32:34Z</time>
      </trkpt>
      <trkpt lat="43.74432" lon="3.52231">
        <ele>494.299988</ele>
        <time>2013-05-25T10:32:36Z</time>
      </trkpt>
      <trkpt lat="43.74427" lon="3.52239">
        <ele>494.200012</ele>
        <time>2013-05-25T10:32:38Z</time>
      </trkpt>
      <trkpt lat="43.74423" lon="3.52249">
        <ele>493.899994</ele>
        <time>2013-05-25T10:32:40Z</time>
      </trkpt>
      <trkpt lat="43.74421" lon="3.52255">
        <ele>493.799988</ele>
        <time>2013-05-25T10:32:41Z</time>
      </trkpt>
      <trkpt lat="43.74418" lon="3.5226">
        <ele>493.700012</ele>
        <time>2013-05-25T10:32:42Z</time>
      </trkpt>
      <trkpt lat="43.74415" lon="3.52265">
        <ele>493.600006</ele>
        <time>2013-05-25T10:32:43Z</time>
      </trkpt>
      <trkpt lat="43.74412" lon="3.52269">
        <ele>493.700012</ele>
        <time>2013-05-25T10:32:44Z</time>
      </trkpt>
      <trkpt lat="43.74403" lon="3.52273">
        <ele>493.799988</ele>
        <time>2013-05-25T10:32:46Z</time>
      </trkpt>
      <trkpt lat="43.74395" lon="3.52276">
        <ele>493.700012</ele>
        <time>2013-05-25T10:32:48Z</time>
      </trkpt>
      <trkpt lat="43.74387" lon="3.52277">
        <ele>494.5</ele>
        <time>2013-05-25T10:32:50Z</time>
      </trkpt>
      <trkpt lat="43.74379" lon="3.52279">
        <ele>495.600006</ele>
        <time>2013-05-25T10:32:52Z</time>
      </trkpt>
      <trkpt lat="43.74376" lon="3.5228">
        <ele>496.5</ele>
        <time>2013-05-25T10:32:53Z</time>
      </trkpt>
      <trkpt lat="43.74373" lon="3.52288">
        <ele>498.700012</ele>
        <time>2013-05-25T10:35:05Z</time>
      </trkpt>
      <trkpt lat="43.74373" lon="3.52292">
        <ele>498.700012</ele>
        <time>2013-05-25T10:35:06Z</time>
      </trkpt>
      <trkpt lat="43.74374" lon="3.52311">
        <ele>498.700012</ele>
        <time>2013-05-25T10:35:20Z</time>
      </trkpt>
      <trkpt lat="43.74375" lon="3.52323">
        <ele>497.799988</ele>
        <time>2013-05-25T10:35:24Z</time>
      </trkpt>
      <trkpt lat="43.74376" lon="3.52331">
        <ele>498.399994</ele>
        <time>2013-05-25T10:35:26Z</time>
      </trkpt>
      <trkpt lat="43.74377" lon="3.52341">
        <ele>498.700012</ele>
        <time>2013-05-25T10:35:28Z</time>
      </trkpt>
      <trkpt lat="43.74377" lon="3.5235">
        <ele>498.100006</ele>
        <time>2013-05-25T10:35:30Z</time>
      </trkpt>
      <trkpt lat="43.74376" lon="3.5236">
        <ele>497.399994</ele>
        <time>2013-05-25T10:35:32Z</time>
      </trkpt>
      <trkpt lat="43.74375" lon="3.5237">
        <ele>495.399994</ele>
        <time>2013-05-25T10:35:34Z</time>
      </trkpt>
      <trkpt lat="43.74372" lon="3.5238">
        <ele>493.200012</ele>
        <time>2013-05-25T10:35:36Z</time>
      </trkpt>
      <trkpt lat="43.74368" lon="3.52389">
        <ele>491.100006</ele>
        <time>2013-05-25T10:35:38Z</time>
      </trkpt>
      <trkpt lat="43.74362" lon="3.52396">
        <ele>488.5</ele>
        <time>2013-05-25T10:35:41Z</time>
      </trkpt>
      <trkpt lat="43.74357" lon="3.52403">
        <ele>487.700012</ele>
        <time>2013-05-25T10:35:43Z</time>
      </trkpt>
      <trkpt lat="43.74352" lon="3.52411">
        <ele>487.200012</ele>
        <time>2013-05-25T10:35:45Z</time>
      </trkpt>
      <trkpt lat="43.74347" lon="3.52422">
        <ele>486.700012</ele>
        <time>2013-05-25T10:35:48Z</time>
      </trkpt>
      <trkpt lat="43.74349" lon="3.5243">
        <ele>485</ele>
        <time>2013-05-25T10:35:50Z</time>
      </trkpt>
      <trkpt lat="43.74351" lon="3.52441">
        <ele>483.899994</ele>
        <time>2013-05-25T10:35:53Z</time>
      </trkpt>
      <trkpt lat="43.74352" lon="3.52451">
        <ele>482.600006</ele>
        <time>2013-05-25T10:35:55Z</time>
      </trkpt>
      <trkpt lat="43.74353" lon="3.52461">
        <ele>481.100006</ele>
        <time>2013-05-25T10:35:57Z</time>
      </trkpt>
      <trkpt lat="43.74354" lon="3.52471">
        <ele>480.200012</ele>
        <time>2013-05-25T10:35:59Z</time>
      </trkpt>
      <trkpt lat="43.74357" lon="3.52482">
        <ele>477.899994</ele>
        <time>2013-05-25T10:36:03Z</time>
      </trkpt>
      <trkpt lat="43.74349" lon="3.52481">
        <ele>473.399994</ele>
        <time>2013-05-25T10:36:22Z</time>
      </trkpt>
      <trkpt lat="43.74348" lon="3.52479">
        <ele>473.399994</ele>
        <time>2013-05-25T10:36:23Z</time>
      </trkpt>
      <trkpt lat="43.74338" lon="3.52462">
        <ele>472.100006</ele>
        <time>2013-05-25T10:36:28Z</time>
      </trkpt>
      <trkpt lat="43.74338" lon="3.52472">
        <ele>469.200012</ele>
        <time>2013-05-25T10:36:38Z</time>
      </trkpt>
      <trkpt lat="43.74339" lon="3.52484">
        <ele>468.299988</ele>
        <time>2013-05-25T10:36:42Z</time>
      </trkpt>
      <trkpt lat="43.74341" lon="3.52496">
        <ele>466.600006</ele>
        <time>2013-05-25T10:36:45Z</time>
      </trkpt>
      <trkpt lat="43.74342" lon="3.52506">
        <ele>465.700012</ele>
        <time>2013-05-25T10:36:48Z</time>
      </trkpt>
      <trkpt lat="43.74345" lon="3.52518">
        <ele>464.700012</ele>
        <time>2013-05-25T10:36:52Z</time>
      </trkpt>
      <trkpt lat="43.74337" lon="3.52517">
        <ele>462.700012</ele>
        <time>2013-05-25T10:36:59Z</time>
      </trkpt>
      <trkpt lat="43.74334" lon="3.5251">
        <ele>461.700012</ele>
        <time>2013-05-25T10:37:01Z</time>
      </trkpt>
      <trkpt lat="43.7433" lon="3.52503">
        <ele>460.100006</ele>
        <time>2013-05-25T10:37:03Z</time>
      </trkpt>
      <trkpt lat="43.74326" lon="3.52495">
        <ele>459.200012</ele>
        <time>2013-05-25T10:37:05Z</time>
      </trkpt>
      <trkpt lat="43.74325" lon="3.52507">
        <ele>454.100006</ele>
        <time>2013-05-25T10:37:16Z</time>
      </trkpt>
      <trkpt lat="43.74326" lon="3.52515">
        <ele>453.700012</ele>
        <time>2013-05-25T10:37:18Z</time>
      </trkpt>
      <trkpt lat="43.74329" lon="3.52527">
        <ele>453</ele>
        <time>2013-05-25T10:37:21Z</time>
      </trkpt>
      <trkpt lat="43.74332" lon="3.52534">
        <ele>452.5</ele>
        <time>2013-05-25T10:37:23Z</time>
      </trkpt>
      <trkpt lat="43.74336" lon="3.52541">
        <ele>451.399994</ele>
        <time>2013-05-25T10:37:25Z</time>
      </trkpt>
      <trkpt lat="43.74338" lon="3.52545">
        <ele>450.700012</ele>
        <time>2013-05-25T10:37:26Z</time>
      </trkpt>
      <trkpt lat="43.74342" lon="3.52561">
        <ele>449.700012</ele>
        <time>2013-05-25T10:37:30Z</time>
      </trkpt>
      <trkpt lat="43.74343" lon="3.5257">
        <ele>448.799988</ele>
        <time>2013-05-25T10:37:32Z</time>
      </trkpt>
      <trkpt lat="43.74343" lon="3.52579">
        <ele>448.5</ele>
        <time>2013-05-25T10:37:34Z</time>
      </trkpt>
      <trkpt lat="43.7434" lon="3.52589">
        <ele>448.5</ele>
        <time>2013-05-25T10:37:36Z</time>
      </trkpt>
      <trkpt lat="43.74337" lon="3.52598">
        <ele>447.799988</ele>
        <time>2013-05-25T10:37:38Z</time>
      </trkpt>
      <trkpt lat="43.74334" lon="3.52588">
        <ele>443.100006</ele>
        <time>2013-05-25T10:37:50Z</time>
      </trkpt>
      <trkpt lat="43.74333" lon="3.52578">
        <ele>443.200012</ele>
        <time>2013-05-25T10:37:53Z</time>
      </trkpt>
      <trkpt lat="43.74328" lon="3.52569">
        <ele>440.5</ele>
        <time>2013-05-25T10:38:00Z</time>
      </trkpt>
      <trkpt lat="43.74327" lon="3.5258">
        <ele>434.200012</ele>
        <time>2013-05-25T10:38:13Z</time>
      </trkpt>
      <trkpt lat="43.74324" lon="3.5259">
        <ele>431.200012</ele>
        <time>2013-05-25T10:38:17Z</time>
      </trkpt>
      <trkpt lat="43.74321" lon="3.52598">
        <ele>430.399994</ele>
        <time>2013-05-25T10:38:19Z</time>
      </trkpt>
      <trkpt lat="43.74318" lon="3.52606">
        <ele>430.100006</ele>
        <time>2013-05-25T10:38:21Z</time>
      </trkpt>
      <trkpt lat="43.74316" lon="3.52614">
        <ele>429.799988</ele>
        <time>2013-05-25T10:38:23Z</time>
      </trkpt>
      <trkpt lat="43.74315" lon="3.52623">
        <ele>428.899994</ele>
        <time>2013-05-25T10:38:25Z</time>
      </trkpt>
      <trkpt lat="43.74317" lon="3.52633">
        <ele>427.5</ele>
        <time>2013-05-25T10:38:28Z</time>
      </trkpt>
      <trkpt lat="43.74319" lon="3.52636">
        <ele>426.700012</ele>
        <time>2013-05-25T10:38:29Z</time>
      </trkpt>
      <trkpt lat="43.74325" lon="3.52647">
        <ele>425.799988</ele>
        <time>2013-05-25T10:38:32Z</time>
      </trkpt>
      <trkpt lat="43.7433" lon="3.52654">
        <ele>426.100006</ele>
        <time>2013-05-25T10:38:34Z</time>
      </trkpt>
      <trkpt lat="43.74333" lon="3.52661">
        <ele>424.799988</ele>
        <time>2013-05-25T10:38:36Z</time>
      </trkpt>
      <trkpt lat="43.74336" lon="3.52669">
        <ele>424</ele>
        <time>2013-05-25T10:38:38Z</time>
      </trkpt>
      <trkpt lat="43.74336" lon="3.52678">
        <ele>423.399994</ele>
        <time>2013-05-25T10:38:40Z</time>
      </trkpt>
      <trkpt lat="43.74336" lon="3.52688">
        <ele>422.600006</ele>
        <time>2013-05-25T10:38:42Z</time>
      </trkpt>
      <trkpt lat="43.74336" lon="3.52698">
        <ele>422.200012</ele>
        <time>2013-05-25T10:38:44Z</time>
      </trkpt>
      <trkpt lat="43.74336" lon="3.52709">
        <ele>421.799988</ele>
        <time>2013-05-25T10:38:46Z</time>
      </trkpt>
      <trkpt lat="43.74336" lon="3.52719">
        <ele>421.299988</ele>
        <time>2013-05-25T10:38:48Z</time>
      </trkpt>
      <trkpt lat="43.74337" lon="3.52728">
        <ele>420.799988</ele>
        <time>2013-05-25T10:38:50Z</time>
      </trkpt>
      <trkpt lat="43.74338" lon="3.52737">
        <ele>421.299988</ele>
        <time>2013-05-25T10:38:52Z</time>
      </trkpt>
      <trkpt lat="43.74341" lon="3.52748">
        <ele>421.399994</ele>
        <time>2013-05-25T10:38:55Z</time>
      </trkpt>
      <trkpt lat="43.74344" lon="3.52755">
        <ele>421.5</ele>
        <time>2013-05-25T10:38:57Z</time>
      </trkpt>
      <trkpt lat="43.74348" lon="3.52762">
        <ele>421.600006</ele>
        <time>2013-05-25T10:38:59Z</time>
      </trkpt>
      <trkpt lat="43.74352" lon="3.5277">
        <ele>420.200012</ele>
        <time>2013-05-25T10:39:01Z</time>
      </trkpt>
      <trkpt lat="43.74355" lon="3.52779">
        <ele>418.299988</ele>
        <time>2013-05-25T10:39:03Z</time>
      </trkpt>
      <trkpt lat="43.74358" lon="3.52788">
        <ele>417.100006</ele>
        <time>2013-05-25T10:39:05Z</time>
      </trkpt>
      <trkpt lat="43.74362" lon="3.52796">
        <ele>415.399994</ele>
        <time>2013-05-25T10:39:07Z</time>
      </trkpt>
      <trkpt lat="43.74363" lon="3.52805">
        <ele>413.700012</ele>
        <time>2013-05-25T10:39:09Z</time>
      </trkpt>
      <trkpt lat="43.74364" lon="3.52814">
        <ele>411.799988</ele>
        <time>2013-05-25T10:39:11Z</time>
      </trkpt>
      <trkpt lat="43.74365" lon="3.52827">
        <ele>410.600006</ele>
        <time>2013-05-25T10:39:15Z</time>
      </trkpt>
      <trkpt lat="43.74359" lon="3.52818">
        <ele>406.200012</ele>
        <time>2013-05-25T10:39:36Z</time>
      </trkpt>
      <trkpt lat="43.74358" lon="3.52815">
        <ele>406</ele>
        <time>2013-05-25T10:39:37Z</time>
      </trkpt>
      <trkpt lat="43.74348" lon="3.52804">
        <ele>403.799988</ele>
        <time>2013-05-25T10:39:42Z</time>
      </trkpt>
      <trkpt lat="43.74342" lon="3.52797">
        <ele>401.399994</ele>
        <time>2013-05-25T10:39:58Z</time>
      </trkpt>
      <trkpt lat="43.74337" lon="3.52793">
        <ele>401.100006</ele>
        <time>2013-05-25T10:40:01Z</time>
      </trkpt>
      <trkpt lat="43.74331" lon="3.52789">
        <ele>400.600006</ele>
        <time>2013-05-25T10:40:03Z</time>
      </trkpt>
      <trkpt lat="43.74324" lon="3.52785">
        <ele>399.899994</ele>
        <time>2013-05-25T10:40:05Z</time>
      </trkpt>
      <trkpt lat="43.74317" lon="3.52782">
        <ele>399.600006</ele>
        <time>2013-05-25T10:40:07Z</time>
      </trkpt>
      <trkpt lat="43.74311" lon="3.52778">
        <ele>398.700012</ele>
        <time>2013-05-25T10:40:09Z</time>
      </trkpt>
      <trkpt lat="43.74306" lon="3.52773">
        <ele>398.100006</ele>
        <time>2013-05-25T10:40:11Z</time>
      </trkpt>
      <trkpt lat="43.743" lon="3.52766">
        <ele>397.799988</ele>
        <time>2013-05-25T10:40:13Z</time>
      </trkpt>
      <trkpt lat="43.74296" lon="3.5276">
        <ele>396.299988</ele>
        <time>2013-05-25T10:40:15Z</time>
      </trkpt>
      <trkpt lat="43.74294" lon="3.52748">
        <ele>393.200012</ele>
        <time>2013-05-25T10:40:18Z</time>
      </trkpt>
      <trkpt lat="43.74291" lon="3.52739">
        <ele>391.700012</ele>
        <time>2013-05-25T10:40:20Z</time>
      </trkpt>
      <trkpt lat="43.7428" lon="3.52734">
        <ele>390</ele>
        <time>2013-05-25T10:40:29Z</time>
      </trkpt>
      <trkpt lat="43.74284" lon="3.52745">
        <ele>386.700012</ele>
        <time>2013-05-25T10:40:32Z</time>
      </trkpt>
      <trkpt lat="43.74278" lon="3.5274">
        <ele>379.899994</ele>
        <time>2013-05-25T10:40:43Z</time>
      </trkpt>
      <trkpt lat="43.74276" lon="3.52738">
        <ele>380.200012</ele>
        <time>2013-05-25T10:40:44Z</time>
      </trkpt>
      <trkpt lat="43.74267" lon="3.52729">
        <ele>380.299988</ele>
        <time>2013-05-25T10:40:47Z</time>
      </trkpt>
      <trkpt lat="43.74261" lon="3.52727">
        <ele>379.899994</ele>
        <time>2013-05-25T10:40:49Z</time>
      </trkpt>
      <trkpt lat="43.74255" lon="3.52722">
        <ele>379.399994</ele>
        <time>2013-05-25T10:40:51Z</time>
      </trkpt>
      <trkpt lat="43.74248" lon="3.52718">
        <ele>378.600006</ele>
        <time>2013-05-25T10:40:53Z</time>
      </trkpt>
      <trkpt lat="43.74242" lon="3.52715">
        <ele>378</ele>
        <time>2013-05-25T10:40:55Z</time>
      </trkpt>
      <trkpt lat="43.74235" lon="3.52708">
        <ele>377.5</ele>
        <time>2013-05-25T10:40:58Z</time>
      </trkpt>
      <trkpt lat="43.74231" lon="3.52701">
        <ele>376.399994</ele>
        <time>2013-05-25T10:41:00Z</time>
      </trkpt>
      <trkpt lat="43.74225" lon="3.52691">
        <ele>375.5</ele>
        <time>2013-05-25T10:41:03Z</time>
      </trkpt>
      <trkpt lat="43.74223" lon="3.5268">
        <ele>374.399994</ele>
        <time>2013-05-25T10:41:06Z</time>
      </trkpt>
      <trkpt lat="43.74222" lon="3.52668">
        <ele>371.899994</ele>
        <time>2013-05-25T10:41:09Z</time>
      </trkpt>
      <trkpt lat="43.74219" lon="3.52661">
        <ele>370.5</ele>
        <time>2013-05-25T10:41:11Z</time>
      </trkpt>
      <trkpt lat="43.74215" lon="3.52653">
        <ele>369.700012</ele>
        <time>2013-05-25T10:41:13Z</time>
      </trkpt>
      <trkpt lat="43.7421" lon="3.52645">
        <ele>368.5</ele>
        <time>2013-05-25T10:41:15Z</time>
      </trkpt>
      <trkpt lat="43.74208" lon="3.52636">
        <ele>367.200012</ele>
        <time>2013-05-25T10:41:17Z</time>
      </trkpt>
      <trkpt lat="43.74208" lon="3.52627">
        <ele>365.700012</ele>
        <time>2013-05-25T10:41:19Z</time>
      </trkpt>
      <trkpt lat="43.74208" lon="3.52618">
        <ele>364.200012</ele>
        <time>2013-05-25T10:41:21Z</time>
      </trkpt>
      <trkpt lat="43.74207" lon="3.52607">
        <ele>362.899994</ele>
        <time>2013-05-25T10:41:23Z</time>
      </trkpt>
      <trkpt lat="43.74205" lon="3.52595">
        <ele>360.899994</ele>
        <time>2013-05-25T10:41:25Z</time>
      </trkpt>
      <trkpt lat="43.74202" lon="3.52586">
        <ele>359.899994</ele>
        <time>2013-05-25T10:41:27Z</time>
      </trkpt>
      <trkpt lat="43.74198" lon="3.52579">
        <ele>359.299988</ele>
        <time>2013-05-25T10:41:29Z</time>
      </trkpt>
      <trkpt lat="43.74195" lon="3.52572">
        <ele>357.5</ele>
        <time>2013-05-25T10:41:31Z</time>
      </trkpt>
      <trkpt lat="43.74192" lon="3.52564">
        <ele>355.299988</ele>
        <time>2013-05-25T10:41:33Z</time>
      </trkpt>
      <trkpt lat="43.74189" lon="3.52557">
        <ele>355.600006</ele>
        <time>2013-05-25T10:41:35Z</time>
      </trkpt>
      <trkpt lat="43.74187" lon="3.52549">
        <ele>355.299988</ele>
        <time>2013-05-25T10:41:37Z</time>
      </trkpt>
      <trkpt lat="43.74184" lon="3.52539">
        <ele>354.899994</ele>
        <time>2013-05-25T10:41:39Z</time>
      </trkpt>
      <trkpt lat="43.74181" lon="3.52529">
        <ele>352.799988</ele>
        <time>2013-05-25T10:41:41Z</time>
      </trkpt>
      <trkpt lat="43.74178" lon="3.5252">
        <ele>351</ele>
        <time>2013-05-25T10:41:43Z</time>
      </trkpt>
      <trkpt lat="43.74174" lon="3.5251">
        <ele>349.600006</ele>
        <time>2013-05-25T10:41:45Z</time>
      </trkpt>
      <trkpt lat="43.74172" lon="3.52505">
        <ele>349.200012</ele>
        <time>2013-05-25T10:41:46Z</time>
      </trkpt>
      <trkpt lat="43.74169" lon="3.5249">
        <ele>346.799988</ele>
        <time>2013-05-25T10:41:50Z</time>
      </trkpt>
      <trkpt lat="43.74161" lon="3.52488">
        <ele>345.299988</ele>
        <time>2013-05-25T10:41:53Z</time>
      </trkpt>
      <trkpt lat="43.74154" lon="3.52492">
        <ele>344.299988</ele>
        <time>2013-05-25T10:41:55Z</time>
      </trkpt>
      <trkpt lat="43.74147" lon="3.52499">
        <ele>343.200012</ele>
        <time>2013-05-25T10:41:57Z</time>
      </trkpt>
      <trkpt lat="43.74143" lon="3.52503">
        <ele>342.899994</ele>
        <time>2013-05-25T10:41:58Z</time>
      </trkpt>
      <trkpt lat="43.74139" lon="3.52507">
        <ele>342.200012</ele>
        <time>2013-05-25T10:41:59Z</time>
      </trkpt>
      <trkpt lat="43.74134" lon="3.5251">
        <ele>341.700012</ele>
        <time>2013-05-25T10:42:00Z</time>
      </trkpt>
      <trkpt lat="43.74127" lon="3.52515">
        <ele>341</ele>
        <time>2013-05-25T10:42:02Z</time>
      </trkpt>
      <trkpt lat="43.74119" lon="3.52518">
        <ele>340.899994</ele>
        <time>2013-05-25T10:42:05Z</time>
      </trkpt>
      <trkpt lat="43.74113" lon="3.52519">
        <ele>338.600006</ele>
        <time>2013-05-25T10:42:07Z</time>
      </trkpt>
      <trkpt lat="43.74105" lon="3.5252">
        <ele>336.700012</ele>
        <time>2013-05-25T10:42:09Z</time>
      </trkpt>
      <trkpt lat="43.74097" lon="3.52522">
        <ele>335.299988</ele>
        <time>2013-05-25T10:42:11Z</time>
      </trkpt>
      <trkpt lat="43.74089" lon="3.52523">
        <ele>335.100006</ele>
        <time>2013-05-25T10:42:14Z</time>
      </trkpt>
      <trkpt lat="43.74082" lon="3.52518">
        <ele>333.299988</ele>
        <time>2013-05-25T10:42:17Z</time>
      </trkpt>
      <trkpt lat="43.74078" lon="3.52512">
        <ele>332.200012</ele>
        <time>2013-05-25T10:42:19Z</time>
      </trkpt>
      <trkpt lat="43.74073" lon="3.52506">
        <ele>331.600006</ele>
        <time>2013-05-25T10:42:21Z</time>
      </trkpt>
      <trkpt lat="43.74068" lon="3.52501">
        <ele>330.700012</ele>
        <time>2013-05-25T10:42:23Z</time>
      </trkpt>
      <trkpt lat="43.74062" lon="3.52496">
        <ele>329.600006</ele>
        <time>2013-05-25T10:42:25Z</time>
      </trkpt>
      <trkpt lat="43.74056" lon="3.52492">
        <ele>328.600006</ele>
        <time>2013-05-25T10:42:27Z</time>
      </trkpt>
      <trkpt lat="43.74051" lon="3.52487">
        <ele>327.399994</ele>
        <time>2013-05-25T10:42:29Z</time>
      </trkpt>
      <trkpt lat="43.74048" lon="3.52476">
        <ele>325.5</ele>
        <time>2013-05-25T10:42:32Z</time>
      </trkpt>
      <trkpt lat="43.74045" lon="3.52464">
        <ele>324.899994</ele>
        <time>2013-05-25T10:42:35Z</time>
      </trkpt>
      <trkpt lat="43.74041" lon="3.52458">
        <ele>324.899994</ele>
        <time>2013-05-25T10:42:37Z</time>
      </trkpt>
      <trkpt lat="43.74035" lon="3.52448">
        <ele>323.899994</ele>
        <time>2013-05-25T10:42:40Z</time>
      </trkpt>
      <trkpt lat="43.7403" lon="3.52441">
        <ele>320.5</ele>
        <time>2013-05-25T10:42:44Z</time>
      </trkpt>
      <trkpt lat="43.74025" lon="3.52431">
        <ele>319.100006</ele>
        <time>2013-05-25T10:42:47Z</time>
      </trkpt>
      <trkpt lat="43.74023" lon="3.52428">
        <ele>318.700012</ele>
        <time>2013-05-25T10:42:48Z</time>
      </trkpt>
      <trkpt lat="43.74017" lon="3.52417">
        <ele>317.799988</ele>
        <time>2013-05-25T10:42:51Z</time>
      </trkpt>
      <trkpt lat="43.74013" lon="3.5241">
        <ele>317.5</ele>
        <time>2013-05-25T10:42:53Z</time>
      </trkpt>
      <trkpt lat="43.74009" lon="3.52402">
        <ele>316.399994</ele>
        <time>2013-05-25T10:42:55Z</time>
      </trkpt>
      <trkpt lat="43.74005" lon="3.52395">
        <ele>315.600006</ele>
        <time>2013-05-25T10:42:57Z</time>
      </trkpt>
      <trkpt lat="43.73999" lon="3.5239">
        <ele>315.100006</ele>
        <time>2013-05-25T10:42:59Z</time>
      </trkpt>
      <trkpt lat="43.73994" lon="3.52381">
        <ele>314</ele>
        <time>2013-05-25T10:43:02Z</time>
      </trkpt>
      <trkpt lat="43.7399" lon="3.52369">
        <ele>312</ele>
        <time>2013-05-25T10:43:05Z</time>
      </trkpt>
      <trkpt lat="43.7399" lon="3.52361">
        <ele>310.5</ele>
        <time>2013-05-25T10:43:07Z</time>
      </trkpt>
      <trkpt lat="43.7399" lon="3.52349">
        <ele>309.200012</ele>
        <time>2013-05-25T10:43:10Z</time>
      </trkpt>
      <trkpt lat="43.73991" lon="3.52338">
        <ele>308.299988</ele>
        <time>2013-05-25T10:43:13Z</time>
      </trkpt>
      <trkpt lat="43.73991" lon="3.52329">
        <ele>307.799988</ele>
        <time>2013-05-25T10:43:15Z</time>
      </trkpt>
      <trkpt lat="43.73991" lon="3.52319">
        <ele>307.100006</ele>
        <time>2013-05-25T10:43:17Z</time>
      </trkpt>
      <trkpt lat="43.73992" lon="3.5231">
        <ele>306.5</ele>
        <time>2013-05-25T10:43:19Z</time>
      </trkpt>
      <trkpt lat="43.73994" lon="3.52301">
        <ele>306</ele>
        <time>2013-05-25T10:43:21Z</time>
      </trkpt>
      <trkpt lat="43.73994" lon="3.52291">
        <ele>303.899994</ele>
        <time>2013-05-25T10:43:23Z</time>
      </trkpt>
      <trkpt lat="43.73996" lon="3.52279">
        <ele>302.200012</ele>
        <time>2013-05-25T10:43:27Z</time>
      </trkpt>
      <trkpt lat="43.73997" lon="3.52269">
        <ele>301.700012</ele>
        <time>2013-05-25T10:43:30Z</time>
      </trkpt>
      <trkpt lat="43.73998" lon="3.52257">
        <ele>301.200012</ele>
        <time>2013-05-25T10:43:33Z</time>
      </trkpt>
      <trkpt lat="43.7399" lon="3.52256">
        <ele>300.5</ele>
        <time>2013-05-25T10:43:37Z</time>
      </trkpt>
      <trkpt lat="43.73982" lon="3.52259">
        <ele>300.600006</ele>
        <time>2013-05-25T10:43:41Z</time>
      </trkpt>
      <trkpt lat="43.73974" lon="3.52254">
        <ele>300.700012</ele>
        <time>2013-05-25T10:44:36Z</time>
      </trkpt>
      <trkpt lat="43.73974" lon="3.52254">
        <ele>300.5</ele>
        <time>2013-05-25T10:44:37Z</time>
      </trkpt>
      <trkpt lat="43.73983" lon="3.52255">
        <ele>300.899994</ele>
        <time>2013-05-25T10:46:41Z</time>
      </trkpt>
      <trkpt lat="43.73983" lon="3.52258">
        <ele>298.100006</ele>
        <time>2013-05-25T10:48:04Z</time>
      </trkpt>
      <trkpt lat="43.73982" lon="3.52258">
        <ele>298.299988</ele>
        <time>2013-05-25T10:48:05Z</time>
      </trkpt>
      <trkpt lat="43.7397" lon="3.52268">
        <ele>299.5</ele>
        <time>2013-05-25T10:48:16Z</time>
      </trkpt>
      <trkpt lat="43.73966" lon="3.52276">
        <ele>300.799988</ele>
        <time>2013-05-25T10:48:19Z</time>
      </trkpt>
      <trkpt lat="43.7396" lon="3.52283">
        <ele>301.100006</ele>
        <time>2013-05-25T10:48:22Z</time>
      </trkpt>
      <trkpt lat="43.73954" lon="3.52291">
        <ele>300.700012</ele>
        <time>2013-05-25T10:48:25Z</time>
      </trkpt>
      <trkpt lat="43.73948" lon="3.52299">
        <ele>301</ele>
        <time>2013-05-25T10:48:28Z</time>
      </trkpt>
      <trkpt lat="43.73941" lon="3.52307">
        <ele>302.399994</ele>
        <time>2013-05-25T10:48:32Z</time>
      </trkpt>
      <trkpt lat="43.73938" lon="3.52315">
        <ele>302.799988</ele>
        <time>2013-05-25T10:48:35Z</time>
      </trkpt>
      <trkpt lat="43.73933" lon="3.52326">
        <ele>303.200012</ele>
        <time>2013-05-25T10:48:39Z</time>
      </trkpt>
      <trkpt lat="43.7393" lon="3.52335">
        <ele>303.600006</ele>
        <time>2013-05-25T10:48:42Z</time>
      </trkpt>
      <trkpt lat="43.73931" lon="3.52346">
        <ele>304.200012</ele>
        <time>2013-05-25T10:48:45Z</time>
      </trkpt>
      <trkpt lat="43.7393" lon="3.52356">
        <ele>304.899994</ele>
        <time>2013-05-25T10:48:48Z</time>
      </trkpt>
      <trkpt lat="43.7393" lon="3.52366">
        <ele>305.5</ele>
        <time>2013-05-25T10:48:51Z</time>
      </trkpt>
      <trkpt lat="43.73928" lon="3.52376">
        <ele>305.600006</ele>
        <time>2013-05-25T10:48:54Z</time>
      </trkpt>
      <trkpt lat="43.73927" lon="3.52388">
        <ele>306.200012</ele>
        <time>2013-05-25T10:48:58Z</time>
      </trkpt>
      <trkpt lat="43.73926" lon="3.52397">
        <ele>306.799988</ele>
        <time>2013-05-25T10:49:01Z</time>
      </trkpt>
      <trkpt lat="43.73926" lon="3.52409">
        <ele>306.799988</ele>
        <time>2013-05-25T10:49:05Z</time>
      </trkpt>
      <trkpt lat="43.73927" lon="3.52412">
        <ele>306.899994</ele>
        <time>2013-05-25T10:49:06Z</time>
      </trkpt>
      <trkpt lat="43.73933" lon="3.52431">
        <ele>307.899994</ele>
        <time>2013-05-25T10:49:13Z</time>
      </trkpt>
      <trkpt lat="43.73932" lon="3.5244">
        <ele>308</ele>
        <time>2013-05-25T10:49:16Z</time>
      </trkpt>
      <trkpt lat="43.73934" lon="3.52453">
        <ele>307.399994</ele>
        <time>2013-05-25T10:49:20Z</time>
      </trkpt>
      <trkpt lat="43.73935" lon="3.52463">
        <ele>306.899994</ele>
        <time>2013-05-25T10:49:24Z</time>
      </trkpt>
      <trkpt lat="43.73935" lon="3.52475">
        <ele>308.5</ele>
        <time>2013-05-25T10:49:28Z</time>
      </trkpt>
      <trkpt lat="43.73932" lon="3.52484">
        <ele>309.100006</ele>
        <time>2013-05-25T10:49:32Z</time>
      </trkpt>
      <trkpt lat="43.73931" lon="3.52496">
        <ele>309.799988</ele>
        <time>2013-05-25T10:49:36Z</time>
      </trkpt>
      <trkpt lat="43.73935" lon="3.52507">
        <ele>309.700012</ele>
        <time>2013-05-25T10:49:40Z</time>
      </trkpt>
      <trkpt lat="43.73939" lon="3.52517">
        <ele>309.700012</ele>
        <time>2013-05-25T10:49:43Z</time>
      </trkpt>
      <trkpt lat="43.73941" lon="3.52527">
        <ele>309.799988</ele>
        <time>2013-05-25T10:49:46Z</time>
      </trkpt>
      <trkpt lat="43.73941" lon="3.52537">
        <ele>310</ele>
        <time>2013-05-25T10:49:49Z</time>
      </trkpt>
      <trkpt lat="43.73939" lon="3.52547">
        <ele>310.200012</ele>
        <time>2013-05-25T10:49:52Z</time>
      </trkpt>
      <trkpt lat="43.73934" lon="3.52556">
        <ele>310.100006</ele>
        <time>2013-05-25T10:49:55Z</time>
      </trkpt>
      <trkpt lat="43.73926" lon="3.52559">
        <ele>310.700012</ele>
        <time>2013-05-25T10:49:59Z</time>
      </trkpt>
      <trkpt lat="43.73918" lon="3.52564">
        <ele>311.100006</ele>
        <time>2013-05-25T10:50:03Z</time>
      </trkpt>
      <trkpt lat="43.73917" lon="3.52575">
        <ele>310.899994</ele>
        <time>2013-05-25T10:50:07Z</time>
      </trkpt>
      <trkpt lat="43.73919" lon="3.52578">
        <ele>311.200012</ele>
        <time>2013-05-25T10:50:08Z</time>
      </trkpt>
      <trkpt lat="43.73928" lon="3.52588">
        <ele>312.100006</ele>
        <time>2013-05-25T10:50:13Z</time>
      </trkpt>
      <trkpt lat="43.73935" lon="3.52596">
        <ele>312.399994</ele>
        <time>2013-05-25T10:50:17Z</time>
      </trkpt>
      <trkpt lat="43.73941" lon="3.52604">
        <ele>313.600006</ele>
        <time>2013-05-25T10:50:21Z</time>
      </trkpt>
      <trkpt lat="43.73946" lon="3.52611">
        <ele>314.299988</ele>
        <time>2013-05-25T10:50:24Z</time>
      </trkpt>
      <trkpt lat="43.7395" lon="3.5262">
        <ele>315</ele>
        <time>2013-05-25T10:50:27Z</time>
      </trkpt>
      <trkpt lat="43.73951" lon="3.52628">
        <ele>315.799988</ele>
        <time>2013-05-25T10:50:29Z</time>
      </trkpt>
      <trkpt lat="43.73951" lon="3.52637">
        <ele>316.5</ele>
        <time>2013-05-25T10:50:31Z</time>
      </trkpt>
      <trkpt lat="43.7395" lon="3.52646">
        <ele>316.799988</ele>
        <time>2013-05-25T10:50:33Z</time>
      </trkpt>
      <trkpt lat="43.73952" lon="3.52654">
        <ele>317</ele>
        <time>2013-05-25T10:50:35Z</time>
      </trkpt>
      <trkpt lat="43.73955" lon="3.52663">
        <ele>316.899994</ele>
        <time>2013-05-25T10:50:37Z</time>
      </trkpt>
      <trkpt lat="43.73958" lon="3.52672">
        <ele>316.799988</ele>
        <time>2013-05-25T10:50:39Z</time>
      </trkpt>
      <trkpt lat="43.73961" lon="3.52682">
        <ele>316.5</ele>
        <time>2013-05-25T10:50:41Z</time>
      </trkpt>
      <trkpt lat="43.73962" lon="3.52691">
        <ele>316.600006</ele>
        <time>2013-05-25T10:50:43Z</time>
      </trkpt>
      <trkpt lat="43.73964" lon="3.52699">
        <ele>316.799988</ele>
        <time>2013-05-25T10:50:45Z</time>
      </trkpt>
      <trkpt lat="43.73965" lon="3.52708">
        <ele>317.100006</ele>
        <time>2013-05-25T10:50:47Z</time>
      </trkpt>
      <trkpt lat="43.73968" lon="3.52719">
        <ele>318.200012</ele>
        <time>2013-05-25T10:50:50Z</time>
      </trkpt>
      <trkpt lat="43.73969" lon="3.5273">
        <ele>319.5</ele>
        <time>2013-05-25T10:50:53Z</time>
      </trkpt>
      <trkpt lat="43.73969" lon="3.5274">
        <ele>320.299988</ele>
        <time>2013-05-25T10:50:56Z</time>
      </trkpt>
      <trkpt lat="43.73969" lon="3.52751">
        <ele>321.399994</ele>
        <time>2013-05-25T10:51:00Z</time>
      </trkpt>
      <trkpt lat="43.73969" lon="3.52763">
        <ele>322.899994</ele>
        <time>2013-05-25T10:51:05Z</time>
      </trkpt>
      <trkpt lat="43.73972" lon="3.52773">
        <ele>323.600006</ele>
        <time>2013-05-25T10:51:10Z</time>
      </trkpt>
      <trkpt lat="43.73972" lon="3.52776">
        <ele>323.600006</ele>
        <time>2013-05-25T10:51:11Z</time>
      </trkpt>
      <trkpt lat="43.73968" lon="3.52797">
        <ele>324.399994</ele>
        <time>2013-05-25T10:51:20Z</time>
      </trkpt>
      <trkpt lat="43.73962" lon="3.52804">
        <ele>324.5</ele>
        <time>2013-05-25T10:51:25Z</time>
      </trkpt>
      <trkpt lat="43.73956" lon="3.52811">
        <ele>324.299988</ele>
        <time>2013-05-25T10:51:30Z</time>
      </trkpt>
      <trkpt lat="43.73953" lon="3.52821">
        <ele>325.299988</ele>
        <time>2013-05-25T10:51:35Z</time>
      </trkpt>
      <trkpt lat="43.73955" lon="3.52834">
        <ele>325.799988</ele>
        <time>2013-05-25T10:51:41Z</time>
      </trkpt>
      <trkpt lat="43.73955" lon="3.52845">
        <ele>326.399994</ele>
        <time>2013-05-25T10:51:46Z</time>
      </trkpt>
      <trkpt lat="43.73952" lon="3.52856">
        <ele>327.700012</ele>
        <time>2013-05-25T10:51:50Z</time>
      </trkpt>
      <trkpt lat="43.73949" lon="3.52865">
        <ele>328.799988</ele>
        <time>2013-05-25T10:51:54Z</time>
      </trkpt>
      <trkpt lat="43.73946" lon="3.52877">
        <ele>330.5</ele>
        <time>2013-05-25T10:51:58Z</time>
      </trkpt>
      <trkpt lat="43.73944" lon="3.52887">
        <ele>331.700012</ele>
        <time>2013-05-25T10:52:01Z</time>
      </trkpt>
      <trkpt lat="43.73941" lon="3.52898">
        <ele>331.600006</ele>
        <time>2013-05-25T10:52:04Z</time>
      </trkpt>
      <trkpt lat="43.73939" lon="3.52908">
        <ele>331.799988</ele>
        <time>2013-05-25T10:52:07Z</time>
      </trkpt>
      <trkpt lat="43.73937" lon="3.52916">
        <ele>332.200012</ele>
        <time>2013-05-25T10:52:09Z</time>
      </trkpt>
      <trkpt lat="43.73937" lon="3.52925">
        <ele>332.700012</ele>
        <time>2013-05-25T10:52:11Z</time>
      </trkpt>
      <trkpt lat="43.73937" lon="3.52929">
        <ele>332.399994</ele>
        <time>2013-05-25T10:52:12Z</time>
      </trkpt>
      <trkpt lat="43.73936" lon="3.52947">
        <ele>332.600006</ele>
        <time>2013-05-25T10:52:17Z</time>
      </trkpt>
      <trkpt lat="43.73936" lon="3.52956">
        <ele>333.5</ele>
        <time>2013-05-25T10:52:20Z</time>
      </trkpt>
      <trkpt lat="43.73937" lon="3.52967">
        <ele>334.799988</ele>
        <time>2013-05-25T10:52:23Z</time>
      </trkpt>
      <trkpt lat="43.7394" lon="3.52978">
        <ele>334.799988</ele>
        <time>2013-05-25T10:52:26Z</time>
      </trkpt>
      <trkpt lat="43.7394" lon="3.52989">
        <ele>335.200012</ele>
        <time>2013-05-25T10:52:29Z</time>
      </trkpt>
      <trkpt lat="43.7394" lon="3.53">
        <ele>335.100006</ele>
        <time>2013-05-25T10:52:32Z</time>
      </trkpt>
      <trkpt lat="43.7394" lon="3.5301">
        <ele>335.100006</ele>
        <time>2013-05-25T10:52:35Z</time>
      </trkpt>
      <trkpt lat="43.73938" lon="3.5302">
        <ele>336</ele>
        <time>2013-05-25T10:52:38Z</time>
      </trkpt>
      <trkpt lat="43.73933" lon="3.53029">
        <ele>337</ele>
        <time>2013-05-25T10:52:41Z</time>
      </trkpt>
      <trkpt lat="43.73925" lon="3.53034">
        <ele>338.700012</ele>
        <time>2013-05-25T10:52:45Z</time>
      </trkpt>
      <trkpt lat="43.73918" lon="3.53036">
        <ele>340.200012</ele>
        <time>2013-05-25T10:52:51Z</time>
      </trkpt>
      <trkpt lat="43.73909" lon="3.53039">
        <ele>340.399994</ele>
        <time>2013-05-25T10:52:58Z</time>
      </trkpt>
      <trkpt lat="43.73901" lon="3.5304">
        <ele>342.299988</ele>
        <time>2013-05-25T10:53:05Z</time>
      </trkpt>
      <trkpt lat="43.73893" lon="3.53041">
        <ele>344.799988</ele>
        <time>2013-05-25T10:53:11Z</time>
      </trkpt>
      <trkpt lat="43.73885" lon="3.53042">
        <ele>346.5</ele>
        <time>2013-05-25T10:53:18Z</time>
      </trkpt>
      <trkpt lat="43.73883" lon="3.53042">
        <ele>346.700012</ele>
        <time>2013-05-25T10:53:19Z</time>
      </trkpt>
      <trkpt lat="43.73867" lon="3.53044">
        <ele>349.200012</ele>
        <time>2013-05-25T10:53:34Z</time>
      </trkpt>
      <trkpt lat="43.73859" lon="3.53045">
        <ele>351</ele>
        <time>2013-05-25T10:53:43Z</time>
      </trkpt>
      <trkpt lat="43.73851" lon="3.53047">
        <ele>352.299988</ele>
        <time>2013-05-25T10:53:53Z</time>
      </trkpt>
      <trkpt lat="43.73843" lon="3.53042">
        <ele>354.100006</ele>
        <time>2013-05-25T10:54:04Z</time>
      </trkpt>
      <trkpt lat="43.73835" lon="3.53036">
        <ele>356.200012</ele>
        <time>2013-05-25T10:54:16Z</time>
      </trkpt>
      <trkpt lat="43.73828" lon="3.53029">
        <ele>356.600006</ele>
        <time>2013-05-25T10:54:25Z</time>
      </trkpt>
      <trkpt lat="43.73827" lon="3.53028">
        <ele>356.5</ele>
        <time>2013-05-25T10:54:26Z</time>
      </trkpt>
      <trkpt lat="43.73825" lon="3.53007">
        <ele>354.200012</ele>
        <time>2013-05-25T10:55:04Z</time>
      </trkpt>
      <trkpt lat="43.73824" lon="3.52995">
        <ele>353.899994</ele>
        <time>2013-05-25T10:55:08Z</time>
      </trkpt>
      <trkpt lat="43.73822" lon="3.52984">
        <ele>354</ele>
        <time>2013-05-25T10:55:10Z</time>
      </trkpt>
      <trkpt lat="43.73818" lon="3.52977">
        <ele>353.200012</ele>
        <time>2013-05-25T10:55:11Z</time>
      </trkpt>
      <trkpt lat="43.73813" lon="3.52972">
        <ele>352.700012</ele>
        <time>2013-05-25T10:55:12Z</time>
      </trkpt>
      <trkpt lat="43.73808" lon="3.52968">
        <ele>352.299988</ele>
        <time>2013-05-25T10:55:13Z</time>
      </trkpt>
      <trkpt lat="43.738" lon="3.52964">
        <ele>351.100006</ele>
        <time>2013-05-25T10:55:15Z</time>
      </trkpt>
      <trkpt lat="43.73792" lon="3.52966">
        <ele>350.600006</ele>
        <time>2013-05-25T10:55:24Z</time>
      </trkpt>
      <trkpt lat="43.73787" lon="3.52975">
        <ele>351.700012</ele>
        <time>2013-05-25T10:55:28Z</time>
      </trkpt>
      <trkpt lat="43.73786" lon="3.52977">
        <ele>352</ele>
        <time>2013-05-25T10:55:29Z</time>
      </trkpt>
      <trkpt lat="43.73781" lon="3.52983">
        <ele>342.399994</ele>
        <time>2013-05-25T10:56:27Z</time>
      </trkpt>
      <trkpt lat="43.73784" lon="3.52992">
        <ele>341.799988</ele>
        <time>2013-05-25T10:56:29Z</time>
      </trkpt>
      <trkpt lat="43.73786" lon="3.52995">
        <ele>341.700012</ele>
        <time>2013-05-25T10:56:30Z</time>
      </trkpt>
      <trkpt lat="43.73797" lon="3.52987">
        <ele>339.899994</ele>
        <time>2013-05-25T10:56:34Z</time>
      </trkpt>
      <trkpt lat="43.73804" lon="3.52983">
        <ele>338</ele>
        <time>2013-05-25T10:56:38Z</time>
      </trkpt>
      <trkpt lat="43.73811" lon="3.52987">
        <ele>336.600006</ele>
        <time>2013-05-25T10:56:40Z</time>
      </trkpt>
      <trkpt lat="43.73816" lon="3.52994">
        <ele>335.399994</ele>
        <time>2013-05-25T10:56:42Z</time>
      </trkpt>
      <trkpt lat="43.73817" lon="3.53006">
        <ele>331.399994</ele>
        <time>2013-05-25T10:56:48Z</time>
      </trkpt>
      <trkpt lat="43.7381" lon="3.53009">
        <ele>330.399994</ele>
        <time>2013-05-25T10:56:54Z</time>
      </trkpt>
      <trkpt lat="43.73802" lon="3.53007">
        <ele>329.600006</ele>
        <time>2013-05-25T10:56:57Z</time>
      </trkpt>
      <trkpt lat="43.7381" lon="3.53011">
        <ele>324.299988</ele>
        <time>2013-05-25T10:57:07Z</time>
      </trkpt>
      <trkpt lat="43.73815" lon="3.5302">
        <ele>322.200012</ele>
        <time>2013-05-25T10:57:10Z</time>
      </trkpt>
      <trkpt lat="43.73812" lon="3.53032">
        <ele>317.700012</ele>
        <time>2013-05-25T10:57:23Z</time>
      </trkpt>
      <trkpt lat="43.73807" lon="3.53027">
        <ele>315.600006</ele>
        <time>2013-05-25T10:57:30Z</time>
      </trkpt>
      <trkpt lat="43.73803" lon="3.53026">
        <ele>315</ele>
        <time>2013-05-25T10:57:31Z</time>
      </trkpt>
      <trkpt lat="43.73791" lon="3.53023">
        <ele>313.700012</ele>
        <time>2013-05-25T10:57:35Z</time>
      </trkpt>
      <trkpt lat="43.73784" lon="3.53026">
        <ele>312.700012</ele>
        <time>2013-05-25T10:57:38Z</time>
      </trkpt>
      <trkpt lat="43.73778" lon="3.53034">
        <ele>311.899994</ele>
        <time>2013-05-25T10:57:40Z</time>
      </trkpt>
      <trkpt lat="43.73773" lon="3.53043">
        <ele>309.899994</ele>
        <time>2013-05-25T10:57:42Z</time>
      </trkpt>
      <trkpt lat="43.73767" lon="3.5305">
        <ele>307.700012</ele>
        <time>2013-05-25T10:57:44Z</time>
      </trkpt>
      <trkpt lat="43.73759" lon="3.53056">
        <ele>305.700012</ele>
        <time>2013-05-25T10:57:46Z</time>
      </trkpt>
      <trkpt lat="43.73751" lon="3.53058">
        <ele>303</ele>
        <time>2013-05-25T10:57:48Z</time>
      </trkpt>
      <trkpt lat="43.73745" lon="3.53059">
        <ele>302.200012</ele>
        <time>2013-05-25T10:57:49Z</time>
      </trkpt>
      <trkpt lat="43.7374" lon="3.53061">
        <ele>301.5</ele>
        <time>2013-05-25T10:57:50Z</time>
      </trkpt>
      <trkpt lat="43.73732" lon="3.53065">
        <ele>299.600006</ele>
        <time>2013-05-25T10:57:52Z</time>
      </trkpt>
      <trkpt lat="43.73725" lon="3.53072">
        <ele>298.700012</ele>
        <time>2013-05-25T10:57:54Z</time>
      </trkpt>
      <trkpt lat="43.73719" lon="3.53077">
        <ele>298.299988</ele>
        <time>2013-05-25T10:57:56Z</time>
      </trkpt>
      <trkpt lat="43.73713" lon="3.53079">
        <ele>298.5</ele>
        <time>2013-05-25T10:57:58Z</time>
      </trkpt>
      <trkpt lat="43.73603" lon="3.53473">
        <ele>290.399994</ele>
        <time>2013-05-25T10:59:10Z</time>
      </trkpt>
      <trkpt lat="43.73602" lon="3.53484">
        <ele>279.700012</ele>
        <time>2013-05-25T10:59:12Z</time>
      </trkpt>
      <trkpt lat="43.73601" lon="3.5349">
        <ele>276.299988</ele>
        <time>2013-05-25T10:59:13Z</time>
      </trkpt>
      <trkpt lat="43.73601" lon="3.53498">
        <ele>273.399994</ele>
        <time>2013-05-25T10:59:14Z</time>
      </trkpt>
      <trkpt lat="43.73601" lon="3.53506">
        <ele>271.200012</ele>
        <time>2013-05-25T10:59:15Z</time>
      </trkpt>
      <trkpt lat="43.73601" lon="3.53513">
        <ele>269.5</ele>
        <time>2013-05-25T10:59:16Z</time>
      </trkpt>
      <trkpt lat="43.73601" lon="3.5352">
        <ele>267.5</ele>
        <time>2013-05-25T10:59:17Z</time>
      </trkpt>
      <trkpt lat="43.73601" lon="3.53526">
        <ele>265.899994</ele>
        <time>2013-05-25T10:59:18Z</time>
      </trkpt>
      <trkpt lat="43.73602" lon="3.53533">
        <ele>264.799988</ele>
        <time>2013-05-25T10:59:19Z</time>
      </trkpt>
      <trkpt lat="43.73602" lon="3.53539">
        <ele>263.600006</ele>
        <time>2013-05-25T10:59:20Z</time>
      </trkpt>
      <trkpt lat="43.73602" lon="3.53546">
        <ele>262.700012</ele>
        <time>2013-05-25T10:59:21Z</time>
      </trkpt>
      <trkpt lat="43.73602" lon="3.53553">
        <ele>262.100006</ele>
        <time>2013-05-25T10:59:22Z</time>
      </trkpt>
      <trkpt lat="43.73602" lon="3.53561">
        <ele>261</ele>
        <time>2013-05-25T10:59:23Z</time>
      </trkpt>
      <trkpt lat="43.73611" lon="3.53599">
        <ele>259.600006</ele>
        <time>2013-05-25T10:59:30Z</time>
      </trkpt>
      <trkpt lat="43.7361" lon="3.5361">
        <ele>257.700012</ele>
        <time>2013-05-25T10:59:32Z</time>
      </trkpt>
      <trkpt lat="43.73611" lon="3.5363">
        <ele>256.700012</ele>
        <time>2013-05-25T10:59:35Z</time>
      </trkpt>
      <trkpt lat="43.73611" lon="3.53636">
        <ele>255.399994</ele>
        <time>2013-05-25T10:59:36Z</time>
      </trkpt>
      <trkpt lat="43.73613" lon="3.53648">
        <ele>253.699997</ele>
        <time>2013-05-25T10:59:38Z</time>
      </trkpt>
      <trkpt lat="43.73615" lon="3.53658">
        <ele>251.800003</ele>
        <time>2013-05-25T10:59:40Z</time>
      </trkpt>
      <trkpt lat="43.73616" lon="3.53669">
        <ele>250.100006</ele>
        <time>2013-05-25T10:59:42Z</time>
      </trkpt>
      <trkpt lat="43.73616" lon="3.5368">
        <ele>248.699997</ele>
        <time>2013-05-25T10:59:44Z</time>
      </trkpt>
      <trkpt lat="43.73616" lon="3.53692">
        <ele>246.699997</ele>
        <time>2013-05-25T10:59:46Z</time>
      </trkpt>
      <trkpt lat="43.73617" lon="3.53704">
        <ele>245.600006</ele>
        <time>2013-05-25T10:59:48Z</time>
      </trkpt>
      <trkpt lat="43.73618" lon="3.5371">
        <ele>244.199997</ele>
        <time>2013-05-25T10:59:49Z</time>
      </trkpt>
      <trkpt lat="43.73618" lon="3.53717">
        <ele>243.199997</ele>
        <time>2013-05-25T10:59:50Z</time>
      </trkpt>
      <trkpt lat="43.73618" lon="3.53723">
        <ele>242.5</ele>
        <time>2013-05-25T10:59:51Z</time>
      </trkpt>
      <trkpt lat="43.73619" lon="3.5373">
        <ele>241.699997</ele>
        <time>2013-05-25T10:59:52Z</time>
      </trkpt>
      <trkpt lat="43.73622" lon="3.53741">
        <ele>240.699997</ele>
        <time>2013-05-25T10:59:54Z</time>
      </trkpt>
      <trkpt lat="43.73625" lon="3.53752">
        <ele>239.600006</ele>
        <time>2013-05-25T10:59:56Z</time>
      </trkpt>
      <trkpt lat="43.73626" lon="3.53764">
        <ele>239.399994</ele>
        <time>2013-05-25T10:59:58Z</time>
      </trkpt>
      <trkpt lat="43.73626" lon="3.5377">
        <ele>239.399994</ele>
        <time>2013-05-25T10:59:59Z</time>
      </trkpt>
      <trkpt lat="43.73626" lon="3.53776">
        <ele>239.5</ele>
        <time>2013-05-25T11:00:00Z</time>
      </trkpt>
      <trkpt lat="43.73627" lon="3.53784">
        <ele>239.5</ele>
        <time>2013-05-25T11:00:01Z</time>
      </trkpt>
      <trkpt lat="43.73627" lon="3.53792">
        <ele>239.300003</ele>
        <time>2013-05-25T11:00:02Z</time>
      </trkpt>
      <trkpt lat="43.73628" lon="3.538">
        <ele>239.100006</ele>
        <time>2013-05-25T11:00:03Z</time>
      </trkpt>
      <trkpt lat="43.73629" lon="3.53809">
        <ele>239</ele>
        <time>2013-05-25T11:00:04Z</time>
      </trkpt>
      <trkpt lat="43.7363" lon="3.53817">
        <ele>238.5</ele>
        <time>2013-05-25T11:00:05Z</time>
      </trkpt>
      <trkpt lat="43.7363" lon="3.53825">
        <ele>238.100006</ele>
        <time>2013-05-25T11:00:06Z</time>
      </trkpt>
      <trkpt lat="43.73631" lon="3.53837">
        <ele>237.5</ele>
        <time>2013-05-25T11:00:08Z</time>
      </trkpt>
      <trkpt lat="43.7363" lon="3.53846">
        <ele>237.100006</ele>
        <time>2013-05-25T11:00:10Z</time>
      </trkpt>
      <trkpt lat="43.73629" lon="3.5385">
        <ele>237.300003</ele>
        <time>2013-05-25T11:00:11Z</time>
      </trkpt>
      <trkpt lat="43.73625" lon="3.53866">
        <ele>238</ele>
        <time>2013-05-25T11:00:15Z</time>
      </trkpt>
      <trkpt lat="43.73623" lon="3.53874">
        <ele>238.699997</ele>
        <time>2013-05-25T11:00:17Z</time>
      </trkpt>
      <trkpt lat="43.7362" lon="3.53882">
        <ele>239.300003</ele>
        <time>2013-05-25T11:00:19Z</time>
      </trkpt>
      <trkpt lat="43.73618" lon="3.53891">
        <ele>240</ele>
        <time>2013-05-25T11:00:21Z</time>
      </trkpt>
      <trkpt lat="43.73614" lon="3.53901">
        <ele>240.600006</ele>
        <time>2013-05-25T11:00:23Z</time>
      </trkpt>
      <trkpt lat="43.73609" lon="3.53911">
        <ele>239.699997</ele>
        <time>2013-05-25T11:00:25Z</time>
      </trkpt>
      <trkpt lat="43.73606" lon="3.53916">
        <ele>239.399994</ele>
        <time>2013-05-25T11:00:26Z</time>
      </trkpt>
      <trkpt lat="43.73603" lon="3.53921">
        <ele>238.899994</ele>
        <time>2013-05-25T11:00:27Z</time>
      </trkpt>
      <trkpt lat="43.736" lon="3.53926">
        <ele>238.600006</ele>
        <time>2013-05-25T11:00:28Z</time>
      </trkpt>
      <trkpt lat="43.73597" lon="3.53931">
        <ele>238.300003</ele>
        <time>2013-05-25T11:00:29Z</time>
      </trkpt>
      <trkpt lat="43.73594" lon="3.53937">
        <ele>238.300003</ele>
        <time>2013-05-25T11:00:30Z</time>
      </trkpt>
      <trkpt lat="43.73591" lon="3.53942">
        <ele>238.300003</ele>
        <time>2013-05-25T11:00:31Z</time>
      </trkpt>
      <trkpt lat="43.73589" lon="3.53947">
        <ele>238.300003</ele>
        <time>2013-05-25T11:00:32Z</time>
      </trkpt>
      <trkpt lat="43.73586" lon="3.53952">
        <ele>238.300003</ele>
        <time>2013-05-25T11:00:33Z</time>
      </trkpt>
      <trkpt lat="43.73583" lon="3.53958">
        <ele>238.300003</ele>
        <time>2013-05-25T11:00:34Z</time>
      </trkpt>
      <trkpt lat="43.7358" lon="3.53963">
        <ele>238.199997</ele>
        <time>2013-05-25T11:00:35Z</time>
      </trkpt>
      <trkpt lat="43.73576" lon="3.53967">
        <ele>238.199997</ele>
        <time>2013-05-25T11:00:36Z</time>
      </trkpt>
      <trkpt lat="43.73573" lon="3.53971">
        <ele>237.699997</ele>
        <time>2013-05-25T11:00:37Z</time>
      </trkpt>
      <trkpt lat="43.73569" lon="3.53976">
        <ele>237.399994</ele>
        <time>2013-05-25T11:00:38Z</time>
      </trkpt>
      <trkpt lat="43.73565" lon="3.53979">
        <ele>237.100006</ele>
        <time>2013-05-25T11:00:39Z</time>
      </trkpt>
      <trkpt lat="43.73561" lon="3.53982">
        <ele>236.199997</ele>
        <time>2013-05-25T11:00:40Z</time>
      </trkpt>
      <trkpt lat="43.73557" lon="3.53984">
        <ele>235.5</ele>
        <time>2013-05-25T11:00:41Z</time>
      </trkpt>
      <trkpt lat="43.73552" lon="3.53986">
        <ele>235</ele>
        <time>2013-05-25T11:00:42Z</time>
      </trkpt>
      <trkpt lat="43.73548" lon="3.53987">
        <ele>234.600006</ele>
        <time>2013-05-25T11:00:43Z</time>
      </trkpt>
      <trkpt lat="43.73542" lon="3.53988">
        <ele>234.199997</ele>
        <time>2013-05-25T11:00:44Z</time>
      </trkpt>
      <trkpt lat="43.73537" lon="3.53989">
        <ele>233.899994</ele>
        <time>2013-05-25T11:00:45Z</time>
      </trkpt>
      <trkpt lat="43.73532" lon="3.53991">
        <ele>233.100006</ele>
        <time>2013-05-25T11:00:46Z</time>
      </trkpt>
      <trkpt lat="43.73526" lon="3.53991">
        <ele>232.5</ele>
        <time>2013-05-25T11:00:47Z</time>
      </trkpt>
      <trkpt lat="43.73521" lon="3.53991">
        <ele>232</ele>
        <time>2013-05-25T11:00:48Z</time>
      </trkpt>
      <trkpt lat="43.73513" lon="3.53991">
        <ele>231.399994</ele>
        <time>2013-05-25T11:00:50Z</time>
      </trkpt>
      <trkpt lat="43.73509" lon="3.53992">
        <ele>231.300003</ele>
        <time>2013-05-25T11:00:51Z</time>
      </trkpt>
      <trkpt lat="43.73552" lon="3.54136">
        <ele>225.899994</ele>
        <time>2013-05-25T11:01:27Z</time>
      </trkpt>
      <trkpt lat="43.73557" lon="3.54141">
        <ele>218.399994</ele>
        <time>2013-05-25T11:01:29Z</time>
      </trkpt>
      <trkpt lat="43.73562" lon="3.54151">
        <ele>213.300003</ele>
        <time>2013-05-25T11:01:32Z</time>
      </trkpt>
      <trkpt lat="43.73566" lon="3.5416">
        <ele>211</ele>
        <time>2013-05-25T11:01:34Z</time>
      </trkpt>
      <trkpt lat="43.7357" lon="3.5417">
        <ele>209</ele>
        <time>2013-05-25T11:01:36Z</time>
      </trkpt>
      <trkpt lat="43.73572" lon="3.54175">
        <ele>208.300003</ele>
        <time>2013-05-25T11:01:37Z</time>
      </trkpt>
      <trkpt lat="43.73578" lon="3.5419">
        <ele>206.800003</ele>
        <time>2013-05-25T11:01:40Z</time>
      </trkpt>
      <trkpt lat="43.73581" lon="3.54196">
        <ele>205.699997</ele>
        <time>2013-05-25T11:01:41Z</time>
      </trkpt>
      <trkpt lat="43.73584" lon="3.54203">
        <ele>204.800003</ele>
        <time>2013-05-25T11:01:42Z</time>
      </trkpt>
      <trkpt lat="43.73586" lon="3.54209">
        <ele>204.199997</ele>
        <time>2013-05-25T11:01:43Z</time>
      </trkpt>
      <trkpt lat="43.73589" lon="3.54216">
        <ele>202.899994</ele>
        <time>2013-05-25T11:01:44Z</time>
      </trkpt>
      <trkpt lat="43.73592" lon="3.54222">
        <ele>202</ele>
        <time>2013-05-25T11:01:45Z</time>
      </trkpt>
      <trkpt lat="43.73596" lon="3.54232">
        <ele>200.300003</ele>
        <time>2013-05-25T11:01:47Z</time>
      </trkpt>
      <trkpt lat="43.73597" lon="3.54242">
        <ele>199</ele>
        <time>2013-05-25T11:01:49Z</time>
      </trkpt>
      <trkpt lat="43.73598" lon="3.54251">
        <ele>197.199997</ele>
        <time>2013-05-25T11:01:51Z</time>
      </trkpt>
      <trkpt lat="43.73603" lon="3.54245">
        <ele>192.899994</ele>
        <time>2013-05-25T11:01:59Z</time>
      </trkpt>
      <trkpt lat="43.73605" lon="3.54233">
        <ele>191.600006</ele>
        <time>2013-05-25T11:02:01Z</time>
      </trkpt>
      <trkpt lat="43.73606" lon="3.54227">
        <ele>191.199997</ele>
        <time>2013-05-25T11:02:02Z</time>
      </trkpt>
      <trkpt lat="43.73606" lon="3.5422">
        <ele>190.399994</ele>
        <time>2013-05-25T11:02:03Z</time>
      </trkpt>
      <trkpt lat="43.73607" lon="3.54213">
        <ele>189.800003</ele>
        <time>2013-05-25T11:02:04Z</time>
      </trkpt>
      <trkpt lat="43.73607" lon="3.54206">
        <ele>189.399994</ele>
        <time>2013-05-25T11:02:05Z</time>
      </trkpt>
      <trkpt lat="43.73608" lon="3.54199">
        <ele>188.5</ele>
        <time>2013-05-25T11:02:06Z</time>
      </trkpt>
      <trkpt lat="43.73609" lon="3.54189">
        <ele>187.399994</ele>
        <time>2013-05-25T11:02:08Z</time>
      </trkpt>
      <trkpt lat="43.73609" lon="3.54177">
        <ele>186.699997</ele>
        <time>2013-05-25T11:02:10Z</time>
      </trkpt>
      <trkpt lat="43.73609" lon="3.54172">
        <ele>186.399994</ele>
        <time>2013-05-25T11:02:11Z</time>
      </trkpt>
      <trkpt lat="43.73611" lon="3.54146">
        <ele>184.399994</ele>
        <time>2013-05-25T11:02:19Z</time>
      </trkpt>
      <trkpt lat="43.73611" lon="3.54148">
        <ele>182.899994</ele>
        <time>2013-05-25T11:02:20Z</time>
      </trkpt>
      <trkpt lat="43.73629" lon="3.54197">
        <ele>180.600006</ele>
        <time>2013-05-25T11:02:30Z</time>
      </trkpt>
      <trkpt lat="43.73631" lon="3.54202">
        <ele>178.800003</ele>
        <time>2013-05-25T11:02:31Z</time>
      </trkpt>
      <trkpt lat="43.73634" lon="3.54208">
        <ele>177.5</ele>
        <time>2013-05-25T11:02:32Z</time>
      </trkpt>
      <trkpt lat="43.73635" lon="3.54214">
        <ele>176.5</ele>
        <time>2013-05-25T11:02:33Z</time>
      </trkpt>
      <trkpt lat="43.73637" lon="3.5422">
        <ele>175.800003</ele>
        <time>2013-05-25T11:02:34Z</time>
      </trkpt>
      <trkpt lat="43.73638" lon="3.54227">
        <ele>175</ele>
        <time>2013-05-25T11:02:35Z</time>
      </trkpt>
      <trkpt lat="43.73638" lon="3.54234">
        <ele>174.399994</ele>
        <time>2013-05-25T11:02:36Z</time>
      </trkpt>
      <trkpt lat="43.73638" lon="3.54242">
        <ele>173.899994</ele>
        <time>2013-05-25T11:02:37Z</time>
      </trkpt>
      <trkpt lat="43.73638" lon="3.5425">
        <ele>172.300003</ele>
        <time>2013-05-25T11:02:38Z</time>
      </trkpt>
      <trkpt lat="43.73638" lon="3.54257">
        <ele>171.100006</ele>
        <time>2013-05-25T11:02:39Z</time>
      </trkpt>
      <trkpt lat="43.73637" lon="3.54264">
        <ele>170.199997</ele>
        <time>2013-05-25T11:02:40Z</time>
      </trkpt>
      <trkpt lat="43.73635" lon="3.54277">
        <ele>169.199997</ele>
        <time>2013-05-25T11:02:42Z</time>
      </trkpt>
      <trkpt lat="43.73634" lon="3.54284">
        <ele>168.5</ele>
        <time>2013-05-25T11:02:43Z</time>
      </trkpt>
      <trkpt lat="43.73631" lon="3.54296">
        <ele>166.699997</ele>
        <time>2013-05-25T11:02:45Z</time>
      </trkpt>
      <trkpt lat="43.73627" lon="3.54306">
        <ele>164.600006</ele>
        <time>2013-05-25T11:02:47Z</time>
      </trkpt>
      <trkpt lat="43.73624" lon="3.54311">
        <ele>163.5</ele>
        <time>2013-05-25T11:02:48Z</time>
      </trkpt>
      <trkpt lat="43.73622" lon="3.54317">
        <ele>162.600006</ele>
        <time>2013-05-25T11:02:49Z</time>
      </trkpt>
      <trkpt lat="43.73619" lon="3.54323">
        <ele>162</ele>
        <time>2013-05-25T11:02:50Z</time>
      </trkpt>
      <trkpt lat="43.73617" lon="3.5433">
        <ele>161.300003</ele>
        <time>2013-05-25T11:02:51Z</time>
      </trkpt>
      <trkpt lat="43.73613" lon="3.54361">
        <ele>160.5</ele>
        <time>2013-05-25T11:02:56Z</time>
      </trkpt>
      <trkpt lat="43.73612" lon="3.54368">
        <ele>158.899994</ele>
        <time>2013-05-25T11:02:57Z</time>
      </trkpt>
      <trkpt lat="43.73612" lon="3.54376">
        <ele>157.699997</ele>
        <time>2013-05-25T11:02:58Z</time>
      </trkpt>
      <trkpt lat="43.73612" lon="3.54384">
        <ele>156.800003</ele>
        <time>2013-05-25T11:02:59Z</time>
      </trkpt>
      <trkpt lat="43.73613" lon="3.54391">
        <ele>155.5</ele>
        <time>2013-05-25T11:03:00Z</time>
      </trkpt>
      <trkpt lat="43.73614" lon="3.54399">
        <ele>154.600006</ele>
        <time>2013-05-25T11:03:01Z</time>
      </trkpt>
      <trkpt lat="43.73616" lon="3.54407">
        <ele>153.800003</ele>
        <time>2013-05-25T11:03:02Z</time>
      </trkpt>
      <trkpt lat="43.73616" lon="3.54415">
        <ele>153.5</ele>
        <time>2013-05-25T11:03:03Z</time>
      </trkpt>
      <trkpt lat="43.73616" lon="3.54423">
        <ele>153.300003</ele>
        <time>2013-05-25T11:03:04Z</time>
      </trkpt>
      <trkpt lat="43.73615" lon="3.5443">
        <ele>153.100006</ele>
        <time>2013-05-25T11:03:05Z</time>
      </trkpt>
      <trkpt lat="43.73614" lon="3.54436">
        <ele>152.899994</ele>
        <time>2013-05-25T11:03:06Z</time>
      </trkpt>
      <trkpt lat="43.73613" lon="3.54448">
        <ele>151.600006</ele>
        <time>2013-05-25T11:03:08Z</time>
      </trkpt>
      <trkpt lat="43.73612" lon="3.54454">
        <ele>151.199997</ele>
        <time>2013-05-25T11:03:09Z</time>
      </trkpt>
      <trkpt lat="43.73612" lon="3.54467">
        <ele>149.699997</ele>
        <time>2013-05-25T11:03:11Z</time>
      </trkpt>
      <trkpt lat="43.7362" lon="3.54464">
        <ele>147.399994</ele>
        <time>2013-05-25T11:03:18Z</time>
      </trkpt>
      <trkpt lat="43.73622" lon="3.54459">
        <ele>146.699997</ele>
        <time>2013-05-25T11:03:19Z</time>
      </trkpt>
      <trkpt lat="43.73626" lon="3.54453">
        <ele>146.199997</ele>
        <time>2013-05-25T11:03:20Z</time>
      </trkpt>
      <trkpt lat="43.73629" lon="3.54445">
        <ele>145.800003</ele>
        <time>2013-05-25T11:03:21Z</time>
      </trkpt>
      <trkpt lat="43.73632" lon="3.54438">
        <ele>145.5</ele>
        <time>2013-05-25T11:03:22Z</time>
      </trkpt>
      <trkpt lat="43.73635" lon="3.54432">
        <ele>144.899994</ele>
        <time>2013-05-25T11:03:23Z</time>
      </trkpt>
      <trkpt lat="43.73639" lon="3.54422">
        <ele>144.100006</ele>
        <time>2013-05-25T11:03:25Z</time>
      </trkpt>
      <trkpt lat="43.73642" lon="3.54411">
        <ele>140.399994</ele>
        <time>2013-05-25T11:03:28Z</time>
      </trkpt>
      <trkpt lat="43.73646" lon="3.54418">
        <ele>135.5</ele>
        <time>2013-05-25T11:03:33Z</time>
      </trkpt>
      <trkpt lat="43.73646" lon="3.54423">
        <ele>135</ele>
        <time>2013-05-25T11:03:34Z</time>
      </trkpt>
      <trkpt lat="43.73643" lon="3.54441">
        <ele>133.800003</ele>
        <time>2013-05-25T11:03:37Z</time>
      </trkpt>
      <trkpt lat="43.73643" lon="3.54447">
        <ele>133.600006</ele>
        <time>2013-05-25T11:03:38Z</time>
      </trkpt>
      <trkpt lat="43.73642" lon="3.54454">
        <ele>133.5</ele>
        <time>2013-05-25T11:03:39Z</time>
      </trkpt>
      <trkpt lat="43.73641" lon="3.54461">
        <ele>133.5</ele>
        <time>2013-05-25T11:03:40Z</time>
      </trkpt>
      <trkpt lat="43.7364" lon="3.54468">
        <ele>133.399994</ele>
        <time>2013-05-25T11:03:41Z</time>
      </trkpt>
      <trkpt lat="43.73639" lon="3.54475">
        <ele>132.600006</ele>
        <time>2013-05-25T11:03:42Z</time>
      </trkpt>
      <trkpt lat="43.73638" lon="3.54482">
        <ele>131.899994</ele>
        <time>2013-05-25T11:03:43Z</time>
      </trkpt>
      <trkpt lat="43.73636" lon="3.54493">
        <ele>130.800003</ele>
        <time>2013-05-25T11:03:45Z</time>
      </trkpt>
      <trkpt lat="43.73635" lon="3.54504">
        <ele>129.899994</ele>
        <time>2013-05-25T11:03:48Z</time>
      </trkpt>
      <trkpt lat="43.73634" lon="3.54516">
        <ele>129.399994</ele>
        <time>2013-05-25T11:03:51Z</time>
      </trkpt>
      <trkpt lat="43.73634" lon="3.54528">
        <ele>128.800003</ele>
        <time>2013-05-25T11:03:53Z</time>
      </trkpt>
      <trkpt lat="43.73634" lon="3.54536">
        <ele>128.199997</ele>
        <time>2013-05-25T11:03:54Z</time>
      </trkpt>
      <trkpt lat="43.73634" lon="3.54545">
        <ele>127.800003</ele>
        <time>2013-05-25T11:03:55Z</time>
      </trkpt>
      <trkpt lat="43.73634" lon="3.54553">
        <ele>127.5</ele>
        <time>2013-05-25T11:03:56Z</time>
      </trkpt>
      <trkpt lat="43.73634" lon="3.5456">
        <ele>127.300003</ele>
        <time>2013-05-25T11:03:57Z</time>
      </trkpt>
      <trkpt lat="43.73635" lon="3.54572">
        <ele>123.800003</ele>
        <time>2013-05-25T11:03:59Z</time>
      </trkpt>
      <trkpt lat="43.73636" lon="3.54582">
        <ele>121.099998</ele>
        <time>2013-05-25T11:04:01Z</time>
      </trkpt>
      <trkpt lat="43.73637" lon="3.54588">
        <ele>119.900002</ele>
        <time>2013-05-25T11:04:02Z</time>
      </trkpt>
      <trkpt lat="43.73639" lon="3.54595">
        <ele>119.099998</ele>
        <time>2013-05-25T11:04:03Z</time>
      </trkpt>
      <trkpt lat="43.7364" lon="3.54603">
        <ele>117.5</ele>
        <time>2013-05-25T11:04:04Z</time>
      </trkpt>
      <trkpt lat="43.73641" lon="3.54611">
        <ele>116.300003</ele>
        <time>2013-05-25T11:04:05Z</time>
      </trkpt>
      <trkpt lat="43.73642" lon="3.54619">
        <ele>115.300003</ele>
        <time>2013-05-25T11:04:06Z</time>
      </trkpt>
      <trkpt lat="43.73643" lon="3.54627">
        <ele>113.800003</ele>
        <time>2013-05-25T11:04:07Z</time>
      </trkpt>
      <trkpt lat="43.73645" lon="3.54639">
        <ele>111.199997</ele>
        <time>2013-05-25T11:04:11Z</time>
      </trkpt>
      <trkpt lat="43.73651" lon="3.54647">
        <ele>110.800003</ele>
        <time>2013-05-25T11:04:24Z</time>
      </trkpt>
      <trkpt lat="43.73659" lon="3.54652">
        <ele>109.400002</ele>
        <time>2013-05-25T11:05:30Z</time>
      </trkpt>
      <trkpt lat="43.73659" lon="3.54652">
        <ele>109.5</ele>
        <time>2013-05-25T11:05:31Z</time>
      </trkpt>
      <trkpt lat="43.73667" lon="3.54663">
        <ele>111.400002</ele>
        <time>2013-05-25T11:08:52Z</time>
      </trkpt>
      <trkpt lat="43.7368" lon="3.54657">
        <ele>111.199997</ele>
        <time>2013-05-25T11:08:57Z</time>
      </trkpt>
      <trkpt lat="43.73682" lon="3.54666">
        <ele>111</ele>
        <time>2013-05-25T11:09:01Z</time>
      </trkpt>
      <trkpt lat="43.73678" lon="3.54673">
        <ele>111.400002</ele>
        <time>2013-05-25T11:09:03Z</time>
      </trkpt>
      <trkpt lat="43.73675" lon="3.54683">
        <ele>112</ele>
        <time>2013-05-25T11:09:05Z</time>
      </trkpt>
      <trkpt lat="43.73673" lon="3.54689">
        <ele>112.199997</ele>
        <time>2013-05-25T11:09:06Z</time>
      </trkpt>
      <trkpt lat="43.73672" lon="3.54695">
        <ele>112.099998</ele>
        <time>2013-05-25T11:09:07Z</time>
      </trkpt>
      <trkpt lat="43.73672" lon="3.54702">
        <ele>112</ele>
        <time>2013-05-25T11:09:08Z</time>
      </trkpt>
      <trkpt lat="43.73671" lon="3.54708">
        <ele>111.900002</ele>
        <time>2013-05-25T11:09:09Z</time>
      </trkpt>
      <trkpt lat="43.73671" lon="3.54714">
        <ele>111.800003</ele>
        <time>2013-05-25T11:09:10Z</time>
      </trkpt>
      <trkpt lat="43.73672" lon="3.54727">
        <ele>111.5</ele>
        <time>2013-05-25T11:09:12Z</time>
      </trkpt>
      <trkpt lat="43.73672" lon="3.54733">
        <ele>111.400002</ele>
        <time>2013-05-25T11:09:13Z</time>
      </trkpt>
      <trkpt lat="43.73672" lon="3.54739">
        <ele>111.400002</ele>
        <time>2013-05-25T11:09:14Z</time>
      </trkpt>
      <trkpt lat="43.73671" lon="3.54746">
        <ele>111.400002</ele>
        <time>2013-05-25T11:09:15Z</time>
      </trkpt>
      <trkpt lat="43.7367" lon="3.54752">
        <ele>111.400002</ele>
        <time>2013-05-25T11:09:16Z</time>
      </trkpt>
      <trkpt lat="43.73669" lon="3.54758">
        <ele>111.400002</ele>
        <time>2013-05-25T11:09:17Z</time>
      </trkpt>
      <trkpt lat="43.73667" lon="3.54764">
        <ele>111.400002</ele>
        <time>2013-05-25T11:09:18Z</time>
      </trkpt>
      <trkpt lat="43.73664" lon="3.54769">
        <ele>111.5</ele>
        <time>2013-05-25T11:09:19Z</time>
      </trkpt>
      <trkpt lat="43.73661" lon="3.54774">
        <ele>110.699997</ele>
        <time>2013-05-25T11:09:20Z</time>
      </trkpt>
      <trkpt lat="43.73657" lon="3.54778">
        <ele>110.099998</ele>
        <time>2013-05-25T11:09:21Z</time>
      </trkpt>
      <trkpt lat="43.73653" lon="3.54781">
        <ele>109.699997</ele>
        <time>2013-05-25T11:09:22Z</time>
      </trkpt>
      <trkpt lat="43.73648" lon="3.54784">
        <ele>109.5</ele>
        <time>2013-05-25T11:09:23Z</time>
      </trkpt>
      <trkpt lat="43.73643" lon="3.54786">
        <ele>109.300003</ele>
        <time>2013-05-25T11:09:24Z</time>
      </trkpt>
      <trkpt lat="43.73638" lon="3.54788">
        <ele>109.199997</ele>
        <time>2013-05-25T11:09:25Z</time>
      </trkpt>
      <trkpt lat="43.73633" lon="3.54789">
        <ele>109.099998</ele>
        <time>2013-05-25T11:09:26Z</time>
      </trkpt>
      <trkpt lat="43.73627" lon="3.5479">
        <ele>109</ele>
        <time>2013-05-25T11:09:27Z</time>
      </trkpt>
      <trkpt lat="43.73622" lon="3.5479">
        <ele>108.900002</ele>
        <time>2013-05-25T11:09:28Z</time>
      </trkpt>
      <trkpt lat="43.73616" lon="3.54791">
        <ele>108.800003</ele>
        <time>2013-05-25T11:09:29Z</time>
      </trkpt>
      <trkpt lat="43.73611" lon="3.54791">
        <ele>108.400002</ele>
        <time>2013-05-25T11:09:30Z</time>
      </trkpt>
      <trkpt lat="43.73605" lon="3.54791">
        <ele>108.099998</ele>
        <time>2013-05-25T11:09:31Z</time>
      </trkpt>
      <trkpt lat="43.73599" lon="3.54792">
        <ele>107.800003</ele>
        <time>2013-05-25T11:09:32Z</time>
      </trkpt>
      <trkpt lat="43.73593" lon="3.54792">
        <ele>107.900002</ele>
        <time>2013-05-25T11:09:33Z</time>
      </trkpt>
      <trkpt lat="43.73587" lon="3.54793">
        <ele>107.900002</ele>
        <time>2013-05-25T11:09:34Z</time>
      </trkpt>
      <trkpt lat="43.73581" lon="3.54793">
        <ele>107.900002</ele>
        <time>2013-05-25T11:09:35Z</time>
      </trkpt>
      <trkpt lat="43.73575" lon="3.54793">
        <ele>107.900002</ele>
        <time>2013-05-25T11:09:36Z</time>
      </trkpt>
      <trkpt lat="43.73569" lon="3.54794">
        <ele>107.800003</ele>
        <time>2013-05-25T11:09:37Z</time>
      </trkpt>
      <trkpt lat="43.73563" lon="3.54796">
        <ele>107.800003</ele>
        <time>2013-05-25T11:09:38Z</time>
      </trkpt>
      <trkpt lat="43.73557" lon="3.54799">
        <ele>107.800003</ele>
        <time>2013-05-25T11:09:39Z</time>
      </trkpt>
      <trkpt lat="43.73551" lon="3.54802">
        <ele>107.800003</ele>
        <time>2013-05-25T11:09:40Z</time>
      </trkpt>
      <trkpt lat="43.73545" lon="3.54805">
        <ele>107.800003</ele>
        <time>2013-05-25T11:09:41Z</time>
      </trkpt>
      <trkpt lat="43.73539" lon="3.54806">
        <ele>107.699997</ele>
        <time>2013-05-25T11:09:42Z</time>
      </trkpt>
      <trkpt lat="43.73533" lon="3.54807">
        <ele>107.599998</ele>
        <time>2013-05-25T11:09:43Z</time>
      </trkpt>
      <trkpt lat="43.73527" lon="3.54807">
        <ele>107.5</ele>
        <time>2013-05-25T11:09:44Z</time>
      </trkpt>
      <trkpt lat="43.73522" lon="3.54808">
        <ele>107.400002</ele>
        <time>2013-05-25T11:09:45Z</time>
      </trkpt>
      <trkpt lat="43.73517" lon="3.54808">
        <ele>107.199997</ele>
        <time>2013-05-25T11:09:46Z</time>
      </trkpt>
      <trkpt lat="43.73512" lon="3.54808">
        <ele>107.099998</ele>
        <time>2013-05-25T11:09:47Z</time>
      </trkpt>
      <trkpt lat="43.73504" lon="3.54809">
        <ele>106.699997</ele>
        <time>2013-05-25T11:09:49Z</time>
      </trkpt>
      <trkpt lat="43.73497" lon="3.54808">
        <ele>106.300003</ele>
        <time>2013-05-25T11:09:51Z</time>
      </trkpt>
      <trkpt lat="43.73491" lon="3.54808">
        <ele>105.900002</ele>
        <time>2013-05-25T11:09:53Z</time>
      </trkpt>
      <trkpt lat="43.73487" lon="3.54809">
        <ele>105.699997</ele>
        <time>2013-05-25T11:09:54Z</time>
      </trkpt>
      <trkpt lat="43.73478" lon="3.54818">
        <ele>105.5</ele>
        <time>2013-05-25T11:09:57Z</time>
      </trkpt>
      <trkpt lat="43.73472" lon="3.54823">
        <ele>105.300003</ele>
        <time>2013-05-25T11:09:59Z</time>
      </trkpt>
      <trkpt lat="43.73465" lon="3.54829">
        <ele>105.099998</ele>
        <time>2013-05-25T11:10:02Z</time>
      </trkpt>
      <trkpt lat="43.73458" lon="3.54834">
        <ele>104.900002</ele>
        <time>2013-05-25T11:10:06Z</time>
      </trkpt>
      <trkpt lat="43.73453" lon="3.5484">
        <ele>105.400002</ele>
        <time>2013-05-25T11:10:09Z</time>
      </trkpt>
      <trkpt lat="43.73448" lon="3.54847">
        <ele>105.099998</ele>
        <time>2013-05-25T11:10:12Z</time>
      </trkpt>
      <trkpt lat="43.73441" lon="3.54853">
        <ele>104.5</ele>
        <time>2013-05-25T11:10:16Z</time>
      </trkpt>
      <trkpt lat="43.73435" lon="3.54859">
        <ele>104.099998</ele>
        <time>2013-05-25T11:10:19Z</time>
      </trkpt>
      <trkpt lat="43.73429" lon="3.54866">
        <ele>104.5</ele>
        <time>2013-05-25T11:10:21Z</time>
      </trkpt>
      <trkpt lat="43.73422" lon="3.54873">
        <ele>105.099998</ele>
        <time>2013-05-25T11:10:23Z</time>
      </trkpt>
      <trkpt lat="43.73415" lon="3.54881">
        <ele>103.699997</ele>
        <time>2013-05-25T11:10:25Z</time>
      </trkpt>
      <trkpt lat="43.7341" lon="3.5489">
        <ele>103.300003</ele>
        <time>2013-05-25T11:10:27Z</time>
      </trkpt>
      <trkpt lat="43.73403" lon="3.54898">
        <ele>102.5</ele>
        <time>2013-05-25T11:10:35Z</time>
      </trkpt>
      <trkpt lat="43.73397" lon="3.54893">
        <ele>102.400002</ele>
        <time>2013-05-25T11:10:38Z</time>
      </trkpt>
      <trkpt lat="43.73394" lon="3.54882">
        <ele>102.199997</ele>
        <time>2013-05-25T11:10:41Z</time>
      </trkpt>
      <trkpt lat="43.73396" lon="3.5487">
        <ele>102</ele>
        <time>2013-05-25T11:10:44Z</time>
      </trkpt>
      <trkpt lat="43.73392" lon="3.54862">
        <ele>102.300003</ele>
        <time>2013-05-25T11:10:47Z</time>
      </trkpt>
      <trkpt lat="43.73387" lon="3.54854">
        <ele>103.099998</ele>
        <time>2013-05-25T11:10:50Z</time>
      </trkpt>
      <trkpt lat="43.73381" lon="3.54845">
        <ele>103.800003</ele>
        <time>2013-05-25T11:10:53Z</time>
      </trkpt>
      <trkpt lat="43.73375" lon="3.54836">
        <ele>104.300003</ele>
        <time>2013-05-25T11:10:56Z</time>
      </trkpt>
      <trkpt lat="43.73372" lon="3.54834">
        <ele>104.5</ele>
        <time>2013-05-25T11:10:57Z</time>
      </trkpt>
      <trkpt lat="43.73361" lon="3.54826">
        <ele>105.400002</ele>
        <time>2013-05-25T11:11:00Z</time>
      </trkpt>
      <trkpt lat="43.73354" lon="3.54824">
        <ele>105.300003</ele>
        <time>2013-05-25T11:11:02Z</time>
      </trkpt>
      <trkpt lat="43.73346" lon="3.54824">
        <ele>104.900002</ele>
        <time>2013-05-25T11:11:04Z</time>
      </trkpt>
      <trkpt lat="43.73339" lon="3.54827">
        <ele>105.699997</ele>
        <time>2013-05-25T11:11:06Z</time>
      </trkpt>
      <trkpt lat="43.73332" lon="3.54832">
        <ele>106.199997</ele>
        <time>2013-05-25T11:11:08Z</time>
      </trkpt>
      <trkpt lat="43.73326" lon="3.54838">
        <ele>106</ele>
        <time>2013-05-25T11:11:10Z</time>
      </trkpt>
      <trkpt lat="43.73321" lon="3.54846">
        <ele>105.599998</ele>
        <time>2013-05-25T11:11:12Z</time>
      </trkpt>
      <trkpt lat="43.73317" lon="3.54856">
        <ele>105.199997</ele>
        <time>2013-05-25T11:11:14Z</time>
      </trkpt>
      <trkpt lat="43.73316" lon="3.54861">
        <ele>105.099998</ele>
        <time>2013-05-25T11:11:15Z</time>
      </trkpt>
      <trkpt lat="43.73315" lon="3.54868">
        <ele>104.900002</ele>
        <time>2013-05-25T11:11:16Z</time>
      </trkpt>
      <trkpt lat="43.73313" lon="3.54873">
        <ele>104.900002</ele>
        <time>2013-05-25T11:11:17Z</time>
      </trkpt>
      <trkpt lat="43.73311" lon="3.5488">
        <ele>104.699997</ele>
        <time>2013-05-25T11:11:18Z</time>
      </trkpt>
      <trkpt lat="43.73309" lon="3.54886">
        <ele>104.5</ele>
        <time>2013-05-25T11:11:19Z</time>
      </trkpt>
      <trkpt lat="43.73308" lon="3.54893">
        <ele>104.400002</ele>
        <time>2013-05-25T11:11:20Z</time>
      </trkpt>
      <trkpt lat="43.73307" lon="3.54899">
        <ele>104.199997</ele>
        <time>2013-05-25T11:11:21Z</time>
      </trkpt>
      <trkpt lat="43.73306" lon="3.54906">
        <ele>104</ele>
        <time>2013-05-25T11:11:22Z</time>
      </trkpt>
      <trkpt lat="43.73304" lon="3.54912">
        <ele>103.900002</ele>
        <time>2013-05-25T11:11:23Z</time>
      </trkpt>
      <trkpt lat="43.73302" lon="3.54919">
        <ele>103.800003</ele>
        <time>2013-05-25T11:11:24Z</time>
      </trkpt>
      <trkpt lat="43.733" lon="3.54926">
        <ele>103.699997</ele>
        <time>2013-05-25T11:11:25Z</time>
      </trkpt>
      <trkpt lat="43.73298" lon="3.54933">
        <ele>103.699997</ele>
        <time>2013-05-25T11:11:26Z</time>
      </trkpt>
      <trkpt lat="43.73297" lon="3.5494">
        <ele>103.699997</ele>
        <time>2013-05-25T11:11:27Z</time>
      </trkpt>
      <trkpt lat="43.73296" lon="3.54947">
        <ele>103.699997</ele>
        <time>2013-05-25T11:11:28Z</time>
      </trkpt>
      <trkpt lat="43.73296" lon="3.54955">
        <ele>103.599998</ele>
        <time>2013-05-25T11:11:29Z</time>
      </trkpt>
      <trkpt lat="43.73297" lon="3.54962">
        <ele>103.599998</ele>
        <time>2013-05-25T11:11:30Z</time>
      </trkpt>
      <trkpt lat="43.73299" lon="3.54969">
        <ele>103</ele>
        <time>2013-05-25T11:11:31Z</time>
      </trkpt>
      <trkpt lat="43.73303" lon="3.54976">
        <ele>102.599998</ele>
        <time>2013-05-25T11:11:32Z</time>
      </trkpt>
      <trkpt lat="43.73306" lon="3.54983">
        <ele>102.300003</ele>
        <time>2013-05-25T11:11:33Z</time>
      </trkpt>
      <trkpt lat="43.7331" lon="3.5499">
        <ele>102</ele>
        <time>2013-05-25T11:11:34Z</time>
      </trkpt>
      <trkpt lat="43.73314" lon="3.54998">
        <ele>101.800003</ele>
        <time>2013-05-25T11:11:35Z</time>
      </trkpt>
      <trkpt lat="43.73318" lon="3.55006">
        <ele>101.699997</ele>
        <time>2013-05-25T11:11:36Z</time>
      </trkpt>
      <trkpt lat="43.73321" lon="3.55016">
        <ele>101</ele>
        <time>2013-05-25T11:11:37Z</time>
      </trkpt>
      <trkpt lat="43.73323" lon="3.55026">
        <ele>100.599998</ele>
        <time>2013-05-25T11:11:38Z</time>
      </trkpt>
      <trkpt lat="43.73323" lon="3.55037">
        <ele>100.199997</ele>
        <time>2013-05-25T11:11:39Z</time>
      </trkpt>
      <trkpt lat="43.73324" lon="3.55048">
        <ele>99.900002</ele>
        <time>2013-05-25T11:11:40Z</time>
      </trkpt>
      <trkpt lat="43.73325" lon="3.5506">
        <ele>99.699997</ele>
        <time>2013-05-25T11:11:41Z</time>
      </trkpt>
      <trkpt lat="43.73325" lon="3.55072">
        <ele>99.5</ele>
        <time>2013-05-25T11:11:42Z</time>
      </trkpt>
      <trkpt lat="43.73325" lon="3.55084">
        <ele>99.300003</ele>
        <time>2013-05-25T11:11:43Z</time>
      </trkpt>
      <trkpt lat="43.73326" lon="3.55096">
        <ele>98.699997</ele>
        <time>2013-05-25T11:11:44Z</time>
      </trkpt>
      <trkpt lat="43.73327" lon="3.55109">
        <ele>98.300003</ele>
        <time>2013-05-25T11:11:45Z</time>
      </trkpt>
      <trkpt lat="43.73328" lon="3.55121">
        <ele>97.900002</ele>
        <time>2013-05-25T11:11:46Z</time>
      </trkpt>
      <trkpt lat="43.73331" lon="3.55134">
        <ele>97.900002</ele>
        <time>2013-05-25T11:11:47Z</time>
      </trkpt>
      <trkpt lat="43.73334" lon="3.55146">
        <ele>97.800003</ele>
        <time>2013-05-25T11:11:48Z</time>
      </trkpt>
      <trkpt lat="43.73339" lon="3.55158">
        <ele>97.800003</ele>
        <time>2013-05-25T11:11:49Z</time>
      </trkpt>
      <trkpt lat="43.73343" lon="3.5517">
        <ele>96.699997</ele>
        <time>2013-05-25T11:11:50Z</time>
      </trkpt>
      <trkpt lat="43.73347" lon="3.55182">
        <ele>95.900002</ele>
        <time>2013-05-25T11:11:51Z</time>
      </trkpt>
      <trkpt lat="43.7335" lon="3.55195">
        <ele>95.300003</ele>
        <time>2013-05-25T11:11:52Z</time>
      </trkpt>
      <trkpt lat="43.7335" lon="3.55209">
        <ele>95.099998</ele>
        <time>2013-05-25T11:11:53Z</time>
      </trkpt>
      <trkpt lat="43.73348" lon="3.55222">
        <ele>94.900002</ele>
        <time>2013-05-25T11:11:54Z</time>
      </trkpt>
      <trkpt lat="43.73344" lon="3.55234">
        <ele>94.800003</ele>
        <time>2013-05-25T11:11:55Z</time>
      </trkpt>
      <trkpt lat="43.7334" lon="3.55247">
        <ele>93.800003</ele>
        <time>2013-05-25T11:11:56Z</time>
      </trkpt>
      <trkpt lat="43.73337" lon="3.55259">
        <ele>93.199997</ele>
        <time>2013-05-25T11:11:57Z</time>
      </trkpt>
      <trkpt lat="43.73333" lon="3.55272">
        <ele>92.599998</ele>
        <time>2013-05-25T11:11:58Z</time>
      </trkpt>
      <trkpt lat="43.73329" lon="3.55284">
        <ele>92.199997</ele>
        <time>2013-05-25T11:11:59Z</time>
      </trkpt>
      <trkpt lat="43.73324" lon="3.55296">
        <ele>92.099998</ele>
        <time>2013-05-25T11:12:00Z</time>
      </trkpt>
      <trkpt lat="43.73319" lon="3.55306">
        <ele>92</ele>
        <time>2013-05-25T11:12:01Z</time>
      </trkpt>
      <trkpt lat="43.73312" lon="3.55316">
        <ele>91.900002</ele>
        <time>2013-05-25T11:12:02Z</time>
      </trkpt>
      <trkpt lat="43.73306" lon="3.55327">
        <ele>90.900002</ele>
        <time>2013-05-25T11:12:03Z</time>
      </trkpt>
      <trkpt lat="43.73302" lon="3.5534">
        <ele>90.099998</ele>
        <time>2013-05-25T11:12:04Z</time>
      </trkpt>
      <trkpt lat="43.73299" lon="3.55351">
        <ele>89.5</ele>
        <time>2013-05-25T11:12:05Z</time>
      </trkpt>
      <trkpt lat="43.73296" lon="3.5536">
        <ele>88.800003</ele>
        <time>2013-05-25T11:12:06Z</time>
      </trkpt>
      <trkpt lat="43.73293" lon="3.55367">
        <ele>88.199997</ele>
        <time>2013-05-25T11:12:07Z</time>
      </trkpt>
      <trkpt lat="43.73288" lon="3.55371">
        <ele>87.800003</ele>
        <time>2013-05-25T11:12:08Z</time>
      </trkpt>
      <trkpt lat="43.73282" lon="3.55372">
        <ele>85.900002</ele>
        <time>2013-05-25T11:12:09Z</time>
      </trkpt>
      <trkpt lat="43.73275" lon="3.55371">
        <ele>84.5</ele>
        <time>2013-05-25T11:12:10Z</time>
      </trkpt>
      <trkpt lat="43.73267" lon="3.55371">
        <ele>83.5</ele>
        <time>2013-05-25T11:12:11Z</time>
      </trkpt>
      <trkpt lat="43.73258" lon="3.55369">
        <ele>82.5</ele>
        <time>2013-05-25T11:12:12Z</time>
      </trkpt>
      <trkpt lat="43.7325" lon="3.55366">
        <ele>81.699997</ele>
        <time>2013-05-25T11:12:13Z</time>
      </trkpt>
      <trkpt lat="43.73241" lon="3.55362">
        <ele>81.199997</ele>
        <time>2013-05-25T11:12:14Z</time>
      </trkpt>
      <trkpt lat="43.73214" lon="3.55349">
        <ele>80.699997</ele>
        <time>2013-05-25T11:12:17Z</time>
      </trkpt>
      <trkpt lat="43.73204" lon="3.55344">
        <ele>80.400002</ele>
        <time>2013-05-25T11:12:18Z</time>
      </trkpt>
      <trkpt lat="43.73195" lon="3.55339">
        <ele>79.5</ele>
        <time>2013-05-25T11:12:19Z</time>
      </trkpt>
      <trkpt lat="43.73185" lon="3.55334">
        <ele>78.900002</ele>
        <time>2013-05-25T11:12:20Z</time>
      </trkpt>
      <trkpt lat="43.73176" lon="3.5533">
        <ele>78.400002</ele>
        <time>2013-05-25T11:12:21Z</time>
      </trkpt>
      <trkpt lat="43.73166" lon="3.55326">
        <ele>77.900002</ele>
        <time>2013-05-25T11:12:22Z</time>
      </trkpt>
      <trkpt lat="43.73157" lon="3.55322">
        <ele>77.5</ele>
        <time>2013-05-25T11:12:23Z</time>
      </trkpt>
      <trkpt lat="43.73147" lon="3.55319">
        <ele>77.199997</ele>
        <time>2013-05-25T11:12:24Z</time>
      </trkpt>
      <trkpt lat="43.73138" lon="3.55316">
        <ele>77.199997</ele>
        <time>2013-05-25T11:12:25Z</time>
      </trkpt>
      <trkpt lat="43.73129" lon="3.55314">
        <ele>77.199997</ele>
        <time>2013-05-25T11:12:26Z</time>
      </trkpt>
      <trkpt lat="43.7312" lon="3.55312">
        <ele>77.199997</ele>
        <time>2013-05-25T11:12:27Z</time>
      </trkpt>
      <trkpt lat="43.73112" lon="3.5531">
        <ele>76.800003</ele>
        <time>2013-05-25T11:12:28Z</time>
      </trkpt>
      <trkpt lat="43.73104" lon="3.55307">
        <ele>76.400002</ele>
        <time>2013-05-25T11:12:29Z</time>
      </trkpt>
      <trkpt lat="43.73096" lon="3.55303">
        <ele>76.199997</ele>
        <time>2013-05-25T11:12:30Z</time>
      </trkpt>
      <trkpt lat="43.73089" lon="3.553">
        <ele>76</ele>
        <time>2013-05-25T11:12:31Z</time>
      </trkpt>
      <trkpt lat="43.73081" lon="3.55296">
        <ele>75.599998</ele>
        <time>2013-05-25T11:12:32Z</time>
      </trkpt>
      <trkpt lat="43.73074" lon="3.55293">
        <ele>75.400002</ele>
        <time>2013-05-25T11:12:33Z</time>
      </trkpt>
      <trkpt lat="43.73066" lon="3.55289">
        <ele>75.199997</ele>
        <time>2013-05-25T11:12:34Z</time>
      </trkpt>
      <trkpt lat="43.73059" lon="3.55285">
        <ele>75.300003</ele>
        <time>2013-05-25T11:12:35Z</time>
      </trkpt>
      <trkpt lat="43.73052" lon="3.55281">
        <ele>75.400002</ele>
        <time>2013-05-25T11:12:36Z</time>
      </trkpt>
      <trkpt lat="43.73045" lon="3.55278">
        <ele>75.5</ele>
        <time>2013-05-25T11:12:37Z</time>
      </trkpt>
      <trkpt lat="43.73038" lon="3.55274">
        <ele>75.300003</ele>
        <time>2013-05-25T11:12:38Z</time>
      </trkpt>
      <trkpt lat="43.73031" lon="3.5527">
        <ele>75.199997</ele>
        <time>2013-05-25T11:12:39Z</time>
      </trkpt>
      <trkpt lat="43.73024" lon="3.55266">
        <ele>75.099998</ele>
        <time>2013-05-25T11:12:40Z</time>
      </trkpt>
      <trkpt lat="43.73017" lon="3.55262">
        <ele>75.300003</ele>
        <time>2013-05-25T11:12:41Z</time>
      </trkpt>
      <trkpt lat="43.73011" lon="3.55258">
        <ele>75.400002</ele>
        <time>2013-05-25T11:12:42Z</time>
      </trkpt>
      <trkpt lat="43.73004" lon="3.55254">
        <ele>75.5</ele>
        <time>2013-05-25T11:12:43Z</time>
      </trkpt>
      <trkpt lat="43.72997" lon="3.5525">
        <ele>75</ele>
        <time>2013-05-25T11:12:44Z</time>
      </trkpt>
      <trkpt lat="43.7299" lon="3.55246">
        <ele>74.699997</ele>
        <time>2013-05-25T11:12:45Z</time>
      </trkpt>
      <trkpt lat="43.72984" lon="3.55242">
        <ele>74.5</ele>
        <time>2013-05-25T11:12:46Z</time>
      </trkpt>
      <trkpt lat="43.72978" lon="3.55238">
        <ele>74.300003</ele>
        <time>2013-05-25T11:12:47Z</time>
      </trkpt>
      <trkpt lat="43.72972" lon="3.55233">
        <ele>74.800003</ele>
        <time>2013-05-25T11:12:48Z</time>
      </trkpt>
      <trkpt lat="43.72966" lon="3.55229">
        <ele>75.099998</ele>
        <time>2013-05-25T11:12:49Z</time>
      </trkpt>
      <trkpt lat="43.72961" lon="3.55224">
        <ele>75.300003</ele>
        <time>2013-05-25T11:12:50Z</time>
      </trkpt>
      <trkpt lat="43.72956" lon="3.5522">
        <ele>75.599998</ele>
        <time>2013-05-25T11:12:51Z</time>
      </trkpt>
      <trkpt lat="43.72951" lon="3.55215">
        <ele>75.699997</ele>
        <time>2013-05-25T11:12:52Z</time>
      </trkpt>
      <trkpt lat="43.72946" lon="3.55211">
        <ele>75.900002</ele>
        <time>2013-05-25T11:12:53Z</time>
      </trkpt>
      <trkpt lat="43.72941" lon="3.55207">
        <ele>76</ele>
        <time>2013-05-25T11:12:54Z</time>
      </trkpt>
      <trkpt lat="43.72937" lon="3.55203">
        <ele>76.099998</ele>
        <time>2013-05-25T11:12:55Z</time>
      </trkpt>
      <trkpt lat="43.72933" lon="3.55199">
        <ele>76.199997</ele>
        <time>2013-05-25T11:12:56Z</time>
      </trkpt>
      <trkpt lat="43.72928" lon="3.55195">
        <ele>76</ele>
        <time>2013-05-25T11:12:57Z</time>
      </trkpt>
      <trkpt lat="43.72924" lon="3.55191">
        <ele>75.900002</ele>
        <time>2013-05-25T11:12:58Z</time>
      </trkpt>
      <trkpt lat="43.72919" lon="3.55187">
        <ele>75.800003</ele>
        <time>2013-05-25T11:12:59Z</time>
      </trkpt>
      <trkpt lat="43.72915" lon="3.55183">
        <ele>75.5</ele>
        <time>2013-05-25T11:13:00Z</time>
      </trkpt>
      <trkpt lat="43.7291" lon="3.55178">
        <ele>75.199997</ele>
        <time>2013-05-25T11:13:01Z</time>
      </trkpt>
      <trkpt lat="43.72905" lon="3.55174">
        <ele>75.099998</ele>
        <time>2013-05-25T11:13:02Z</time>
      </trkpt>
      <trkpt lat="43.729" lon="3.5517">
        <ele>74.900002</ele>
        <time>2013-05-25T11:13:03Z</time>
      </trkpt>
      <trkpt lat="43.72895" lon="3.55165">
        <ele>75.099998</ele>
        <time>2013-05-25T11:13:04Z</time>
      </trkpt>
      <trkpt lat="43.7289" lon="3.5516">
        <ele>75.199997</ele>
        <time>2013-05-25T11:13:05Z</time>
      </trkpt>
      <trkpt lat="43.72886" lon="3.55155">
        <ele>75.300003</ele>
        <time>2013-05-25T11:13:06Z</time>
      </trkpt>
      <trkpt lat="43.72881" lon="3.5515">
        <ele>75.199997</ele>
        <time>2013-05-25T11:13:07Z</time>
      </trkpt>
      <trkpt lat="43.72876" lon="3.55145">
        <ele>75.199997</ele>
        <time>2013-05-25T11:13:08Z</time>
      </trkpt>
      <trkpt lat="43.72871" lon="3.5514">
        <ele>75.199997</ele>
        <time>2013-05-25T11:13:09Z</time>
      </trkpt>
      <trkpt lat="43.72866" lon="3.55135">
        <ele>75.699997</ele>
        <time>2013-05-25T11:13:10Z</time>
      </trkpt>
      <trkpt lat="43.7286" lon="3.55129">
        <ele>76</ele>
        <time>2013-05-25T11:13:11Z</time>
      </trkpt>
      <trkpt lat="43.72855" lon="3.55124">
        <ele>76.300003</ele>
        <time>2013-05-25T11:13:12Z</time>
      </trkpt>
      <trkpt lat="43.72849" lon="3.55119">
        <ele>75.900002</ele>
        <time>2013-05-25T11:13:13Z</time>
      </trkpt>
      <trkpt lat="43.72844" lon="3.55114">
        <ele>75.599998</ele>
        <time>2013-05-25T11:13:14Z</time>
      </trkpt>
      <trkpt lat="43.72838" lon="3.55109">
        <ele>75.400002</ele>
        <time>2013-05-25T11:13:15Z</time>
      </trkpt>
      <trkpt lat="43.72832" lon="3.55104">
        <ele>75.5</ele>
        <time>2013-05-25T11:13:16Z</time>
      </trkpt>
      <trkpt lat="43.72826" lon="3.55099">
        <ele>75.5</ele>
        <time>2013-05-25T11:13:17Z</time>
      </trkpt>
      <trkpt lat="43.72819" lon="3.55095">
        <ele>75.599998</ele>
        <time>2013-05-25T11:13:18Z</time>
      </trkpt>
      <trkpt lat="43.72813" lon="3.5509">
        <ele>75.599998</ele>
        <time>2013-05-25T11:13:19Z</time>
      </trkpt>
      <trkpt lat="43.72807" lon="3.55086">
        <ele>75.400002</ele>
        <time>2013-05-25T11:13:20Z</time>
      </trkpt>
      <trkpt lat="43.72801" lon="3.55082">
        <ele>75.199997</ele>
        <time>2013-05-25T11:13:21Z</time>
      </trkpt>
      <trkpt lat="43.72795" lon="3.55077">
        <ele>75.099998</ele>
        <time>2013-05-25T11:13:22Z</time>
      </trkpt>
      <trkpt lat="43.7279" lon="3.55073">
        <ele>74.900002</ele>
        <time>2013-05-25T11:13:23Z</time>
      </trkpt>
      <trkpt lat="43.72784" lon="3.55069">
        <ele>74.699997</ele>
        <time>2013-05-25T11:13:24Z</time>
      </trkpt>
      <trkpt lat="43.72778" lon="3.55065">
        <ele>74.599998</ele>
        <time>2013-05-25T11:13:25Z</time>
      </trkpt>
      <trkpt lat="43.72773" lon="3.55061">
        <ele>74.5</ele>
        <time>2013-05-25T11:13:26Z</time>
      </trkpt>
      <trkpt lat="43.72767" lon="3.55057">
        <ele>74.400002</ele>
        <time>2013-05-25T11:13:27Z</time>
      </trkpt>
      <trkpt lat="43.72762" lon="3.55052">
        <ele>74.400002</ele>
        <time>2013-05-25T11:13:28Z</time>
      </trkpt>
      <trkpt lat="43.72757" lon="3.55048">
        <ele>74.5</ele>
        <time>2013-05-25T11:13:29Z</time>
      </trkpt>
      <trkpt lat="43.72752" lon="3.55043">
        <ele>74.599998</ele>
        <time>2013-05-25T11:13:30Z</time>
      </trkpt>
      <trkpt lat="43.72746" lon="3.55039">
        <ele>74.699997</ele>
        <time>2013-05-25T11:13:31Z</time>
      </trkpt>
      <trkpt lat="43.72741" lon="3.55034">
        <ele>74.5</ele>
        <time>2013-05-25T11:13:32Z</time>
      </trkpt>
      <trkpt lat="43.72736" lon="3.55031">
        <ele>74.400002</ele>
        <time>2013-05-25T11:13:33Z</time>
      </trkpt>
      <trkpt lat="43.7273" lon="3.55028">
        <ele>74.300003</ele>
        <time>2013-05-25T11:13:34Z</time>
      </trkpt>
      <trkpt lat="43.72724" lon="3.55025">
        <ele>74.199997</ele>
        <time>2013-05-25T11:13:35Z</time>
      </trkpt>
      <trkpt lat="43.72718" lon="3.55022">
        <ele>74.800003</ele>
        <time>2013-05-25T11:13:36Z</time>
      </trkpt>
      <trkpt lat="43.72711" lon="3.5502">
        <ele>75.199997</ele>
        <time>2013-05-25T11:13:37Z</time>
      </trkpt>
      <trkpt lat="43.72705" lon="3.55018">
        <ele>75.5</ele>
        <time>2013-05-25T11:13:38Z</time>
      </trkpt>
      <trkpt lat="43.72698" lon="3.55015">
        <ele>75.5</ele>
        <time>2013-05-25T11:13:39Z</time>
      </trkpt>
      <trkpt lat="43.72691" lon="3.55013">
        <ele>75.599998</ele>
        <time>2013-05-25T11:13:40Z</time>
      </trkpt>
      <trkpt lat="43.72683" lon="3.55011">
        <ele>75.599998</ele>
        <time>2013-05-25T11:13:41Z</time>
      </trkpt>
      <trkpt lat="43.72676" lon="3.55009">
        <ele>75.599998</ele>
        <time>2013-05-25T11:13:42Z</time>
      </trkpt>
      <trkpt lat="43.72669" lon="3.55007">
        <ele>75.5</ele>
        <time>2013-05-25T11:13:43Z</time>
      </trkpt>
      <trkpt lat="43.72661" lon="3.55006">
        <ele>75.5</ele>
        <time>2013-05-25T11:13:44Z</time>
      </trkpt>
      <trkpt lat="43.72654" lon="3.55005">
        <ele>75.5</ele>
        <time>2013-05-25T11:13:45Z</time>
      </trkpt>
      <trkpt lat="43.72646" lon="3.55003">
        <ele>75.400002</ele>
        <time>2013-05-25T11:13:46Z</time>
      </trkpt>
      <trkpt lat="43.72639" lon="3.55003">
        <ele>75.400002</ele>
        <time>2013-05-25T11:13:47Z</time>
      </trkpt>
      <trkpt lat="43.72631" lon="3.55003">
        <ele>75.199997</ele>
        <time>2013-05-25T11:13:48Z</time>
      </trkpt>
      <trkpt lat="43.72623" lon="3.55003">
        <ele>75.099998</ele>
        <time>2013-05-25T11:13:49Z</time>
      </trkpt>
      <trkpt lat="43.72615" lon="3.55003">
        <ele>75</ele>
        <time>2013-05-25T11:13:50Z</time>
      </trkpt>
      <trkpt lat="43.72608" lon="3.55004">
        <ele>74.699997</ele>
        <time>2013-05-25T11:13:51Z</time>
      </trkpt>
      <trkpt lat="43.726" lon="3.55004">
        <ele>74.599998</ele>
        <time>2013-05-25T11:13:52Z</time>
      </trkpt>
      <trkpt lat="43.72592" lon="3.55004">
        <ele>74.5</ele>
        <time>2013-05-25T11:13:53Z</time>
      </trkpt>
      <trkpt lat="43.72584" lon="3.55005">
        <ele>74.400002</ele>
        <time>2013-05-25T11:13:54Z</time>
      </trkpt>
      <trkpt lat="43.72577" lon="3.55006">
        <ele>74</ele>
        <time>2013-05-25T11:13:55Z</time>
      </trkpt>
      <trkpt lat="43.72569" lon="3.55007">
        <ele>73.599998</ele>
        <time>2013-05-25T11:13:56Z</time>
      </trkpt>
      <trkpt lat="43.72561" lon="3.55008">
        <ele>73.400002</ele>
        <time>2013-05-25T11:13:57Z</time>
      </trkpt>
      <trkpt lat="43.72553" lon="3.5501">
        <ele>73.300003</ele>
        <time>2013-05-25T11:13:58Z</time>
      </trkpt>
      <trkpt lat="43.72546" lon="3.55012">
        <ele>73.199997</ele>
        <time>2013-05-25T11:13:59Z</time>
      </trkpt>
      <trkpt lat="43.72538" lon="3.55014">
        <ele>73.099998</ele>
        <time>2013-05-25T11:14:00Z</time>
      </trkpt>
      <trkpt lat="43.7253" lon="3.55016">
        <ele>73</ele>
        <time>2013-05-25T11:14:01Z</time>
      </trkpt>
      <trkpt lat="43.72522" lon="3.55018">
        <ele>72.800003</ele>
        <time>2013-05-25T11:14:02Z</time>
      </trkpt>
      <trkpt lat="43.72515" lon="3.5502">
        <ele>72.699997</ele>
        <time>2013-05-25T11:14:03Z</time>
      </trkpt>
      <trkpt lat="43.72507" lon="3.55022">
        <ele>72.099998</ele>
        <time>2013-05-25T11:14:04Z</time>
      </trkpt>
      <trkpt lat="43.72499" lon="3.55025">
        <ele>71.599998</ele>
        <time>2013-05-25T11:14:05Z</time>
      </trkpt>
      <trkpt lat="43.72491" lon="3.55027">
        <ele>71.300003</ele>
        <time>2013-05-25T11:14:06Z</time>
      </trkpt>
      <trkpt lat="43.72484" lon="3.5503">
        <ele>71.300003</ele>
        <time>2013-05-25T11:14:07Z</time>
      </trkpt>
      <trkpt lat="43.72476" lon="3.55033">
        <ele>71.300003</ele>
        <time>2013-05-25T11:14:08Z</time>
      </trkpt>
      <trkpt lat="43.72469" lon="3.55036">
        <ele>71.300003</ele>
        <time>2013-05-25T11:14:09Z</time>
      </trkpt>
      <trkpt lat="43.72462" lon="3.55038">
        <ele>71.300003</ele>
        <time>2013-05-25T11:14:10Z</time>
      </trkpt>
      <trkpt lat="43.72455" lon="3.55041">
        <ele>71.099998</ele>
        <time>2013-05-25T11:14:11Z</time>
      </trkpt>
      <trkpt lat="43.72448" lon="3.55045">
        <ele>71</ele>
        <time>2013-05-25T11:14:12Z</time>
      </trkpt>
      <trkpt lat="43.72442" lon="3.55048">
        <ele>70.900002</ele>
        <time>2013-05-25T11:14:13Z</time>
      </trkpt>
      <trkpt lat="43.72435" lon="3.55052">
        <ele>71</ele>
        <time>2013-05-25T11:14:14Z</time>
      </trkpt>
      <trkpt lat="43.72429" lon="3.55057">
        <ele>71.099998</ele>
        <time>2013-05-25T11:14:15Z</time>
      </trkpt>
      <trkpt lat="43.72424" lon="3.55063">
        <ele>71.199997</ele>
        <time>2013-05-25T11:14:16Z</time>
      </trkpt>
      <trkpt lat="43.72418" lon="3.55069">
        <ele>71</ele>
        <time>2013-05-25T11:14:17Z</time>
      </trkpt>
      <trkpt lat="43.72413" lon="3.55076">
        <ele>70.900002</ele>
        <time>2013-05-25T11:14:18Z</time>
      </trkpt>
      <trkpt lat="43.72408" lon="3.55083">
        <ele>70.800003</ele>
        <time>2013-05-25T11:14:19Z</time>
      </trkpt>
      <trkpt lat="43.72403" lon="3.55091">
        <ele>70.400002</ele>
        <time>2013-05-25T11:14:20Z</time>
      </trkpt>
      <trkpt lat="43.72398" lon="3.55098">
        <ele>70</ele>
        <time>2013-05-25T11:14:21Z</time>
      </trkpt>
      <trkpt lat="43.72394" lon="3.55106">
        <ele>69.800003</ele>
        <time>2013-05-25T11:14:22Z</time>
      </trkpt>
      <trkpt lat="43.72389" lon="3.55115">
        <ele>69.699997</ele>
        <time>2013-05-25T11:14:23Z</time>
      </trkpt>
      <trkpt lat="43.72385" lon="3.55122">
        <ele>69.699997</ele>
        <time>2013-05-25T11:14:24Z</time>
      </trkpt>
      <trkpt lat="43.72381" lon="3.55131">
        <ele>69.699997</ele>
        <time>2013-05-25T11:14:25Z</time>
      </trkpt>
      <trkpt lat="43.72377" lon="3.55139">
        <ele>69.699997</ele>
        <time>2013-05-25T11:14:26Z</time>
      </trkpt>
      <trkpt lat="43.72373" lon="3.55148">
        <ele>69.900002</ele>
        <time>2013-05-25T11:14:27Z</time>
      </trkpt>
      <trkpt lat="43.72369" lon="3.55156">
        <ele>70.099998</ele>
        <time>2013-05-25T11:14:28Z</time>
      </trkpt>
      <trkpt lat="43.72366" lon="3.55165">
        <ele>70.300003</ele>
        <time>2013-05-25T11:14:29Z</time>
      </trkpt>
      <trkpt lat="43.72362" lon="3.55174">
        <ele>70.199997</ele>
        <time>2013-05-25T11:14:30Z</time>
      </trkpt>
      <trkpt lat="43.72358" lon="3.55182">
        <ele>70.199997</ele>
        <time>2013-05-25T11:14:31Z</time>
      </trkpt>
      <trkpt lat="43.72353" lon="3.5519">
        <ele>70.199997</ele>
        <time>2013-05-25T11:14:32Z</time>
      </trkpt>
      <trkpt lat="43.72348" lon="3.55198">
        <ele>70.400002</ele>
        <time>2013-05-25T11:14:33Z</time>
      </trkpt>
      <trkpt lat="43.72343" lon="3.55205">
        <ele>70.599998</ele>
        <time>2013-05-25T11:14:34Z</time>
      </trkpt>
      <trkpt lat="43.72338" lon="3.55213">
        <ele>70.699997</ele>
        <time>2013-05-25T11:14:35Z</time>
      </trkpt>
      <trkpt lat="43.72333" lon="3.5522">
        <ele>70.5</ele>
        <time>2013-05-25T11:14:36Z</time>
      </trkpt>
      <trkpt lat="43.72328" lon="3.55227">
        <ele>70.400002</ele>
        <time>2013-05-25T11:14:37Z</time>
      </trkpt>
      <trkpt lat="43.72323" lon="3.55234">
        <ele>70.300003</ele>
        <time>2013-05-25T11:14:38Z</time>
      </trkpt>
      <trkpt lat="43.72317" lon="3.55241">
        <ele>70.300003</ele>
        <time>2013-05-25T11:14:39Z</time>
      </trkpt>
      <trkpt lat="43.72312" lon="3.55248">
        <ele>70.300003</ele>
        <time>2013-05-25T11:14:40Z</time>
      </trkpt>
      <trkpt lat="43.72306" lon="3.55254">
        <ele>70.199997</ele>
        <time>2013-05-25T11:14:41Z</time>
      </trkpt>
      <trkpt lat="43.72301" lon="3.5526">
        <ele>70.400002</ele>
        <time>2013-05-25T11:14:42Z</time>
      </trkpt>
      <trkpt lat="43.72295" lon="3.55265">
        <ele>70.5</ele>
        <time>2013-05-25T11:14:43Z</time>
      </trkpt>
      <trkpt lat="43.72289" lon="3.55271">
        <ele>70.599998</ele>
        <time>2013-05-25T11:14:44Z</time>
      </trkpt>
      <trkpt lat="43.72282" lon="3.55275">
        <ele>70.699997</ele>
        <time>2013-05-25T11:14:45Z</time>
      </trkpt>
      <trkpt lat="43.72276" lon="3.55279">
        <ele>71</ele>
        <time>2013-05-25T11:14:46Z</time>
      </trkpt>
      <trkpt lat="43.72269" lon="3.55282">
        <ele>71.199997</ele>
        <time>2013-05-25T11:14:47Z</time>
      </trkpt>
      <trkpt lat="43.72263" lon="3.55285">
        <ele>71.300003</ele>
        <time>2013-05-25T11:14:48Z</time>
      </trkpt>
      <trkpt lat="43.72257" lon="3.55287">
        <ele>71.699997</ele>
        <time>2013-05-25T11:14:49Z</time>
      </trkpt>
      <trkpt lat="43.7225" lon="3.5529">
        <ele>72</ele>
        <time>2013-05-25T11:14:50Z</time>
      </trkpt>
      <trkpt lat="43.72243" lon="3.55291">
        <ele>72.199997</ele>
        <time>2013-05-25T11:14:51Z</time>
      </trkpt>
      <trkpt lat="43.72237" lon="3.55293">
        <ele>72.099998</ele>
        <time>2013-05-25T11:14:52Z</time>
      </trkpt>
      <trkpt lat="43.7223" lon="3.55294">
        <ele>72.099998</ele>
        <time>2013-05-25T11:14:53Z</time>
      </trkpt>
      <trkpt lat="43.72224" lon="3.55294">
        <ele>72.099998</ele>
        <time>2013-05-25T11:14:54Z</time>
      </trkpt>
      <trkpt lat="43.72218" lon="3.55294">
        <ele>72.5</ele>
        <time>2013-05-25T11:14:55Z</time>
      </trkpt>
      <trkpt lat="43.72212" lon="3.55294">
        <ele>72.800003</ele>
        <time>2013-05-25T11:14:56Z</time>
      </trkpt>
      <trkpt lat="43.72206" lon="3.55295">
        <ele>73.099998</ele>
        <time>2013-05-25T11:14:57Z</time>
      </trkpt>
      <trkpt lat="43.72201" lon="3.55296">
        <ele>73</ele>
        <time>2013-05-25T11:14:58Z</time>
      </trkpt>
      <trkpt lat="43.72195" lon="3.55297">
        <ele>73</ele>
        <time>2013-05-25T11:14:59Z</time>
      </trkpt>
      <trkpt lat="43.7219" lon="3.55299">
        <ele>73</ele>
        <time>2013-05-25T11:15:00Z</time>
      </trkpt>
      <trkpt lat="43.72185" lon="3.55301">
        <ele>73</ele>
        <time>2013-05-25T11:15:01Z</time>
      </trkpt>
      <trkpt lat="43.7218" lon="3.55303">
        <ele>73.300003</ele>
        <time>2013-05-25T11:15:02Z</time>
      </trkpt>
      <trkpt lat="43.72175" lon="3.55305">
        <ele>73.5</ele>
        <time>2013-05-25T11:15:03Z</time>
      </trkpt>
      <trkpt lat="43.7217" lon="3.55307">
        <ele>73.699997</ele>
        <time>2013-05-25T11:15:04Z</time>
      </trkpt>
      <trkpt lat="43.72165" lon="3.55309">
        <ele>73.699997</ele>
        <time>2013-05-25T11:15:05Z</time>
      </trkpt>
      <trkpt lat="43.72161" lon="3.55312">
        <ele>73.699997</ele>
        <time>2013-05-25T11:15:06Z</time>
      </trkpt>
      <trkpt lat="43.72156" lon="3.55314">
        <ele>73.699997</ele>
        <time>2013-05-25T11:15:07Z</time>
      </trkpt>
      <trkpt lat="43.72151" lon="3.55316">
        <ele>74.199997</ele>
        <time>2013-05-25T11:15:08Z</time>
      </trkpt>
      <trkpt lat="43.72147" lon="3.55318">
        <ele>74.599998</ele>
        <time>2013-05-25T11:15:09Z</time>
      </trkpt>
      <trkpt lat="43.72142" lon="3.5532">
        <ele>74.900002</ele>
        <time>2013-05-25T11:15:10Z</time>
      </trkpt>
      <trkpt lat="43.72137" lon="3.55322">
        <ele>74.900002</ele>
        <time>2013-05-25T11:15:11Z</time>
      </trkpt>
      <trkpt lat="43.72133" lon="3.55324">
        <ele>75</ele>
        <time>2013-05-25T11:15:12Z</time>
      </trkpt>
      <trkpt lat="43.72128" lon="3.55327">
        <ele>75</ele>
        <time>2013-05-25T11:15:13Z</time>
      </trkpt>
      <trkpt lat="43.72124" lon="3.55329">
        <ele>75</ele>
        <time>2013-05-25T11:15:14Z</time>
      </trkpt>
      <trkpt lat="43.72119" lon="3.55331">
        <ele>75</ele>
        <time>2013-05-25T11:15:15Z</time>
      </trkpt>
      <trkpt lat="43.72114" lon="3.55333">
        <ele>75</ele>
        <time>2013-05-25T11:15:16Z</time>
      </trkpt>
      <trkpt lat="43.72109" lon="3.55336">
        <ele>75</ele>
        <time>2013-05-25T11:15:17Z</time>
      </trkpt>
      <trkpt lat="43.72103" lon="3.55338">
        <ele>74.699997</ele>
        <time>2013-05-25T11:15:18Z</time>
      </trkpt>
      <trkpt lat="43.72097" lon="3.5534">
        <ele>74.599998</ele>
        <time>2013-05-25T11:15:19Z</time>
      </trkpt>
      <trkpt lat="43.72091" lon="3.55343">
        <ele>74.400002</ele>
        <time>2013-05-25T11:15:20Z</time>
      </trkpt>
      <trkpt lat="43.72084" lon="3.55346">
        <ele>74.400002</ele>
        <time>2013-05-25T11:15:21Z</time>
      </trkpt>
      <trkpt lat="43.72077" lon="3.55348">
        <ele>74.300003</ele>
        <time>2013-05-25T11:15:22Z</time>
      </trkpt>
      <trkpt lat="43.7207" lon="3.5535">
        <ele>74.300003</ele>
        <time>2013-05-25T11:15:23Z</time>
      </trkpt>
      <trkpt lat="43.72062" lon="3.55351">
        <ele>74</ele>
        <time>2013-05-25T11:15:24Z</time>
      </trkpt>
      <trkpt lat="43.72054" lon="3.55352">
        <ele>73.699997</ele>
        <time>2013-05-25T11:15:25Z</time>
      </trkpt>
      <trkpt lat="43.72021" lon="3.55354">
        <ele>73</ele>
        <time>2013-05-25T11:15:29Z</time>
      </trkpt>
      <trkpt lat="43.72013" lon="3.55353">
        <ele>72.699997</ele>
        <time>2013-05-25T11:15:30Z</time>
      </trkpt>
      <trkpt lat="43.72005" lon="3.55352">
        <ele>72.5</ele>
        <time>2013-05-25T11:15:31Z</time>
      </trkpt>
      <trkpt lat="43.71997" lon="3.55351">
        <ele>72.300003</ele>
        <time>2013-05-25T11:15:32Z</time>
      </trkpt>
      <trkpt lat="43.71989" lon="3.55351">
        <ele>72.199997</ele>
        <time>2013-05-25T11:15:33Z</time>
      </trkpt>
      <trkpt lat="43.71981" lon="3.5535">
        <ele>71.5</ele>
        <time>2013-05-25T11:15:34Z</time>
      </trkpt>
      <trkpt lat="43.71973" lon="3.5535">
        <ele>71</ele>
        <time>2013-05-25T11:15:35Z</time>
      </trkpt>
      <trkpt lat="43.71966" lon="3.55349">
        <ele>70.599998</ele>
        <time>2013-05-25T11:15:36Z</time>
      </trkpt>
      <trkpt lat="43.71958" lon="3.55349">
        <ele>70.900002</ele>
        <time>2013-05-25T11:15:37Z</time>
      </trkpt>
      <trkpt lat="43.71951" lon="3.55348">
        <ele>71.099998</ele>
        <time>2013-05-25T11:15:38Z</time>
      </trkpt>
      <trkpt lat="43.71943" lon="3.55347">
        <ele>71.199997</ele>
        <time>2013-05-25T11:15:39Z</time>
      </trkpt>
      <trkpt lat="43.71936" lon="3.55347">
        <ele>71.099998</ele>
        <time>2013-05-25T11:15:40Z</time>
      </trkpt>
      <trkpt lat="43.71929" lon="3.55346">
        <ele>71</ele>
        <time>2013-05-25T11:15:41Z</time>
      </trkpt>
      <trkpt lat="43.71922" lon="3.55345">
        <ele>71</ele>
        <time>2013-05-25T11:15:42Z</time>
      </trkpt>
      <trkpt lat="43.71914" lon="3.55344">
        <ele>70.699997</ele>
        <time>2013-05-25T11:15:43Z</time>
      </trkpt>
      <trkpt lat="43.71907" lon="3.55344">
        <ele>70.5</ele>
        <time>2013-05-25T11:15:44Z</time>
      </trkpt>
      <trkpt lat="43.719" lon="3.55344">
        <ele>70.400002</ele>
        <time>2013-05-25T11:15:45Z</time>
      </trkpt>
      <trkpt lat="43.71893" lon="3.55344">
        <ele>70.599998</ele>
        <time>2013-05-25T11:15:46Z</time>
      </trkpt>
      <trkpt lat="43.71887" lon="3.55343">
        <ele>70.800003</ele>
        <time>2013-05-25T11:15:47Z</time>
      </trkpt>
      <trkpt lat="43.7188" lon="3.55343">
        <ele>71</ele>
        <time>2013-05-25T11:15:48Z</time>
      </trkpt>
      <trkpt lat="43.71874" lon="3.55342">
        <ele>71.099998</ele>
        <time>2013-05-25T11:15:49Z</time>
      </trkpt>
      <trkpt lat="43.71868" lon="3.55341">
        <ele>71.300003</ele>
        <time>2013-05-25T11:15:50Z</time>
      </trkpt>
      <trkpt lat="43.71862" lon="3.55341">
        <ele>71.5</ele>
        <time>2013-05-25T11:15:51Z</time>
      </trkpt>
      <trkpt lat="43.71856" lon="3.5534">
        <ele>71.599998</ele>
        <time>2013-05-25T11:15:52Z</time>
      </trkpt>
      <trkpt lat="43.71851" lon="3.55339">
        <ele>71.400002</ele>
        <time>2013-05-25T11:15:53Z</time>
      </trkpt>
      <trkpt lat="43.71845" lon="3.55338">
        <ele>71.199997</ele>
        <time>2013-05-25T11:15:54Z</time>
      </trkpt>
      <trkpt lat="43.71839" lon="3.55337">
        <ele>71.099998</ele>
        <time>2013-05-25T11:15:55Z</time>
      </trkpt>
      <trkpt lat="43.71834" lon="3.55335">
        <ele>71.199997</ele>
        <time>2013-05-25T11:15:56Z</time>
      </trkpt>
      <trkpt lat="43.71828" lon="3.55334">
        <ele>71.199997</ele>
        <time>2013-05-25T11:15:57Z</time>
      </trkpt>
      <trkpt lat="43.71822" lon="3.55332">
        <ele>71.300003</ele>
        <time>2013-05-25T11:15:58Z</time>
      </trkpt>
      <trkpt lat="43.71817" lon="3.5533">
        <ele>71.199997</ele>
        <time>2013-05-25T11:15:59Z</time>
      </trkpt>
      <trkpt lat="43.71812" lon="3.55328">
        <ele>71.199997</ele>
        <time>2013-05-25T11:16:00Z</time>
      </trkpt>
      <trkpt lat="43.71806" lon="3.55326">
        <ele>71.199997</ele>
        <time>2013-05-25T11:16:01Z</time>
      </trkpt>
      <trkpt lat="43.71801" lon="3.55324">
        <ele>71.5</ele>
        <time>2013-05-25T11:16:02Z</time>
      </trkpt>
      <trkpt lat="43.71795" lon="3.55322">
        <ele>71.800003</ele>
        <time>2013-05-25T11:16:03Z</time>
      </trkpt>
      <trkpt lat="43.7179" lon="3.55319">
        <ele>72</ele>
        <time>2013-05-25T11:16:04Z</time>
      </trkpt>
      <trkpt lat="43.71785" lon="3.55317">
        <ele>72.099998</ele>
        <time>2013-05-25T11:16:05Z</time>
      </trkpt>
      <trkpt lat="43.7178" lon="3.55315">
        <ele>71.900002</ele>
        <time>2013-05-25T11:16:06Z</time>
      </trkpt>
      <trkpt lat="43.71774" lon="3.55313">
        <ele>71.699997</ele>
        <time>2013-05-25T11:16:07Z</time>
      </trkpt>
      <trkpt lat="43.71769" lon="3.55311">
        <ele>71.5</ele>
        <time>2013-05-25T11:16:08Z</time>
      </trkpt>
      <trkpt lat="43.71764" lon="3.55309">
        <ele>71.300003</ele>
        <time>2013-05-25T11:16:09Z</time>
      </trkpt>
      <trkpt lat="43.71759" lon="3.55307">
        <ele>71.199997</ele>
        <time>2013-05-25T11:16:10Z</time>
      </trkpt>
      <trkpt lat="43.71754" lon="3.55305">
        <ele>71.099998</ele>
        <time>2013-05-25T11:16:11Z</time>
      </trkpt>
      <trkpt lat="43.7175" lon="3.55302">
        <ele>71.300003</ele>
        <time>2013-05-25T11:16:12Z</time>
      </trkpt>
      <trkpt lat="43.71745" lon="3.55299">
        <ele>71.5</ele>
        <time>2013-05-25T11:16:13Z</time>
      </trkpt>
      <trkpt lat="43.71737" lon="3.55293">
        <ele>72</ele>
        <time>2013-05-25T11:16:15Z</time>
      </trkpt>
      <trkpt lat="43.7173" lon="3.55287">
        <ele>72.599998</ele>
        <time>2013-05-25T11:16:17Z</time>
      </trkpt>
      <trkpt lat="43.71722" lon="3.55281">
        <ele>73.300003</ele>
        <time>2013-05-25T11:16:19Z</time>
      </trkpt>
      <trkpt lat="43.71715" lon="3.55275">
        <ele>73.800003</ele>
        <time>2013-05-25T11:16:21Z</time>
      </trkpt>
      <trkpt lat="43.7171" lon="3.55272">
        <ele>74</ele>
        <time>2013-05-25T11:16:22Z</time>
      </trkpt>
      <trkpt lat="43.71706" lon="3.5527">
        <ele>74.099998</ele>
        <time>2013-05-25T11:16:23Z</time>
      </trkpt>
      <trkpt lat="43.71702" lon="3.55267">
        <ele>74.199997</ele>
        <time>2013-05-25T11:16:24Z</time>
      </trkpt>
      <trkpt lat="43.71697" lon="3.55264">
        <ele>74.099998</ele>
        <time>2013-05-25T11:16:25Z</time>
      </trkpt>
      <trkpt lat="43.71693" lon="3.55261">
        <ele>74</ele>
        <time>2013-05-25T11:16:26Z</time>
      </trkpt>
      <trkpt lat="43.71688" lon="3.55259">
        <ele>73.900002</ele>
        <time>2013-05-25T11:16:27Z</time>
      </trkpt>
      <trkpt lat="43.71683" lon="3.55257">
        <ele>74.300003</ele>
        <time>2013-05-25T11:16:28Z</time>
      </trkpt>
      <trkpt lat="43.71678" lon="3.55255">
        <ele>74.599998</ele>
        <time>2013-05-25T11:16:29Z</time>
      </trkpt>
      <trkpt lat="43.71673" lon="3.55253">
        <ele>74.800003</ele>
        <time>2013-05-25T11:16:30Z</time>
      </trkpt>
      <trkpt lat="43.71669" lon="3.55252">
        <ele>74.5</ele>
        <time>2013-05-25T11:16:31Z</time>
      </trkpt>
      <trkpt lat="43.71664" lon="3.5525">
        <ele>74.400002</ele>
        <time>2013-05-25T11:16:32Z</time>
      </trkpt>
      <trkpt lat="43.71659" lon="3.55249">
        <ele>74.199997</ele>
        <time>2013-05-25T11:16:33Z</time>
      </trkpt>
      <trkpt lat="43.71653" lon="3.55248">
        <ele>74.400002</ele>
        <time>2013-05-25T11:16:34Z</time>
      </trkpt>
      <trkpt lat="43.71648" lon="3.55247">
        <ele>74.5</ele>
        <time>2013-05-25T11:16:35Z</time>
      </trkpt>
      <trkpt lat="43.71642" lon="3.55246">
        <ele>74.5</ele>
        <time>2013-05-25T11:16:36Z</time>
      </trkpt>
      <trkpt lat="43.71636" lon="3.55245">
        <ele>74.599998</ele>
        <time>2013-05-25T11:16:37Z</time>
      </trkpt>
      <trkpt lat="43.7163" lon="3.55244">
        <ele>74.699997</ele>
        <time>2013-05-25T11:16:38Z</time>
      </trkpt>
      <trkpt lat="43.71623" lon="3.55244">
        <ele>74.800003</ele>
        <time>2013-05-25T11:16:39Z</time>
      </trkpt>
      <trkpt lat="43.71617" lon="3.55243">
        <ele>74.800003</ele>
        <time>2013-05-25T11:16:40Z</time>
      </trkpt>
      <trkpt lat="43.7161" lon="3.55243">
        <ele>74.199997</ele>
        <time>2013-05-25T11:16:41Z</time>
      </trkpt>
      <trkpt lat="43.71603" lon="3.55242">
        <ele>73.699997</ele>
        <time>2013-05-25T11:16:42Z</time>
      </trkpt>
      <trkpt lat="43.71596" lon="3.55242">
        <ele>73.400002</ele>
        <time>2013-05-25T11:16:43Z</time>
      </trkpt>
      <trkpt lat="43.71589" lon="3.55242">
        <ele>73</ele>
        <time>2013-05-25T11:16:44Z</time>
      </trkpt>
      <trkpt lat="43.71581" lon="3.55242">
        <ele>72.699997</ele>
        <time>2013-05-25T11:16:45Z</time>
      </trkpt>
      <trkpt lat="43.71574" lon="3.55242">
        <ele>72.5</ele>
        <time>2013-05-25T11:16:46Z</time>
      </trkpt>
      <trkpt lat="43.71567" lon="3.55242">
        <ele>72</ele>
        <time>2013-05-25T11:16:47Z</time>
      </trkpt>
      <trkpt lat="43.7156" lon="3.55242">
        <ele>71.599998</ele>
        <time>2013-05-25T11:16:48Z</time>
      </trkpt>
      <trkpt lat="43.71553" lon="3.55242">
        <ele>71.300003</ele>
        <time>2013-05-25T11:16:49Z</time>
      </trkpt>
      <trkpt lat="43.71546" lon="3.55242">
        <ele>71.5</ele>
        <time>2013-05-25T11:16:50Z</time>
      </trkpt>
      <trkpt lat="43.71539" lon="3.55242">
        <ele>71.699997</ele>
        <time>2013-05-25T11:16:51Z</time>
      </trkpt>
      <trkpt lat="43.71533" lon="3.55242">
        <ele>71.800003</ele>
        <time>2013-05-25T11:16:52Z</time>
      </trkpt>
      <trkpt lat="43.71526" lon="3.55242">
        <ele>72.199997</ele>
        <time>2013-05-25T11:16:53Z</time>
      </trkpt>
      <trkpt lat="43.71519" lon="3.55242">
        <ele>72.599998</ele>
        <time>2013-05-25T11:16:54Z</time>
      </trkpt>
      <trkpt lat="43.71513" lon="3.55241">
        <ele>72.800003</ele>
        <time>2013-05-25T11:16:55Z</time>
      </trkpt>
      <trkpt lat="43.71506" lon="3.55241">
        <ele>73</ele>
        <time>2013-05-25T11:16:56Z</time>
      </trkpt>
      <trkpt lat="43.71499" lon="3.55241">
        <ele>73.099998</ele>
        <time>2013-05-25T11:16:57Z</time>
      </trkpt>
      <trkpt lat="43.71493" lon="3.55241">
        <ele>73.099998</ele>
        <time>2013-05-25T11:16:58Z</time>
      </trkpt>
      <trkpt lat="43.71486" lon="3.55241">
        <ele>73.199997</ele>
        <time>2013-05-25T11:16:59Z</time>
      </trkpt>
      <trkpt lat="43.7148" lon="3.55241">
        <ele>73.599998</ele>
        <time>2013-05-25T11:17:00Z</time>
      </trkpt>
      <trkpt lat="43.71473" lon="3.55242">
        <ele>73.800003</ele>
        <time>2013-05-25T11:17:01Z</time>
      </trkpt>
      <trkpt lat="43.71466" lon="3.55243">
        <ele>74</ele>
        <time>2013-05-25T11:17:02Z</time>
      </trkpt>
      <trkpt lat="43.7146" lon="3.55244">
        <ele>73.199997</ele>
        <time>2013-05-25T11:17:03Z</time>
      </trkpt>
      <trkpt lat="43.71453" lon="3.55245">
        <ele>72.599998</ele>
        <time>2013-05-25T11:17:04Z</time>
      </trkpt>
      <trkpt lat="43.71446" lon="3.55246">
        <ele>72.099998</ele>
        <time>2013-05-25T11:17:05Z</time>
      </trkpt>
      <trkpt lat="43.71439" lon="3.55247">
        <ele>71.599998</ele>
        <time>2013-05-25T11:17:06Z</time>
      </trkpt>
      <trkpt lat="43.71432" lon="3.55249">
        <ele>71.099998</ele>
        <time>2013-05-25T11:17:07Z</time>
      </trkpt>
      <trkpt lat="43.71424" lon="3.5525">
        <ele>70.800003</ele>
        <time>2013-05-25T11:17:08Z</time>
      </trkpt>
      <trkpt lat="43.71417" lon="3.55251">
        <ele>70.699997</ele>
        <time>2013-05-25T11:17:09Z</time>
      </trkpt>
      <trkpt lat="43.7141" lon="3.55252">
        <ele>70.599998</ele>
        <time>2013-05-25T11:17:10Z</time>
      </trkpt>
      <trkpt lat="43.71403" lon="3.55253">
        <ele>70.599998</ele>
        <time>2013-05-25T11:17:11Z</time>
      </trkpt>
      <trkpt lat="43.71396" lon="3.55254">
        <ele>70.5</ele>
        <time>2013-05-25T11:17:12Z</time>
      </trkpt>
      <trkpt lat="43.71389" lon="3.55255">
        <ele>70.599998</ele>
        <time>2013-05-25T11:17:13Z</time>
      </trkpt>
      <trkpt lat="43.71382" lon="3.55256">
        <ele>70.599998</ele>
        <time>2013-05-25T11:17:14Z</time>
      </trkpt>
      <trkpt lat="43.71374" lon="3.55257">
        <ele>70.699997</ele>
        <time>2013-05-25T11:17:15Z</time>
      </trkpt>
      <trkpt lat="43.71367" lon="3.55259">
        <ele>70.300003</ele>
        <time>2013-05-25T11:17:16Z</time>
      </trkpt>
      <trkpt lat="43.7136" lon="3.5526">
        <ele>70</ele>
        <time>2013-05-25T11:17:17Z</time>
      </trkpt>
      <trkpt lat="43.71353" lon="3.55261">
        <ele>69.699997</ele>
        <time>2013-05-25T11:17:18Z</time>
      </trkpt>
      <trkpt lat="43.71345" lon="3.55261">
        <ele>69.599998</ele>
        <time>2013-05-25T11:17:19Z</time>
      </trkpt>
      <trkpt lat="43.71338" lon="3.55262">
        <ele>69.5</ele>
        <time>2013-05-25T11:17:20Z</time>
      </trkpt>
      <trkpt lat="43.71331" lon="3.55262">
        <ele>69.400002</ele>
        <time>2013-05-25T11:17:21Z</time>
      </trkpt>
      <trkpt lat="43.71323" lon="3.55261">
        <ele>70.099998</ele>
        <time>2013-05-25T11:17:22Z</time>
      </trkpt>
      <trkpt lat="43.71316" lon="3.55259">
        <ele>70.599998</ele>
        <time>2013-05-25T11:17:23Z</time>
      </trkpt>
      <trkpt lat="43.71309" lon="3.55256">
        <ele>70.900002</ele>
        <time>2013-05-25T11:17:24Z</time>
      </trkpt>
      <trkpt lat="43.71303" lon="3.55252">
        <ele>71.400002</ele>
        <time>2013-05-25T11:17:25Z</time>
      </trkpt>
      <trkpt lat="43.71296" lon="3.55249">
        <ele>71.800003</ele>
        <time>2013-05-25T11:17:26Z</time>
      </trkpt>
      <trkpt lat="43.7129" lon="3.55246">
        <ele>72</ele>
        <time>2013-05-25T11:17:27Z</time>
      </trkpt>
      <trkpt lat="43.71284" lon="3.55243">
        <ele>72.400002</ele>
        <time>2013-05-25T11:17:28Z</time>
      </trkpt>
      <trkpt lat="43.71278" lon="3.55241">
        <ele>72.599998</ele>
        <time>2013-05-25T11:17:29Z</time>
      </trkpt>
      <trkpt lat="43.71271" lon="3.55238">
        <ele>72.800003</ele>
        <time>2013-05-25T11:17:30Z</time>
      </trkpt>
      <trkpt lat="43.71265" lon="3.55237">
        <ele>73</ele>
        <time>2013-05-25T11:17:31Z</time>
      </trkpt>
      <trkpt lat="43.71258" lon="3.55236">
        <ele>72.900002</ele>
        <time>2013-05-25T11:17:32Z</time>
      </trkpt>
      <trkpt lat="43.71251" lon="3.55234">
        <ele>72.900002</ele>
        <time>2013-05-25T11:17:33Z</time>
      </trkpt>
      <trkpt lat="43.71244" lon="3.55234">
        <ele>72.800003</ele>
        <time>2013-05-25T11:17:34Z</time>
      </trkpt>
      <trkpt lat="43.71237" lon="3.55233">
        <ele>73.400002</ele>
        <time>2013-05-25T11:17:35Z</time>
      </trkpt>
      <trkpt lat="43.7123" lon="3.55233">
        <ele>73.800003</ele>
        <time>2013-05-25T11:17:36Z</time>
      </trkpt>
      <trkpt lat="43.71222" lon="3.55232">
        <ele>74.099998</ele>
        <time>2013-05-25T11:17:37Z</time>
      </trkpt>
      <trkpt lat="43.71215" lon="3.55232">
        <ele>74</ele>
        <time>2013-05-25T11:17:38Z</time>
      </trkpt>
      <trkpt lat="43.71207" lon="3.55232">
        <ele>74</ele>
        <time>2013-05-25T11:17:39Z</time>
      </trkpt>
      <trkpt lat="43.712" lon="3.55232">
        <ele>74</ele>
        <time>2013-05-25T11:17:40Z</time>
      </trkpt>
      <trkpt lat="43.71192" lon="3.55231">
        <ele>74.5</ele>
        <time>2013-05-25T11:17:41Z</time>
      </trkpt>
      <trkpt lat="43.71185" lon="3.55231">
        <ele>74.900002</ele>
        <time>2013-05-25T11:17:42Z</time>
      </trkpt>
      <trkpt lat="43.71177" lon="3.55231">
        <ele>75.199997</ele>
        <time>2013-05-25T11:17:43Z</time>
      </trkpt>
      <trkpt lat="43.7117" lon="3.55231">
        <ele>74.699997</ele>
        <time>2013-05-25T11:17:44Z</time>
      </trkpt>
      <trkpt lat="43.71162" lon="3.55231">
        <ele>74.300003</ele>
        <time>2013-05-25T11:17:45Z</time>
      </trkpt>
      <trkpt lat="43.71155" lon="3.55231">
        <ele>74</ele>
        <time>2013-05-25T11:17:46Z</time>
      </trkpt>
      <trkpt lat="43.71148" lon="3.55233">
        <ele>73.800003</ele>
        <time>2013-05-25T11:17:47Z</time>
      </trkpt>
      <trkpt lat="43.7114" lon="3.55235">
        <ele>73.599998</ele>
        <time>2013-05-25T11:17:48Z</time>
      </trkpt>
      <trkpt lat="43.71133" lon="3.55237">
        <ele>73.400002</ele>
        <time>2013-05-25T11:17:49Z</time>
      </trkpt>
      <trkpt lat="43.71126" lon="3.55241">
        <ele>73.199997</ele>
        <time>2013-05-25T11:17:50Z</time>
      </trkpt>
      <trkpt lat="43.71118" lon="3.55244">
        <ele>72.699997</ele>
        <time>2013-05-25T11:17:51Z</time>
      </trkpt>
      <trkpt lat="43.71111" lon="3.55248">
        <ele>72.400002</ele>
        <time>2013-05-25T11:17:52Z</time>
      </trkpt>
      <trkpt lat="43.71104" lon="3.55252">
        <ele>72.099998</ele>
        <time>2013-05-25T11:17:53Z</time>
      </trkpt>
      <trkpt lat="43.71097" lon="3.55255">
        <ele>71.699997</ele>
        <time>2013-05-25T11:17:54Z</time>
      </trkpt>
      <trkpt lat="43.7109" lon="3.55258">
        <ele>71.5</ele>
        <time>2013-05-25T11:17:55Z</time>
      </trkpt>
      <trkpt lat="43.71083" lon="3.55262">
        <ele>71.300003</ele>
        <time>2013-05-25T11:17:56Z</time>
      </trkpt>
      <trkpt lat="43.71077" lon="3.55265">
        <ele>71.300003</ele>
        <time>2013-05-25T11:17:57Z</time>
      </trkpt>
      <trkpt lat="43.7107" lon="3.55268">
        <ele>71.300003</ele>
        <time>2013-05-25T11:17:58Z</time>
      </trkpt>
      <trkpt lat="43.71064" lon="3.55271">
        <ele>71.300003</ele>
        <time>2013-05-25T11:17:59Z</time>
      </trkpt>
      <trkpt lat="43.71058" lon="3.55274">
        <ele>71.699997</ele>
        <time>2013-05-25T11:18:00Z</time>
      </trkpt>
      <trkpt lat="43.71051" lon="3.55277">
        <ele>71.900002</ele>
        <time>2013-05-25T11:18:01Z</time>
      </trkpt>
      <trkpt lat="43.71045" lon="3.55279">
        <ele>72.099998</ele>
        <time>2013-05-25T11:18:02Z</time>
      </trkpt>
      <trkpt lat="43.71039" lon="3.55282">
        <ele>72.300003</ele>
        <time>2013-05-25T11:18:03Z</time>
      </trkpt>
      <trkpt lat="43.71033" lon="3.55285">
        <ele>71.599998</ele>
        <time>2013-05-25T11:18:04Z</time>
      </trkpt>
      <trkpt lat="43.71027" lon="3.55288">
        <ele>71.099998</ele>
        <time>2013-05-25T11:18:05Z</time>
      </trkpt>
      <trkpt lat="43.71021" lon="3.55291">
        <ele>70.699997</ele>
        <time>2013-05-25T11:18:06Z</time>
      </trkpt>
      <trkpt lat="43.71015" lon="3.55294">
        <ele>70.699997</ele>
        <time>2013-05-25T11:18:07Z</time>
      </trkpt>
      <trkpt lat="43.71009" lon="3.55298">
        <ele>70.699997</ele>
        <time>2013-05-25T11:18:08Z</time>
      </trkpt>
      <trkpt lat="43.71003" lon="3.55302">
        <ele>70.699997</ele>
        <time>2013-05-25T11:18:09Z</time>
      </trkpt>
      <trkpt lat="43.70997" lon="3.55306">
        <ele>70.800003</ele>
        <time>2013-05-25T11:18:10Z</time>
      </trkpt>
      <trkpt lat="43.70991" lon="3.5531">
        <ele>70.900002</ele>
        <time>2013-05-25T11:18:11Z</time>
      </trkpt>
      <trkpt lat="43.70986" lon="3.55316">
        <ele>71</ele>
        <time>2013-05-25T11:18:12Z</time>
      </trkpt>
      <trkpt lat="43.70981" lon="3.55322">
        <ele>70.599998</ele>
        <time>2013-05-25T11:18:13Z</time>
      </trkpt>
      <trkpt lat="43.70976" lon="3.55329">
        <ele>70.400002</ele>
        <time>2013-05-25T11:18:14Z</time>
      </trkpt>
      <trkpt lat="43.70972" lon="3.55336">
        <ele>70.199997</ele>
        <time>2013-05-25T11:18:15Z</time>
      </trkpt>
      <trkpt lat="43.70968" lon="3.55344">
        <ele>70.300003</ele>
        <time>2013-05-25T11:18:16Z</time>
      </trkpt>
      <trkpt lat="43.70964" lon="3.55352">
        <ele>70.400002</ele>
        <time>2013-05-25T11:18:17Z</time>
      </trkpt>
      <trkpt lat="43.7096" lon="3.5536">
        <ele>70.5</ele>
        <time>2013-05-25T11:18:18Z</time>
      </trkpt>
      <trkpt lat="43.70956" lon="3.55368">
        <ele>70.5</ele>
        <time>2013-05-25T11:18:19Z</time>
      </trkpt>
      <trkpt lat="43.70952" lon="3.55377">
        <ele>69</ele>
        <time>2013-05-25T11:18:20Z</time>
      </trkpt>
      <trkpt lat="43.70948" lon="3.55386">
        <ele>67.900002</ele>
        <time>2013-05-25T11:18:21Z</time>
      </trkpt>
      <trkpt lat="43.70944" lon="3.55395">
        <ele>67</ele>
        <time>2013-05-25T11:18:22Z</time>
      </trkpt>
      <trkpt lat="43.70939" lon="3.55404">
        <ele>67</ele>
        <time>2013-05-25T11:18:23Z</time>
      </trkpt>
      <trkpt lat="43.70935" lon="3.55413">
        <ele>66.900002</ele>
        <time>2013-05-25T11:18:24Z</time>
      </trkpt>
      <trkpt lat="43.70931" lon="3.55423">
        <ele>66.900002</ele>
        <time>2013-05-25T11:18:25Z</time>
      </trkpt>
      <trkpt lat="43.70927" lon="3.55433">
        <ele>66.800003</ele>
        <time>2013-05-25T11:18:26Z</time>
      </trkpt>
      <trkpt lat="43.70923" lon="3.55443">
        <ele>66.599998</ele>
        <time>2013-05-25T11:18:27Z</time>
      </trkpt>
      <trkpt lat="43.70919" lon="3.55453">
        <ele>66.599998</ele>
        <time>2013-05-25T11:18:28Z</time>
      </trkpt>
      <trkpt lat="43.70916" lon="3.55463">
        <ele>66</ele>
        <time>2013-05-25T11:18:29Z</time>
      </trkpt>
      <trkpt lat="43.70912" lon="3.55474">
        <ele>65.5</ele>
        <time>2013-05-25T11:18:30Z</time>
      </trkpt>
      <trkpt lat="43.70909" lon="3.55484">
        <ele>65.199997</ele>
        <time>2013-05-25T11:18:31Z</time>
      </trkpt>
      <trkpt lat="43.70906" lon="3.55494">
        <ele>65.599998</ele>
        <time>2013-05-25T11:18:32Z</time>
      </trkpt>
      <trkpt lat="43.70903" lon="3.55504">
        <ele>65.800003</ele>
        <time>2013-05-25T11:18:33Z</time>
      </trkpt>
      <trkpt lat="43.709" lon="3.55514">
        <ele>66</ele>
        <time>2013-05-25T11:18:34Z</time>
      </trkpt>
      <trkpt lat="43.70897" lon="3.55524">
        <ele>66.199997</ele>
        <time>2013-05-25T11:18:35Z</time>
      </trkpt>
      <trkpt lat="43.70893" lon="3.55534">
        <ele>65.900002</ele>
        <time>2013-05-25T11:18:36Z</time>
      </trkpt>
      <trkpt lat="43.7089" lon="3.55543">
        <ele>65.800003</ele>
        <time>2013-05-25T11:18:37Z</time>
      </trkpt>
      <trkpt lat="43.70886" lon="3.55552">
        <ele>65.599998</ele>
        <time>2013-05-25T11:18:38Z</time>
      </trkpt>
      <trkpt lat="43.70882" lon="3.55561">
        <ele>66.400002</ele>
        <time>2013-05-25T11:18:39Z</time>
      </trkpt>
      <trkpt lat="43.70878" lon="3.55569">
        <ele>66.900002</ele>
        <time>2013-05-25T11:18:40Z</time>
      </trkpt>
      <trkpt lat="43.70873" lon="3.55577">
        <ele>67.400002</ele>
        <time>2013-05-25T11:18:41Z</time>
      </trkpt>
      <trkpt lat="43.70868" lon="3.55585">
        <ele>67.699997</ele>
        <time>2013-05-25T11:18:42Z</time>
      </trkpt>
      <trkpt lat="43.70864" lon="3.55593">
        <ele>68</ele>
        <time>2013-05-25T11:18:43Z</time>
      </trkpt>
      <trkpt lat="43.7086" lon="3.556">
        <ele>68.199997</ele>
        <time>2013-05-25T11:18:44Z</time>
      </trkpt>
      <trkpt lat="43.70855" lon="3.55607">
        <ele>68.400002</ele>
        <time>2013-05-25T11:18:45Z</time>
      </trkpt>
      <trkpt lat="43.70851" lon="3.55614">
        <ele>68.5</ele>
        <time>2013-05-25T11:18:46Z</time>
      </trkpt>
      <trkpt lat="43.70846" lon="3.5562">
        <ele>68.599998</ele>
        <time>2013-05-25T11:18:47Z</time>
      </trkpt>
      <trkpt lat="43.70841" lon="3.55626">
        <ele>68.5</ele>
        <time>2013-05-25T11:18:48Z</time>
      </trkpt>
      <trkpt lat="43.70836" lon="3.55631">
        <ele>68.400002</ele>
        <time>2013-05-25T11:18:49Z</time>
      </trkpt>
      <trkpt lat="43.70832" lon="3.55637">
        <ele>68.400002</ele>
        <time>2013-05-25T11:18:50Z</time>
      </trkpt>
      <trkpt lat="43.70827" lon="3.55642">
        <ele>69.099998</ele>
        <time>2013-05-25T11:18:51Z</time>
      </trkpt>
      <trkpt lat="43.70822" lon="3.55648">
        <ele>69.599998</ele>
        <time>2013-05-25T11:18:52Z</time>
      </trkpt>
      <trkpt lat="43.70817" lon="3.55653">
        <ele>69.900002</ele>
        <time>2013-05-25T11:18:53Z</time>
      </trkpt>
      <trkpt lat="43.70812" lon="3.55658">
        <ele>70.199997</ele>
        <time>2013-05-25T11:18:54Z</time>
      </trkpt>
      <trkpt lat="43.70807" lon="3.55663">
        <ele>69.800003</ele>
        <time>2013-05-25T11:18:55Z</time>
      </trkpt>
      <trkpt lat="43.70802" lon="3.55668">
        <ele>69.400002</ele>
        <time>2013-05-25T11:18:56Z</time>
      </trkpt>
      <trkpt lat="43.70797" lon="3.55673">
        <ele>69.099998</ele>
        <time>2013-05-25T11:18:57Z</time>
      </trkpt>
      <trkpt lat="43.70792" lon="3.55678">
        <ele>69.400002</ele>
        <time>2013-05-25T11:18:58Z</time>
      </trkpt>
      <trkpt lat="43.70787" lon="3.55682">
        <ele>69.5</ele>
        <time>2013-05-25T11:18:59Z</time>
      </trkpt>
      <trkpt lat="43.70781" lon="3.55685">
        <ele>69.699997</ele>
        <time>2013-05-25T11:19:00Z</time>
      </trkpt>
      <trkpt lat="43.70775" lon="3.55688">
        <ele>69.900002</ele>
        <time>2013-05-25T11:19:01Z</time>
      </trkpt>
      <trkpt lat="43.70769" lon="3.55688">
        <ele>70.099998</ele>
        <time>2013-05-25T11:19:02Z</time>
      </trkpt>
      <trkpt lat="43.70762" lon="3.55685">
        <ele>70.300003</ele>
        <time>2013-05-25T11:19:03Z</time>
      </trkpt>
      <trkpt lat="43.70757" lon="3.55679">
        <ele>70.400002</ele>
        <time>2013-05-25T11:19:04Z</time>
      </trkpt>
      <trkpt lat="43.70752" lon="3.55672">
        <ele>70.5</ele>
        <time>2013-05-25T11:19:05Z</time>
      </trkpt>
      <trkpt lat="43.70747" lon="3.55665">
        <ele>70.5</ele>
        <time>2013-05-25T11:19:06Z</time>
      </trkpt>
      <trkpt lat="43.70743" lon="3.55657">
        <ele>70.599998</ele>
        <time>2013-05-25T11:19:07Z</time>
      </trkpt>
      <trkpt lat="43.70739" lon="3.55649">
        <ele>70.599998</ele>
        <time>2013-05-25T11:19:08Z</time>
      </trkpt>
      <trkpt lat="43.70735" lon="3.55642">
        <ele>70.599998</ele>
        <time>2013-05-25T11:19:09Z</time>
      </trkpt>
      <trkpt lat="43.70731" lon="3.55634">
        <ele>70.599998</ele>
        <time>2013-05-25T11:19:10Z</time>
      </trkpt>
      <trkpt lat="43.70727" lon="3.55628">
        <ele>70.599998</ele>
        <time>2013-05-25T11:19:11Z</time>
      </trkpt>
      <trkpt lat="43.70722" lon="3.55621">
        <ele>70.599998</ele>
        <time>2013-05-25T11:19:12Z</time>
      </trkpt>
      <trkpt lat="43.70717" lon="3.55616">
        <ele>70.5</ele>
        <time>2013-05-25T11:19:13Z</time>
      </trkpt>
      <trkpt lat="43.70711" lon="3.55611">
        <ele>70.699997</ele>
        <time>2013-05-25T11:19:14Z</time>
      </trkpt>
      <trkpt lat="43.70706" lon="3.55606">
        <ele>70.800003</ele>
        <time>2013-05-25T11:19:15Z</time>
      </trkpt>
      <trkpt lat="43.70701" lon="3.55603">
        <ele>70.900002</ele>
        <time>2013-05-25T11:19:16Z</time>
      </trkpt>
      <trkpt lat="43.70696" lon="3.55599">
        <ele>70.800003</ele>
        <time>2013-05-25T11:19:17Z</time>
      </trkpt>
      <trkpt lat="43.70691" lon="3.55596">
        <ele>70.800003</ele>
        <time>2013-05-25T11:19:18Z</time>
      </trkpt>
      <trkpt lat="43.70686" lon="3.55592">
        <ele>70.800003</ele>
        <time>2013-05-25T11:19:19Z</time>
      </trkpt>
      <trkpt lat="43.70681" lon="3.55588">
        <ele>70.5</ele>
        <time>2013-05-25T11:19:20Z</time>
      </trkpt>
      <trkpt lat="43.70676" lon="3.55585">
        <ele>70.300003</ele>
        <time>2013-05-25T11:19:21Z</time>
      </trkpt>
      <trkpt lat="43.70672" lon="3.55582">
        <ele>70.199997</ele>
        <time>2013-05-25T11:19:22Z</time>
      </trkpt>
      <trkpt lat="43.70668" lon="3.55578">
        <ele>70.5</ele>
        <time>2013-05-25T11:19:23Z</time>
      </trkpt>
      <trkpt lat="43.70663" lon="3.55575">
        <ele>70.699997</ele>
        <time>2013-05-25T11:19:24Z</time>
      </trkpt>
      <trkpt lat="43.70659" lon="3.55572">
        <ele>70.900002</ele>
        <time>2013-05-25T11:19:25Z</time>
      </trkpt>
      <trkpt lat="43.70655" lon="3.55569">
        <ele>71</ele>
        <time>2013-05-25T11:19:26Z</time>
      </trkpt>
      <trkpt lat="43.70651" lon="3.55566">
        <ele>71.099998</ele>
        <time>2013-05-25T11:19:27Z</time>
      </trkpt>
      <trkpt lat="43.70647" lon="3.55563">
        <ele>71.199997</ele>
        <time>2013-05-25T11:19:28Z</time>
      </trkpt>
      <trkpt lat="43.70643" lon="3.55559">
        <ele>71.300003</ele>
        <time>2013-05-25T11:19:29Z</time>
      </trkpt>
      <trkpt lat="43.7064" lon="3.55556">
        <ele>71.900002</ele>
        <time>2013-05-25T11:19:30Z</time>
      </trkpt>
      <trkpt lat="43.70636" lon="3.55552">
        <ele>72.400002</ele>
        <time>2013-05-25T11:19:31Z</time>
      </trkpt>
      <trkpt lat="43.70628" lon="3.55546">
        <ele>73.199997</ele>
        <time>2013-05-25T11:19:33Z</time>
      </trkpt>
      <trkpt lat="43.7062" lon="3.55542">
        <ele>73.599998</ele>
        <time>2013-05-25T11:19:35Z</time>
      </trkpt>
      <trkpt lat="43.70613" lon="3.55539">
        <ele>74.300003</ele>
        <time>2013-05-25T11:19:37Z</time>
      </trkpt>
      <trkpt lat="43.70605" lon="3.55538">
        <ele>75.099998</ele>
        <time>2013-05-25T11:19:39Z</time>
      </trkpt>
      <trkpt lat="43.70598" lon="3.55539">
        <ele>75.699997</ele>
        <time>2013-05-25T11:19:41Z</time>
      </trkpt>
      <trkpt lat="43.70591" lon="3.55539">
        <ele>76.400002</ele>
        <time>2013-05-25T11:19:43Z</time>
      </trkpt>
      <trkpt lat="43.70583" lon="3.5554">
        <ele>77</ele>
        <time>2013-05-25T11:19:45Z</time>
      </trkpt>
      <trkpt lat="43.70576" lon="3.55541">
        <ele>77.5</ele>
        <time>2013-05-25T11:19:47Z</time>
      </trkpt>
      <trkpt lat="43.7057" lon="3.55541">
        <ele>77.800003</ele>
        <time>2013-05-25T11:19:49Z</time>
      </trkpt>
      <trkpt lat="43.70563" lon="3.55541">
        <ele>77.900002</ele>
        <time>2013-05-25T11:19:51Z</time>
      </trkpt>
      <trkpt lat="43.70557" lon="3.55541">
        <ele>78.400002</ele>
        <time>2013-05-25T11:19:53Z</time>
      </trkpt>
      <trkpt lat="43.7055" lon="3.55539">
        <ele>79.099998</ele>
        <time>2013-05-25T11:19:55Z</time>
      </trkpt>
      <trkpt lat="43.70544" lon="3.55538">
        <ele>80</ele>
        <time>2013-05-25T11:19:57Z</time>
      </trkpt>
      <trkpt lat="43.70536" lon="3.55535">
        <ele>80.699997</ele>
        <time>2013-05-25T11:20:00Z</time>
      </trkpt>
      <trkpt lat="43.70528" lon="3.55531">
        <ele>80.699997</ele>
        <time>2013-05-25T11:20:03Z</time>
      </trkpt>
      <trkpt lat="43.70521" lon="3.55525">
        <ele>81.5</ele>
        <time>2013-05-25T11:20:07Z</time>
      </trkpt>
      <trkpt lat="43.70519" lon="3.55523">
        <ele>81.599998</ele>
        <time>2013-05-25T11:20:08Z</time>
      </trkpt>
      <trkpt lat="43.70507" lon="3.55511">
        <ele>83.099998</ele>
        <time>2013-05-25T11:20:15Z</time>
      </trkpt>
      <trkpt lat="43.705" lon="3.55504">
        <ele>83.300003</ele>
        <time>2013-05-25T11:20:19Z</time>
      </trkpt>
      <trkpt lat="43.70493" lon="3.55497">
        <ele>84</ele>
        <time>2013-05-25T11:20:23Z</time>
      </trkpt>
      <trkpt lat="43.70486" lon="3.5549">
        <ele>85.400002</ele>
        <time>2013-05-25T11:20:27Z</time>
      </trkpt>
      <trkpt lat="43.7048" lon="3.55485">
        <ele>85.300003</ele>
        <time>2013-05-25T11:20:30Z</time>
      </trkpt>
      <trkpt lat="43.70474" lon="3.55479">
        <ele>84.599998</ele>
        <time>2013-05-25T11:20:33Z</time>
      </trkpt>
      <trkpt lat="43.70468" lon="3.55473">
        <ele>84.900002</ele>
        <time>2013-05-25T11:20:36Z</time>
      </trkpt>
      <trkpt lat="43.70462" lon="3.55466">
        <ele>85.300003</ele>
        <time>2013-05-25T11:20:39Z</time>
      </trkpt>
      <trkpt lat="43.70456" lon="3.55459">
        <ele>85.300003</ele>
        <time>2013-05-25T11:20:42Z</time>
      </trkpt>
      <trkpt lat="43.70449" lon="3.55453">
        <ele>87.199997</ele>
        <time>2013-05-25T11:20:45Z</time>
      </trkpt>
      <trkpt lat="43.70443" lon="3.55446">
        <ele>87.199997</ele>
        <time>2013-05-25T11:20:48Z</time>
      </trkpt>
      <trkpt lat="43.70436" lon="3.55439">
        <ele>87.900002</ele>
        <time>2013-05-25T11:20:51Z</time>
      </trkpt>
      <trkpt lat="43.7043" lon="3.55433">
        <ele>88</ele>
        <time>2013-05-25T11:20:54Z</time>
      </trkpt>
      <trkpt lat="43.70424" lon="3.55426">
        <ele>88.5</ele>
        <time>2013-05-25T11:20:57Z</time>
      </trkpt>
      <trkpt lat="43.70417" lon="3.55419">
        <ele>88.800003</ele>
        <time>2013-05-25T11:21:00Z</time>
      </trkpt>
      <trkpt lat="43.70413" lon="3.55414">
        <ele>89</ele>
        <time>2013-05-25T11:21:02Z</time>
      </trkpt>
      <trkpt lat="43.70407" lon="3.55407">
        <ele>89.300003</ele>
        <time>2013-05-25T11:21:04Z</time>
      </trkpt>
      <trkpt lat="43.70402" lon="3.55401">
        <ele>89.300003</ele>
        <time>2013-05-25T11:21:06Z</time>
      </trkpt>
      <trkpt lat="43.70396" lon="3.55395">
        <ele>89.199997</ele>
        <time>2013-05-25T11:21:08Z</time>
      </trkpt>
      <trkpt lat="43.70393" lon="3.55392">
        <ele>89.400002</ele>
        <time>2013-05-25T11:21:09Z</time>
      </trkpt>
      <trkpt lat="43.70384" lon="3.55382">
        <ele>90.199997</ele>
        <time>2013-05-25T11:21:12Z</time>
      </trkpt>
      <trkpt lat="43.70377" lon="3.55375">
        <ele>90.699997</ele>
        <time>2013-05-25T11:21:14Z</time>
      </trkpt>
      <trkpt lat="43.7037" lon="3.55368">
        <ele>91.599998</ele>
        <time>2013-05-25T11:21:16Z</time>
      </trkpt>
      <trkpt lat="43.70363" lon="3.55361">
        <ele>92.300003</ele>
        <time>2013-05-25T11:21:18Z</time>
      </trkpt>
      <trkpt lat="43.70359" lon="3.55358">
        <ele>92.699997</ele>
        <time>2013-05-25T11:21:19Z</time>
      </trkpt>
      <trkpt lat="43.70355" lon="3.55354">
        <ele>93</ele>
        <time>2013-05-25T11:21:20Z</time>
      </trkpt>
      <trkpt lat="43.70351" lon="3.55351">
        <ele>93.199997</ele>
        <time>2013-05-25T11:21:21Z</time>
      </trkpt>
      <trkpt lat="43.70347" lon="3.55347">
        <ele>93.400002</ele>
        <time>2013-05-25T11:21:22Z</time>
      </trkpt>
      <trkpt lat="43.70343" lon="3.55345">
        <ele>93.599998</ele>
        <time>2013-05-25T11:21:23Z</time>
      </trkpt>
      <trkpt lat="43.70339" lon="3.55342">
        <ele>93.699997</ele>
        <time>2013-05-25T11:21:24Z</time>
      </trkpt>
      <trkpt lat="43.70335" lon="3.55339">
        <ele>93.5</ele>
        <time>2013-05-25T11:21:25Z</time>
      </trkpt>
      <trkpt lat="43.70331" lon="3.55336">
        <ele>93.400002</ele>
        <time>2013-05-25T11:21:26Z</time>
      </trkpt>
      <trkpt lat="43.70327" lon="3.55333">
        <ele>93.300003</ele>
        <time>2013-05-25T11:21:27Z</time>
      </trkpt>
      <trkpt lat="43.70323" lon="3.5533">
        <ele>93.099998</ele>
        <time>2013-05-25T11:21:28Z</time>
      </trkpt>
      <trkpt lat="43.70319" lon="3.55327">
        <ele>92.900002</ele>
        <time>2013-05-25T11:21:29Z</time>
      </trkpt>
      <trkpt lat="43.70315" lon="3.55324">
        <ele>92.699997</ele>
        <time>2013-05-25T11:21:30Z</time>
      </trkpt>
      <trkpt lat="43.7031" lon="3.55321">
        <ele>92.5</ele>
        <time>2013-05-25T11:21:31Z</time>
      </trkpt>
      <trkpt lat="43.70306" lon="3.55318">
        <ele>92.300003</ele>
        <time>2013-05-25T11:21:32Z</time>
      </trkpt>
      <trkpt lat="43.70302" lon="3.55315">
        <ele>92.199997</ele>
        <time>2013-05-25T11:21:33Z</time>
      </trkpt>
      <trkpt lat="43.70298" lon="3.55312">
        <ele>92.599998</ele>
        <time>2013-05-25T11:21:34Z</time>
      </trkpt>
      <trkpt lat="43.70294" lon="3.55309">
        <ele>92.900002</ele>
        <time>2013-05-25T11:21:35Z</time>
      </trkpt>
      <trkpt lat="43.7029" lon="3.55306">
        <ele>93.099998</ele>
        <time>2013-05-25T11:21:36Z</time>
      </trkpt>
      <trkpt lat="43.70286" lon="3.55302">
        <ele>93.400002</ele>
        <time>2013-05-25T11:21:37Z</time>
      </trkpt>
      <trkpt lat="43.70282" lon="3.553">
        <ele>93.699997</ele>
        <time>2013-05-25T11:21:38Z</time>
      </trkpt>
      <trkpt lat="43.70274" lon="3.55294">
        <ele>94</ele>
        <time>2013-05-25T11:21:40Z</time>
      </trkpt>
      <trkpt lat="43.70266" lon="3.55288">
        <ele>94.300003</ele>
        <time>2013-05-25T11:21:42Z</time>
      </trkpt>
      <trkpt lat="43.7026" lon="3.55284">
        <ele>94.599998</ele>
        <time>2013-05-25T11:21:44Z</time>
      </trkpt>
      <trkpt lat="43.70254" lon="3.55279">
        <ele>94.800003</ele>
        <time>2013-05-25T11:21:46Z</time>
      </trkpt>
      <trkpt lat="43.70248" lon="3.55275">
        <ele>95.099998</ele>
        <time>2013-05-25T11:21:48Z</time>
      </trkpt>
      <trkpt lat="43.70242" lon="3.55271">
        <ele>95.400002</ele>
        <time>2013-05-25T11:21:50Z</time>
      </trkpt>
      <trkpt lat="43.70237" lon="3.55264">
        <ele>95.800003</ele>
        <time>2013-05-25T11:21:52Z</time>
      </trkpt>
      <trkpt lat="43.70234" lon="3.55256">
        <ele>95.400002</ele>
        <time>2013-05-25T11:21:54Z</time>
      </trkpt>
      <trkpt lat="43.70232" lon="3.55247">
        <ele>95.199997</ele>
        <time>2013-05-25T11:21:56Z</time>
      </trkpt>
      <trkpt lat="43.70231" lon="3.55235">
        <ele>96.800003</ele>
        <time>2013-05-25T11:21:59Z</time>
      </trkpt>
      <trkpt lat="43.7023" lon="3.55223">
        <ele>96.599998</ele>
        <time>2013-05-25T11:22:02Z</time>
      </trkpt>
      <trkpt lat="43.70228" lon="3.55214">
        <ele>96.900002</ele>
        <time>2013-05-25T11:22:04Z</time>
      </trkpt>
      <trkpt lat="43.70227" lon="3.55203">
        <ele>97.900002</ele>
        <time>2013-05-25T11:22:07Z</time>
      </trkpt>
      <trkpt lat="43.70225" lon="3.55193">
        <ele>98.800003</ele>
        <time>2013-05-25T11:22:10Z</time>
      </trkpt>
      <trkpt lat="43.70224" lon="3.5519">
        <ele>99</ele>
        <time>2013-05-25T11:22:11Z</time>
      </trkpt>
      <trkpt lat="43.7022" lon="3.55173">
        <ele>99.599998</ele>
        <time>2013-05-25T11:22:16Z</time>
      </trkpt>
      <trkpt lat="43.70217" lon="3.55165">
        <ele>100</ele>
        <time>2013-05-25T11:22:18Z</time>
      </trkpt>
      <trkpt lat="43.70214" lon="3.55158">
        <ele>100.699997</ele>
        <time>2013-05-25T11:22:20Z</time>
      </trkpt>
      <trkpt lat="43.70212" lon="3.5515">
        <ele>100.699997</ele>
        <time>2013-05-25T11:22:22Z</time>
      </trkpt>
      <trkpt lat="43.70208" lon="3.55143">
        <ele>100.300003</ele>
        <time>2013-05-25T11:22:24Z</time>
      </trkpt>
      <trkpt lat="43.70205" lon="3.55135">
        <ele>100.400002</ele>
        <time>2013-05-25T11:22:26Z</time>
      </trkpt>
      <trkpt lat="43.70202" lon="3.55127">
        <ele>100.5</ele>
        <time>2013-05-25T11:22:28Z</time>
      </trkpt>
      <trkpt lat="43.70198" lon="3.55119">
        <ele>101.599998</ele>
        <time>2013-05-25T11:22:30Z</time>
      </trkpt>
      <trkpt lat="43.70194" lon="3.55109">
        <ele>102.5</ele>
        <time>2013-05-25T11:22:33Z</time>
      </trkpt>
      <trkpt lat="43.70192" lon="3.55103">
        <ele>102.900002</ele>
        <time>2013-05-25T11:22:35Z</time>
      </trkpt>
      <trkpt lat="43.70188" lon="3.55095">
        <ele>103.099998</ele>
        <time>2013-05-25T11:22:37Z</time>
      </trkpt>
      <trkpt lat="43.70185" lon="3.55084">
        <ele>102.699997</ele>
        <time>2013-05-25T11:22:40Z</time>
      </trkpt>
      <trkpt lat="43.70181" lon="3.55076">
        <ele>103.400002</ele>
        <time>2013-05-25T11:22:42Z</time>
      </trkpt>
      <trkpt lat="43.70177" lon="3.55067">
        <ele>103.800003</ele>
        <time>2013-05-25T11:22:44Z</time>
      </trkpt>
      <trkpt lat="43.70174" lon="3.55059">
        <ele>104.199997</ele>
        <time>2013-05-25T11:22:46Z</time>
      </trkpt>
      <trkpt lat="43.7017" lon="3.55051">
        <ele>104.099998</ele>
        <time>2013-05-25T11:22:48Z</time>
      </trkpt>
      <trkpt lat="43.70166" lon="3.55043">
        <ele>103.800003</ele>
        <time>2013-05-25T11:22:50Z</time>
      </trkpt>
      <trkpt lat="43.70163" lon="3.55034">
        <ele>103.300003</ele>
        <time>2013-05-25T11:22:52Z</time>
      </trkpt>
      <trkpt lat="43.70161" lon="3.55026">
        <ele>103.599998</ele>
        <time>2013-05-25T11:22:54Z</time>
      </trkpt>
      <trkpt lat="43.70158" lon="3.55016">
        <ele>104.199997</ele>
        <time>2013-05-25T11:22:56Z</time>
      </trkpt>
      <trkpt lat="43.70155" lon="3.55006">
        <ele>104.800003</ele>
        <time>2013-05-25T11:22:58Z</time>
      </trkpt>
      <trkpt lat="43.70153" lon="3.54996">
        <ele>105.099998</ele>
        <time>2013-05-25T11:23:00Z</time>
      </trkpt>
      <trkpt lat="43.70151" lon="3.54986">
        <ele>105.599998</ele>
        <time>2013-05-25T11:23:02Z</time>
      </trkpt>
      <trkpt lat="43.70151" lon="3.54976">
        <ele>105.800003</ele>
        <time>2013-05-25T11:23:04Z</time>
      </trkpt>
      <trkpt lat="43.7015" lon="3.54967">
        <ele>105.900002</ele>
        <time>2013-05-25T11:23:06Z</time>
      </trkpt>
      <trkpt lat="43.70149" lon="3.54958">
        <ele>105.199997</ele>
        <time>2013-05-25T11:23:08Z</time>
      </trkpt>
      <trkpt lat="43.70147" lon="3.54948">
        <ele>105.300003</ele>
        <time>2013-05-25T11:23:10Z</time>
      </trkpt>
      <trkpt lat="43.70145" lon="3.54936">
        <ele>105.699997</ele>
        <time>2013-05-25T11:23:13Z</time>
      </trkpt>
      <trkpt lat="43.70144" lon="3.54932">
        <ele>105.699997</ele>
        <time>2013-05-25T11:23:14Z</time>
      </trkpt>
      <trkpt lat="43.7014" lon="3.54913">
        <ele>106.099998</ele>
        <time>2013-05-25T11:23:19Z</time>
      </trkpt>
      <trkpt lat="43.70137" lon="3.54908">
        <ele>106.300003</ele>
        <time>2013-05-25T11:23:21Z</time>
      </trkpt>
      <trkpt lat="43.7013" lon="3.54903">
        <ele>106.5</ele>
        <time>2013-05-25T11:23:23Z</time>
      </trkpt>
      <trkpt lat="43.70123" lon="3.54899">
        <ele>105.800003</ele>
        <time>2013-05-25T11:23:26Z</time>
      </trkpt>
      <trkpt lat="43.70116" lon="3.54895">
        <ele>105</ele>
        <time>2013-05-25T11:23:29Z</time>
      </trkpt>
      <trkpt lat="43.70109" lon="3.54891">
        <ele>106</ele>
        <time>2013-05-25T11:23:33Z</time>
      </trkpt>
      <trkpt lat="43.701" lon="3.5489">
        <ele>104.800003</ele>
        <time>2013-05-25T11:26:34Z</time>
      </trkpt>
    </trkseg>
  </trk>
</gpx>